<?xml version='1.0' encoding='UTF-8'?><gpx version="1.1" creator="JPX - https://github.com/jenetics/jpx" xmlns="http://www.topografix.com/GPX/1/1"><trk><trkseg><trkpt lat="43.47384447446606" lon="12.264223945457424"><ele>338.0</ele><time>2026-04-26T07:26:29.999Z</time></trkpt><trkpt lat="43.47392285208176" lon="12.264162352905183"><ele>338.0</ele><time>2026-04-26T07:26:31.999Z</time></trkpt><trkpt lat="43.47398936660702" lon="12.264100045110906"><ele>338.0</ele><time>2026-04-26T07:26:33.999Z</time></trkpt><trkpt lat="43.47407656715585" lon="12.264009660576006"><ele>338.0</ele><time>2026-04-26T07:26:35.999Z</time></trkpt><trkpt lat="43.47412590441278" lon="12.263954161430654"><ele>338.0</ele><time>2026-04-26T07:26:36.999Z</time></trkpt><trkpt lat="43.47421762027341" lon="12.26388461388156"><ele>338.0</ele><time>2026-04-26T07:26:38.999Z</time></trkpt><trkpt lat="43.47430606164501" lon="12.263774137911138"><ele>337.6666666666667</ele><time>2026-04-26T07:26:40.999Z</time></trkpt><trkpt lat="43.47437679438671" lon="12.263724670852227"><ele>337.33333333333337</ele><time>2026-04-26T07:26:41.999Z</time></trkpt><trkpt lat="43.47442662610071" lon="12.263655168896388"><ele>337.0</ele><time>2026-04-26T07:26:42.999Z</time></trkpt><trkpt lat="43.47448172751458" lon="12.263592604222247"><ele>336.6666666666667</ele><time>2026-04-26T07:26:43.999Z</time></trkpt><trkpt lat="43.474532924834705" lon="12.263541712998547"><ele>336.3333333333333</ele><time>2026-04-26T07:26:44.999Z</time></trkpt><trkpt lat="43.47462191666931" lon="12.263448921155442"><ele>336.0</ele><time>2026-04-26T07:26:46.999Z</time></trkpt><trkpt lat="43.474702081501825" lon="12.263390385667604"><ele>335.6666666666667</ele><time>2026-04-26T07:26:49Z</time></trkpt><trkpt lat="43.474760317082556" lon="12.263333360303898"><ele>335.3333333333333</ele><time>2026-04-26T07:26:52Z</time></trkpt><trkpt lat="43.474813478685064" lon="12.263283704023253"><ele>335.0</ele><time>2026-04-26T07:26:57Z</time></trkpt><trkpt lat="43.474798640876465" lon="12.263158266335065"><ele>334.66666666666663</ele><time>2026-04-26T07:26:58Z</time></trkpt><trkpt lat="43.47478018446116" lon="12.263068309116392"><ele>334.3333333333333</ele><time>2026-04-26T07:26:59Z</time></trkpt><trkpt lat="43.474744686454464" lon="12.262984643787954"><ele>334.0</ele><time>2026-04-26T07:27:00Z</time></trkpt><trkpt lat="43.474688462006654" lon="12.26289622141879"><ele>334.0</ele><time>2026-04-26T07:27:01Z</time></trkpt><trkpt lat="43.47462298852052" lon="12.262801605393365"><ele>334.0</ele><time>2026-04-26T07:27:02Z</time></trkpt><trkpt lat="43.47454762446921" lon="12.262708193225407"><ele>334.0</ele><time>2026-04-26T07:27:03Z</time></trkpt><trkpt lat="43.47447640368083" lon="12.262609887003322"><ele>334.0</ele><time>2026-04-26T07:27:04Z</time></trkpt><trkpt lat="43.47440083357551" lon="12.262513676706352"><ele>334.0</ele><time>2026-04-26T07:27:05Z</time></trkpt><trkpt lat="43.47431856901783" lon="12.262415802823451"><ele>333.75</ele><time>2026-04-26T07:27:06Z</time></trkpt><trkpt lat="43.47424245367072" lon="12.262309217207333"><ele>333.5</ele><time>2026-04-26T07:27:07Z</time></trkpt><trkpt lat="43.47416561070253" lon="12.262201005002776"><ele>333.25</ele><time>2026-04-26T07:27:08Z</time></trkpt><trkpt lat="43.474083011359085" lon="12.262089765611876"><ele>333.0</ele><time>2026-04-26T07:27:09Z</time></trkpt><trkpt lat="43.473996719447186" lon="12.261974044648845"><ele>332.0</ele><time>2026-04-26T07:27:10Z</time></trkpt><trkpt lat="43.47391117436256" lon="12.261859035862233"><ele>331.0</ele><time>2026-04-26T07:27:11Z</time></trkpt><trkpt lat="43.47382878998235" lon="12.261747681471721"><ele>330.0</ele><time>2026-04-26T07:27:12Z</time></trkpt><trkpt lat="43.47374630712199" lon="12.261633040691693"><ele>329.0</ele><time>2026-04-26T07:27:13Z</time></trkpt><trkpt lat="43.47365932336615" lon="12.261515264323414"><ele>327.5</ele><time>2026-04-26T07:27:14Z</time></trkpt><trkpt lat="43.473570918247184" lon="12.261396119925484"><ele>326.0</ele><time>2026-04-26T07:27:15Z</time></trkpt><trkpt lat="43.473484092640994" lon="12.261275992672497"><ele>324.5</ele><time>2026-04-26T07:27:16Z</time></trkpt><trkpt lat="43.47339723374214" lon="12.261152192608627"><ele>323.0</ele><time>2026-04-26T07:27:17Z</time></trkpt><trkpt lat="43.47330565373496" lon="12.261033000077134"><ele>323.0</ele><time>2026-04-26T07:27:18Z</time></trkpt><trkpt lat="43.47321712877849" lon="12.260916481315823"><ele>323.0</ele><time>2026-04-26T07:27:19Z</time></trkpt><trkpt lat="43.473131439884796" lon="12.26080148171984"><ele>323.0</ele><time>2026-04-26T07:27:20Z</time></trkpt><trkpt lat="43.473046201867525" lon="12.260683773007388"><ele>323.0</ele><time>2026-04-26T07:27:21Z</time></trkpt><trkpt lat="43.472960138092766" lon="12.260567477141414"><ele>322.25</ele><time>2026-04-26T07:27:22Z</time></trkpt><trkpt lat="43.472875157258535" lon="12.260453366041014"><ele>321.5</ele><time>2026-04-26T07:27:23Z</time></trkpt><trkpt lat="43.472790735734414" lon="12.260335537529155"><ele>320.75</ele><time>2026-04-26T07:27:24Z</time></trkpt><trkpt lat="43.472704327003704" lon="12.260219859335528"><ele>320.0</ele><time>2026-04-26T07:27:25Z</time></trkpt><trkpt lat="43.47261730076423" lon="12.260108118168162"><ele>320.0</ele><time>2026-04-26T07:27:26Z</time></trkpt><trkpt lat="43.47253317802191" lon="12.260004662850442"><ele>320.0</ele><time>2026-04-26T07:27:27Z</time></trkpt><trkpt lat="43.47245744852968" lon="12.259902262256254"><ele>320.0</ele><time>2026-04-26T07:27:28Z</time></trkpt><trkpt lat="43.47238793432002" lon="12.259799687047238"><ele>320.0</ele><time>2026-04-26T07:27:29Z</time></trkpt><trkpt lat="43.4723199535042" lon="12.259704025969418"><ele>320.0</ele><time>2026-04-26T07:27:30Z</time></trkpt><trkpt lat="43.4722506186951" lon="12.259614456986444"><ele>320.1666666666667</ele><time>2026-04-26T07:27:31Z</time></trkpt><trkpt lat="43.47219937108355" lon="12.259513529693182"><ele>320.33333333333337</ele><time>2026-04-26T07:27:32Z</time></trkpt><trkpt lat="43.472144243600034" lon="12.259434213127332"><ele>320.5</ele><time>2026-04-26T07:27:33Z</time></trkpt><trkpt lat="43.47209199785154" lon="12.259356919816367"><ele>320.6666666666667</ele><time>2026-04-26T07:27:34Z</time></trkpt><trkpt lat="43.472046210409836" lon="12.259289318732176"><ele>320.8333333333333</ele><time>2026-04-26T07:27:35Z</time></trkpt><trkpt lat="43.47198984587758" lon="12.25920610175226"><ele>321.0</ele><time>2026-04-26T07:27:37Z</time></trkpt><trkpt lat="43.47194655839979" lon="12.2591421918332"><ele>319.8</ele><time>2026-04-26T07:27:40Z</time></trkpt><trkpt lat="43.47189551425133" lon="12.259037791855649"><ele>318.6</ele><time>2026-04-26T07:27:44Z</time></trkpt><trkpt lat="43.471851689112206" lon="12.258950995074583"><ele>317.4</ele><time>2026-04-26T07:27:46Z</time></trkpt><trkpt lat="43.47179668776728" lon="12.258824803276587"><ele>316.2</ele><time>2026-04-26T07:27:48Z</time></trkpt><trkpt lat="43.471764809172704" lon="12.258743508825823"><ele>315.0</ele><time>2026-04-26T07:27:49Z</time></trkpt><trkpt lat="43.47171659969663" lon="12.25860731369333"><ele>314.5</ele><time>2026-04-26T07:27:51Z</time></trkpt><trkpt lat="43.471660742585975" lon="12.258419411023338"><ele>314.0</ele><time>2026-04-26T07:27:53Z</time></trkpt><trkpt lat="43.47163784740037" lon="12.25832645570961"><ele>313.5</ele><time>2026-04-26T07:27:54Z</time></trkpt><trkpt lat="43.47160899410905" lon="12.258217331340148"><ele>313.0</ele><time>2026-04-26T07:27:55Z</time></trkpt><trkpt lat="43.47159062778217" lon="12.258119263855582"><ele>312.5</ele><time>2026-04-26T07:27:56Z</time></trkpt><trkpt lat="43.47156363479024" lon="12.258034529633699"><ele>312.0</ele><time>2026-04-26T07:27:57Z</time></trkpt><trkpt lat="43.4715293286102" lon="12.257927823102687"><ele>311.25</ele><time>2026-04-26T07:27:58Z</time></trkpt><trkpt lat="43.47149576148861" lon="12.257832858174895"><ele>310.5</ele><time>2026-04-26T07:27:59Z</time></trkpt><trkpt lat="43.47145696571921" lon="12.257721234923784"><ele>309.75</ele><time>2026-04-26T07:28:00Z</time></trkpt><trkpt lat="43.4714173133834" lon="12.257619912167746"><ele>309.0</ele><time>2026-04-26T07:28:01Z</time></trkpt><trkpt lat="43.47081698241559" lon="12.25768972559727"><ele>309.0</ele><time>2026-04-26T07:28:02Z</time></trkpt><trkpt lat="43.4707361741132" lon="12.257587748896931"><ele>309.0</ele><time>2026-04-26T07:28:03Z</time></trkpt><trkpt lat="43.470658208328636" lon="12.257488297217282"><ele>309.0</ele><time>2026-04-26T07:28:04Z</time></trkpt><trkpt lat="43.47058004628709" lon="12.257386705218147"><ele>309.0</ele><time>2026-04-26T07:28:04.999Z</time></trkpt><trkpt lat="43.47050284710746" lon="12.257276946805954"><ele>309.0</ele><time>2026-04-26T07:28:05.999Z</time></trkpt><trkpt lat="43.470427885610675" lon="12.257168283790953"><ele>308.59999999999997</ele><time>2026-04-26T07:28:06.999Z</time></trkpt><trkpt lat="43.470357036952045" lon="12.257059854144346"><ele>308.2</ele><time>2026-04-26T07:28:07.999Z</time></trkpt><trkpt lat="43.47028487869528" lon="12.256961002011211"><ele>307.79999999999995</ele><time>2026-04-26T07:28:08.999Z</time></trkpt><trkpt lat="43.47021893210462" lon="12.256871039144485"><ele>307.4</ele><time>2026-04-26T07:28:09.999Z</time></trkpt><trkpt lat="43.47016136916394" lon="12.256797076225647"><ele>307.0</ele><time>2026-04-26T07:28:10.999Z</time></trkpt><trkpt lat="43.470111525076724" lon="12.256728473733354"><ele>307.0</ele><time>2026-04-26T07:28:11.999Z</time></trkpt><trkpt lat="43.470052232138954" lon="12.25658689729717"><ele>307.0</ele><time>2026-04-26T07:28:13.999Z</time></trkpt><trkpt lat="43.47003033371953" lon="12.256422212646289"><ele>307.0</ele><time>2026-04-26T07:28:15.999Z</time></trkpt><trkpt lat="43.469927032448275" lon="12.256341479241511"><ele>307.0</ele><time>2026-04-26T07:28:17.999Z</time></trkpt><trkpt lat="43.4698571010457" lon="12.256373367549102"><ele>307.0</ele><time>2026-04-26T07:28:18.999Z</time></trkpt><trkpt lat="43.46979167659438" lon="12.256451781935754"><ele>307.0</ele><time>2026-04-26T07:28:19.999Z</time></trkpt><trkpt lat="43.46972674264697" lon="12.256537629153552"><ele>307.0</ele><time>2026-04-26T07:28:20.999Z</time></trkpt><trkpt lat="43.469647549374315" lon="12.256594707337705"><ele>307.0</ele><time>2026-04-26T07:28:21.999Z</time></trkpt><trkpt lat="43.469562229054574" lon="12.25664602106713"><ele>307.0</ele><time>2026-04-26T07:28:22.999Z</time></trkpt><trkpt lat="43.46948025687633" lon="12.256689220379643"><ele>307.0</ele><time>2026-04-26T07:28:23.999Z</time></trkpt><trkpt lat="43.469389245036744" lon="12.256735339800185"><ele>306.8</ele><time>2026-04-26T07:28:24.999Z</time></trkpt><trkpt lat="43.46929626909184" lon="12.2567954922097"><ele>306.6</ele><time>2026-04-26T07:28:25.999Z</time></trkpt><trkpt lat="43.4692004492541" lon="12.256864587267655"><ele>306.40000000000003</ele><time>2026-04-26T07:28:26.999Z</time></trkpt><trkpt lat="43.46910071059754" lon="12.256934585316232"><ele>306.2</ele><time>2026-04-26T07:28:27.999Z</time></trkpt><trkpt lat="43.46899680230484" lon="12.257013832911538"><ele>306.0</ele><time>2026-04-26T07:28:28.999Z</time></trkpt><trkpt lat="43.46889204987764" lon="12.257097403844528"><ele>306.0</ele><time>2026-04-26T07:28:29.999Z</time></trkpt><trkpt lat="43.46878373194194" lon="12.25718245377925"><ele>306.0</ele><time>2026-04-26T07:28:30.999Z</time></trkpt><trkpt lat="43.46867641703115" lon="12.257259541926112"><ele>306.0</ele><time>2026-04-26T07:28:31.999Z</time></trkpt><trkpt lat="43.46856873976505" lon="12.257336544876704"><ele>306.0</ele><time>2026-04-26T07:28:32.999Z</time></trkpt><trkpt lat="43.46846308163301" lon="12.25742180762361"><ele>306.40000000000003</ele><time>2026-04-26T07:28:33.999Z</time></trkpt><trkpt lat="43.468359761485786" lon="12.257504059988067"><ele>306.8</ele><time>2026-04-26T07:28:34.999Z</time></trkpt><trkpt lat="43.46826629849272" lon="12.257577684679505"><ele>307.20000000000005</ele><time>2026-04-26T07:28:35.999Z</time></trkpt><trkpt lat="43.46817631293849" lon="12.257650881514541"><ele>307.6</ele><time>2026-04-26T07:28:36.999Z</time></trkpt><trkpt lat="43.468087618968035" lon="12.257724965803149"><ele>308.0</ele><time>2026-04-26T07:28:37.999Z</time></trkpt><trkpt lat="43.4679988389234" lon="12.257800855810233"><ele>308.0</ele><time>2026-04-26T07:28:38.999Z</time></trkpt><trkpt lat="43.46790633180843" lon="12.25787189040702"><ele>308.0</ele><time>2026-04-26T07:28:39.999Z</time></trkpt><trkpt lat="43.467803771512024" lon="12.257934226079055"><ele>308.0</ele><time>2026-04-26T07:28:40.999Z</time></trkpt><trkpt lat="43.46769469934683" lon="12.257986262571455"><ele>308.0</ele><time>2026-04-26T07:28:41.999Z</time></trkpt><trkpt lat="43.467583044919856" lon="12.258029858317606"><ele>308.0</ele><time>2026-04-26T07:28:42.999Z</time></trkpt><trkpt lat="43.467472190215" lon="12.258078506714998"><ele>308.2</ele><time>2026-04-26T07:28:43.999Z</time></trkpt><trkpt lat="43.46736347546624" lon="12.258130823206136"><ele>308.4</ele><time>2026-04-26T07:28:44.999Z</time></trkpt><trkpt lat="43.4672638435594" lon="12.258176878049527"><ele>308.59999999999997</ele><time>2026-04-26T07:28:45.999Z</time></trkpt><trkpt lat="43.467167398493785" lon="12.258206478183574"><ele>308.8</ele><time>2026-04-26T07:28:46.999Z</time></trkpt><trkpt lat="43.46707825631923" lon="12.258221276407205"><ele>309.0</ele><time>2026-04-26T07:28:47.999Z</time></trkpt><trkpt lat="43.4670023715558" lon="12.25823613960373"><ele>309.0</ele><time>2026-04-26T07:28:48.999Z</time></trkpt><trkpt lat="43.46693914636515" lon="12.258263837584932"><ele>309.0</ele><time>2026-04-26T07:28:49.999Z</time></trkpt><trkpt lat="43.46688289447428" lon="12.258419158763902"><ele>309.0</ele><time>2026-04-26T07:28:51.999Z</time></trkpt><trkpt lat="43.46689687485681" lon="12.25851874147936"><ele>309.0</ele><time>2026-04-26T07:28:52.999Z</time></trkpt><trkpt lat="43.466942876018" lon="12.258591399029106"><ele>309.0</ele><time>2026-04-26T07:28:53.998Z</time></trkpt><trkpt lat="43.46702416661169" lon="12.258738269446981"><ele>309.0</ele><time>2026-04-26T07:28:55.998Z</time></trkpt><trkpt lat="43.46706690362725" lon="12.258832272991713"><ele>309.0</ele><time>2026-04-26T07:28:56.998Z</time></trkpt><trkpt lat="43.467108293919075" lon="12.258938198902431"><ele>309.0</ele><time>2026-04-26T07:28:57.998Z</time></trkpt><trkpt lat="43.467130945521866" lon="12.2590462902341"><ele>309.0</ele><time>2026-04-26T07:28:58.998Z</time></trkpt><trkpt lat="43.46712139564756" lon="12.259156047898072"><ele>309.0</ele><time>2026-04-26T07:28:59.998Z</time></trkpt><trkpt lat="43.46709140709219" lon="12.259265223213879"><ele>309.0</ele><time>2026-04-26T07:29:00.998Z</time></trkpt><trkpt lat="43.467050921524" lon="12.25937612083748"><ele>309.2</ele><time>2026-04-26T07:29:01.998Z</time></trkpt><trkpt lat="43.46700287573698" lon="12.259484948265436"><ele>309.4</ele><time>2026-04-26T07:29:02.998Z</time></trkpt><trkpt lat="43.466955417635916" lon="12.259593943199514"><ele>309.6</ele><time>2026-04-26T07:29:03.998Z</time></trkpt><trkpt lat="43.466913428143386" lon="12.259705317672541"><ele>309.8</ele><time>2026-04-26T07:29:04.998Z</time></trkpt><trkpt lat="43.466871192008" lon="12.2598199926519"><ele>310.0</ele><time>2026-04-26T07:29:05.998Z</time></trkpt><trkpt lat="43.46683154955938" lon="12.259930023145266"><ele>310.4</ele><time>2026-04-26T07:29:06.998Z</time></trkpt><trkpt lat="43.466790231100134" lon="12.260048621702072"><ele>310.8</ele><time>2026-04-26T07:29:07.998Z</time></trkpt><trkpt lat="43.46674927906841" lon="12.260173893731507"><ele>311.2</ele><time>2026-04-26T07:29:08.998Z</time></trkpt><trkpt lat="43.46671370470279" lon="12.26028168459268"><ele>311.6</ele><time>2026-04-26T07:29:09.998Z</time></trkpt><trkpt lat="43.46667812936723" lon="12.260392003403132"><ele>312.0</ele><time>2026-04-26T07:29:10.998Z</time></trkpt><trkpt lat="43.46664401771067" lon="12.260495093572917"><ele>312.0</ele><time>2026-04-26T07:29:11.998Z</time></trkpt><trkpt lat="43.46660701269801" lon="12.260602811690989"><ele>312.0</ele><time>2026-04-26T07:29:12.998Z</time></trkpt><trkpt lat="43.46658051646415" lon="12.260713523654449"><ele>312.0</ele><time>2026-04-26T07:29:13.999Z</time></trkpt><trkpt lat="43.466567993109656" lon="12.260831051605201"><ele>312.0</ele><time>2026-04-26T07:29:14.999Z</time></trkpt><trkpt lat="43.4665781435993" lon="12.260950072263771"><ele>312.0</ele><time>2026-04-26T07:29:15.999Z</time></trkpt><trkpt lat="43.466601702062796" lon="12.261075654602433"><ele>312.0</ele><time>2026-04-26T07:29:16.999Z</time></trkpt><trkpt lat="43.466627141628344" lon="12.261188647345126"><ele>312.6666666666667</ele><time>2026-04-26T07:29:17.999Z</time></trkpt><trkpt lat="43.466653265436975" lon="12.261312890930462"><ele>313.3333333333333</ele><time>2026-04-26T07:29:18.999Z</time></trkpt><trkpt lat="43.466675565566845" lon="12.26143390006289"><ele>314.0</ele><time>2026-04-26T07:29:19.999Z</time></trkpt><trkpt lat="43.466693086864474" lon="12.261557428762465"><ele>314.66666666666663</ele><time>2026-04-26T07:29:20.999Z</time></trkpt><trkpt lat="43.466708942600114" lon="12.261675031093528"><ele>315.3333333333333</ele><time>2026-04-26T07:29:21.999Z</time></trkpt><trkpt lat="43.46672315579193" lon="12.26179068139678"><ele>316.0</ele><time>2026-04-26T07:29:22.999Z</time></trkpt><trkpt lat="43.46674530812348" lon="12.26190637395972"><ele>317.0</ele><time>2026-04-26T07:29:23.999Z</time></trkpt><trkpt lat="43.466781453952144" lon="12.2619984025872"><ele>318.0</ele><time>2026-04-26T07:29:24.999Z</time></trkpt><trkpt lat="43.466826605184835" lon="12.262081812141137"><ele>319.0</ele><time>2026-04-26T07:29:25.999Z</time></trkpt><trkpt lat="43.466866461819954" lon="12.262161181945796"><ele>320.0</ele><time>2026-04-26T07:29:26.999Z</time></trkpt><trkpt lat="43.46689751049216" lon="12.262289190699894"><ele>321.0</ele><time>2026-04-26T07:29:28.999Z</time></trkpt><trkpt lat="43.466860358210354" lon="12.262414772428228"><ele>322.0</ele><time>2026-04-26T07:29:30.999Z</time></trkpt><trkpt lat="43.46675612410638" lon="12.262485432577929"><ele>323.66666666666663</ele><time>2026-04-26T07:29:32.999Z</time></trkpt><trkpt lat="43.46666295890658" lon="12.262591756067035"><ele>325.3333333333333</ele><time>2026-04-26T07:29:34.999Z</time></trkpt><trkpt lat="43.466599885533626" lon="12.262732721355984"><ele>327.0</ele><time>2026-04-26T07:29:36.999Z</time></trkpt><trkpt lat="43.46656745903819" lon="12.26280742200547"><ele>328.6666666666667</ele><time>2026-04-26T07:29:37.999Z</time></trkpt><trkpt lat="43.46653878621925" lon="12.26288727302002"><ele>330.33333333333337</ele><time>2026-04-26T07:29:38.999Z</time></trkpt><trkpt lat="43.46651167782177" lon="12.262967624866278"><ele>332.0</ele><time>2026-04-26T07:29:39.999Z</time></trkpt><trkpt lat="43.466481141408345" lon="12.263046507121812"><ele>333.83333333333337</ele><time>2026-04-26T07:29:40.999Z</time></trkpt><trkpt lat="43.46642602564955" lon="12.263188325574527"><ele>335.6666666666667</ele><time>2026-04-26T07:29:42.999Z</time></trkpt><trkpt lat="43.46640105304889" lon="12.263270378865693"><ele>337.5</ele><time>2026-04-26T07:29:43.999Z</time></trkpt><trkpt lat="43.466375600816576" lon="12.263362725325122"><ele>339.3333333333333</ele><time>2026-04-26T07:29:44.999Z</time></trkpt><trkpt lat="43.466347976174255" lon="12.263463165984554"><ele>341.16666666666663</ele><time>2026-04-26T07:29:45.999Z</time></trkpt><trkpt lat="43.466326983164734" lon="12.26356927946435"><ele>343.0</ele><time>2026-04-26T07:29:46.999Z</time></trkpt><trkpt lat="43.46630696159626" lon="12.263687432752265"><ele>343.0</ele><time>2026-04-26T07:29:47.999Z</time></trkpt><trkpt lat="43.466285276277034" lon="12.263813335572694"><ele>343.0</ele><time>2026-04-26T07:29:48.999Z</time></trkpt><trkpt lat="43.466265079889105" lon="12.263946259437864"><ele>343.0</ele><time>2026-04-26T07:29:49.999Z</time></trkpt><trkpt lat="43.46624682880807" lon="12.264085459390186"><ele>343.0</ele><time>2026-04-26T07:29:50.999Z</time></trkpt><trkpt lat="43.4662303490655" lon="12.264221236628863"><ele>343.0</ele><time>2026-04-26T07:29:51.999Z</time></trkpt><trkpt lat="43.466221603582916" lon="12.264345052332644"><ele>344.16666666666663</ele><time>2026-04-26T07:29:52.999Z</time></trkpt><trkpt lat="43.466218586024894" lon="12.264454095445823"><ele>345.3333333333333</ele><time>2026-04-26T07:29:53.999Z</time></trkpt><trkpt lat="43.46622719877425" lon="12.264569387274788"><ele>346.5</ele><time>2026-04-26T07:29:54.999Z</time></trkpt><trkpt lat="43.46624485642849" lon="12.264687645339206"><ele>347.6666666666667</ele><time>2026-04-26T07:29:55.999Z</time></trkpt><trkpt lat="43.466266009917355" lon="12.264794915257841"><ele>348.83333333333337</ele><time>2026-04-26T07:29:56.999Z</time></trkpt><trkpt lat="43.46630284169592" lon="12.264903204327428"><ele>350.0</ele><time>2026-04-26T07:29:57.999Z</time></trkpt><trkpt lat="43.466345731473766" lon="12.264989678002555"><ele>350.0</ele><time>2026-04-26T07:29:58.999Z</time></trkpt><trkpt lat="43.46639408082625" lon="12.265080573722878"><ele>350.0</ele><time>2026-04-26T07:29:59.999Z</time></trkpt><trkpt lat="43.466441417285786" lon="12.265175250303544"><ele>350.0</ele><time>2026-04-26T07:30:00.999Z</time></trkpt><trkpt lat="43.46649250224042" lon="12.265271337380968"><ele>350.0</ele><time>2026-04-26T07:30:01.999Z</time></trkpt><trkpt lat="43.46654889907704" lon="12.265371033970379"><ele>350.0</ele><time>2026-04-26T07:30:02.999Z</time></trkpt><trkpt lat="43.46660248367012" lon="12.265478354210515"><ele>350.0</ele><time>2026-04-26T07:30:03.999Z</time></trkpt><trkpt lat="43.46665955291279" lon="12.265594936996745"><ele>348.0</ele><time>2026-04-26T07:30:04.999Z</time></trkpt><trkpt lat="43.466710442399304" lon="12.265727838689367"><ele>346.0</ele><time>2026-04-26T07:30:05.999Z</time></trkpt><trkpt lat="43.46675084928064" lon="12.26584348673442"><ele>344.0</ele><time>2026-04-26T07:30:06.999Z</time></trkpt><trkpt lat="43.46679639344284" lon="12.265956880802324"><ele>342.0</ele><time>2026-04-26T07:30:07.999Z</time></trkpt><trkpt lat="43.466843081846015" lon="12.2660825340963"><ele>340.0</ele><time>2026-04-26T07:30:08.999Z</time></trkpt><trkpt lat="43.46687317610775" lon="12.266199425864189"><ele>340.0</ele><time>2026-04-26T07:30:09.999Z</time></trkpt><trkpt lat="43.466884778184124" lon="12.26632761643201"><ele>340.0</ele><time>2026-04-26T07:30:10.999Z</time></trkpt><trkpt lat="43.4668887077673" lon="12.266456671483878"><ele>340.0</ele><time>2026-04-26T07:30:11.999Z</time></trkpt><trkpt lat="43.46688889278695" lon="12.26659136656398"><ele>340.0</ele><time>2026-04-26T07:30:12.999Z</time></trkpt><trkpt lat="43.46690549397706" lon="12.26672176824861"><ele>340.0</ele><time>2026-04-26T07:30:13.999Z</time></trkpt><trkpt lat="43.46692840886182" lon="12.266857519520421"><ele>340.0</ele><time>2026-04-26T07:30:14.999Z</time></trkpt><trkpt lat="43.46696341198976" lon="12.26699174541764"><ele>340.0</ele><time>2026-04-26T07:30:15.999Z</time></trkpt><trkpt lat="43.46699574264776" lon="12.267130706490999"><ele>340.0</ele><time>2026-04-26T07:30:16.999Z</time></trkpt><trkpt lat="43.46702647101286" lon="12.267272092588865"><ele>340.0</ele><time>2026-04-26T07:30:17.999Z</time></trkpt><trkpt lat="43.46706500577606" lon="12.267410040849589"><ele>340.0</ele><time>2026-04-26T07:30:18.999Z</time></trkpt><trkpt lat="43.46709782219832" lon="12.267535866057257"><ele>344.2</ele><time>2026-04-26T07:30:19.999Z</time></trkpt><trkpt lat="43.46714188846374" lon="12.267668528755758"><ele>348.4</ele><time>2026-04-26T07:30:20.999Z</time></trkpt><trkpt lat="43.46718000675081" lon="12.26779237908614"><ele>352.6</ele><time>2026-04-26T07:30:21.999Z</time></trkpt><trkpt lat="43.46721498193091" lon="12.267915596376369"><ele>356.8</ele><time>2026-04-26T07:30:22.999Z</time></trkpt><trkpt lat="43.467236892962774" lon="12.268039076377805"><ele>361.0</ele><time>2026-04-26T07:30:23.999Z</time></trkpt><trkpt lat="43.46725007174818" lon="12.268159255833947"><ele>361.0</ele><time>2026-04-26T07:30:24.999Z</time></trkpt><trkpt lat="43.46725970906055" lon="12.268288032088028"><ele>361.0</ele><time>2026-04-26T07:30:25.999Z</time></trkpt><trkpt lat="43.46726416098107" lon="12.268415006466249"><ele>361.0</ele><time>2026-04-26T07:30:26.999Z</time></trkpt><trkpt lat="43.46726822917377" lon="12.268530092535997"><ele>361.0</ele><time>2026-04-26T07:30:27.999Z</time></trkpt><trkpt lat="43.4672707941506" lon="12.268645210565223"><ele>361.0</ele><time>2026-04-26T07:30:28.999Z</time></trkpt><trkpt lat="43.467275195446135" lon="12.268750962932572"><ele>361.0</ele><time>2026-04-26T07:30:29.999Z</time></trkpt><trkpt lat="43.46728752359152" lon="12.26885962165539"><ele>360.66666666666663</ele><time>2026-04-26T07:30:30.999Z</time></trkpt><trkpt lat="43.467320192830805" lon="12.268956002976108"><ele>360.3333333333333</ele><time>2026-04-26T07:30:31.999Z</time></trkpt><trkpt lat="43.46736850600195" lon="12.269054993125673"><ele>360.0</ele><time>2026-04-26T07:30:32.999Z</time></trkpt><trkpt lat="43.46741466692051" lon="12.269158495369034"><ele>359.6666666666667</ele><time>2026-04-26T07:30:33.999Z</time></trkpt><trkpt lat="43.46743497897695" lon="12.26926468252454"><ele>359.33333333333337</ele><time>2026-04-26T07:30:34.999Z</time></trkpt><trkpt lat="43.467442405149114" lon="12.269372713029883"><ele>359.0</ele><time>2026-04-26T07:30:35.999Z</time></trkpt><trkpt lat="43.46744834346282" lon="12.269491183538365"><ele>359.0</ele><time>2026-04-26T07:30:36.999Z</time></trkpt><trkpt lat="43.46743719641675" lon="12.26960830627907"><ele>359.0</ele><time>2026-04-26T07:30:37.999Z</time></trkpt><trkpt lat="43.46740628543961" lon="12.269699044909173"><ele>359.0</ele><time>2026-04-26T07:30:38.999Z</time></trkpt><trkpt lat="43.46737340439091" lon="12.269828620128084"><ele>359.0</ele><time>2026-04-26T07:30:40.999Z</time></trkpt><trkpt lat="43.467395630914446" lon="12.269911516889513"><ele>359.0</ele><time>2026-04-26T07:30:41.999Z</time></trkpt><trkpt lat="43.4674313234924" lon="12.270006610041756"><ele>359.0</ele><time>2026-04-26T07:30:42.999Z</time></trkpt><trkpt lat="43.467464889026736" lon="12.270089949929066"><ele>359.1666666666667</ele><time>2026-04-26T07:30:43.999Z</time></trkpt><trkpt lat="43.467505077070136" lon="12.270166187978818"><ele>359.33333333333337</ele><time>2026-04-26T07:30:44.999Z</time></trkpt><trkpt lat="43.46755726521564" lon="12.270264430272327"><ele>359.5</ele><time>2026-04-26T07:30:45.999Z</time></trkpt><trkpt lat="43.467618601976184" lon="12.270364662599551"><ele>359.6666666666667</ele><time>2026-04-26T07:30:46.999Z</time></trkpt><trkpt lat="43.46766987470912" lon="12.27045105016856"><ele>359.8333333333333</ele><time>2026-04-26T07:30:47.999Z</time></trkpt><trkpt lat="43.46771542769962" lon="12.270556176292764"><ele>360.0</ele><time>2026-04-26T07:30:48.999Z</time></trkpt><trkpt lat="43.4677687210622" lon="12.270660024837706"><ele>359.6</ele><time>2026-04-26T07:30:49.999Z</time></trkpt><trkpt lat="43.467821648001696" lon="12.270776398774583"><ele>359.2</ele><time>2026-04-26T07:30:50.999Z</time></trkpt><trkpt lat="43.467881610142186" lon="12.270888867491925"><ele>358.79999999999995</ele><time>2026-04-26T07:30:51.999Z</time></trkpt><trkpt lat="43.46794892560861" lon="12.270983341730794"><ele>358.4</ele><time>2026-04-26T07:30:52.999Z</time></trkpt><trkpt lat="43.468011794128074" lon="12.271084013665371"><ele>358.0</ele><time>2026-04-26T07:30:53.999Z</time></trkpt><trkpt lat="43.46808614666693" lon="12.271179427906953"><ele>362.79999999999995</ele><time>2026-04-26T07:30:54.999Z</time></trkpt><trkpt lat="43.46816848508127" lon="12.271253991981622"><ele>367.6</ele><time>2026-04-26T07:30:55.999Z</time></trkpt><trkpt lat="43.46825410208409" lon="12.271310305556247"><ele>372.4</ele><time>2026-04-26T07:30:56.999Z</time></trkpt><trkpt lat="43.46834777752437" lon="12.271348596210897"><ele>377.20000000000005</ele><time>2026-04-26T07:30:57.999Z</time></trkpt><trkpt lat="43.46844916647683" lon="12.271372878035276"><ele>382.0</ele><time>2026-04-26T07:30:58.999Z</time></trkpt><trkpt lat="43.468556161395696" lon="12.271387185511646"><ele>382.0</ele><time>2026-04-26T07:30:59.998Z</time></trkpt><trkpt lat="43.468660708474154" lon="12.271393147602932"><ele>382.0</ele><time>2026-04-26T07:31:00.998Z</time></trkpt><trkpt lat="43.46875783277464" lon="12.271385859602958"><ele>382.0</ele><time>2026-04-26T07:31:01.998Z</time></trkpt><trkpt lat="43.46884906408739" lon="12.271368703637297"><ele>382.0</ele><time>2026-04-26T07:31:02.998Z</time></trkpt><trkpt lat="43.46893256070196" lon="12.2713227428256"><ele>382.0</ele><time>2026-04-26T07:31:03.998Z</time></trkpt><trkpt lat="43.469011401716365" lon="12.271255612806003"><ele>384.20000000000005</ele><time>2026-04-26T07:31:04.998Z</time></trkpt><trkpt lat="43.469098126579425" lon="12.271181807919744"><ele>386.4</ele><time>2026-04-26T07:31:05.998Z</time></trkpt><trkpt lat="43.46918699759219" lon="12.271113183012945"><ele>388.6</ele><time>2026-04-26T07:31:06.998Z</time></trkpt><trkpt lat="43.469282413357604" lon="12.271045392549272"><ele>390.79999999999995</ele><time>2026-04-26T07:31:07.998Z</time></trkpt><trkpt lat="43.46937798645787" lon="12.270973411993271"><ele>393.0</ele><time>2026-04-26T07:31:08.998Z</time></trkpt><trkpt lat="43.46947536099555" lon="12.270913661073752"><ele>393.0</ele><time>2026-04-26T07:31:09.998Z</time></trkpt><trkpt lat="43.469574404575354" lon="12.2708531993051"><ele>393.0</ele><time>2026-04-26T07:31:10.998Z</time></trkpt><trkpt lat="43.469675679838026" lon="12.27079098889442"><ele>393.0</ele><time>2026-04-26T07:31:11.998Z</time></trkpt><trkpt lat="43.46977703141567" lon="12.270726601674498"><ele>393.0</ele><time>2026-04-26T07:31:12.998Z</time></trkpt><trkpt lat="43.46987570707717" lon="12.270668449893659"><ele>393.0</ele><time>2026-04-26T07:31:13.998Z</time></trkpt><trkpt lat="43.46997257463315" lon="12.27059960919126"><ele>397.4</ele><time>2026-04-26T07:31:14.999Z</time></trkpt><trkpt lat="43.47007474394526" lon="12.270553715058663"><ele>401.79999999999995</ele><time>2026-04-26T07:31:15.999Z</time></trkpt><trkpt lat="43.47018407036487" lon="12.27052143373997"><ele>406.2</ele><time>2026-04-26T07:31:16.999Z</time></trkpt><trkpt lat="43.47028812043589" lon="12.270508474851345"><ele>410.6</ele><time>2026-04-26T07:31:17.999Z</time></trkpt><trkpt lat="43.470383536867544" lon="12.270510481589449"><ele>415.0</ele><time>2026-04-26T07:31:18.999Z</time></trkpt><trkpt lat="43.47048558463193" lon="12.270531917303616"><ele>413.0</ele><time>2026-04-26T07:31:19.999Z</time></trkpt><trkpt lat="43.47058346388386" lon="12.270574599460033"><ele>411.0</ele><time>2026-04-26T07:31:20.999Z</time></trkpt><trkpt lat="43.47067975497116" lon="12.270615110822524"><ele>409.0</ele><time>2026-04-26T07:31:21.999Z</time></trkpt><trkpt lat="43.470766644945094" lon="12.270660421937139"><ele>407.0</ele><time>2026-04-26T07:31:22.999Z</time></trkpt><trkpt lat="43.47084914027128" lon="12.270728424974168"><ele>405.0</ele><time>2026-04-26T07:31:23.999Z</time></trkpt><trkpt lat="43.470920754771875" lon="12.270827977838513"><ele>405.0</ele><time>2026-04-26T07:31:24.999Z</time></trkpt><trkpt lat="43.47096418471711" lon="12.27094902792461"><ele>405.0</ele><time>2026-04-26T07:31:25.999Z</time></trkpt><trkpt lat="43.470999513877196" lon="12.271076439527931"><ele>405.0</ele><time>2026-04-26T07:31:26.999Z</time></trkpt><trkpt lat="43.471036904371516" lon="12.27118805793803"><ele>405.0</ele><time>2026-04-26T07:31:27.999Z</time></trkpt><trkpt lat="43.471101596239556" lon="12.271291421853023"><ele>405.0</ele><time>2026-04-26T07:31:28.999Z</time></trkpt><trkpt lat="43.471175732857624" lon="12.271390462657918"><ele>404.2</ele><time>2026-04-26T07:31:29.999Z</time></trkpt><trkpt lat="43.47125785961821" lon="12.271483456292048"><ele>403.4</ele><time>2026-04-26T07:31:30.999Z</time></trkpt><trkpt lat="43.47134781743923" lon="12.271574588181451"><ele>402.6</ele><time>2026-04-26T07:31:31.999Z</time></trkpt><trkpt lat="43.47143339126312" lon="12.271666690809113"><ele>401.8</ele><time>2026-04-26T07:31:32.999Z</time></trkpt><trkpt lat="43.47152129706658" lon="12.271763120757953"><ele>401.0</ele><time>2026-04-26T07:31:33.999Z</time></trkpt><trkpt lat="43.471590020620596" lon="12.271873903017356"><ele>402.8333333333333</ele><time>2026-04-26T07:31:34.999Z</time></trkpt><trkpt lat="43.47165997061143" lon="12.271996567917231"><ele>404.66666666666663</ele><time>2026-04-26T07:31:35.999Z</time></trkpt><trkpt lat="43.47171258837046" lon="12.27210289899237"><ele>406.5</ele><time>2026-04-26T07:31:36.999Z</time></trkpt><trkpt lat="43.47175852373459" lon="12.272182202453969"><ele>408.33333333333337</ele><time>2026-04-26T07:31:37.999Z</time></trkpt><trkpt lat="43.47181969683407" lon="12.272230980275264"><ele>410.1666666666667</ele><time>2026-04-26T07:31:38.999Z</time></trkpt><trkpt lat="43.47190110081671" lon="12.272273046755819"><ele>412.0</ele><time>2026-04-26T07:31:39.999Z</time></trkpt><trkpt lat="43.471992933028226" lon="12.272299452787149"><ele>412.0</ele><time>2026-04-26T07:31:40.999Z</time></trkpt><trkpt lat="43.472099841871156" lon="12.272323872311421"><ele>412.0</ele><time>2026-04-26T07:31:41.999Z</time></trkpt><trkpt lat="43.47220367842803" lon="12.272350576092682"><ele>412.0</ele><time>2026-04-26T07:31:42.999Z</time></trkpt><trkpt lat="43.47231826242865" lon="12.272380275668432"><ele>412.0</ele><time>2026-04-26T07:31:43.999Z</time></trkpt><trkpt lat="43.472428947772514" lon="12.27240869313766"><ele>412.0</ele><time>2026-04-26T07:31:44.999Z</time></trkpt><trkpt lat="43.4725399263365" lon="12.272436982535648"><ele>414.20000000000005</ele><time>2026-04-26T07:31:45.999Z</time></trkpt><trkpt lat="43.47263991917292" lon="12.272479102548717"><ele>416.4</ele><time>2026-04-26T07:31:46.999Z</time></trkpt><trkpt lat="43.47273454366451" lon="12.272539213584945"><ele>418.6</ele><time>2026-04-26T07:31:47.999Z</time></trkpt><trkpt lat="43.47282604291901" lon="12.272620724079184"><ele>420.79999999999995</ele><time>2026-04-26T07:31:48.999Z</time></trkpt><trkpt lat="43.472908560740386" lon="12.27271425493472"><ele>423.0</ele><time>2026-04-26T07:31:49.999Z</time></trkpt><trkpt lat="43.47299021616793" lon="12.272813972893267"><ele>423.4</ele><time>2026-04-26T07:31:50.999Z</time></trkpt><trkpt lat="43.47307595844742" lon="12.272896733260454"><ele>423.79999999999995</ele><time>2026-04-26T07:31:51.999Z</time></trkpt><trkpt lat="43.473154602138855" lon="12.272975946705799"><ele>424.2</ele><time>2026-04-26T07:31:52.999Z</time></trkpt><trkpt lat="43.47322496945046" lon="12.27305039862634"><ele>424.6</ele><time>2026-04-26T07:31:53.999Z</time></trkpt><trkpt lat="43.47329119443854" lon="12.273123303945109"><ele>425.0</ele><time>2026-04-26T07:31:54.999Z</time></trkpt><trkpt lat="43.473343988781075" lon="12.273205762424714"><ele>425.49999999999994</ele><time>2026-04-26T07:31:55.999Z</time></trkpt><trkpt lat="43.47341026555025" lon="12.273271999390902"><ele>426.0</ele><time>2026-04-26T07:31:56.999Z</time></trkpt><trkpt lat="43.47347903050991" lon="12.273347610768825"><ele>426.5</ele><time>2026-04-26T07:31:57.999Z</time></trkpt><trkpt lat="43.473555187247456" lon="12.273409803685709"><ele>427.0</ele><time>2026-04-26T07:31:58.999Z</time></trkpt><trkpt lat="43.47363611385744" lon="12.273471276251534"><ele>427.49999999999994</ele><time>2026-04-26T07:31:59.999Z</time></trkpt><trkpt lat="43.473701413883106" lon="12.273546266558903"><ele>428.0</ele><time>2026-04-26T07:32:00.999Z</time></trkpt><trkpt lat="43.47376887667512" lon="12.273611980568417"><ele>426.99999999999994</ele><time>2026-04-26T07:32:01.999Z</time></trkpt><trkpt lat="43.473835488297176" lon="12.273683102715864"><ele>426.0</ele><time>2026-04-26T07:32:02.999Z</time></trkpt><trkpt lat="43.47390383362513" lon="12.273744226527466"><ele>425.0</ele><time>2026-04-26T07:32:03.999Z</time></trkpt><trkpt lat="43.47396335801255" lon="12.273811066054227"><ele>424.0</ele><time>2026-04-26T07:32:04.999Z</time></trkpt><trkpt lat="43.47402856967887" lon="12.273894775515153"><ele>422.99999999999994</ele><time>2026-04-26T07:32:05.999Z</time></trkpt><trkpt lat="43.47409517505447" lon="12.27395377605121"><ele>422.0</ele><time>2026-04-26T07:32:06.999Z</time></trkpt><trkpt lat="43.474150705046746" lon="12.274034072565229"><ele>424.16666666666663</ele><time>2026-04-26T07:32:07.999Z</time></trkpt><trkpt lat="43.474234472913665" lon="12.274156014783772"><ele>426.3333333333333</ele><time>2026-04-26T07:32:09.999Z</time></trkpt><trkpt lat="43.47430119417868" lon="12.274204727115587"><ele>428.5</ele><time>2026-04-26T07:32:10.999Z</time></trkpt><trkpt lat="43.474365550633436" lon="12.274270015368588"><ele>430.66666666666663</ele><time>2026-04-26T07:32:11.999Z</time></trkpt><trkpt lat="43.474420629102774" lon="12.274327070529607"><ele>432.8333333333333</ele><time>2026-04-26T07:32:12.999Z</time></trkpt><trkpt lat="43.47445954481823" lon="12.274429993067185"><ele>435.0</ele><time>2026-04-26T07:32:14.999Z</time></trkpt><trkpt lat="43.4745310074717" lon="12.274525906931745"><ele>435.0</ele><time>2026-04-26T07:32:17Z</time></trkpt><trkpt lat="43.47459698905611" lon="12.274624568478643"><ele>435.0</ele><time>2026-04-26T07:32:19Z</time></trkpt><trkpt lat="43.47468316227367" lon="12.274692390299068"><ele>435.0</ele><time>2026-04-26T07:32:21Z</time></trkpt><trkpt lat="43.474799406570234" lon="12.274757143842681"><ele>435.0</ele><time>2026-04-26T07:32:23Z</time></trkpt><trkpt lat="43.47486421757141" lon="12.274784253977634"><ele>435.0</ele><time>2026-04-26T07:32:24Z</time></trkpt><trkpt lat="43.47493384168537" lon="12.274795113530006"><ele>435.0</ele><time>2026-04-26T07:32:25Z</time></trkpt><trkpt lat="43.47502055420205" lon="12.27486360439992"><ele>435.0</ele><time>2026-04-26T07:32:27Z</time></trkpt><trkpt lat="43.475095762985625" lon="12.27495918045415"><ele>435.0</ele><time>2026-04-26T07:32:29Z</time></trkpt><trkpt lat="43.47518056997318" lon="12.27504130528628"><ele>435.0</ele><time>2026-04-26T07:32:31Z</time></trkpt><trkpt lat="43.47525502063861" lon="12.275118722046727"><ele>435.0</ele><time>2026-04-26T07:32:33Z</time></trkpt><trkpt lat="43.47532046861479" lon="12.2751452999876"><ele>435.0</ele><time>2026-04-26T07:32:35Z</time></trkpt><trkpt lat="43.47538028803945" lon="12.275195129818748"><ele>435.0</ele><time>2026-04-26T07:32:37Z</time></trkpt><trkpt lat="43.47546362096662" lon="12.27524018437476"><ele>435.0</ele><time>2026-04-26T07:32:40Z</time></trkpt><trkpt lat="43.47557188278164" lon="12.275300596027405"><ele>435.0</ele><time>2026-04-26T07:32:43Z</time></trkpt><trkpt lat="43.475638325338636" lon="12.275346977996206"><ele>435.0</ele><time>2026-04-26T07:32:44Z</time></trkpt><trkpt lat="43.47570837626547" lon="12.275409153903974"><ele>435.0</ele><time>2026-04-26T07:32:45Z</time></trkpt><trkpt lat="43.47579016918914" lon="12.275495338488925"><ele>435.2</ele><time>2026-04-26T07:32:47Z</time></trkpt><trkpt lat="43.475888425232746" lon="12.275574165285104"><ele>435.4</ele><time>2026-04-26T07:32:49Z</time></trkpt><trkpt lat="43.47599462873373" lon="12.275673727449112"><ele>435.6</ele><time>2026-04-26T07:32:51Z</time></trkpt><trkpt lat="43.47608622216441" lon="12.275769832356673"><ele>435.8</ele><time>2026-04-26T07:32:53Z</time></trkpt><trkpt lat="43.476144553165014" lon="12.275813139815973"><ele>436.0</ele><time>2026-04-26T07:32:54Z</time></trkpt><trkpt lat="43.4762417188855" lon="12.275899655232335"><ele>435.00000000000006</ele><time>2026-04-26T07:32:56Z</time></trkpt><trkpt lat="43.47630732304712" lon="12.275923190892527"><ele>434.0</ele><time>2026-04-26T07:32:57Z</time></trkpt><trkpt lat="43.476359533866926" lon="12.27597166468111"><ele>433.0</ele><time>2026-04-26T07:32:58Z</time></trkpt><trkpt lat="43.476464630789124" lon="12.276042591936548"><ele>432.0</ele><time>2026-04-26T07:33:00Z</time></trkpt><trkpt lat="43.47652121123562" lon="12.276094844027481"><ele>431.00000000000006</ele><time>2026-04-26T07:33:01Z</time></trkpt><trkpt lat="43.47656388898132" lon="12.276160789817224"><ele>430.0</ele><time>2026-04-26T07:33:02Z</time></trkpt><trkpt lat="43.4766420983998" lon="12.276235341997955"><ele>430.0</ele><time>2026-04-26T07:33:04Z</time></trkpt><trkpt lat="43.476754605072394" lon="12.276239625066069"><ele>430.0</ele><time>2026-04-26T07:33:05.999Z</time></trkpt><trkpt lat="43.47685542871387" lon="12.276306287885177"><ele>430.0</ele><time>2026-04-26T07:33:07.999Z</time></trkpt><trkpt lat="43.47695851736401" lon="12.276371109118529"><ele>430.0</ele><time>2026-04-26T07:33:09.999Z</time></trkpt><trkpt lat="43.477051612282175" lon="12.27645551158687"><ele>430.0</ele><time>2026-04-26T07:33:12Z</time></trkpt><trkpt lat="43.4771016263109" lon="12.276518883845407"><ele>430.1666666666667</ele><time>2026-04-26T07:33:13Z</time></trkpt><trkpt lat="43.4771466351791" lon="12.27658397255145"><ele>430.33333333333337</ele><time>2026-04-26T07:33:14Z</time></trkpt><trkpt lat="43.47719511290023" lon="12.276655432938856"><ele>430.5</ele><time>2026-04-26T07:33:15Z</time></trkpt><trkpt lat="43.477252796911344" lon="12.276729196904446"><ele>430.66666666666663</ele><time>2026-04-26T07:33:16Z</time></trkpt><trkpt lat="43.47736713681695" lon="12.27680122311928"><ele>430.8333333333333</ele><time>2026-04-26T07:33:18Z</time></trkpt><trkpt lat="43.47742796276311" lon="12.276845478534252"><ele>431.0</ele><time>2026-04-26T07:33:19Z</time></trkpt><trkpt lat="43.47748917270942" lon="12.276896168139263"><ele>431.0</ele><time>2026-04-26T07:33:20Z</time></trkpt><trkpt lat="43.4775973476524" lon="12.27697568738899"><ele>431.0</ele><time>2026-04-26T07:33:22Z</time></trkpt><trkpt lat="43.47768624967404" lon="12.277060973418129"><ele>431.0</ele><time>2026-04-26T07:33:24Z</time></trkpt><trkpt lat="43.47773612532562" lon="12.277116553253467"><ele>431.0</ele><time>2026-04-26T07:33:25Z</time></trkpt><trkpt lat="43.477806707353835" lon="12.277208091655043"><ele>431.0</ele><time>2026-04-26T07:33:27Z</time></trkpt><trkpt lat="43.47784153980039" lon="12.277304034396302"><ele>431.6</ele><time>2026-04-26T07:33:29Z</time></trkpt><trkpt lat="43.47791601102864" lon="12.277380526978936"><ele>432.20000000000005</ele><time>2026-04-26T07:33:31Z</time></trkpt><trkpt lat="43.47798145959659" lon="12.277482361137693"><ele>432.79999999999995</ele><time>2026-04-26T07:33:33Z</time></trkpt><trkpt lat="43.4780367183378" lon="12.27759005853401"><ele>433.4</ele><time>2026-04-26T07:33:35Z</time></trkpt><trkpt lat="43.478096150394556" lon="12.277690071949612"><ele>434.0</ele><time>2026-04-26T07:33:37Z</time></trkpt><trkpt lat="43.47814838297947" lon="12.277806738500768"><ele>434.8333333333333</ele><time>2026-04-26T07:33:39Z</time></trkpt><trkpt lat="43.4781999967405" lon="12.277893021152757"><ele>435.66666666666663</ele><time>2026-04-26T07:33:41Z</time></trkpt><trkpt lat="43.47822825320572" lon="12.277998107840993"><ele>436.5</ele><time>2026-04-26T07:33:43Z</time></trkpt><trkpt lat="43.47823409134365" lon="12.278108018301642"><ele>437.33333333333337</ele><time>2026-04-26T07:33:45Z</time></trkpt><trkpt lat="43.47827272868163" lon="12.278225968897761"><ele>438.1666666666667</ele><time>2026-04-26T07:33:47Z</time></trkpt><trkpt lat="43.47834092453441" lon="12.278286076669781"><ele>439.0</ele><time>2026-04-26T07:33:49Z</time></trkpt><trkpt lat="43.47838733130538" lon="12.27835157694974"><ele>440.79999999999995</ele><time>2026-04-26T07:33:51Z</time></trkpt><trkpt lat="43.47844402176717" lon="12.278455514087618"><ele>442.59999999999997</ele><time>2026-04-26T07:33:53Z</time></trkpt><trkpt lat="43.47849423765028" lon="12.2785652100165"><ele>444.4</ele><time>2026-04-26T07:33:55Z</time></trkpt><trkpt lat="43.47853236525571" lon="12.27866269332548"><ele>446.2</ele><time>2026-04-26T07:33:57Z</time></trkpt><trkpt lat="43.478597822411274" lon="12.278713645676694"><ele>448.0</ele><time>2026-04-26T07:33:59Z</time></trkpt><trkpt lat="43.47867368438728" lon="12.278820678423477"><ele>448.0</ele><time>2026-04-26T07:34:01Z</time></trkpt><trkpt lat="43.47875721591148" lon="12.278900672153982"><ele>447.99999999999994</ele><time>2026-04-26T07:34:03Z</time></trkpt><trkpt lat="43.478825283277345" lon="12.278972167939438"><ele>447.99999999999994</ele><time>2026-04-26T07:34:05Z</time></trkpt><trkpt lat="43.478925652323234" lon="12.279003422795162"><ele>448.0</ele><time>2026-04-26T07:34:07Z</time></trkpt><trkpt lat="43.47903654186778" lon="12.278989667898614"><ele>448.0</ele><time>2026-04-26T07:34:09Z</time></trkpt><trkpt lat="43.47913546693234" lon="12.279063804683718"><ele>450.0</ele><time>2026-04-26T07:34:11Z</time></trkpt><trkpt lat="43.47918004611612" lon="12.279136805263196"><ele>451.99999999999994</ele><time>2026-04-26T07:34:12Z</time></trkpt><trkpt lat="43.47921481591308" lon="12.279211080044893"><ele>453.99999999999994</ele><time>2026-04-26T07:34:13Z</time></trkpt><trkpt lat="43.47930531168987" lon="12.279318863563967"><ele>456.0</ele><time>2026-04-26T07:34:15Z</time></trkpt><trkpt lat="43.47937594516595" lon="12.279383592223084"><ele>458.0</ele><time>2026-04-26T07:34:17Z</time></trkpt><trkpt lat="43.479398299133614" lon="12.279546819539052"><ele>458.0</ele><time>2026-04-26T07:34:19Z</time></trkpt><trkpt lat="43.47944466632453" lon="12.279619998164733"><ele>457.99999999999994</ele><time>2026-04-26T07:34:20Z</time></trkpt><trkpt lat="43.47949700588293" lon="12.279670712331047"><ele>457.99999999999994</ele><time>2026-04-26T07:34:21Z</time></trkpt><trkpt lat="43.47958303927262" lon="12.279788550392178"><ele>458.0</ele><time>2026-04-26T07:34:23Z</time></trkpt><trkpt lat="43.4796209096544" lon="12.279907674806486"><ele>458.0</ele><time>2026-04-26T07:34:25Z</time></trkpt><trkpt lat="43.47974210775311" lon="12.2799140028871"><ele>459.79999999999995</ele><time>2026-04-26T07:34:27Z</time></trkpt><trkpt lat="43.47983821677354" lon="12.279962164136803"><ele>461.59999999999997</ele><time>2026-04-26T07:34:29Z</time></trkpt><trkpt lat="43.47993504121407" lon="12.280052293097121"><ele>463.40000000000003</ele><time>2026-04-26T07:34:31Z</time></trkpt><trkpt lat="43.480006705251704" lon="12.280102732022517"><ele>465.20000000000005</ele><time>2026-04-26T07:34:32Z</time></trkpt><trkpt lat="43.480066645121845" lon="12.280154873386714"><ele>467.0</ele><time>2026-04-26T07:34:33Z</time></trkpt><trkpt lat="43.48014880617088" lon="12.280202202471138"><ele>466.99999999999994</ele><time>2026-04-26T07:34:35Z</time></trkpt><trkpt lat="43.48022430863497" lon="12.280197137825198"><ele>467.0</ele><time>2026-04-26T07:34:36Z</time></trkpt><trkpt lat="43.48030454947442" lon="12.280203207678092"><ele>467.0</ele><time>2026-04-26T07:34:37Z</time></trkpt><trkpt lat="43.480367937189456" lon="12.280195581527707"><ele>467.0</ele><time>2026-04-26T07:34:38Z</time></trkpt><trkpt lat="43.48048115526638" lon="12.280246921547882"><ele>466.99999999999994</ele><time>2026-04-26T07:34:40Z</time></trkpt><trkpt lat="43.48053873839665" lon="12.280305881211104"><ele>467.0</ele><time>2026-04-26T07:34:41Z</time></trkpt><trkpt lat="43.48061019182541" lon="12.28034834996098"><ele>465.49999999999994</ele><time>2026-04-26T07:34:42Z</time></trkpt><trkpt lat="43.48067234967196" lon="12.280387628202364"><ele>464.0</ele><time>2026-04-26T07:34:43Z</time></trkpt><trkpt lat="43.48073843822926" lon="12.28043423326089"><ele>462.5</ele><time>2026-04-26T07:34:44Z</time></trkpt><trkpt lat="43.480820770735384" lon="12.280465374289141"><ele>461.0</ele><time>2026-04-26T07:34:45Z</time></trkpt><trkpt lat="43.48089168746399" lon="12.280477691974722"><ele>459.49999999999994</ele><time>2026-04-26T07:34:46Z</time></trkpt><trkpt lat="43.48099207749623" lon="12.280494910885816"><ele>458.0</ele><time>2026-04-26T07:34:48Z</time></trkpt><trkpt lat="43.48105751466391" lon="12.280517605006642"><ele>457.99999999999994</ele><time>2026-04-26T07:34:51Z</time></trkpt><trkpt lat="43.481144814355254" lon="12.28055607007303"><ele>458.0</ele><time>2026-04-26T07:34:53Z</time></trkpt><trkpt lat="43.48122063810002" lon="12.280610524765711"><ele>458.0</ele><time>2026-04-26T07:34:55Z</time></trkpt><trkpt lat="43.4813387419182" lon="12.280632979199567"><ele>458.0</ele><time>2026-04-26T07:34:57Z</time></trkpt><trkpt lat="43.481404493544126" lon="12.280650190229057"><ele>457.99999999999994</ele><time>2026-04-26T07:34:58Z</time></trkpt><trkpt lat="43.481465898096786" lon="12.280672199931708"><ele>458.0</ele><time>2026-04-26T07:34:59Z</time></trkpt><trkpt lat="43.481545544587696" lon="12.280704315555003"><ele>459.49999999999994</ele><time>2026-04-26T07:35:01Z</time></trkpt><trkpt lat="43.48161334010341" lon="12.280717291118442"><ele>461.0</ele><time>2026-04-26T07:35:02Z</time></trkpt><trkpt lat="43.481681956441065" lon="12.280748695314191"><ele>462.5</ele><time>2026-04-26T07:35:03Z</time></trkpt><trkpt lat="43.481751366761586" lon="12.280770024613826"><ele>464.0</ele><time>2026-04-26T07:35:04Z</time></trkpt><trkpt lat="43.48181662528124" lon="12.28081168419883"><ele>465.49999999999994</ele><time>2026-04-26T07:35:05Z</time></trkpt><trkpt lat="43.48194370899347" lon="12.280883877639946"><ele>467.0</ele><time>2026-04-26T07:35:07Z</time></trkpt><trkpt lat="43.48201724626723" lon="12.280911836542012"><ele>466.99999999999994</ele><time>2026-04-26T07:35:08Z</time></trkpt><trkpt lat="43.48209183066828" lon="12.280945026809908"><ele>467.0</ele><time>2026-04-26T07:35:09Z</time></trkpt><trkpt lat="43.48216233371411" lon="12.280975301325293"><ele>467.0</ele><time>2026-04-26T07:35:10Z</time></trkpt><trkpt lat="43.482224239282175" lon="12.281001345793472"><ele>467.0</ele><time>2026-04-26T07:35:11Z</time></trkpt><trkpt lat="43.48232803998617" lon="12.28098823305191"><ele>466.99999999999994</ele><time>2026-04-26T07:35:13Z</time></trkpt><trkpt lat="43.48244155089652" lon="12.280950350946247"><ele>467.0</ele><time>2026-04-26T07:35:15Z</time></trkpt><trkpt lat="43.482546597491165" lon="12.280922213050252"><ele>468.6</ele><time>2026-04-26T07:35:17Z</time></trkpt><trkpt lat="43.482641308099275" lon="12.280818204958873"><ele>470.20000000000005</ele><time>2026-04-26T07:35:19Z</time></trkpt><trkpt lat="43.482748984452435" lon="12.280805824015713"><ele>471.8</ele><time>2026-04-26T07:35:21Z</time></trkpt><trkpt lat="43.48285223240836" lon="12.280872160724574"><ele>473.4</ele><time>2026-04-26T07:35:23Z</time></trkpt><trkpt lat="43.482926947430876" lon="12.280897703621653"><ele>475.0</ele><time>2026-04-26T07:35:24Z</time></trkpt><trkpt lat="43.48299329745" lon="12.280894994515863"><ele>475.0</ele><time>2026-04-26T07:35:25Z</time></trkpt><trkpt lat="43.48309158759712" lon="12.280889205013752"><ele>475.0</ele><time>2026-04-26T07:35:27Z</time></trkpt><trkpt lat="43.48318504877497" lon="12.280895755305325"><ele>475.0</ele><time>2026-04-26T07:35:29Z</time></trkpt><trkpt lat="43.48329968828701" lon="12.280870312872175"><ele>475.0</ele><time>2026-04-26T07:35:31Z</time></trkpt><trkpt lat="43.48340710180772" lon="12.280932492981444"><ele>475.0</ele><time>2026-04-26T07:35:33Z</time></trkpt><trkpt lat="43.4834870322753" lon="12.280992961973553"><ele>475.0</ele><time>2026-04-26T07:35:35Z</time></trkpt><trkpt lat="43.48354204530625" lon="12.281045209204066"><ele>475.0</ele><time>2026-04-26T07:35:36Z</time></trkpt><trkpt lat="43.48360510326578" lon="12.281110066892802"><ele>475.0</ele><time>2026-04-26T07:35:37Z</time></trkpt><trkpt lat="43.48371376353368" lon="12.281172549071375"><ele>475.0</ele><time>2026-04-26T07:35:39Z</time></trkpt><trkpt lat="43.48383400302308" lon="12.281236400821701"><ele>475.0</ele><time>2026-04-26T07:35:41Z</time></trkpt><trkpt lat="43.48390561901366" lon="12.281267104847371"><ele>474.8</ele><time>2026-04-26T07:35:42Z</time></trkpt><trkpt lat="43.484009393757646" lon="12.28130438080808"><ele>474.6</ele><time>2026-04-26T07:35:43Z</time></trkpt><trkpt lat="43.484109603431314" lon="12.281341327225304"><ele>474.4</ele><time>2026-04-26T07:35:44Z</time></trkpt><trkpt lat="43.48421853376999" lon="12.281396849789198"><ele>474.2</ele><time>2026-04-26T07:35:45Z</time></trkpt><trkpt lat="43.48430078490218" lon="12.281450061135901"><ele>474.0</ele><time>2026-04-26T07:35:46Z</time></trkpt><trkpt lat="43.48437396563189" lon="12.281497981105709"><ele>476.0</ele><time>2026-04-26T07:35:47Z</time></trkpt><trkpt lat="43.48444711247229" lon="12.281543086528192"><ele>478.0</ele><time>2026-04-26T07:35:48Z</time></trkpt><trkpt lat="43.484525158616904" lon="12.28158458470569"><ele>480.0</ele><time>2026-04-26T07:35:49Z</time></trkpt><trkpt lat="43.484589654592604" lon="12.28162175211375"><ele>482.0</ele><time>2026-04-26T07:35:50Z</time></trkpt><trkpt lat="43.484651814752965" lon="12.281662816714855"><ele>484.0</ele><time>2026-04-26T07:35:51Z</time></trkpt><trkpt lat="43.48470080207543" lon="12.281738397021922"><ele>486.0</ele><time>2026-04-26T07:35:53Z</time></trkpt><trkpt lat="43.48467799722131" lon="12.281867747730635"><ele>485.4</ele><time>2026-04-26T07:35:56Z</time></trkpt><trkpt lat="43.48472325244559" lon="12.28203809361184"><ele>484.8</ele><time>2026-04-26T07:35:58Z</time></trkpt><trkpt lat="43.48476134629547" lon="12.282109198880933"><ele>484.19999999999993</ele><time>2026-04-26T07:35:59Z</time></trkpt><trkpt lat="43.48480749120019" lon="12.282169463787165"><ele>483.59999999999997</ele><time>2026-04-26T07:36:00Z</time></trkpt><trkpt lat="43.48492094930467" lon="12.28228602694579"><ele>483.0</ele><time>2026-04-26T07:36:02Z</time></trkpt><trkpt lat="43.485010465555035" lon="12.282376958742088"><ele>483.0</ele><time>2026-04-26T07:36:04Z</time></trkpt><trkpt lat="43.48501101571732" lon="12.282503169697335"><ele>482.99999999999994</ele><time>2026-04-26T07:36:06Z</time></trkpt><trkpt lat="43.48490912312967" lon="12.282554507003944"><ele>482.99999999999994</ele><time>2026-04-26T07:36:08Z</time></trkpt><trkpt lat="43.48478982793462" lon="12.282505455665776"><ele>483.0</ele><time>2026-04-26T07:36:10Z</time></trkpt><trkpt lat="43.484718219324606" lon="12.282480500399956"><ele>483.0</ele><time>2026-04-26T07:36:11Z</time></trkpt><trkpt lat="43.48465100431766" lon="12.282459659493108"><ele>481.79999999999995</ele><time>2026-04-26T07:36:12Z</time></trkpt><trkpt lat="43.48451473598842" lon="12.28247486727825"><ele>480.59999999999997</ele><time>2026-04-26T07:36:14Z</time></trkpt><trkpt lat="43.48440728421388" lon="12.28254998081843"><ele>479.40000000000003</ele><time>2026-04-26T07:36:16Z</time></trkpt><trkpt lat="43.48433618881654" lon="12.282680044579493"><ele>478.20000000000005</ele><time>2026-04-26T07:36:18Z</time></trkpt><trkpt lat="43.48429726636489" lon="12.282753033358091"><ele>477.0</ele><time>2026-04-26T07:36:19Z</time></trkpt><trkpt lat="43.48422840650081" lon="12.282882502613967"><ele>477.0</ele><time>2026-04-26T07:36:21Z</time></trkpt><trkpt lat="43.48418172680045" lon="12.283052034291991"><ele>477.0</ele><time>2026-04-26T07:36:23Z</time></trkpt><trkpt lat="43.48418002579321" lon="12.283150721901377"><ele>477.0</ele><time>2026-04-26T07:36:24Z</time></trkpt><trkpt lat="43.48418562290822" lon="12.283264828130738"><ele>477.0</ele><time>2026-04-26T07:36:25Z</time></trkpt><trkpt lat="43.48416670778071" lon="12.283357035705087"><ele>477.0</ele><time>2026-04-26T07:36:26Z</time></trkpt><trkpt lat="43.484133500452174" lon="12.283441100533071"><ele>477.0</ele><time>2026-04-26T07:36:27Z</time></trkpt><trkpt lat="43.48410654761006" lon="12.283528227440492"><ele>474.40000000000003</ele><time>2026-04-26T07:36:28Z</time></trkpt><trkpt lat="43.484062252909176" lon="12.283663960838082"><ele>471.80000000000007</ele><time>2026-04-26T07:36:30Z</time></trkpt><trkpt lat="43.48402588158474" lon="12.28375700856467"><ele>469.2</ele><time>2026-04-26T07:36:31Z</time></trkpt><trkpt lat="43.48397457272918" lon="12.28391917900838"><ele>466.6</ele><time>2026-04-26T07:36:33Z</time></trkpt><trkpt lat="43.48394761222614" lon="12.284022323142445"><ele>464.0</ele><time>2026-04-26T07:36:34Z</time></trkpt><trkpt lat="43.48392617073412" lon="12.284109168085692"><ele>461.66666666666663</ele><time>2026-04-26T07:36:35Z</time></trkpt><trkpt lat="43.48390063752832" lon="12.28419467820416"><ele>459.3333333333333</ele><time>2026-04-26T07:36:36Z</time></trkpt><trkpt lat="43.483857750854966" lon="12.284274187179793"><ele>457.0</ele><time>2026-04-26T07:36:37Z</time></trkpt><trkpt lat="43.48375909851629" lon="12.28436435866267"><ele>454.66666666666663</ele><time>2026-04-26T07:36:39Z</time></trkpt><trkpt lat="43.483693755318356" lon="12.284376660175093"><ele>452.3333333333333</ele><time>2026-04-26T07:36:40Z</time></trkpt><trkpt lat="43.48361980613216" lon="12.284367434731266"><ele>450.0</ele><time>2026-04-26T07:36:41Z</time></trkpt><trkpt lat="43.483541153997635" lon="12.284359852336546"><ele>450.0</ele><time>2026-04-26T07:36:42.001Z</time></trkpt><trkpt lat="43.48345443909986" lon="12.284356631687045"><ele>450.0</ele><time>2026-04-26T07:36:43.001Z</time></trkpt><trkpt lat="43.483377003500706" lon="12.284350179911135"><ele>450.0</ele><time>2026-04-26T07:36:44.001Z</time></trkpt><trkpt lat="43.483295774541766" lon="12.284353340241015"><ele>450.0</ele><time>2026-04-26T07:36:45.001Z</time></trkpt><trkpt lat="43.48321819598176" lon="12.284362249163303"><ele>450.0</ele><time>2026-04-26T07:36:46.001Z</time></trkpt><trkpt lat="43.483123901472034" lon="12.284364499573694"><ele>450.0</ele><time>2026-04-26T07:36:47.001Z</time></trkpt><trkpt lat="43.48303448580868" lon="12.284352722445213"><ele>450.0</ele><time>2026-04-26T07:36:48.001Z</time></trkpt><trkpt lat="43.482942432775495" lon="12.284352594225204"><ele>450.0</ele><time>2026-04-26T07:36:49.001Z</time></trkpt><trkpt lat="43.48284733496874" lon="12.284352855931955"><ele>450.0</ele><time>2026-04-26T07:36:50.001Z</time></trkpt><trkpt lat="43.482770969435705" lon="12.284364932419393"><ele>450.0</ele><time>2026-04-26T07:36:51.001Z</time></trkpt><trkpt lat="43.48266451805863" lon="12.284412877724682"><ele>450.0</ele><time>2026-04-26T07:36:53.001Z</time></trkpt><trkpt lat="43.482594477414814" lon="12.284350691243631"><ele>449.0</ele><time>2026-04-26T07:36:55.001Z</time></trkpt><trkpt lat="43.48256478468731" lon="12.284206427778468"><ele>448.0</ele><time>2026-04-26T07:36:57.001Z</time></trkpt><trkpt lat="43.482529129771976" lon="12.284122580956778"><ele>447.0</ele><time>2026-04-26T07:36:58.001Z</time></trkpt><trkpt lat="43.48246936933209" lon="12.28402148948754"><ele>446.0</ele><time>2026-04-26T07:37:00.001Z</time></trkpt><trkpt lat="43.48237525371732" lon="12.283916926718728"><ele>445.0</ele><time>2026-04-26T07:37:02.001Z</time></trkpt><trkpt lat="43.48227299315409" lon="12.283826645893027"><ele>443.4</ele><time>2026-04-26T07:37:04.001Z</time></trkpt><trkpt lat="43.482160646513194" lon="12.283751101278032"><ele>441.8</ele><time>2026-04-26T07:37:06.001Z</time></trkpt><trkpt lat="43.48205602495696" lon="12.28366554307438"><ele>440.20000000000005</ele><time>2026-04-26T07:37:08.001Z</time></trkpt><trkpt lat="43.481999888195766" lon="12.283607683109096"><ele>438.6</ele><time>2026-04-26T07:37:09.001Z</time></trkpt><trkpt lat="43.481943067826855" lon="12.283554483462655"><ele>437.0</ele><time>2026-04-26T07:37:10.001Z</time></trkpt><trkpt lat="43.48183463775144" lon="12.283474646515385"><ele>435.6</ele><time>2026-04-26T07:37:12.001Z</time></trkpt><trkpt lat="43.48173384375083" lon="12.283376446624022"><ele>434.20000000000005</ele><time>2026-04-26T07:37:14.001Z</time></trkpt><trkpt lat="43.48166358359079" lon="12.283274578250868"><ele>432.8</ele><time>2026-04-26T07:37:16.001Z</time></trkpt><trkpt lat="43.481617907589055" lon="12.283175574991466"><ele>431.4</ele><time>2026-04-26T07:37:18Z</time></trkpt><trkpt lat="43.481543532476664" lon="12.283098306982232"><ele>430.0</ele><time>2026-04-26T07:37:20Z</time></trkpt><trkpt lat="43.4814669485953" lon="12.283046167304345"><ele>429.6666666666667</ele><time>2026-04-26T07:37:22Z</time></trkpt><trkpt lat="43.48140017348877" lon="12.282986157548674"><ele>429.33333333333337</ele><time>2026-04-26T07:37:24Z</time></trkpt><trkpt lat="43.48130358162388" lon="12.282944926235881"><ele>429.0</ele><time>2026-04-26T07:37:26Z</time></trkpt><trkpt lat="43.48124268546198" lon="12.28291254988849"><ele>428.66666666666663</ele><time>2026-04-26T07:37:27Z</time></trkpt><trkpt lat="43.48117082411378" lon="12.282893845938995"><ele>428.3333333333333</ele><time>2026-04-26T07:37:28Z</time></trkpt><trkpt lat="43.481070987950844" lon="12.282870647496788"><ele>428.0</ele><time>2026-04-26T07:37:29Z</time></trkpt><trkpt lat="43.480959360100464" lon="12.282838142412958"><ele>425.79999999999995</ele><time>2026-04-26T07:37:30Z</time></trkpt><trkpt lat="43.48086609845408" lon="12.282821546903474"><ele>423.59999999999997</ele><time>2026-04-26T07:37:31Z</time></trkpt><trkpt lat="43.480775233419585" lon="12.282824557678829"><ele>421.4</ele><time>2026-04-26T07:37:32Z</time></trkpt><trkpt lat="43.48070324228987" lon="12.282833843665443"><ele>419.20000000000005</ele><time>2026-04-26T07:37:33Z</time></trkpt><trkpt lat="43.48057734895239" lon="12.28282491657746"><ele>417.0</ele><time>2026-04-26T07:37:35Z</time></trkpt><trkpt lat="43.48049681857393" lon="12.28280790956877"><ele>415.3333333333333</ele><time>2026-04-26T07:37:36Z</time></trkpt><trkpt lat="43.480413801628174" lon="12.282801284552681"><ele>413.66666666666663</ele><time>2026-04-26T07:37:37Z</time></trkpt><trkpt lat="43.48034636383234" lon="12.282782070756662"><ele>412.0</ele><time>2026-04-26T07:37:38Z</time></trkpt><trkpt lat="43.48027439552254" lon="12.28276651023959"><ele>410.3333333333333</ele><time>2026-04-26T07:37:39Z</time></trkpt><trkpt lat="43.4801606984077" lon="12.282754684701901"><ele>408.66666666666663</ele><time>2026-04-26T07:37:41Z</time></trkpt><trkpt lat="43.480092564118415" lon="12.282770890526288"><ele>407.0</ele><time>2026-04-26T07:37:42Z</time></trkpt><trkpt lat="43.48003141066005" lon="12.282806710940362"><ele>406.99999999999994</ele><time>2026-04-26T07:37:43Z</time></trkpt><trkpt lat="43.4799583311544" lon="12.282851805146295"><ele>407.0</ele><time>2026-04-26T07:37:44Z</time></trkpt><trkpt lat="43.4798913483565" lon="12.28290063923939"><ele>407.0</ele><time>2026-04-26T07:37:45Z</time></trkpt><trkpt lat="43.47981831914329" lon="12.282943835430727"><ele>407.0</ele><time>2026-04-26T07:37:46Z</time></trkpt><trkpt lat="43.47975180624992" lon="12.28299960608155"><ele>406.99999999999994</ele><time>2026-04-26T07:37:47Z</time></trkpt><trkpt lat="43.47968657919509" lon="12.28307158310505"><ele>407.0</ele><time>2026-04-26T07:37:48Z</time></trkpt><trkpt lat="43.47962277254405" lon="12.283128443653698"><ele>405.49999999999994</ele><time>2026-04-26T07:37:49Z</time></trkpt><trkpt lat="43.479556387943035" lon="12.283167313527104"><ele>404.0</ele><time>2026-04-26T07:37:50Z</time></trkpt><trkpt lat="43.47949177394728" lon="12.28319577660662"><ele>402.5</ele><time>2026-04-26T07:37:51Z</time></trkpt><trkpt lat="43.47941839463309" lon="12.283231640935371"><ele>401.0</ele><time>2026-04-26T07:37:52Z</time></trkpt><trkpt lat="43.47934014366054" lon="12.283253618912921"><ele>399.49999999999994</ele><time>2026-04-26T07:37:53Z</time></trkpt><trkpt lat="43.47926321497041" lon="12.283264227964862"><ele>398.0</ele><time>2026-04-26T07:37:54Z</time></trkpt><trkpt lat="43.47918848539271" lon="12.283275685142204"><ele>398.0</ele><time>2026-04-26T07:37:55Z</time></trkpt><trkpt lat="43.479110640956904" lon="12.283300189965983"><ele>398.0</ele><time>2026-04-26T07:37:56Z</time></trkpt><trkpt lat="43.47902658651205" lon="12.283327256002888"><ele>398.0</ele><time>2026-04-26T07:37:57Z</time></trkpt><trkpt lat="43.478949531105336" lon="12.283338046670261"><ele>398.0</ele><time>2026-04-26T07:37:58Z</time></trkpt><trkpt lat="43.47884506931966" lon="12.28333352848057"><ele>398.0</ele><time>2026-04-26T07:38:00Z</time></trkpt><trkpt lat="43.4787135283769" lon="12.283347747297805"><ele>396.3333333333333</ele><time>2026-04-26T07:38:02Z</time></trkpt><trkpt lat="43.47862313281861" lon="12.283360776993383"><ele>394.66666666666663</ele><time>2026-04-26T07:38:03Z</time></trkpt><trkpt lat="43.47854550648897" lon="12.283377135459054"><ele>393.0</ele><time>2026-04-26T07:38:04Z</time></trkpt><trkpt lat="43.47846462003302" lon="12.283397210335597"><ele>391.33333333333337</ele><time>2026-04-26T07:38:05Z</time></trkpt><trkpt lat="43.47838340093935" lon="12.283423390449924"><ele>389.6666666666667</ele><time>2026-04-26T07:38:06Z</time></trkpt><trkpt lat="43.47831210915604" lon="12.283450959353479"><ele>388.0</ele><time>2026-04-26T07:38:07Z</time></trkpt><trkpt lat="43.47824360224918" lon="12.283479359714992"><ele>388.00000000000006</ele><time>2026-04-26T07:38:08Z</time></trkpt><trkpt lat="43.47817608765187" lon="12.28352430266505"><ele>388.0</ele><time>2026-04-26T07:38:09Z</time></trkpt><trkpt lat="43.478110124397894" lon="12.283562003098892"><ele>388.0</ele><time>2026-04-26T07:38:10Z</time></trkpt><trkpt lat="43.47804154491139" lon="12.283608919105035"><ele>388.0</ele><time>2026-04-26T07:38:11Z</time></trkpt><trkpt lat="43.47798639738679" lon="12.283655483897489"><ele>388.00000000000006</ele><time>2026-04-26T07:38:12Z</time></trkpt><trkpt lat="43.4778984000998" lon="12.283777372594006"><ele>388.0</ele><time>2026-04-26T07:38:14Z</time></trkpt><trkpt lat="43.477867583664754" lon="12.283946638621629"><ele>385.2</ele><time>2026-04-26T07:38:16Z</time></trkpt><trkpt lat="43.477864795979045" lon="12.284036131295275"><ele>382.4</ele><time>2026-04-26T07:38:17Z</time></trkpt><trkpt lat="43.4778282674593" lon="12.284178971139388"><ele>379.59999999999997</ele><time>2026-04-26T07:38:19Z</time></trkpt><trkpt lat="43.47772486999937" lon="12.284287833282237"><ele>376.79999999999995</ele><time>2026-04-26T07:38:21Z</time></trkpt><trkpt lat="43.4776640936038" lon="12.284344114768231"><ele>374.0</ele><time>2026-04-26T07:38:22Z</time></trkpt><trkpt lat="43.47755705261168" lon="12.284390418414734"><ele>374.0</ele><time>2026-04-26T07:38:24Z</time></trkpt><trkpt lat="43.47749814911561" lon="12.2843577222613"><ele>374.0</ele><time>2026-04-26T07:38:26Z</time></trkpt><trkpt lat="43.47746709926185" lon="12.284233670636983"><ele>374.0</ele><time>2026-04-26T07:38:28Z</time></trkpt><trkpt lat="43.47747049561668" lon="12.284121542102431"><ele>374.0</ele><time>2026-04-26T07:38:29Z</time></trkpt><trkpt lat="43.47748232172675" lon="12.28399660431746"><ele>374.0</ele><time>2026-04-26T07:38:30Z</time></trkpt><trkpt lat="43.477486529825526" lon="12.283856054869121"><ele>374.0</ele><time>2026-04-26T07:38:31Z</time></trkpt><trkpt lat="43.47748994503691" lon="12.283722265543123"><ele>373.2</ele><time>2026-04-26T07:38:32Z</time></trkpt><trkpt lat="43.47749260201374" lon="12.283582528761"><ele>372.4</ele><time>2026-04-26T07:38:33Z</time></trkpt><trkpt lat="43.47749653401646" lon="12.283434343074777"><ele>371.6</ele><time>2026-04-26T07:38:34Z</time></trkpt><trkpt lat="43.47750484555273" lon="12.283295462756621"><ele>370.8</ele><time>2026-04-26T07:38:35Z</time></trkpt><trkpt lat="43.477507928466174" lon="12.283157458613355"><ele>370.0</ele><time>2026-04-26T07:38:36Z</time></trkpt><trkpt lat="43.47749259549034" lon="12.283032621802562"><ele>372.0</ele><time>2026-04-26T07:38:37Z</time></trkpt><trkpt lat="43.4774512596263" lon="12.282928601033403"><ele>374.0</ele><time>2026-04-26T07:38:38Z</time></trkpt><trkpt lat="43.477378117790934" lon="12.282832876581812"><ele>376.0</ele><time>2026-04-26T07:38:39Z</time></trkpt><trkpt lat="43.47729956391582" lon="12.28272756330691"><ele>378.0</ele><time>2026-04-26T07:38:40Z</time></trkpt><trkpt lat="43.477221918308736" lon="12.282613128586751"><ele>380.0</ele><time>2026-04-26T07:38:41Z</time></trkpt><trkpt lat="43.47714188131609" lon="12.282498760714757"><ele>381.4</ele><time>2026-04-26T07:38:42Z</time></trkpt><trkpt lat="43.47706277306465" lon="12.282395261660678"><ele>382.8</ele><time>2026-04-26T07:38:43Z</time></trkpt><trkpt lat="43.47697750467134" lon="12.282325029769849"><ele>384.20000000000005</ele><time>2026-04-26T07:38:44Z</time></trkpt><trkpt lat="43.47688091722609" lon="12.282267693351406"><ele>385.6</ele><time>2026-04-26T07:38:45Z</time></trkpt><trkpt lat="43.476767588376276" lon="12.28223186527789"><ele>387.0</ele><time>2026-04-26T07:38:46Z</time></trkpt><trkpt lat="43.476648533511025" lon="12.28220414719837"><ele>387.0</ele><time>2026-04-26T07:38:47Z</time></trkpt><trkpt lat="43.47653170933915" lon="12.282191411914518"><ele>387.0</ele><time>2026-04-26T07:38:48Z</time></trkpt><trkpt lat="43.47641459788907" lon="12.28218817339426"><ele>387.0</ele><time>2026-04-26T07:38:49Z</time></trkpt><trkpt lat="43.476304026313585" lon="12.28219264805646"><ele>387.0</ele><time>2026-04-26T07:38:50Z</time></trkpt><trkpt lat="43.47619289310084" lon="12.282190917280607"><ele>383.6</ele><time>2026-04-26T07:38:51Z</time></trkpt><trkpt lat="43.47608476480585" lon="12.282181131439962"><ele>380.20000000000005</ele><time>2026-04-26T07:38:52Z</time></trkpt><trkpt lat="43.47598850498472" lon="12.282155984801477"><ele>376.8</ele><time>2026-04-26T07:38:53Z</time></trkpt><trkpt lat="43.4759048528518" lon="12.282119648860887"><ele>373.4</ele><time>2026-04-26T07:38:54Z</time></trkpt><trkpt lat="43.47583338877126" lon="12.282070118208884"><ele>370.0</ele><time>2026-04-26T07:38:55Z</time></trkpt><trkpt lat="43.475778583019796" lon="12.281988966796614"><ele>370.0</ele><time>2026-04-26T07:38:56Z</time></trkpt><trkpt lat="43.475756211091074" lon="12.281900841249621"><ele>370.0</ele><time>2026-04-26T07:38:57Z</time></trkpt><trkpt lat="43.47573607219267" lon="12.28179489324388"><ele>370.0</ele><time>2026-04-26T07:38:58Z</time></trkpt><trkpt lat="43.47573603624288" lon="12.281670310709615"><ele>370.0</ele><time>2026-04-26T07:38:59Z</time></trkpt><trkpt lat="43.4757432340887" lon="12.281547829739798"><ele>370.0</ele><time>2026-04-26T07:39:00Z</time></trkpt><trkpt lat="43.47575646222525" lon="12.281414578224549"><ele>370.0</ele><time>2026-04-26T07:39:01Z</time></trkpt><trkpt lat="43.47577778863828" lon="12.281270979685182"><ele>369.8</ele><time>2026-04-26T07:39:02.001Z</time></trkpt><trkpt lat="43.475814146159706" lon="12.281126605477992"><ele>369.6</ele><time>2026-04-26T07:39:03.001Z</time></trkpt><trkpt lat="43.47585042255717" lon="12.280992984806552"><ele>369.4</ele><time>2026-04-26T07:39:04.001Z</time></trkpt><trkpt lat="43.47588557051526" lon="12.280858777427007"><ele>369.2</ele><time>2026-04-26T07:39:05.001Z</time></trkpt><trkpt lat="43.47590549986885" lon="12.280733778495975"><ele>369.0</ele><time>2026-04-26T07:39:06.001Z</time></trkpt><trkpt lat="43.47590714233954" lon="12.28061527908719"><ele>370.6</ele><time>2026-04-26T07:39:07.001Z</time></trkpt><trkpt lat="43.475890834870626" lon="12.280496536101465"><ele>372.2</ele><time>2026-04-26T07:39:08.001Z</time></trkpt><trkpt lat="43.47586171656036" lon="12.280382594939494"><ele>373.8</ele><time>2026-04-26T07:39:09.001Z</time></trkpt><trkpt lat="43.47580633349855" lon="12.280279421636754"><ele>375.40000000000003</ele><time>2026-04-26T07:39:10.001Z</time></trkpt><trkpt lat="43.475748266251465" lon="12.280180495022874"><ele>377.0</ele><time>2026-04-26T07:39:11.001Z</time></trkpt><trkpt lat="43.47568250364497" lon="12.280093521699557"><ele>377.0</ele><time>2026-04-26T07:39:12.001Z</time></trkpt><trkpt lat="43.475618027624286" lon="12.280005270584184"><ele>377.0</ele><time>2026-04-26T07:39:13.001Z</time></trkpt><trkpt lat="43.47554006309637" lon="12.27990994405644"><ele>377.0</ele><time>2026-04-26T07:39:14.001Z</time></trkpt><trkpt lat="43.47547463480709" lon="12.279807229335363"><ele>377.0</ele><time>2026-04-26T07:39:15.001Z</time></trkpt><trkpt lat="43.47538833470567" lon="12.279738751229297"><ele>377.0</ele><time>2026-04-26T07:39:16.001Z</time></trkpt><trkpt lat="43.47529377834554" lon="12.27968075639051"><ele>375.0</ele><time>2026-04-26T07:39:17.001Z</time></trkpt><trkpt lat="43.47520312407051" lon="12.27963619868843"><ele>373.0</ele><time>2026-04-26T07:39:18.001Z</time></trkpt><trkpt lat="43.475115679190196" lon="12.279614571172296"><ele>371.0</ele><time>2026-04-26T07:39:19.001Z</time></trkpt><trkpt lat="43.475038158556224" lon="12.279593510076326"><ele>369.0</ele><time>2026-04-26T07:39:20.001Z</time></trkpt><trkpt lat="43.474971614790284" lon="12.279566422212246"><ele>367.0</ele><time>2026-04-26T07:39:21.001Z</time></trkpt><trkpt lat="43.47489846900017" lon="12.279427457049955"><ele>367.0</ele><time>2026-04-26T07:39:23.001Z</time></trkpt><trkpt lat="43.474911992888046" lon="12.279298157105423"><ele>367.0</ele><time>2026-04-26T07:39:24Z</time></trkpt><trkpt lat="43.474892452560326" lon="12.279177006669087"><ele>367.0</ele><time>2026-04-26T07:39:25Z</time></trkpt><trkpt lat="43.4748875227999" lon="12.279029511172734"><ele>367.0</ele><time>2026-04-26T07:39:26Z</time></trkpt><trkpt lat="43.47488921121916" lon="12.27889012345334"><ele>367.0</ele><time>2026-04-26T07:39:27Z</time></trkpt><trkpt lat="43.47492194471007" lon="12.278764907892207"><ele>366.40000000000003</ele><time>2026-04-26T07:39:28Z</time></trkpt><trkpt lat="43.47495467606449" lon="12.278626738584858"><ele>365.8</ele><time>2026-04-26T07:39:29Z</time></trkpt><trkpt lat="43.47497890503736" lon="12.27849659087433"><ele>365.2</ele><time>2026-04-26T07:39:30Z</time></trkpt><trkpt lat="43.4750164269424" lon="12.278383423154125"><ele>364.6</ele><time>2026-04-26T07:39:31Z</time></trkpt><trkpt lat="43.47506126024387" lon="12.27827092579821"><ele>364.0</ele><time>2026-04-26T07:39:32Z</time></trkpt><trkpt lat="43.475113890897994" lon="12.27818522467398"><ele>364.0</ele><time>2026-04-26T07:39:33Z</time></trkpt><trkpt lat="43.47516059829095" lon="12.27810186104643"><ele>364.0</ele><time>2026-04-26T07:39:34Z</time></trkpt><trkpt lat="43.47517178977762" lon="12.27800818928409"><ele>364.0</ele><time>2026-04-26T07:39:35Z</time></trkpt><trkpt lat="43.475170196228774" lon="12.277914592571603"><ele>364.0</ele><time>2026-04-26T07:39:36Z</time></trkpt><trkpt lat="43.47512900447661" lon="12.277803543046078"><ele>364.0</ele><time>2026-04-26T07:39:37Z</time></trkpt><trkpt lat="43.47504825030336" lon="12.277737204425565"><ele>364.0</ele><time>2026-04-26T07:39:38Z</time></trkpt><trkpt lat="43.47497109387183" lon="12.277670150618867"><ele>362.4</ele><time>2026-04-26T07:39:39Z</time></trkpt><trkpt lat="43.47488355099997" lon="12.27759829334936"><ele>360.79999999999995</ele><time>2026-04-26T07:39:40Z</time></trkpt><trkpt lat="43.47479235713909" lon="12.277578801980045"><ele>359.20000000000005</ele><time>2026-04-26T07:39:41Z</time></trkpt><trkpt lat="43.47470823334319" lon="12.277532939875393"><ele>357.6</ele><time>2026-04-26T07:39:42Z</time></trkpt><trkpt lat="43.47462379736734" lon="12.277477169968968"><ele>356.0</ele><time>2026-04-26T07:39:43Z</time></trkpt><trkpt lat="43.47454033725098" lon="12.277396176683267"><ele>356.0</ele><time>2026-04-26T07:39:44Z</time></trkpt><trkpt lat="43.47447623642368" lon="12.277270151184448"><ele>356.0</ele><time>2026-04-26T07:39:45Z</time></trkpt><trkpt lat="43.47440143307145" lon="12.277172837514984"><ele>356.0</ele><time>2026-04-26T07:39:46Z</time></trkpt><trkpt lat="43.474319139334064" lon="12.277111451903947"><ele>356.0</ele><time>2026-04-26T07:39:47Z</time></trkpt><trkpt lat="43.47424256715965" lon="12.277047838936847"><ele>356.0</ele><time>2026-04-26T07:39:48Z</time></trkpt><trkpt lat="43.474161033836154" lon="12.277002162076318"><ele>359.0</ele><time>2026-04-26T07:39:49Z</time></trkpt><trkpt lat="43.47406432412802" lon="12.276949140171"><ele>362.0</ele><time>2026-04-26T07:39:50Z</time></trkpt><trkpt lat="43.47397334808621" lon="12.276923468946775"><ele>365.0</ele><time>2026-04-26T07:39:51Z</time></trkpt><trkpt lat="43.47387452222017" lon="12.276931416712284"><ele>368.0</ele><time>2026-04-26T07:39:52Z</time></trkpt><trkpt lat="43.473769572506576" lon="12.276937442986913"><ele>371.0</ele><time>2026-04-26T07:39:53Z</time></trkpt><trkpt lat="43.4736479856817" lon="12.276950306171868"><ele>371.0</ele><time>2026-04-26T07:39:54Z</time></trkpt><trkpt lat="43.47352431785563" lon="12.276987450474433"><ele>371.0</ele><time>2026-04-26T07:39:55Z</time></trkpt><trkpt lat="43.47341658574228" lon="12.277038632109065"><ele>371.0</ele><time>2026-04-26T07:39:56Z</time></trkpt><trkpt lat="43.473312651569664" lon="12.277049999115116"><ele>371.0</ele><time>2026-04-26T07:39:57Z</time></trkpt><trkpt lat="43.47321854572489" lon="12.277062200302119"><ele>371.0</ele><time>2026-04-26T07:39:58Z</time></trkpt><trkpt lat="43.47312481251586" lon="12.277067423005635"><ele>371.0</ele><time>2026-04-26T07:39:59Z</time></trkpt><trkpt lat="43.4730301103965" lon="12.277085331777151"><ele>371.0</ele><time>2026-04-26T07:40:00Z</time></trkpt><trkpt lat="43.47293403983983" lon="12.277087950310166"><ele>371.0</ele><time>2026-04-26T07:40:01Z</time></trkpt><trkpt lat="43.472838067353536" lon="12.277077296808004"><ele>371.0</ele><time>2026-04-26T07:40:02Z</time></trkpt><trkpt lat="43.472741076781894" lon="12.27705225478775"><ele>371.0</ele><time>2026-04-26T07:40:03Z</time></trkpt><trkpt lat="43.47265317137974" lon="12.276978695060745"><ele>368.0</ele><time>2026-04-26T07:40:04Z</time></trkpt><trkpt lat="43.472565057312366" lon="12.276915597417924"><ele>365.0</ele><time>2026-04-26T07:40:05Z</time></trkpt><trkpt lat="43.472471993951004" lon="12.276841926944321"><ele>362.0</ele><time>2026-04-26T07:40:06Z</time></trkpt><trkpt lat="43.47237617086737" lon="12.276775043539729"><ele>359.0</ele><time>2026-04-26T07:40:07Z</time></trkpt><trkpt lat="43.47229538009198" lon="12.276689401511591"><ele>356.0</ele><time>2026-04-26T07:40:08Z</time></trkpt><trkpt lat="43.4722122984239" lon="12.276606684331567"><ele>356.0</ele><time>2026-04-26T07:40:09Z</time></trkpt><trkpt lat="43.47212641572272" lon="12.276539989814408"><ele>356.0</ele><time>2026-04-26T07:40:10Z</time></trkpt><trkpt lat="43.47203801204225" lon="12.276466686429393"><ele>356.0</ele><time>2026-04-26T07:40:11Z</time></trkpt><trkpt lat="43.47193685889408" lon="12.276422918709445"><ele>356.0</ele><time>2026-04-26T07:40:12Z</time></trkpt><trkpt lat="43.47183672721371" lon="12.276372164706268"><ele>356.0</ele><time>2026-04-26T07:40:13Z</time></trkpt><trkpt lat="43.471732694947264" lon="12.276344130320314"><ele>356.20000000000005</ele><time>2026-04-26T07:40:14Z</time></trkpt><trkpt lat="43.47162899018135" lon="12.276325478371625"><ele>356.40000000000003</ele><time>2026-04-26T07:40:15Z</time></trkpt><trkpt lat="43.47154005329004" lon="12.276322959760293"><ele>356.6</ele><time>2026-04-26T07:40:16Z</time></trkpt><trkpt lat="43.4714397104863" lon="12.276313369345305"><ele>356.8</ele><time>2026-04-26T07:40:17Z</time></trkpt><trkpt lat="43.47133486588922" lon="12.276289557144514"><ele>357.0</ele><time>2026-04-26T07:40:18Z</time></trkpt><trkpt lat="43.47127097577753" lon="12.276211329513558"><ele>354.0</ele><time>2026-04-26T07:40:19Z</time></trkpt><trkpt lat="43.47118903889848" lon="12.276181233518596"><ele>351.0</ele><time>2026-04-26T07:40:20Z</time></trkpt><trkpt lat="43.47111822323331" lon="12.27611073317073"><ele>348.0</ele><time>2026-04-26T07:40:21Z</time></trkpt><trkpt lat="43.47104287302529" lon="12.276068157485787"><ele>345.0</ele><time>2026-04-26T07:40:22Z</time></trkpt><trkpt lat="43.470953866702004" lon="12.276048669977195"><ele>342.0</ele><time>2026-04-26T07:40:23Z</time></trkpt><trkpt lat="43.470855693013206" lon="12.276024997319228"><ele>339.0</ele><time>2026-04-26T07:40:24Z</time></trkpt><trkpt lat="43.4707539540631" lon="12.276002349394794"><ele>339.0</ele><time>2026-04-26T07:40:25Z</time></trkpt><trkpt lat="43.47065430547715" lon="12.276038106598232"><ele>339.0</ele><time>2026-04-26T07:40:26Z</time></trkpt><trkpt lat="43.470575337724306" lon="12.276038050927761"><ele>339.0</ele><time>2026-04-26T07:40:27Z</time></trkpt><trkpt lat="43.470506181700586" lon="12.276040388773247"><ele>339.0</ele><time>2026-04-26T07:40:28Z</time></trkpt><trkpt lat="43.47041409099861" lon="12.276089734218235"><ele>339.0</ele><time>2026-04-26T07:40:30Z</time></trkpt><trkpt lat="43.47041058908213" lon="12.276213789375795"><ele>339.0</ele><time>2026-04-26T07:40:32Z</time></trkpt><trkpt lat="43.47043564444276" lon="12.276296676257207"><ele>340.0</ele><time>2026-04-26T07:40:33Z</time></trkpt><trkpt lat="43.47044436262083" lon="12.276471579720484"><ele>341.0</ele><time>2026-04-26T07:40:35Z</time></trkpt><trkpt lat="43.47039078665911" lon="12.27661403141677"><ele>342.0</ele><time>2026-04-26T07:40:37Z</time></trkpt><trkpt lat="43.470300537002245" lon="12.276687358433467"><ele>343.0</ele><time>2026-04-26T07:40:39Z</time></trkpt><trkpt lat="43.47018761271548" lon="12.276776584405207"><ele>343.0</ele><time>2026-04-26T07:40:41Z</time></trkpt><trkpt lat="43.47011827732832" lon="12.27680444933201"><ele>343.0</ele><time>2026-04-26T07:40:42Z</time></trkpt><trkpt lat="43.47004699706034" lon="12.27683222264267"><ele>343.0</ele><time>2026-04-26T07:40:43Z</time></trkpt><trkpt lat="43.469988922258224" lon="12.276878063889448"><ele>343.0</ele><time>2026-04-26T07:40:44Z</time></trkpt><trkpt lat="43.46992622702457" lon="12.2769267738115"><ele>343.0</ele><time>2026-04-26T07:40:45Z</time></trkpt><trkpt lat="43.46985322897194" lon="12.276976147709822"><ele>343.0</ele><time>2026-04-26T07:40:46Z</time></trkpt><trkpt lat="43.46978123216849" lon="12.277034430488033"><ele>343.0</ele><time>2026-04-26T07:40:47Z</time></trkpt><trkpt lat="43.46972631354795" lon="12.277109033387218"><ele>343.0</ele><time>2026-04-26T07:40:48Z</time></trkpt><trkpt lat="43.46968706130399" lon="12.277195037460723"><ele>343.0</ele><time>2026-04-26T07:40:49Z</time></trkpt><trkpt lat="43.469647891639866" lon="12.277286026877755"><ele>343.0</ele><time>2026-04-26T07:40:50Z</time></trkpt><trkpt lat="43.46960689628242" lon="12.277370107232176"><ele>343.0</ele><time>2026-04-26T07:40:51Z</time></trkpt><trkpt lat="43.46955905802686" lon="12.277439728461683"><ele>343.0</ele><time>2026-04-26T07:40:52Z</time></trkpt><trkpt lat="43.469436810775605" lon="12.27751020673197"><ele>344.8333333333333</ele><time>2026-04-26T07:40:54Z</time></trkpt><trkpt lat="43.46936301532978" lon="12.27752970021029"><ele>346.66666666666663</ele><time>2026-04-26T07:40:55Z</time></trkpt><trkpt lat="43.46928083122562" lon="12.277536078302287"><ele>348.5</ele><time>2026-04-26T07:40:56Z</time></trkpt><trkpt lat="43.4691936680851" lon="12.277530675576488"><ele>350.3333333333333</ele><time>2026-04-26T07:40:57Z</time></trkpt><trkpt lat="43.469111337333146" lon="12.277511230507534"><ele>352.1666666666667</ele><time>2026-04-26T07:40:58Z</time></trkpt><trkpt lat="43.46902870359851" lon="12.277476903167326"><ele>354.0</ele><time>2026-04-26T07:40:59Z</time></trkpt><trkpt lat="43.468883669995705" lon="12.277419405303634"><ele>354.0</ele><time>2026-04-26T07:41:01Z</time></trkpt><trkpt lat="43.46881747559316" lon="12.277408840019866"><ele>354.0</ele><time>2026-04-26T07:41:02Z</time></trkpt><trkpt lat="43.4687119670094" lon="12.277429948773836"><ele>354.0</ele><time>2026-04-26T07:41:04Z</time></trkpt><trkpt lat="43.468688225861264" lon="12.277559145099643"><ele>354.0</ele><time>2026-04-26T07:41:06Z</time></trkpt><trkpt lat="43.468712923578295" lon="12.277644626750092"><ele>354.0</ele><time>2026-04-26T07:41:07Z</time></trkpt><trkpt lat="43.46879017904889" lon="12.277792515033665"><ele>354.0</ele><time>2026-04-26T07:41:09Z</time></trkpt><trkpt lat="43.468843593215574" lon="12.277957442889358"><ele>354.0</ele><time>2026-04-26T07:41:11Z</time></trkpt><trkpt lat="43.46886393228901" lon="12.278065047344665"><ele>354.0</ele><time>2026-04-26T07:41:12Z</time></trkpt><trkpt lat="43.46887976532269" lon="12.278175306101199"><ele>354.0</ele><time>2026-04-26T07:41:13Z</time></trkpt><trkpt lat="43.46890348868213" lon="12.278273229459211"><ele>354.0</ele><time>2026-04-26T07:41:14Z</time></trkpt><trkpt lat="43.46896018065826" lon="12.278348066403645"><ele>354.0</ele><time>2026-04-26T07:41:15Z</time></trkpt><trkpt lat="43.4690283709018" lon="12.278398998219368"><ele>357.0</ele><time>2026-04-26T07:41:16Z</time></trkpt><trkpt lat="43.46910409901691" lon="12.278426853679482"><ele>360.0</ele><time>2026-04-26T07:41:17Z</time></trkpt><trkpt lat="43.469161208579585" lon="12.27855928916692"><ele>363.0</ele><time>2026-04-26T07:41:19Z</time></trkpt><trkpt lat="43.469149786335166" lon="12.278646542889732"><ele>366.0</ele><time>2026-04-26T07:41:20Z</time></trkpt><trkpt lat="43.46915803110558" lon="12.278819577690106"><ele>369.0</ele><time>2026-04-26T07:41:22Z</time></trkpt><trkpt lat="43.469186180495704" lon="12.278897966766092"><ele>372.0</ele><time>2026-04-26T07:41:23Z</time></trkpt><trkpt lat="43.469226340107284" lon="12.278976987621029"><ele>373.5714285714286</ele><time>2026-04-26T07:41:24Z</time></trkpt><trkpt lat="43.46926777087767" lon="12.279052070954203"><ele>375.14285714285717</ele><time>2026-04-26T07:41:25Z</time></trkpt><trkpt lat="43.46932536151913" lon="12.279118664306841"><ele>376.7142857142857</ele><time>2026-04-26T07:41:26Z</time></trkpt><trkpt lat="43.46938566391174" lon="12.279178411081055"><ele>378.28571428571433</ele><time>2026-04-26T07:41:27Z</time></trkpt><trkpt lat="43.469433465019236" lon="12.279247746426208"><ele>379.85714285714283</ele><time>2026-04-26T07:41:28Z</time></trkpt><trkpt lat="43.46946835001395" lon="12.279339882127557"><ele>381.42857142857144</ele><time>2026-04-26T07:41:29Z</time></trkpt><trkpt lat="43.46949731661866" lon="12.279439782551266"><ele>383.0</ele><time>2026-04-26T07:41:30Z</time></trkpt><trkpt lat="43.469527233365206" lon="12.279546586206674"><ele>383.0</ele><time>2026-04-26T07:41:31Z</time></trkpt><trkpt lat="43.469546005029734" lon="12.279640295700123"><ele>383.0</ele><time>2026-04-26T07:41:32Z</time></trkpt><trkpt lat="43.46960597188314" lon="12.279781194673305"><ele>383.0</ele><time>2026-04-26T07:41:34Z</time></trkpt><trkpt lat="43.469700124894715" lon="12.279803459898053"><ele>383.0</ele><time>2026-04-26T07:41:36Z</time></trkpt><trkpt lat="43.46976432150242" lon="12.279784031664693"><ele>383.0</ele><time>2026-04-26T07:41:37Z</time></trkpt><trkpt lat="43.46982815181979" lon="12.279782398641718"><ele>383.0</ele><time>2026-04-26T07:41:38Z</time></trkpt><trkpt lat="43.46996340629336" lon="12.279818952485314"><ele>386.33333333333337</ele><time>2026-04-26T07:41:40Z</time></trkpt><trkpt lat="43.470069422657495" lon="12.279896333830372"><ele>389.6666666666667</ele><time>2026-04-26T07:41:42Z</time></trkpt><trkpt lat="43.470088575610994" lon="12.279982406938405"><ele>393.0</ele><time>2026-04-26T07:41:43Z</time></trkpt><trkpt lat="43.47014368911509" lon="12.280029546575376"><ele>396.33333333333337</ele><time>2026-04-26T07:41:44Z</time></trkpt><trkpt lat="43.4701994123359" lon="12.280090023941531"><ele>399.6666666666667</ele><time>2026-04-26T07:41:45Z</time></trkpt><trkpt lat="43.47027682888631" lon="12.280135098632535"><ele>403.0</ele><time>2026-04-26T07:41:46Z</time></trkpt><trkpt lat="43.47033327402878" lon="12.280191126601807"><ele>403.00000000000006</ele><time>2026-04-26T07:41:47Z</time></trkpt><trkpt lat="43.47039534707204" lon="12.2802287082546"><ele>403.0</ele><time>2026-04-26T07:41:48Z</time></trkpt><trkpt lat="43.47044578087581" lon="12.280287018639077"><ele>403.0</ele><time>2026-04-26T07:41:49Z</time></trkpt><trkpt lat="43.47050901315536" lon="12.28040221956755"><ele>403.0</ele><time>2026-04-26T07:41:51Z</time></trkpt><trkpt lat="43.470553571686885" lon="12.280475341780114"><ele>403.00000000000006</ele><time>2026-04-26T07:41:52Z</time></trkpt><trkpt lat="43.47063377615734" lon="12.280615646782776"><ele>403.0</ele><time>2026-04-26T07:41:54Z</time></trkpt><trkpt lat="43.47068663116487" lon="12.280695288183942"><ele>406.4</ele><time>2026-04-26T07:41:55Z</time></trkpt><trkpt lat="43.4707455815162" lon="12.280738903827407"><ele>409.79999999999995</ele><time>2026-04-26T07:41:56Z</time></trkpt><trkpt lat="43.47085942345392" lon="12.280818071103067"><ele>413.2</ele><time>2026-04-26T07:41:58Z</time></trkpt><trkpt lat="43.47091567084612" lon="12.280865112908328"><ele>416.6</ele><time>2026-04-26T07:41:59Z</time></trkpt><trkpt lat="43.47097561821673" lon="12.280907961613352"><ele>420.0</ele><time>2026-04-26T07:42:00Z</time></trkpt><trkpt lat="43.47110875154305" lon="12.280955450753511"><ele>420.0</ele><time>2026-04-26T07:42:02Z</time></trkpt><trkpt lat="43.47120539876559" lon="12.280973528884342"><ele>420.0</ele><time>2026-04-26T07:42:03Z</time></trkpt><trkpt lat="43.47127398318704" lon="12.280979554826406"><ele>420.0</ele><time>2026-04-26T07:42:04Z</time></trkpt><trkpt lat="43.47138290504786" lon="12.280960418196525"><ele>420.0</ele><time>2026-04-26T07:42:06Z</time></trkpt><trkpt lat="43.47144979210121" lon="12.280828936167472"><ele>420.0</ele><time>2026-04-26T07:42:08Z</time></trkpt><trkpt lat="43.47150218506412" lon="12.280763355342518"><ele>421.1666666666667</ele><time>2026-04-26T07:42:09Z</time></trkpt><trkpt lat="43.47156085526587" lon="12.280709129932625"><ele>422.33333333333337</ele><time>2026-04-26T07:42:10Z</time></trkpt><trkpt lat="43.47163875128607" lon="12.280693617955656"><ele>423.5</ele><time>2026-04-26T07:42:12Z</time></trkpt><trkpt lat="43.471728181865345" lon="12.280836825701314"><ele>424.6666666666667</ele><time>2026-04-26T07:42:14Z</time></trkpt><trkpt lat="43.47177070588568" lon="12.280926246130564"><ele>425.83333333333337</ele><time>2026-04-26T07:42:15Z</time></trkpt><trkpt lat="43.471819904417416" lon="12.281013342521783"><ele>427.0</ele><time>2026-04-26T07:42:16Z</time></trkpt><trkpt lat="43.47184727310912" lon="12.281107269329347"><ele>427.00000000000006</ele><time>2026-04-26T07:42:17Z</time></trkpt><trkpt lat="43.47181917199661" lon="12.281238118684932"><ele>427.0</ele><time>2026-04-26T07:42:19Z</time></trkpt><trkpt lat="43.47174820663918" lon="12.281361737940871"><ele>427.0</ele><time>2026-04-26T07:42:21Z</time></trkpt><trkpt lat="43.471735929153375" lon="12.281459410038167"><ele>427.0</ele><time>2026-04-26T07:42:22Z</time></trkpt><trkpt lat="43.47173995845271" lon="12.28156736007384"><ele>427.00000000000006</ele><time>2026-04-26T07:42:23Z</time></trkpt><trkpt lat="43.471771507592386" lon="12.281674837897885"><ele>427.0</ele><time>2026-04-26T07:42:24Z</time></trkpt><trkpt lat="43.47180544157594" lon="12.281784091496926"><ele>428.50000000000006</ele><time>2026-04-26T07:42:25Z</time></trkpt><trkpt lat="43.47184576699921" lon="12.281865873704042"><ele>430.0</ele><time>2026-04-26T07:42:26Z</time></trkpt><trkpt lat="43.47190296844894" lon="12.281945189579147"><ele>431.5</ele><time>2026-04-26T07:42:27Z</time></trkpt><trkpt lat="43.47194540465804" lon="12.282037631611095"><ele>433.0</ele><time>2026-04-26T07:42:28Z</time></trkpt><trkpt lat="43.47197584551224" lon="12.282139054162773"><ele>434.50000000000006</ele><time>2026-04-26T07:42:29Z</time></trkpt><trkpt lat="43.471989624616036" lon="12.282245737976906"><ele>436.0</ele><time>2026-04-26T07:42:30Z</time></trkpt><trkpt lat="43.471995915763245" lon="12.28234905674727"><ele>438.00000000000006</ele><time>2026-04-26T07:42:31Z</time></trkpt><trkpt lat="43.47200807430392" lon="12.282453605946243"><ele>440.0</ele><time>2026-04-26T07:42:32Z</time></trkpt><trkpt lat="43.47201875657721" lon="12.282540156536799"><ele>442.0</ele><time>2026-04-26T07:42:33Z</time></trkpt><trkpt lat="43.47195097940013" lon="12.28266966859577"><ele>444.0</ele><time>2026-04-26T07:42:35Z</time></trkpt><trkpt lat="43.47187769318027" lon="12.28270018201747"><ele>446.00000000000006</ele><time>2026-04-26T07:42:36Z</time></trkpt><trkpt lat="43.47180925708415" lon="12.2827153920359"><ele>448.0</ele><time>2026-04-26T07:42:37Z</time></trkpt><trkpt lat="43.47173860829422" lon="12.282734670887969"><ele>448.0</ele><time>2026-04-26T07:42:38Z</time></trkpt><trkpt lat="43.471672998639654" lon="12.282783118116141"><ele>448.0</ele><time>2026-04-26T07:42:39Z</time></trkpt><trkpt lat="43.47163148703056" lon="12.28285885754452"><ele>448.0</ele><time>2026-04-26T07:42:40Z</time></trkpt><trkpt lat="43.47161257684045" lon="12.282959044260666"><ele>448.0</ele><time>2026-04-26T07:42:41Z</time></trkpt><trkpt lat="43.471606467900756" lon="12.283067182330827"><ele>448.0</ele><time>2026-04-26T07:42:42Z</time></trkpt><trkpt lat="43.4715992972906" lon="12.283170820195354"><ele>448.0</ele><time>2026-04-26T07:42:43Z</time></trkpt><trkpt lat="43.471572456519944" lon="12.28325003525439"><ele>448.0</ele><time>2026-04-26T07:42:44Z</time></trkpt><trkpt lat="43.47152668907073" lon="12.283324661941162"><ele>449.50000000000006</ele><time>2026-04-26T07:42:45Z</time></trkpt><trkpt lat="43.47147219655146" lon="12.28336817625364"><ele>451.0</ele><time>2026-04-26T07:42:46Z</time></trkpt><trkpt lat="43.47135754223149" lon="12.283479687067556"><ele>452.5</ele><time>2026-04-26T07:42:48Z</time></trkpt><trkpt lat="43.47129856450622" lon="12.283551931714737"><ele>454.0</ele><time>2026-04-26T07:42:49Z</time></trkpt><trkpt lat="43.471259812761" lon="12.28362683849704"><ele>455.50000000000006</ele><time>2026-04-26T07:42:50Z</time></trkpt><trkpt lat="43.471215836924706" lon="12.283709464639601"><ele>457.0</ele><time>2026-04-26T07:42:51Z</time></trkpt><trkpt lat="43.471176645882" lon="12.283804302829964"><ele>458.50000000000006</ele><time>2026-04-26T07:42:52Z</time></trkpt><trkpt lat="43.471157254997" lon="12.283980585179439"><ele>460.0</ele><time>2026-04-26T07:42:54Z</time></trkpt><trkpt lat="43.47116341509617" lon="12.284088401846118"><ele>461.5</ele><time>2026-04-26T07:42:55Z</time></trkpt><trkpt lat="43.471179616608275" lon="12.284182487539315"><ele>463.0</ele><time>2026-04-26T07:42:56Z</time></trkpt><trkpt lat="43.47120597169997" lon="12.284282266108887"><ele>464.50000000000006</ele><time>2026-04-26T07:42:57Z</time></trkpt><trkpt lat="43.471239560768886" lon="12.284386569254051"><ele>466.0</ele><time>2026-04-26T07:42:58Z</time></trkpt><trkpt lat="43.471281276381916" lon="12.284499333727073"><ele>467.0</ele><time>2026-04-26T07:42:59Z</time></trkpt><trkpt lat="43.47132158610284" lon="12.28460826316232"><ele>468.0</ele><time>2026-04-26T07:43:00Z</time></trkpt><trkpt lat="43.47136607288124" lon="12.284747390238802"><ele>469.0</ele><time>2026-04-26T07:43:01Z</time></trkpt><trkpt lat="43.4714215081281" lon="12.284888656764327"><ele>470.0</ele><time>2026-04-26T07:43:02Z</time></trkpt><trkpt lat="43.471460940219636" lon="12.285029524105044"><ele>471.0</ele><time>2026-04-26T07:43:03Z</time></trkpt><trkpt lat="43.47150537019157" lon="12.285176159014657"><ele>472.8</ele><time>2026-04-26T07:43:04Z</time></trkpt><trkpt lat="43.47154641756628" lon="12.285321363497497"><ele>474.6</ele><time>2026-04-26T07:43:05Z</time></trkpt><trkpt lat="43.471581054025634" lon="12.285453720211429"><ele>476.4</ele><time>2026-04-26T07:43:06Z</time></trkpt><trkpt lat="43.47161873223513" lon="12.285581011040916"><ele>478.2</ele><time>2026-04-26T07:43:07Z</time></trkpt><trkpt lat="43.47165064808898" lon="12.2857097296457"><ele>480.0</ele><time>2026-04-26T07:43:08Z</time></trkpt><trkpt lat="43.4716839851137" lon="12.285823961966072"><ele>482.0</ele><time>2026-04-26T07:43:09Z</time></trkpt><trkpt lat="43.471712835356556" lon="12.285920299309671"><ele>484.0</ele><time>2026-04-26T07:43:10Z</time></trkpt><trkpt lat="43.47173378213074" lon="12.286017922902737"><ele>486.0</ele><time>2026-04-26T07:43:11Z</time></trkpt><trkpt lat="43.47174895878711" lon="12.286118277377598"><ele>488.0</ele><time>2026-04-26T07:43:12Z</time></trkpt><trkpt lat="43.471726710374824" lon="12.286306515166482"><ele>490.0</ele><time>2026-04-26T07:43:14Z</time></trkpt><trkpt lat="43.47175480743494" lon="12.286395862237349"><ele>492.0</ele><time>2026-04-26T07:43:15Z</time></trkpt><trkpt lat="43.471811046730906" lon="12.286437916396354"><ele>493.6</ele><time>2026-04-26T07:43:16Z</time></trkpt><trkpt lat="43.47194553763001" lon="12.286464464859787"><ele>495.20000000000005</ele><time>2026-04-26T07:43:18Z</time></trkpt><trkpt lat="43.472044409875245" lon="12.286451513940225"><ele>496.8</ele><time>2026-04-26T07:43:19Z</time></trkpt><trkpt lat="43.472124258377335" lon="12.286457470835716"><ele>498.4</ele><time>2026-04-26T07:43:20Z</time></trkpt><trkpt lat="43.472192804134316" lon="12.286501325265633"><ele>500.0</ele><time>2026-04-26T07:43:21Z</time></trkpt><trkpt lat="43.47226838685896" lon="12.286558949452358"><ele>499.99999999999994</ele><time>2026-04-26T07:43:22Z</time></trkpt><trkpt lat="43.472343470817954" lon="12.286603564291589"><ele>500.0</ele><time>2026-04-26T07:43:23Z</time></trkpt><trkpt lat="43.472398634482936" lon="12.28666563146754"><ele>500.0</ele><time>2026-04-26T07:43:24Z</time></trkpt><trkpt lat="43.47243488788366" lon="12.286757104862918"><ele>500.0</ele><time>2026-04-26T07:43:25Z</time></trkpt><trkpt lat="43.47246916519499" lon="12.286863158587987"><ele>499.99999999999994</ele><time>2026-04-26T07:43:26Z</time></trkpt><trkpt lat="43.472518904860266" lon="12.286969319623006"><ele>500.0</ele><time>2026-04-26T07:43:27Z</time></trkpt><trkpt lat="43.47257006729482" lon="12.28707476198166"><ele>500.0</ele><time>2026-04-26T07:43:28Z</time></trkpt><trkpt lat="43.4726133512873" lon="12.287159763428741"><ele>500.0</ele><time>2026-04-26T07:43:29Z</time></trkpt><trkpt lat="43.47268406305454" lon="12.287298163947671"><ele>500.0</ele><time>2026-04-26T07:43:31Z</time></trkpt><trkpt lat="43.47274772903477" lon="12.287404105505301"><ele>500.0</ele><time>2026-04-26T07:43:33Z</time></trkpt><trkpt lat="43.472791323048995" lon="12.287503486273097"><ele>500.0</ele><time>2026-04-26T07:43:36Z</time></trkpt><trkpt lat="43.47281081499039" lon="12.287593827104237"><ele>503.75</ele><time>2026-04-26T07:43:39Z</time></trkpt><trkpt lat="43.472837409151936" lon="12.287748874973786"><ele>507.5</ele><time>2026-04-26T07:43:46Z</time></trkpt><trkpt lat="43.47287983557344" lon="12.28788479623683"><ele>511.25</ele><time>2026-04-26T07:43:48Z</time></trkpt><trkpt lat="43.47289405175908" lon="12.288054129532355"><ele>515.0</ele><time>2026-04-26T07:43:50Z</time></trkpt><trkpt lat="43.472879568969965" lon="12.288201481911745"><ele>517.0</ele><time>2026-04-26T07:43:52Z</time></trkpt><trkpt lat="43.472850541756785" lon="12.288307012818047"><ele>519.0</ele><time>2026-04-26T07:43:53Z</time></trkpt><trkpt lat="43.47281438319397" lon="12.288419129253606"><ele>521.0</ele><time>2026-04-26T07:43:54Z</time></trkpt><trkpt lat="43.472781043349094" lon="12.288517966591847"><ele>523.0</ele><time>2026-04-26T07:43:55Z</time></trkpt><trkpt lat="43.47274213991954" lon="12.288603867189243"><ele>525.0</ele><time>2026-04-26T07:43:56Z</time></trkpt><trkpt lat="43.47270164359954" lon="12.288675516743876"><ele>527.0</ele><time>2026-04-26T07:43:57Z</time></trkpt><trkpt lat="43.472608827757256" lon="12.288786856949494"><ele>527.0</ele><time>2026-04-26T07:43:59Z</time></trkpt><trkpt lat="43.47257112555708" lon="12.288859903869287"><ele>527.0</ele><time>2026-04-26T07:44:00Z</time></trkpt><trkpt lat="43.47252652915877" lon="12.288928036550711"><ele>527.0</ele><time>2026-04-26T07:44:01Z</time></trkpt><trkpt lat="43.472450907145856" lon="12.289057893717976"><ele>527.0</ele><time>2026-04-26T07:44:03Z</time></trkpt><trkpt lat="43.472380774257324" lon="12.28914012638624"><ele>527.0</ele><time>2026-04-26T07:44:05Z</time></trkpt><trkpt lat="43.47234524297358" lon="12.289216377559192"><ele>527.0</ele><time>2026-04-26T07:44:06Z</time></trkpt><trkpt lat="43.47232779620628" lon="12.289318787492338"><ele>527.5</ele><time>2026-04-26T07:44:07Z</time></trkpt><trkpt lat="43.472328102581514" lon="12.289421765055254"><ele>528.0</ele><time>2026-04-26T07:44:08Z</time></trkpt><trkpt lat="43.472317261301654" lon="12.289519955534507"><ele>528.5</ele><time>2026-04-26T07:44:09Z</time></trkpt><trkpt lat="43.47233245315008" lon="12.289683227545241"><ele>529.0</ele><time>2026-04-26T07:44:11Z</time></trkpt><trkpt lat="43.47236473712056" lon="12.289759545791824"><ele>529.5</ele><time>2026-04-26T07:44:12Z</time></trkpt><trkpt lat="43.47242964832578" lon="12.289821077333317"><ele>530.0</ele><time>2026-04-26T07:44:13Z</time></trkpt><trkpt lat="43.47250667980398" lon="12.289863644937983"><ele>531.5</ele><time>2026-04-26T07:44:14Z</time></trkpt><trkpt lat="43.47257449895695" lon="12.28992645465931"><ele>533.0</ele><time>2026-04-26T07:44:15Z</time></trkpt><trkpt lat="43.472601917872964" lon="12.290064558926991"><ele>534.5</ele><time>2026-04-26T07:44:17Z</time></trkpt><trkpt lat="43.47259429965943" lon="12.290169909367604"><ele>536.0</ele><time>2026-04-26T07:44:18Z</time></trkpt><trkpt lat="43.47260661665589" lon="12.290283098242343"><ele>537.5</ele><time>2026-04-26T07:44:19Z</time></trkpt><trkpt lat="43.47264720356527" lon="12.290392405505905"><ele>539.0</ele><time>2026-04-26T07:44:20Z</time></trkpt><trkpt lat="43.47268304200542" lon="12.290492610447146"><ele>539.0</ele><time>2026-04-26T07:44:21Z</time></trkpt><trkpt lat="43.47271055658769" lon="12.290577859481209"><ele>539.0</ele><time>2026-04-26T07:44:22Z</time></trkpt><trkpt lat="43.47274436349592" lon="12.2906555031299"><ele>539.0</ele><time>2026-04-26T07:44:23Z</time></trkpt><trkpt lat="43.47278766863873" lon="12.290735531367137"><ele>539.0</ele><time>2026-04-26T07:44:24Z</time></trkpt><trkpt lat="43.47284820976121" lon="12.29092675141636"><ele>539.0</ele><time>2026-04-26T07:44:26Z</time></trkpt><trkpt lat="43.47288469014462" lon="12.291045022435839"><ele>538.1666666666666</ele><time>2026-04-26T07:44:27Z</time></trkpt><trkpt lat="43.472914911276376" lon="12.291156797755445"><ele>537.3333333333333</ele><time>2026-04-26T07:44:28Z</time></trkpt><trkpt lat="43.472942604525514" lon="12.291347039983428"><ele>536.5</ele><time>2026-04-26T07:44:30Z</time></trkpt><trkpt lat="43.4729395084444" lon="12.291437093647247"><ele>535.6666666666666</ele><time>2026-04-26T07:44:31Z</time></trkpt><trkpt lat="43.47291539689428" lon="12.291517763829603"><ele>534.8333333333334</ele><time>2026-04-26T07:44:32Z</time></trkpt><trkpt lat="43.47288671446186" lon="12.291615002127456"><ele>534.0</ele><time>2026-04-26T07:44:33Z</time></trkpt><trkpt lat="43.47285974850557" lon="12.29172666333556"><ele>538.2</ele><time>2026-04-26T07:44:34Z</time></trkpt><trkpt lat="43.47284931617499" lon="12.291825894145965"><ele>542.4</ele><time>2026-04-26T07:44:35Z</time></trkpt><trkpt lat="43.472845633032804" lon="12.291956408407781"><ele>546.6</ele><time>2026-04-26T07:44:36Z</time></trkpt><trkpt lat="43.47285022005284" lon="12.292074385172906"><ele>550.8</ele><time>2026-04-26T07:44:37Z</time></trkpt><trkpt lat="43.47288232271765" lon="12.2922501295975"><ele>555.0</ele><time>2026-04-26T07:44:39Z</time></trkpt><trkpt lat="43.47289952778028" lon="12.292363686985007"><ele>555.0</ele><time>2026-04-26T07:44:40Z</time></trkpt><trkpt lat="43.472855669994225" lon="12.292582924668066"><ele>555.0</ele><time>2026-04-26T07:44:42Z</time></trkpt><trkpt lat="43.47283187858983" lon="12.292687471915247"><ele>555.0</ele><time>2026-04-26T07:44:43Z</time></trkpt><trkpt lat="43.47283975102449" lon="12.292791720981816"><ele>555.0</ele><time>2026-04-26T07:44:44Z</time></trkpt><trkpt lat="43.47286878242965" lon="12.292883734187134"><ele>555.0</ele><time>2026-04-26T07:44:45Z</time></trkpt><trkpt lat="43.472911166037605" lon="12.292997544614312"><ele>554.0</ele><time>2026-04-26T07:44:46Z</time></trkpt><trkpt lat="43.47296132763208" lon="12.29310869623042"><ele>553.0</ele><time>2026-04-26T07:44:47Z</time></trkpt><trkpt lat="43.47300742873313" lon="12.293214972610274"><ele>552.0</ele><time>2026-04-26T07:44:48Z</time></trkpt><trkpt lat="43.473046311558534" lon="12.293299198781009"><ele>551.0</ele><time>2026-04-26T07:44:49Z</time></trkpt><trkpt lat="43.47309417646972" lon="12.293447302584246"><ele>550.0</ele><time>2026-04-26T07:44:51Z</time></trkpt><trkpt lat="43.473195653531846" lon="12.293578941522275"><ele>550.0</ele><time>2026-04-26T07:44:53Z</time></trkpt><trkpt lat="43.4732676880325" lon="12.293653444748301"><ele>550.0</ele><time>2026-04-26T07:44:54Z</time></trkpt><trkpt lat="43.47335458145155" lon="12.293749441106128"><ele>550.0</ele><time>2026-04-26T07:44:55Z</time></trkpt><trkpt lat="43.47342721359603" lon="12.293839918078227"><ele>550.0</ele><time>2026-04-26T07:44:56Z</time></trkpt><trkpt lat="43.4735126679879" lon="12.293933361161894"><ele>550.0</ele><time>2026-04-26T07:44:57Z</time></trkpt><trkpt lat="43.47359483751638" lon="12.294026900731188"><ele>549.6666666666667</ele><time>2026-04-26T07:44:58Z</time></trkpt><trkpt lat="43.473654244804564" lon="12.294098022486507"><ele>549.3333333333334</ele><time>2026-04-26T07:44:59Z</time></trkpt><trkpt lat="43.473725147190926" lon="12.294159531187876"><ele>549.0</ele><time>2026-04-26T07:45:00Z</time></trkpt><trkpt lat="43.47378585120192" lon="12.29422243076"><ele>548.6666666666666</ele><time>2026-04-26T07:45:01Z</time></trkpt><trkpt lat="43.4738534042963" lon="12.294276314257287"><ele>548.3333333333333</ele><time>2026-04-26T07:45:02Z</time></trkpt><trkpt lat="43.47392010049571" lon="12.294321948990564"><ele>548.0</ele><time>2026-04-26T07:45:03Z</time></trkpt><trkpt lat="43.4739818723078" lon="12.294380869555928"><ele>547.8</ele><time>2026-04-26T07:45:04Z</time></trkpt><trkpt lat="43.47404489501624" lon="12.294492881341508"><ele>547.5999999999999</ele><time>2026-04-26T07:45:06Z</time></trkpt><trkpt lat="43.47405759472291" lon="12.294610227983664"><ele>547.4000000000001</ele><time>2026-04-26T07:45:08Z</time></trkpt><trkpt lat="43.4741178528014" lon="12.294688677688258"><ele>547.2</ele><time>2026-04-26T07:45:10Z</time></trkpt><trkpt lat="43.47418435881985" lon="12.294764643291764"><ele>547.0</ele><time>2026-04-26T07:45:12Z</time></trkpt><trkpt lat="43.474255287401995" lon="12.294871594888079"><ele>546.6</ele><time>2026-04-26T07:45:14Z</time></trkpt><trkpt lat="43.474360953341126" lon="12.29496792080368"><ele>546.2</ele><time>2026-04-26T07:45:16Z</time></trkpt><trkpt lat="43.47443382735973" lon="12.29503213969547"><ele>545.8</ele><time>2026-04-26T07:45:17Z</time></trkpt><trkpt lat="43.47449354734261" lon="12.295090055230059"><ele>545.4</ele><time>2026-04-26T07:45:18Z</time></trkpt><trkpt lat="43.47455773917456" lon="12.295160424352058"><ele>545.0</ele><time>2026-04-26T07:45:19Z</time></trkpt><trkpt lat="43.47462689134444" lon="12.295220817208298"><ele>546.0</ele><time>2026-04-26T07:45:20Z</time></trkpt><trkpt lat="43.47468534413435" lon="12.29527661847439"><ele>547.0</ele><time>2026-04-26T07:45:21Z</time></trkpt><trkpt lat="43.474747696355585" lon="12.295322931346133"><ele>548.0</ele><time>2026-04-26T07:45:22Z</time></trkpt><trkpt lat="43.47481731171451" lon="12.295382425585679"><ele>549.0</ele><time>2026-04-26T07:45:23Z</time></trkpt><trkpt lat="43.47488571895139" lon="12.295444093759224"><ele>550.0</ele><time>2026-04-26T07:45:24Z</time></trkpt><trkpt lat="43.47495874814932" lon="12.295494676950813"><ele>551.0</ele><time>2026-04-26T07:45:25Z</time></trkpt><trkpt lat="43.47503954138449" lon="12.295553313028574"><ele>550.0</ele><time>2026-04-26T07:45:26Z</time></trkpt><trkpt lat="43.475110508137995" lon="12.295610806539036"><ele>549.0</ele><time>2026-04-26T07:45:27Z</time></trkpt><trkpt lat="43.47517897877472" lon="12.295675176341025"><ele>548.0</ele><time>2026-04-26T07:45:28Z</time></trkpt><trkpt lat="43.47524808908576" lon="12.295745322403905"><ele>547.0</ele><time>2026-04-26T07:45:29Z</time></trkpt><trkpt lat="43.47534262120204" lon="12.295846447249204"><ele>546.0</ele><time>2026-04-26T07:45:31Z</time></trkpt><trkpt lat="43.47543663992538" lon="12.295940259730655"><ele>547.3333333333334</ele><time>2026-04-26T07:45:33Z</time></trkpt><trkpt lat="43.475499341880806" lon="12.295983904277266"><ele>548.6666666666666</ele><time>2026-04-26T07:45:34Z</time></trkpt><trkpt lat="43.47557777879163" lon="12.296023699025433"><ele>550.0</ele><time>2026-04-26T07:45:35Z</time></trkpt><trkpt lat="43.47565068232985" lon="12.29608958791577"><ele>551.3333333333333</ele><time>2026-04-26T07:45:36Z</time></trkpt><trkpt lat="43.47572929065359" lon="12.296158517537066"><ele>552.6666666666666</ele><time>2026-04-26T07:45:37Z</time></trkpt><trkpt lat="43.475808445334124" lon="12.29621082909814"><ele>554.0</ele><time>2026-04-26T07:45:38Z</time></trkpt><trkpt lat="43.4758896545814" lon="12.29626651762938"><ele>554.0</ele><time>2026-04-26T07:45:39Z</time></trkpt><trkpt lat="43.475953277292646" lon="12.296322380042898"><ele>554.0</ele><time>2026-04-26T07:45:40Z</time></trkpt><trkpt lat="43.47601257464409" lon="12.296382228004536"><ele>554.0</ele><time>2026-04-26T07:45:41Z</time></trkpt><trkpt lat="43.476123055054835" lon="12.296460870354968"><ele>554.0</ele><time>2026-04-26T07:45:43Z</time></trkpt><trkpt lat="43.47618542670734" lon="12.29649816557664"><ele>554.0</ele><time>2026-04-26T07:45:44Z</time></trkpt><trkpt lat="43.47625199503376" lon="12.2965259383533"><ele>554.0</ele><time>2026-04-26T07:45:45Z</time></trkpt><trkpt lat="43.47631289995794" lon="12.296567805529081"><ele>554.4</ele><time>2026-04-26T07:45:46Z</time></trkpt><trkpt lat="43.47636753079602" lon="12.29662010571566"><ele>554.8</ele><time>2026-04-26T07:45:47Z</time></trkpt><trkpt lat="43.476475159715434" lon="12.296699524054441"><ele>555.2</ele><time>2026-04-26T07:45:49Z</time></trkpt><trkpt lat="43.476593648352676" lon="12.296782281708374"><ele>555.6</ele><time>2026-04-26T07:45:51Z</time></trkpt><trkpt lat="43.47665890940499" lon="12.296833669817154"><ele>556.0</ele><time>2026-04-26T07:45:52Z</time></trkpt><trkpt lat="43.47676738875926" lon="12.296908983775221"><ele>556.0</ele><time>2026-04-26T07:45:54Z</time></trkpt><trkpt lat="43.47686110071568" lon="12.296967477738052"><ele>556.0</ele><time>2026-04-26T07:45:56Z</time></trkpt><trkpt lat="43.47692909859796" lon="12.296977441479825"><ele>556.0</ele><time>2026-04-26T07:46:00Z</time></trkpt><trkpt lat="43.47699789633407" lon="12.297049260519655"><ele>556.0</ele><time>2026-04-26T07:46:04Z</time></trkpt><trkpt lat="43.477073941437084" lon="12.297133875902263"><ele>556.0</ele><time>2026-04-26T07:46:06Z</time></trkpt><trkpt lat="43.477136350451254" lon="12.297193267231073"><ele>556.0</ele><time>2026-04-26T07:46:08Z</time></trkpt><trkpt lat="43.477219879002135" lon="12.29724893309529"><ele>555.6</ele><time>2026-04-26T07:46:10Z</time></trkpt><trkpt lat="43.47731475963203" lon="12.297338002342695"><ele>555.2</ele><time>2026-04-26T07:46:12Z</time></trkpt><trkpt lat="43.47740235969889" lon="12.297410831149355"><ele>554.8</ele><time>2026-04-26T07:46:14Z</time></trkpt><trkpt lat="43.477477821646325" lon="12.29744878314891"><ele>554.4</ele><time>2026-04-26T07:46:16Z</time></trkpt><trkpt lat="43.47756362400358" lon="12.297502243315494"><ele>554.0</ele><time>2026-04-26T07:46:18Z</time></trkpt><trkpt lat="43.47764745183307" lon="12.297601163701012"><ele>554.0</ele><time>2026-04-26T07:46:20Z</time></trkpt><trkpt lat="43.47772421045282" lon="12.297689240149015"><ele>554.0</ele><time>2026-04-26T07:46:22Z</time></trkpt><trkpt lat="43.477813228158944" lon="12.297736666934224"><ele>554.0</ele><time>2026-04-26T07:46:24Z</time></trkpt><trkpt lat="43.477930185065915" lon="12.297796513841687"><ele>554.0</ele><time>2026-04-26T07:46:26Z</time></trkpt><trkpt lat="43.47799400504537" lon="12.297846912741754"><ele>554.0</ele><time>2026-04-26T07:46:27Z</time></trkpt><trkpt lat="43.47805226970243" lon="12.297893967492605"><ele>553.2</ele><time>2026-04-26T07:46:28Z</time></trkpt><trkpt lat="43.478126667492205" lon="12.297945639354543"><ele>552.4</ele><time>2026-04-26T07:46:29Z</time></trkpt><trkpt lat="43.47818670328372" lon="12.297992378057586"><ele>551.6</ele><time>2026-04-26T07:46:30Z</time></trkpt><trkpt lat="43.47828691112929" lon="12.298063427293044"><ele>550.8</ele><time>2026-04-26T07:46:32Z</time></trkpt><trkpt lat="43.47837025019483" lon="12.298184165794364"><ele>550.0</ele><time>2026-04-26T07:46:34Z</time></trkpt><trkpt lat="43.47841956299509" lon="12.298262176699833"><ele>549.6666666666667</ele><time>2026-04-26T07:46:35Z</time></trkpt><trkpt lat="43.47847526362236" lon="12.29834527985859"><ele>549.3333333333334</ele><time>2026-04-26T07:46:36Z</time></trkpt><trkpt lat="43.47853372660032" lon="12.298413804845966"><ele>549.0</ele><time>2026-04-26T07:46:37Z</time></trkpt><trkpt lat="43.47859021051111" lon="12.29849638110293"><ele>548.6666666666666</ele><time>2026-04-26T07:46:38Z</time></trkpt><trkpt lat="43.47864693519219" lon="12.298575738996066"><ele>548.3333333333333</ele><time>2026-04-26T07:46:39Z</time></trkpt><trkpt lat="43.4787049745096" lon="12.298649559506426"><ele>548.0</ele><time>2026-04-26T07:46:40Z</time></trkpt><trkpt lat="43.47877129038721" lon="12.29872956751928"><ele>547.8</ele><time>2026-04-26T07:46:41Z</time></trkpt><trkpt lat="43.47883573272816" lon="12.298801016309586"><ele>547.5999999999999</ele><time>2026-04-26T07:46:42Z</time></trkpt><trkpt lat="43.47888645475291" lon="12.298865999522407"><ele>547.4000000000001</ele><time>2026-04-26T07:46:43Z</time></trkpt><trkpt lat="43.47895877792687" lon="12.298979531329955"><ele>547.2</ele><time>2026-04-26T07:46:45Z</time></trkpt><trkpt lat="43.47902883704765" lon="12.29909784396604"><ele>547.0</ele><time>2026-04-26T07:46:47Z</time></trkpt><trkpt lat="43.47910080570051" lon="12.299259297189307"><ele>547.5</ele><time>2026-04-26T07:46:49Z</time></trkpt><trkpt lat="43.47916501234867" lon="12.299342303116688"><ele>548.0</ele><time>2026-04-26T07:46:50Z</time></trkpt><trkpt lat="43.479238188527276" lon="12.299408683246178"><ele>548.5</ele><time>2026-04-26T07:46:51Z</time></trkpt><trkpt lat="43.4793204436375" lon="12.299459918324843"><ele>549.0</ele><time>2026-04-26T07:46:52Z</time></trkpt><trkpt lat="43.47941551448295" lon="12.299513781479252"><ele>549.5</ele><time>2026-04-26T07:46:53Z</time></trkpt><trkpt lat="43.47949123964196" lon="12.299551710261866"><ele>550.0</ele><time>2026-04-26T07:46:54Z</time></trkpt><trkpt lat="43.47956992682437" lon="12.299598331265914"><ele>550.3333333333334</ele><time>2026-04-26T07:46:55Z</time></trkpt><trkpt lat="43.47965089209766" lon="12.299652679349693"><ele>550.6666666666667</ele><time>2026-04-26T07:46:56Z</time></trkpt><trkpt lat="43.47973207669789" lon="12.299707228896372"><ele>551.0</ele><time>2026-04-26T07:46:57Z</time></trkpt><trkpt lat="43.47981202993273" lon="12.299766901999162"><ele>551.3333333333334</ele><time>2026-04-26T07:46:58Z</time></trkpt><trkpt lat="43.479885477057366" lon="12.299832658835735"><ele>551.6666666666666</ele><time>2026-04-26T07:46:59Z</time></trkpt><trkpt lat="43.47995356009781" lon="12.2998817376855"><ele>552.0</ele><time>2026-04-26T07:47:00Z</time></trkpt><trkpt lat="43.48002418148122" lon="12.2999250173704"><ele>552.1666666666666</ele><time>2026-04-26T07:47:01Z</time></trkpt><trkpt lat="43.48009169311379" lon="12.299955281147485"><ele>552.3333333333334</ele><time>2026-04-26T07:47:02Z</time></trkpt><trkpt lat="43.48016250625964" lon="12.299991555721215"><ele>552.5</ele><time>2026-04-26T07:47:03Z</time></trkpt><trkpt lat="43.4802398855021" lon="12.300024300763585"><ele>552.6666666666667</ele><time>2026-04-26T07:47:04Z</time></trkpt><trkpt lat="43.480314158518254" lon="12.300066474296418"><ele>552.8333333333334</ele><time>2026-04-26T07:47:05Z</time></trkpt><trkpt lat="43.48037868193328" lon="12.300108129973019"><ele>553.0</ele><time>2026-04-26T07:47:06Z</time></trkpt><trkpt lat="43.48044833240484" lon="12.300152566844911"><ele>550.6</ele><time>2026-04-26T07:47:07Z</time></trkpt><trkpt lat="43.480577216312085" lon="12.300247405176593"><ele>548.1999999999999</ele><time>2026-04-26T07:47:09Z</time></trkpt><trkpt lat="43.48065358345862" lon="12.300305518562899"><ele>545.8</ele><time>2026-04-26T07:47:10Z</time></trkpt><trkpt lat="43.48072849521321" lon="12.30036283305273"><ele>543.4</ele><time>2026-04-26T07:47:11Z</time></trkpt><trkpt lat="43.4807942830638" lon="12.300413483096523"><ele>541.0</ele><time>2026-04-26T07:47:12Z</time></trkpt><trkpt lat="43.48085541590239" lon="12.300441844974467"><ele>541.0000000000001</ele><time>2026-04-26T07:47:13Z</time></trkpt><trkpt lat="43.480925128371915" lon="12.30047220265285"><ele>541.0</ele><time>2026-04-26T07:47:14Z</time></trkpt><trkpt lat="43.48098374166763" lon="12.30051487051084"><ele>541.0</ele><time>2026-04-26T07:47:15Z</time></trkpt><trkpt lat="43.48104764672349" lon="12.300575528078769"><ele>541.0</ele><time>2026-04-26T07:47:16Z</time></trkpt><trkpt lat="43.48110948699064" lon="12.30064452823577"><ele>541.0</ele><time>2026-04-26T07:47:17Z</time></trkpt><trkpt lat="43.48117291111893" lon="12.300707090107512"><ele>541.0000000000001</ele><time>2026-04-26T07:47:18Z</time></trkpt><trkpt lat="43.4812441297244" lon="12.300736575338805"><ele>541.0</ele><time>2026-04-26T07:47:19Z</time></trkpt><trkpt lat="43.48135776040777" lon="12.300804137209"><ele>540.1666666666667</ele><time>2026-04-26T07:47:21Z</time></trkpt><trkpt lat="43.48141010159473" lon="12.30088139637435"><ele>539.3333333333334</ele><time>2026-04-26T07:47:22Z</time></trkpt><trkpt lat="43.4814540890507" lon="12.300961755723518"><ele>538.5</ele><time>2026-04-26T07:47:23Z</time></trkpt><trkpt lat="43.48150839625049" lon="12.301053749730425"><ele>537.6666666666666</ele><time>2026-04-26T07:47:24Z</time></trkpt><trkpt lat="43.4815573777063" lon="12.301124863486544"><ele>536.8333333333333</ele><time>2026-04-26T07:47:25Z</time></trkpt><trkpt lat="43.481606654267516" lon="12.30119016542814"><ele>536.0</ele><time>2026-04-26T07:47:26Z</time></trkpt><trkpt lat="43.48166822877183" lon="12.301255756558627"><ele>536.0</ele><time>2026-04-26T07:47:27Z</time></trkpt><trkpt lat="43.481752566596434" lon="12.301330083689507"><ele>536.0</ele><time>2026-04-26T07:47:28Z</time></trkpt><trkpt lat="43.481843630823" lon="12.301395680812275"><ele>536.0</ele><time>2026-04-26T07:47:29Z</time></trkpt><trkpt lat="43.48194287446675" lon="12.301457207034629"><ele>536.0</ele><time>2026-04-26T07:47:30Z</time></trkpt><trkpt lat="43.48202756088447" lon="12.301510963098611"><ele>536.0</ele><time>2026-04-26T07:47:31Z</time></trkpt><trkpt lat="43.48210298835221" lon="12.30156062032708"><ele>536.3333333333333</ele><time>2026-04-26T07:47:32Z</time></trkpt><trkpt lat="43.48217087433529" lon="12.301601179835394"><ele>536.6666666666666</ele><time>2026-04-26T07:47:33Z</time></trkpt><trkpt lat="43.48229115417613" lon="12.301686427812019"><ele>537.0</ele><time>2026-04-26T07:47:35Z</time></trkpt><trkpt lat="43.48235742829802" lon="12.301708448638431"><ele>537.3333333333334</ele><time>2026-04-26T07:47:36Z</time></trkpt><trkpt lat="43.48242354255209" lon="12.301716941160372"><ele>537.6666666666667</ele><time>2026-04-26T07:47:37Z</time></trkpt><trkpt lat="43.48249584530762" lon="12.301732954925265"><ele>538.0</ele><time>2026-04-26T07:47:38Z</time></trkpt><trkpt lat="43.482564700507346" lon="12.30178422753924"><ele>538.0</ele><time>2026-04-26T07:47:39Z</time></trkpt><trkpt lat="43.48264404200877" lon="12.30185483986586"><ele>538.0</ele><time>2026-04-26T07:47:40Z</time></trkpt><trkpt lat="43.48275639200379" lon="12.301923272317866"><ele>538.0</ele><time>2026-04-26T07:47:41Z</time></trkpt><trkpt lat="43.4828644206948" lon="12.30198531720011"><ele>538.0</ele><time>2026-04-26T07:47:42Z</time></trkpt><trkpt lat="43.482953772011506" lon="12.302041128080127"><ele>538.0</ele><time>2026-04-26T07:47:43Z</time></trkpt><trkpt lat="43.48302167137904" lon="12.3020828435296"><ele>538.1999999999999</ele><time>2026-04-26T07:47:44Z</time></trkpt><trkpt lat="43.48309068058431" lon="12.302118984359227"><ele>538.4</ele><time>2026-04-26T07:47:45Z</time></trkpt><trkpt lat="43.483153376416176" lon="12.302151370430058"><ele>538.5999999999999</ele><time>2026-04-26T07:47:46Z</time></trkpt><trkpt lat="43.483257918892065" lon="12.30224298667674"><ele>538.8</ele><time>2026-04-26T07:47:48Z</time></trkpt><trkpt lat="43.483311674711956" lon="12.30229814242393"><ele>539.0</ele><time>2026-04-26T07:47:49Z</time></trkpt><trkpt lat="43.4834262479951" lon="12.3023405868682"><ele>539.0</ele><time>2026-04-26T07:47:51Z</time></trkpt><trkpt lat="43.48349596028336" lon="12.302408886335908"><ele>539.0</ele><time>2026-04-26T07:47:53Z</time></trkpt><trkpt lat="43.483511927490156" lon="12.302585066537919"><ele>539.0</ele><time>2026-04-26T07:47:55Z</time></trkpt><trkpt lat="43.48361533697665" lon="12.302690293816834"><ele>539.0</ele><time>2026-04-26T07:47:57Z</time></trkpt><trkpt lat="43.48369330427388" lon="12.302746422718545"><ele>539.0</ele><time>2026-04-26T07:47:58Z</time></trkpt><trkpt lat="43.48377139919471" lon="12.30282512575867"><ele>539.4</ele><time>2026-04-26T07:47:59Z</time></trkpt><trkpt lat="43.483835274290506" lon="12.30293056436171"><ele>539.8</ele><time>2026-04-26T07:48:00Z</time></trkpt><trkpt lat="43.483877283586736" lon="12.303045425646388"><ele>540.2</ele><time>2026-04-26T07:48:01Z</time></trkpt><trkpt lat="43.48392227237535" lon="12.303188698914067"><ele>540.6</ele><time>2026-04-26T07:48:02Z</time></trkpt><trkpt lat="43.48395415442129" lon="12.303345650232151"><ele>541.0</ele><time>2026-04-26T07:48:03Z</time></trkpt><trkpt lat="43.4839922180076" lon="12.303505452906323"><ele>541.6666666666667</ele><time>2026-04-26T07:48:04Z</time></trkpt><trkpt lat="43.48402496800239" lon="12.303644781750803"><ele>542.3333333333334</ele><time>2026-04-26T07:48:05Z</time></trkpt><trkpt lat="43.48403880806921" lon="12.30376196006307"><ele>543.0</ele><time>2026-04-26T07:48:06Z</time></trkpt><trkpt lat="43.484036520516234" lon="12.303875432641004"><ele>543.6666666666666</ele><time>2026-04-26T07:48:07Z</time></trkpt><trkpt lat="43.484019431536936" lon="12.303961216797923"><ele>544.3333333333333</ele><time>2026-04-26T07:48:08Z</time></trkpt><trkpt lat="43.484001350998405" lon="12.304051028558355"><ele>545.0</ele><time>2026-04-26T07:48:09Z</time></trkpt><trkpt lat="43.48404279347702" lon="12.304219027302711"><ele>545.4</ele><time>2026-04-26T07:48:11Z</time></trkpt><trkpt lat="43.484094101924526" lon="12.304309268617418"><ele>545.8</ele><time>2026-04-26T07:48:12Z</time></trkpt><trkpt lat="43.48413902211688" lon="12.30443137820874"><ele>546.2</ele><time>2026-04-26T07:48:13Z</time></trkpt><trkpt lat="43.4841873938055" lon="12.30457348194074"><ele>546.6</ele><time>2026-04-26T07:48:14Z</time></trkpt><trkpt lat="43.48422845801495" lon="12.304694619881518"><ele>547.0</ele><time>2026-04-26T07:48:15Z</time></trkpt><trkpt lat="43.48427039145716" lon="12.304812111446365"><ele>547.1666666666667</ele><time>2026-04-26T07:48:16Z</time></trkpt><trkpt lat="43.4843074534995" lon="12.304909129470825"><ele>547.3333333333334</ele><time>2026-04-26T07:48:17Z</time></trkpt><trkpt lat="43.48434589447971" lon="12.3050034507628"><ele>547.5</ele><time>2026-04-26T07:48:18Z</time></trkpt><trkpt lat="43.48437980738196" lon="12.305082478808982"><ele>547.6666666666666</ele><time>2026-04-26T07:48:19Z</time></trkpt><trkpt lat="43.48445040512816" lon="12.305163412227671"><ele>547.8333333333333</ele><time>2026-04-26T07:48:21Z</time></trkpt><trkpt lat="43.484552563889785" lon="12.305213644249474"><ele>548.0</ele><time>2026-04-26T07:48:23Z</time></trkpt><trkpt lat="43.48464087903634" lon="12.305291009916797"><ele>548.6</ele><time>2026-04-26T07:48:25Z</time></trkpt><trkpt lat="43.48469665585145" lon="12.30535899674652"><ele>549.1999999999999</ele><time>2026-04-26T07:48:27Z</time></trkpt><trkpt lat="43.484739201596575" lon="12.305463292157684"><ele>549.8</ele><time>2026-04-26T07:48:29Z</time></trkpt><trkpt lat="43.4848296641361" lon="12.305493039545711"><ele>550.4</ele><time>2026-04-26T07:49:22Z</time></trkpt><trkpt lat="43.48492346150634" lon="12.305558381429702"><ele>551.0</ele><time>2026-04-26T07:49:24Z</time></trkpt><trkpt lat="43.485019614097396" lon="12.305644080358036"><ele>551.0</ele><time>2026-04-26T07:49:26Z</time></trkpt><trkpt lat="43.485102678562065" lon="12.305720907298042"><ele>551.0</ele><time>2026-04-26T07:49:28Z</time></trkpt><trkpt lat="43.48521898053761" lon="12.305772791744797"><ele>551.0</ele><time>2026-04-26T07:49:30Z</time></trkpt><trkpt lat="43.485310919007844" lon="12.305858968894896"><ele>551.0</ele><time>2026-04-26T07:49:32Z</time></trkpt><trkpt lat="43.48537273749668" lon="12.305918632140802"><ele>551.0</ele><time>2026-04-26T07:49:34Z</time></trkpt><trkpt lat="43.4854239343059" lon="12.30597670096383"><ele>549.0</ele><time>2026-04-26T07:49:36Z</time></trkpt><trkpt lat="43.4855064138352" lon="12.306075331414826"><ele>547.0</ele><time>2026-04-26T07:49:38Z</time></trkpt><trkpt lat="43.48557884651607" lon="12.30618288133512"><ele>545.0</ele><time>2026-04-26T07:49:40Z</time></trkpt><trkpt lat="43.48563310523684" lon="12.306310219073445"><ele>543.0</ele><time>2026-04-26T07:49:42Z</time></trkpt><trkpt lat="43.48568952795978" lon="12.306356920836373"><ele>541.0</ele><time>2026-04-26T07:49:43Z</time></trkpt><trkpt lat="43.4857490951808" lon="12.306410139749511"><ele>542.0000000000001</ele><time>2026-04-26T07:49:44Z</time></trkpt><trkpt lat="43.485795121410874" lon="12.306477402596693"><ele>543.0</ele><time>2026-04-26T07:49:45Z</time></trkpt><trkpt lat="43.48583786644217" lon="12.306549582189481"><ele>544.0</ele><time>2026-04-26T07:49:46Z</time></trkpt><trkpt lat="43.48588480130913" lon="12.306619527298189"><ele>545.0</ele><time>2026-04-26T07:49:47Z</time></trkpt><trkpt lat="43.48593364622276" lon="12.306695537679866"><ele>546.0</ele><time>2026-04-26T07:49:48Z</time></trkpt><trkpt lat="43.485978112929644" lon="12.306773678378242"><ele>547.0000000000001</ele><time>2026-04-26T07:49:49Z</time></trkpt><trkpt lat="43.48602502556304" lon="12.30684514832019"><ele>548.0</ele><time>2026-04-26T07:49:50Z</time></trkpt><trkpt lat="43.486080331976936" lon="12.306907639124706"><ele>548.0</ele><time>2026-04-26T07:49:51Z</time></trkpt><trkpt lat="43.486138384316035" lon="12.306963006468727"><ele>548.0</ele><time>2026-04-26T07:49:52Z</time></trkpt><trkpt lat="43.48618653285877" lon="12.307038259127513"><ele>548.0</ele><time>2026-04-26T07:49:53Z</time></trkpt><trkpt lat="43.48624484698643" lon="12.30720313859521"><ele>548.0</ele><time>2026-04-26T07:49:55Z</time></trkpt><trkpt lat="43.48628290393946" lon="12.307273995355438"><ele>548.0</ele><time>2026-04-26T07:49:56Z</time></trkpt><trkpt lat="43.48639000551818" lon="12.307379193473304"><ele>548.0</ele><time>2026-04-26T07:49:58Z</time></trkpt><trkpt lat="43.4864577298268" lon="12.307426369757975"><ele>548.0</ele><time>2026-04-26T07:49:59Z</time></trkpt><trkpt lat="43.4865307127464" lon="12.307458880133625"><ele>548.0</ele><time>2026-04-26T07:50:00Z</time></trkpt><trkpt lat="43.48659043395962" lon="12.307501592844087"><ele>548.0</ele><time>2026-04-26T07:50:01Z</time></trkpt><trkpt lat="43.48663836047766" lon="12.307569925204971"><ele>548.0</ele><time>2026-04-26T07:50:02Z</time></trkpt><trkpt lat="43.486680518621256" lon="12.307664818893755"><ele>548.0</ele><time>2026-04-26T07:50:03Z</time></trkpt><trkpt lat="43.48672151692303" lon="12.307765264085823"><ele>548.0</ele><time>2026-04-26T07:50:04Z</time></trkpt><trkpt lat="43.486771689086076" lon="12.307847387902992"><ele>548.0</ele><time>2026-04-26T07:50:05Z</time></trkpt><trkpt lat="43.486838371521166" lon="12.307902337976428"><ele>548.0</ele><time>2026-04-26T07:50:06Z</time></trkpt><trkpt lat="43.48692664847261" lon="12.3079495122943"><ele>548.0</ele><time>2026-04-26T07:50:07Z</time></trkpt><trkpt lat="43.487011379870665" lon="12.308005803986848"><ele>548.0</ele><time>2026-04-26T07:50:08Z</time></trkpt><trkpt lat="43.48707550976044" lon="12.30808630616247"><ele>548.0</ele><time>2026-04-26T07:50:09Z</time></trkpt><trkpt lat="43.487135644417414" lon="12.308196551127876"><ele>548.6</ele><time>2026-04-26T07:50:10Z</time></trkpt><trkpt lat="43.487204140176196" lon="12.308323630971215"><ele>549.1999999999999</ele><time>2026-04-26T07:50:11Z</time></trkpt><trkpt lat="43.48727412761231" lon="12.308438679524476"><ele>549.8</ele><time>2026-04-26T07:50:12Z</time></trkpt><trkpt lat="43.48734092904209" lon="12.308541429165873"><ele>550.4</ele><time>2026-04-26T07:50:13Z</time></trkpt><trkpt lat="43.48739415849354" lon="12.308633778327895"><ele>551.0</ele><time>2026-04-26T07:50:14Z</time></trkpt><trkpt lat="43.4874596335374" lon="12.308744707287506"><ele>551.0</ele><time>2026-04-26T07:50:15Z</time></trkpt><trkpt lat="43.48751815486479" lon="12.308832158842797"><ele>551.0</ele><time>2026-04-26T07:50:16Z</time></trkpt><trkpt lat="43.48758158003054" lon="12.30891110258294"><ele>551.0</ele><time>2026-04-26T07:50:17Z</time></trkpt><trkpt lat="43.48764855094882" lon="12.308984789801087"><ele>551.0</ele><time>2026-04-26T07:50:18Z</time></trkpt><trkpt lat="43.48771281761008" lon="12.309062215143703"><ele>551.0</ele><time>2026-04-26T07:50:19Z</time></trkpt><trkpt lat="43.48775528587146" lon="12.3091438618207"><ele>551.0</ele><time>2026-04-26T07:50:20Z</time></trkpt><trkpt lat="43.487812236616186" lon="12.309296095432403"><ele>550.6</ele><time>2026-04-26T07:50:22Z</time></trkpt><trkpt lat="43.487835049857246" lon="12.309382258940715"><ele>550.2</ele><time>2026-04-26T07:50:23Z</time></trkpt><trkpt lat="43.48792020665185" lon="12.309525068708163"><ele>549.8</ele><time>2026-04-26T07:50:25Z</time></trkpt><trkpt lat="43.4879752984584" lon="12.309570498264712"><ele>549.4</ele><time>2026-04-26T07:50:26Z</time></trkpt><trkpt lat="43.488117307218396" lon="12.309612631824692"><ele>549.0</ele><time>2026-04-26T07:50:28Z</time></trkpt><trkpt lat="43.488194062695804" lon="12.309648104066914"><ele>549.0</ele><time>2026-04-26T07:50:29Z</time></trkpt><trkpt lat="43.48827157327688" lon="12.30968246304983"><ele>549.0</ele><time>2026-04-26T07:50:30Z</time></trkpt><trkpt lat="43.48840808284349" lon="12.309736560898136"><ele>549.0</ele><time>2026-04-26T07:50:32Z</time></trkpt><trkpt lat="43.488483099439954" lon="12.309770106541407"><ele>549.0</ele><time>2026-04-26T07:50:33Z</time></trkpt><trkpt lat="43.48856422521419" lon="12.309813648347543"><ele>549.0</ele><time>2026-04-26T07:50:34Z</time></trkpt><trkpt lat="43.48863299613376" lon="12.309850512564363"><ele>549.8</ele><time>2026-04-26T07:50:35Z</time></trkpt><trkpt lat="43.488701065317414" lon="12.309866435145894"><ele>550.5999999999999</ele><time>2026-04-26T07:50:36Z</time></trkpt><trkpt lat="43.48880495822692" lon="12.309893446536512"><ele>551.4</ele><time>2026-04-26T07:50:38Z</time></trkpt><trkpt lat="43.48890888482027" lon="12.309899017940882"><ele>552.1999999999999</ele><time>2026-04-26T07:50:40Z</time></trkpt><trkpt lat="43.48904050711412" lon="12.309922125989127"><ele>553.0</ele><time>2026-04-26T07:50:42Z</time></trkpt><trkpt lat="43.48914892293986" lon="12.309941489482265"><ele>553.0</ele><time>2026-04-26T07:50:44Z</time></trkpt><trkpt lat="43.489219800676345" lon="12.309910731233039"><ele>553.0</ele><time>2026-04-26T07:50:46Z</time></trkpt><trkpt lat="43.48931875546727" lon="12.309827796622315"><ele>553.0</ele><time>2026-04-26T07:50:48Z</time></trkpt><trkpt lat="43.48938777638791" lon="12.309769408892855"><ele>553.0</ele><time>2026-04-26T07:50:49Z</time></trkpt><trkpt lat="43.489460040080296" lon="12.30972635306105"><ele>553.0</ele><time>2026-04-26T07:50:50Z</time></trkpt><trkpt lat="43.48953605489122" lon="12.309684031367746"><ele>553.0</ele><time>2026-04-26T07:50:51Z</time></trkpt><trkpt lat="43.48961091709412" lon="12.309642390261887"><ele>552.1428571428571</ele><time>2026-04-26T07:50:52Z</time></trkpt><trkpt lat="43.48967481231341" lon="12.309587845588814"><ele>551.2857142857142</ele><time>2026-04-26T07:50:53Z</time></trkpt><trkpt lat="43.48972537204731" lon="12.309526472093966"><ele>550.4285714285714</ele><time>2026-04-26T07:50:54Z</time></trkpt><trkpt lat="43.48977958603766" lon="12.309456592991765"><ele>549.5714285714286</ele><time>2026-04-26T07:50:55Z</time></trkpt><trkpt lat="43.48983216913876" lon="12.309393082301112"><ele>548.7142857142857</ele><time>2026-04-26T07:50:56Z</time></trkpt><trkpt lat="43.48988804001329" lon="12.309333704038066"><ele>547.8571428571429</ele><time>2026-04-26T07:50:57Z</time></trkpt><trkpt lat="43.48994724389332" lon="12.309300661176286"><ele>547.0</ele><time>2026-04-26T07:50:58Z</time></trkpt><trkpt lat="43.490015652417775" lon="12.309273152923067"><ele>547.0</ele><time>2026-04-26T07:50:59Z</time></trkpt><trkpt lat="43.49010061415816" lon="12.309262688900354"><ele>547.0</ele><time>2026-04-26T07:51:00Z</time></trkpt><trkpt lat="43.49019663452077" lon="12.309261178789427"><ele>547.0</ele><time>2026-04-26T07:51:01Z</time></trkpt><trkpt lat="43.490298784713595" lon="12.309255503822348"><ele>547.0</ele><time>2026-04-26T07:51:02Z</time></trkpt><trkpt lat="43.49040918195939" lon="12.309246178200901"><ele>547.0</ele><time>2026-04-26T07:51:03Z</time></trkpt><trkpt lat="43.49051389685725" lon="12.309238773157098"><ele>548.2</ele><time>2026-04-26T07:51:04Z</time></trkpt><trkpt lat="43.49061336335291" lon="12.30923662110787"><ele>549.4000000000001</ele><time>2026-04-26T07:51:05Z</time></trkpt><trkpt lat="43.490717898819874" lon="12.30923402553498"><ele>550.5999999999999</ele><time>2026-04-26T07:51:06Z</time></trkpt><trkpt lat="43.490816120915895" lon="12.309249570725289"><ele>551.8</ele><time>2026-04-26T07:51:07Z</time></trkpt><trkpt lat="43.49091040004994" lon="12.30931341895903"><ele>553.0</ele><time>2026-04-26T07:51:08Z</time></trkpt><trkpt lat="43.49100610881428" lon="12.309389130584151"><ele>553.0</ele><time>2026-04-26T07:51:09Z</time></trkpt><trkpt lat="43.491106150962985" lon="12.309461552002347"><ele>553.0</ele><time>2026-04-26T07:51:10Z</time></trkpt><trkpt lat="43.4912133800559" lon="12.309524313387366"><ele>553.0</ele><time>2026-04-26T07:51:11Z</time></trkpt><trkpt lat="43.49132505096308" lon="12.309588498398073"><ele>553.0</ele><time>2026-04-26T07:51:12Z</time></trkpt><trkpt lat="43.49143628802695" lon="12.309650605389496"><ele>553.25</ele><time>2026-04-26T07:51:13Z</time></trkpt><trkpt lat="43.49155402721699" lon="12.309707322490825"><ele>553.5</ele><time>2026-04-26T07:51:14Z</time></trkpt><trkpt lat="43.49166967558244" lon="12.309748320298132"><ele>553.75</ele><time>2026-04-26T07:51:15Z</time></trkpt><trkpt lat="43.491793060301305" lon="12.309780670451905"><ele>554.0</ele><time>2026-04-26T07:51:16Z</time></trkpt><trkpt lat="43.49190737178833" lon="12.30982238107508"><ele>554.25</ele><time>2026-04-26T07:51:17Z</time></trkpt><trkpt lat="43.492000271034165" lon="12.309893002260496"><ele>554.5</ele><time>2026-04-26T07:51:18Z</time></trkpt><trkpt lat="43.49206748413232" lon="12.31001092708116"><ele>554.75</ele><time>2026-04-26T07:51:19Z</time></trkpt><trkpt lat="43.49212766457391" lon="12.31015150047096"><ele>555.0</ele><time>2026-04-26T07:51:20Z</time></trkpt><trkpt lat="43.49219583760391" lon="12.310294004657766"><ele>553.75</ele><time>2026-04-26T07:51:21Z</time></trkpt><trkpt lat="43.49227518409136" lon="12.31044082831964"><ele>552.5</ele><time>2026-04-26T07:51:22Z</time></trkpt><trkpt lat="43.492355452756875" lon="12.310586276790541"><ele>551.25</ele><time>2026-04-26T07:51:23Z</time></trkpt><trkpt lat="43.49243493860926" lon="12.310728045897179"><ele>550.0</ele><time>2026-04-26T07:51:24Z</time></trkpt><trkpt lat="43.492513051938246" lon="12.310868992687974"><ele>550.0</ele><time>2026-04-26T07:51:25Z</time></trkpt><trkpt lat="43.492583499835405" lon="12.310998830351233"><ele>550.0</ele><time>2026-04-26T07:51:26Z</time></trkpt><trkpt lat="43.49265433689763" lon="12.311119890277181"><ele>550.0</ele><time>2026-04-26T07:51:27Z</time></trkpt><trkpt lat="43.49273125970651" lon="12.311234231801391"><ele>550.0</ele><time>2026-04-26T07:51:28Z</time></trkpt><trkpt lat="43.49282053773164" lon="12.311330390311193"><ele>550.25</ele><time>2026-04-26T07:51:29Z</time></trkpt><trkpt lat="43.49291815424632" lon="12.311423926214914"><ele>550.5</ele><time>2026-04-26T07:51:30Z</time></trkpt><trkpt lat="43.49302013872066" lon="12.311524142507682"><ele>550.75</ele><time>2026-04-26T07:51:31Z</time></trkpt><trkpt lat="43.49311853197195" lon="12.311623796513913"><ele>551.0</ele><time>2026-04-26T07:51:32Z</time></trkpt><trkpt lat="43.493221746213074" lon="12.311726501472066"><ele>551.0</ele><time>2026-04-26T07:51:33Z</time></trkpt><trkpt lat="43.4933247819957" lon="12.311839990334999"><ele>551.0</ele><time>2026-04-26T07:51:34Z</time></trkpt><trkpt lat="43.493423070869206" lon="12.311959643936685"><ele>551.0</ele><time>2026-04-26T07:51:35Z</time></trkpt><trkpt lat="43.49351226608759" lon="12.312084351996372"><ele>551.0</ele><time>2026-04-26T07:51:36Z</time></trkpt><trkpt lat="43.493607923267525" lon="12.312213237510736"><ele>551.0</ele><time>2026-04-26T07:51:37Z</time></trkpt><trkpt lat="43.493696034677555" lon="12.312326861715896"><ele>551.0</ele><time>2026-04-26T07:51:38Z</time></trkpt><trkpt lat="43.49378566930013" lon="12.312441502698869"><ele>551.0</ele><time>2026-04-26T07:51:39Z</time></trkpt><trkpt lat="43.493873483673255" lon="12.312550459078917"><ele>551.0</ele><time>2026-04-26T07:51:40Z</time></trkpt><trkpt lat="43.49396723568487" lon="12.312667960256169"><ele>550.75</ele><time>2026-04-26T07:51:41Z</time></trkpt><trkpt lat="43.494059000806324" lon="12.31277907364697"><ele>550.5</ele><time>2026-04-26T07:51:42Z</time></trkpt><trkpt lat="43.494152586535094" lon="12.312886559633021"><ele>550.25</ele><time>2026-04-26T07:51:43Z</time></trkpt><trkpt lat="43.49424561059104" lon="12.31300144662361"><ele>550.0</ele><time>2026-04-26T07:51:44Z</time></trkpt><trkpt lat="43.49433852114806" lon="12.313110992012472"><ele>550.0</ele><time>2026-04-26T07:51:45Z</time></trkpt><trkpt lat="43.49443733808211" lon="12.313216509243997"><ele>550.0</ele><time>2026-04-26T07:51:46Z</time></trkpt><trkpt lat="43.494538284974" lon="12.313316178179111"><ele>550.0</ele><time>2026-04-26T07:51:47Z</time></trkpt><trkpt lat="43.49463855752381" lon="12.313406924720288"><ele>550.0</ele><time>2026-04-26T07:51:48Z</time></trkpt><trkpt lat="43.49474665887817" lon="12.313499167968372"><ele>550.5</ele><time>2026-04-26T07:51:49Z</time></trkpt><trkpt lat="43.494851623321864" lon="12.313588977560967"><ele>551.0</ele><time>2026-04-26T07:51:50Z</time></trkpt><trkpt lat="43.49495331679906" lon="12.313684243547437"><ele>551.5</ele><time>2026-04-26T07:51:51Z</time></trkpt><trkpt lat="43.495056245517624" lon="12.313786927435201"><ele>552.0</ele><time>2026-04-26T07:51:52Z</time></trkpt><trkpt lat="43.49515630889645" lon="12.313890132591746"><ele>553.25</ele><time>2026-04-26T07:51:53Z</time></trkpt><trkpt lat="43.49525879792818" lon="12.313984131558792"><ele>554.5</ele><time>2026-04-26T07:51:54Z</time></trkpt><trkpt lat="43.49536662865057" lon="12.314070371994992"><ele>555.75</ele><time>2026-04-26T07:51:55Z</time></trkpt><trkpt lat="43.49547333750258" lon="12.314159720788487"><ele>557.0</ele><time>2026-04-26T07:51:56Z</time></trkpt><trkpt lat="43.495584518324975" lon="12.314237372095276"><ele>557.0</ele><time>2026-04-26T07:51:57Z</time></trkpt><trkpt lat="43.4956940297144" lon="12.31431608431517"><ele>557.0</ele><time>2026-04-26T07:51:58Z</time></trkpt><trkpt lat="43.49580233066601" lon="12.314400948305437"><ele>557.0</ele><time>2026-04-26T07:51:59Z</time></trkpt><trkpt lat="43.496034885328584" lon="12.314560126670775"><ele>557.0</ele><time>2026-04-26T07:52:01Z</time></trkpt><trkpt lat="43.49616290871668" lon="12.314622633906456"><ele>557.0</ele><time>2026-04-26T07:52:02Z</time></trkpt><trkpt lat="43.496302038748205" lon="12.314672020415316"><ele>557.0</ele><time>2026-04-26T07:52:03Z</time></trkpt><trkpt lat="43.49643479318325" lon="12.314716375870274"><ele>557.0</ele><time>2026-04-26T07:52:04Z</time></trkpt><trkpt lat="43.49656513899172" lon="12.31477044824293"><ele>556.25</ele><time>2026-04-26T07:52:05Z</time></trkpt><trkpt lat="43.49669361142212" lon="12.314831005023153"><ele>555.5</ele><time>2026-04-26T07:52:06Z</time></trkpt><trkpt lat="43.496821288332676" lon="12.314892892566935"><ele>554.75</ele><time>2026-04-26T07:52:07Z</time></trkpt><trkpt lat="43.49694232272874" lon="12.31494846797673"><ele>554.0</ele><time>2026-04-26T07:52:08Z</time></trkpt><trkpt lat="43.497038011423385" lon="12.314977202726617"><ele>556.0</ele><time>2026-04-26T07:52:09Z</time></trkpt><trkpt lat="43.49714614831263" lon="12.315057591484704"><ele>558.0</ele><time>2026-04-26T07:52:10Z</time></trkpt><trkpt lat="43.49728728381094" lon="12.315193489183773"><ele>560.0</ele><time>2026-04-26T07:52:11Z</time></trkpt><trkpt lat="43.49739334431" lon="12.31529466066806"><ele>562.0</ele><time>2026-04-26T07:52:12Z</time></trkpt><trkpt lat="43.497479170204095" lon="12.315390205352099"><ele>562.0</ele><time>2026-04-26T07:52:13Z</time></trkpt><trkpt lat="43.49756992305132" lon="12.315483740722646"><ele>562.0</ele><time>2026-04-26T07:52:14Z</time></trkpt><trkpt lat="43.49767086157524" lon="12.315550939672436"><ele>562.0</ele><time>2026-04-26T07:52:15Z</time></trkpt><trkpt lat="43.49778300751816" lon="12.31558525972551"><ele>562.0</ele><time>2026-04-26T07:52:16Z</time></trkpt><trkpt lat="43.49789610834225" lon="12.315587807724835"><ele>562.75</ele><time>2026-04-26T07:52:17Z</time></trkpt><trkpt lat="43.49801114528781" lon="12.315558187496682"><ele>563.5</ele><time>2026-04-26T07:52:18Z</time></trkpt><trkpt lat="43.49812369496616" lon="12.31553620470183"><ele>564.25</ele><time>2026-04-26T07:52:19Z</time></trkpt><trkpt lat="43.4982380527747" lon="12.315526709419801"><ele>565.0</ele><time>2026-04-26T07:52:20Z</time></trkpt><trkpt lat="43.49835262820387" lon="12.315527490602301"><ele>565.0</ele><time>2026-04-26T07:52:21Z</time></trkpt><trkpt lat="43.49846752333581" lon="12.315541006953005"><ele>565.0</ele><time>2026-04-26T07:52:22Z</time></trkpt><trkpt lat="43.49857974189563" lon="12.315569294333955"><ele>565.0</ele><time>2026-04-26T07:52:23Z</time></trkpt><trkpt lat="43.49869063749958" lon="12.3156073256243"><ele>565.0</ele><time>2026-04-26T07:52:24Z</time></trkpt><trkpt lat="43.49880509390601" lon="12.315640446045448"><ele>568.75</ele><time>2026-04-26T07:52:25Z</time></trkpt><trkpt lat="43.498919032213756" lon="12.31567246593914"><ele>572.5</ele><time>2026-04-26T07:52:26Z</time></trkpt><trkpt lat="43.49904012785718" lon="12.31571108313638"><ele>576.25</ele><time>2026-04-26T07:52:27Z</time></trkpt><trkpt lat="43.49915508952752" lon="12.31574762237896"><ele>580.0</ele><time>2026-04-26T07:52:28Z</time></trkpt><trkpt lat="43.499278476153385" lon="12.315780805841015"><ele>580.0</ele><time>2026-04-26T07:52:29Z</time></trkpt><trkpt lat="43.49939950885568" lon="12.315818549256836"><ele>580.0</ele><time>2026-04-26T07:52:30Z</time></trkpt><trkpt lat="43.49952564229358" lon="12.315866561677446"><ele>580.0</ele><time>2026-04-26T07:52:31Z</time></trkpt><trkpt lat="43.4996507720358" lon="12.31591543036846"><ele>580.0</ele><time>2026-04-26T07:52:32Z</time></trkpt><trkpt lat="43.49977590658834" lon="12.315951416156741"><ele>579.25</ele><time>2026-04-26T07:52:33Z</time></trkpt><trkpt lat="43.49990080350078" lon="12.315974676498467"><ele>578.5</ele><time>2026-04-26T07:52:34Z</time></trkpt><trkpt lat="43.50002620896317" lon="12.316002076944581"><ele>577.75</ele><time>2026-04-26T07:52:35Z</time></trkpt><trkpt lat="43.50014410174077" lon="12.316021700948163"><ele>577.0</ele><time>2026-04-26T07:52:36Z</time></trkpt><trkpt lat="43.50025542907971" lon="12.31603545120728"><ele>577.0</ele><time>2026-04-26T07:52:37Z</time></trkpt><trkpt lat="43.50037352465455" lon="12.316055113391101"><ele>577.0</ele><time>2026-04-26T07:52:38Z</time></trkpt><trkpt lat="43.5004854684506" lon="12.316085520218518"><ele>577.0</ele><time>2026-04-26T07:52:39Z</time></trkpt><trkpt lat="43.500589289316856" lon="12.316146134337828"><ele>577.0</ele><time>2026-04-26T07:52:40Z</time></trkpt><trkpt lat="43.50068556508398" lon="12.316237474639124"><ele>574.75</ele><time>2026-04-26T07:52:41Z</time></trkpt><trkpt lat="43.500761158257916" lon="12.31636441314602"><ele>572.5</ele><time>2026-04-26T07:52:42Z</time></trkpt><trkpt lat="43.50083678302302" lon="12.316492916037616"><ele>570.25</ele><time>2026-04-26T07:52:43Z</time></trkpt><trkpt lat="43.50091540761856" lon="12.316626618169225"><ele>568.0</ele><time>2026-04-26T07:52:44Z</time></trkpt><trkpt lat="43.50099309197638" lon="12.316763168472724"><ele>573.5</ele><time>2026-04-26T07:52:45Z</time></trkpt><trkpt lat="43.50106095608244" lon="12.316906684587204"><ele>579.0</ele><time>2026-04-26T07:52:46Z</time></trkpt><trkpt lat="43.50113219640341" lon="12.317046820099726"><ele>584.5</ele><time>2026-04-26T07:52:47Z</time></trkpt><trkpt lat="43.50121716626396" lon="12.317163897614403"><ele>590.0</ele><time>2026-04-26T07:52:48Z</time></trkpt><trkpt lat="43.501322903966134" lon="12.317261091386133"><ele>590.0</ele><time>2026-04-26T07:52:49Z</time></trkpt><trkpt lat="43.50142589177494" lon="12.31734975971419"><ele>590.0</ele><time>2026-04-26T07:52:50Z</time></trkpt><trkpt lat="43.50151712349763" lon="12.317450776439996"><ele>590.0</ele><time>2026-04-26T07:52:51Z</time></trkpt><trkpt lat="43.501604851135156" lon="12.31755750225908"><ele>590.0</ele><time>2026-04-26T07:52:52Z</time></trkpt><trkpt lat="43.50169123894938" lon="12.317671505090154"><ele>590.0</ele><time>2026-04-26T07:52:53Z</time></trkpt><trkpt lat="43.50177638149966" lon="12.317783987460917"><ele>590.0</ele><time>2026-04-26T07:52:54Z</time></trkpt><trkpt lat="43.50185669977696" lon="12.317896742809488"><ele>590.0</ele><time>2026-04-26T07:52:55Z</time></trkpt><trkpt lat="43.501929897281435" lon="12.317994966059473"><ele>590.0</ele><time>2026-04-26T07:52:56Z</time></trkpt><trkpt lat="43.501997346916646" lon="12.318093378404551"><ele>590.0</ele><time>2026-04-26T07:52:57Z</time></trkpt><trkpt lat="43.50204171154532" lon="12.31819379351814"><ele>593.4</ele><time>2026-04-26T07:52:58Z</time></trkpt><trkpt lat="43.50205267587695" lon="12.318318524094016"><ele>596.8</ele><time>2026-04-26T07:52:59Z</time></trkpt><trkpt lat="43.50202372893708" lon="12.318459286953953"><ele>600.2</ele><time>2026-04-26T07:53:00Z</time></trkpt><trkpt lat="43.501969215589284" lon="12.318587359664706"><ele>603.6</ele><time>2026-04-26T07:53:01Z</time></trkpt><trkpt lat="43.50191702878733" lon="12.31871821260838"><ele>607.0</ele><time>2026-04-26T07:53:02Z</time></trkpt><trkpt lat="43.50187825950743" lon="12.318865402311088"><ele>607.8000000000001</ele><time>2026-04-26T07:53:03Z</time></trkpt><trkpt lat="43.501849894978726" lon="12.319014877816565"><ele>608.6</ele><time>2026-04-26T07:53:04Z</time></trkpt><trkpt lat="43.50183882390513" lon="12.319156775111963"><ele>609.4000000000001</ele><time>2026-04-26T07:53:05Z</time></trkpt><trkpt lat="43.50183981720807" lon="12.319291545005052"><ele>610.2</ele><time>2026-04-26T07:53:06Z</time></trkpt><trkpt lat="43.501855659643425" lon="12.319426243798429"><ele>611.0</ele><time>2026-04-26T07:53:07Z</time></trkpt><trkpt lat="43.50189261559289" lon="12.31950743151059"><ele>611.0</ele><time>2026-04-26T07:53:08Z</time></trkpt><trkpt lat="43.501964292765386" lon="12.319567266479629"><ele>611.0</ele><time>2026-04-26T07:53:09Z</time></trkpt><trkpt lat="43.50205974574697" lon="12.319606080721389"><ele>611.0</ele><time>2026-04-26T07:53:10Z</time></trkpt><trkpt lat="43.502157960865574" lon="12.31961886955911"><ele>611.0</ele><time>2026-04-26T07:53:11Z</time></trkpt><trkpt lat="43.502270462462626" lon="12.319621631295101"><ele>611.0</ele><time>2026-04-26T07:53:12Z</time></trkpt><trkpt lat="43.5023696333642" lon="12.31963058417826"><ele>610.2</ele><time>2026-04-26T07:53:13Z</time></trkpt><trkpt lat="43.50245192346599" lon="12.319679597388378"><ele>609.4000000000001</ele><time>2026-04-26T07:53:14Z</time></trkpt><trkpt lat="43.50252254960614" lon="12.319778095031605"><ele>608.6</ele><time>2026-04-26T07:53:15Z</time></trkpt><trkpt lat="43.50256167464206" lon="12.319917356059323"><ele>607.8000000000001</ele><time>2026-04-26T07:53:16Z</time></trkpt><trkpt lat="43.50259871840775" lon="12.320058296649204"><ele>607.0</ele><time>2026-04-26T07:53:17Z</time></trkpt><trkpt lat="43.50264786356899" lon="12.320186871432313"><ele>607.0</ele><time>2026-04-26T07:53:18Z</time></trkpt><trkpt lat="43.502721241328715" lon="12.320281312805689"><ele>607.0</ele><time>2026-04-26T07:53:19Z</time></trkpt><trkpt lat="43.502818609386814" lon="12.320360325124756"><ele>607.0</ele><time>2026-04-26T07:53:20Z</time></trkpt><trkpt lat="43.50292017881836" lon="12.320412686555695"><ele>607.0</ele><time>2026-04-26T07:53:21Z</time></trkpt><trkpt lat="43.50301084814741" lon="12.320447673997974"><ele>607.0</ele><time>2026-04-26T07:53:22Z</time></trkpt><trkpt lat="43.50308584473949" lon="12.320466662129103"><ele>606.3333333333334</ele><time>2026-04-26T07:53:23Z</time></trkpt><trkpt lat="43.503187883887655" lon="12.320512827447939"><ele>605.6666666666667</ele><time>2026-04-26T07:53:25Z</time></trkpt><trkpt lat="43.503252330041974" lon="12.320528376829206"><ele>605.0</ele><time>2026-04-26T07:53:28Z</time></trkpt><trkpt lat="43.503195371450246" lon="12.32047165951655"><ele>604.3333333333334</ele><time>2026-04-26T07:53:31Z</time></trkpt><trkpt lat="43.50313226595348" lon="12.320487862362388"><ele>603.6666666666666</ele><time>2026-04-26T07:53:32Z</time></trkpt><trkpt lat="43.5030576651736" lon="12.32054593603698"><ele>603.0</ele><time>2026-04-26T07:53:33Z</time></trkpt><trkpt lat="43.502984216883014" lon="12.320570375044985"><ele>603.8</ele><time>2026-04-26T07:53:34Z</time></trkpt><trkpt lat="43.50290427272518" lon="12.320549311298812"><ele>604.5999999999999</ele><time>2026-04-26T07:53:35Z</time></trkpt><trkpt lat="43.50281462492919" lon="12.320515055408187"><ele>605.4000000000001</ele><time>2026-04-26T07:53:36Z</time></trkpt><trkpt lat="43.50273268114992" lon="12.320444447772129"><ele>606.2</ele><time>2026-04-26T07:53:37Z</time></trkpt><trkpt lat="43.502648677305146" lon="12.320376774487553"><ele>607.0</ele><time>2026-04-26T07:53:38Z</time></trkpt><trkpt lat="43.502574102385985" lon="12.320321501299489"><ele>607.0</ele><time>2026-04-26T07:53:39Z</time></trkpt><trkpt lat="43.50249358286262" lon="12.320276980675306"><ele>607.0</ele><time>2026-04-26T07:53:40Z</time></trkpt><trkpt lat="43.50241895997912" lon="12.32024006725169"><ele>607.0</ele><time>2026-04-26T07:53:41Z</time></trkpt><trkpt lat="43.50233150864721" lon="12.320216100865157"><ele>607.0</ele><time>2026-04-26T07:53:42Z</time></trkpt><trkpt lat="43.50225655245274" lon="12.320217502973247"><ele>607.0</ele><time>2026-04-26T07:53:43Z</time></trkpt><trkpt lat="43.50206690988911" lon="12.320193368555044"><ele>607.6666666666667</ele><time>2026-04-26T07:53:45Z</time></trkpt><trkpt lat="43.50198679493925" lon="12.320193867133478"><ele>608.3333333333334</ele><time>2026-04-26T07:53:46Z</time></trkpt><trkpt lat="43.50191203540551" lon="12.32017609125372"><ele>609.0</ele><time>2026-04-26T07:53:47Z</time></trkpt><trkpt lat="43.50184616979482" lon="12.320146301921966"><ele>609.6666666666666</ele><time>2026-04-26T07:53:48Z</time></trkpt><trkpt lat="43.501778906114126" lon="12.320097147718412"><ele>610.3333333333333</ele><time>2026-04-26T07:53:49Z</time></trkpt><trkpt lat="43.501699603611506" lon="12.32003547112524"><ele>611.0</ele><time>2026-04-26T07:53:50Z</time></trkpt><trkpt lat="43.50162396111638" lon="12.319998890767886"><ele>611.0</ele><time>2026-04-26T07:53:51Z</time></trkpt><trkpt lat="43.5015547391988" lon="12.319933204840066"><ele>611.0</ele><time>2026-04-26T07:53:52Z</time></trkpt><trkpt lat="43.501496938540384" lon="12.319863851621676"><ele>611.0</ele><time>2026-04-26T07:53:53Z</time></trkpt><trkpt lat="43.501443711570396" lon="12.319790446292734"><ele>611.0</ele><time>2026-04-26T07:53:54Z</time></trkpt><trkpt lat="43.50139308789114" lon="12.319732440398079"><ele>611.0</ele><time>2026-04-26T07:53:55Z</time></trkpt><trkpt lat="43.50135758784348" lon="12.319653712866906"><ele>611.0</ele><time>2026-04-26T07:53:57Z</time></trkpt><trkpt lat="43.50137650698717" lon="12.319488313330597"><ele>611.0</ele><time>2026-04-26T07:54:02Z</time></trkpt><trkpt lat="43.50138855250231" lon="12.31937951086479"><ele>611.0</ele><time>2026-04-26T07:54:03Z</time></trkpt><trkpt lat="43.50140480464736" lon="12.319278507625096"><ele>611.0</ele><time>2026-04-26T07:54:04Z</time></trkpt><trkpt lat="43.501402871798774" lon="12.31915323521654"><ele>611.0</ele><time>2026-04-26T07:54:05Z</time></trkpt><trkpt lat="43.50141146093545" lon="12.319017062450115"><ele>611.0</ele><time>2026-04-26T07:54:06Z</time></trkpt><trkpt lat="43.50141830581027" lon="12.318927848738499"><ele>611.0</ele><time>2026-04-26T07:54:07Z</time></trkpt><trkpt lat="43.50137112784923" lon="12.31877216252113"><ele>610.4285714285714</ele><time>2026-04-26T07:54:09Z</time></trkpt><trkpt lat="43.50132758394686" lon="12.318708582765161"><ele>609.8571428571429</ele><time>2026-04-26T07:54:10Z</time></trkpt><trkpt lat="43.50127305580809" lon="12.31864490898584"><ele>609.2857142857142</ele><time>2026-04-26T07:54:11Z</time></trkpt><trkpt lat="43.50122234559371" lon="12.318552645523203"><ele>608.7142857142858</ele><time>2026-04-26T07:54:12Z</time></trkpt><trkpt lat="43.50118347547983" lon="12.31847576829393"><ele>608.1428571428571</ele><time>2026-04-26T07:54:13Z</time></trkpt><trkpt lat="43.501159827031586" lon="12.318390004365599"><ele>607.5714285714286</ele><time>2026-04-26T07:54:14Z</time></trkpt><trkpt lat="43.501122230173614" lon="12.318273156003771"><ele>607.0</ele><time>2026-04-26T07:54:15Z</time></trkpt><trkpt lat="43.50103364228209" lon="12.318129538751135"><ele>608.4</ele><time>2026-04-26T07:54:17Z</time></trkpt><trkpt lat="43.50095215740303" lon="12.318034106422276"><ele>609.8000000000001</ele><time>2026-04-26T07:54:19Z</time></trkpt><trkpt lat="43.50081559070406" lon="12.318072522096148"><ele>611.2</ele><time>2026-04-26T07:54:21Z</time></trkpt><trkpt lat="43.50073338841945" lon="12.31812881679184"><ele>612.6</ele><time>2026-04-26T07:54:22Z</time></trkpt><trkpt lat="43.500671310069244" lon="12.31818507678594"><ele>614.0</ele><time>2026-04-26T07:54:23Z</time></trkpt><trkpt lat="43.5006131070473" lon="12.318256186724673"><ele>615.5714285714286</ele><time>2026-04-26T07:54:24Z</time></trkpt><trkpt lat="43.50055425753893" lon="12.318338084811504"><ele>617.1428571428571</ele><time>2026-04-26T07:54:25Z</time></trkpt><trkpt lat="43.500503788177724" lon="12.31841584599814"><ele>618.7142857142858</ele><time>2026-04-26T07:54:26Z</time></trkpt><trkpt lat="43.50045922469166" lon="12.318489961980148"><ele>620.2857142857142</ele><time>2026-04-26T07:54:27Z</time></trkpt><trkpt lat="43.500420453664155" lon="12.318563775073423"><ele>621.8571428571429</ele><time>2026-04-26T07:54:28Z</time></trkpt><trkpt lat="43.500387359254134" lon="12.31865244613977"><ele>623.4285714285714</ele><time>2026-04-26T07:54:29Z</time></trkpt><trkpt lat="43.50035867120074" lon="12.318733959011551"><ele>625.0</ele><time>2026-04-26T07:54:30Z</time></trkpt><trkpt lat="43.500302922629174" lon="12.31882198511407"><ele>625.0</ele><time>2026-04-26T07:54:31Z</time></trkpt><trkpt lat="43.5002440418727" lon="12.318895783627559"><ele>625.0</ele><time>2026-04-26T07:54:32Z</time></trkpt><trkpt lat="43.500166273229716" lon="12.31896020016829"><ele>625.0</ele><time>2026-04-26T07:54:33Z</time></trkpt><trkpt lat="43.50009663306251" lon="12.319016010036371"><ele>625.0</ele><time>2026-04-26T07:54:34Z</time></trkpt><trkpt lat="43.50002414350089" lon="12.319081799642682"><ele>625.0</ele><time>2026-04-26T07:54:35Z</time></trkpt><trkpt lat="43.49995790948361" lon="12.319186118836447"><ele>625.0</ele><time>2026-04-26T07:54:36Z</time></trkpt><trkpt lat="43.499908376084335" lon="12.319279570454608"><ele>626.4</ele><time>2026-04-26T07:54:37Z</time></trkpt><trkpt lat="43.49985507192121" lon="12.31939139561147"><ele>627.8</ele><time>2026-04-26T07:54:38Z</time></trkpt><trkpt lat="43.49980236932989" lon="12.319507440473982"><ele>629.2</ele><time>2026-04-26T07:54:39Z</time></trkpt><trkpt lat="43.49975743383251" lon="12.319589241728004"><ele>630.6</ele><time>2026-04-26T07:54:40Z</time></trkpt><trkpt lat="43.4996883324322" lon="12.31966705626859"><ele>632.0</ele><time>2026-04-26T07:54:41Z</time></trkpt><trkpt lat="43.499610535909156" lon="12.31974714763996"><ele>632.8333333333333</ele><time>2026-04-26T07:54:42Z</time></trkpt><trkpt lat="43.499534480669446" lon="12.31981083421047"><ele>633.6666666666666</ele><time>2026-04-26T07:54:43Z</time></trkpt><trkpt lat="43.49944809663485" lon="12.319837887619885"><ele>634.5</ele><time>2026-04-26T07:54:44Z</time></trkpt><trkpt lat="43.499363660471914" lon="12.319848730081098"><ele>635.3333333333334</ele><time>2026-04-26T07:54:45Z</time></trkpt><trkpt lat="43.49927985553462" lon="12.31985851087762"><ele>636.1666666666667</ele><time>2026-04-26T07:54:46Z</time></trkpt><trkpt lat="43.49920170086399" lon="12.319871488146303"><ele>637.0</ele><time>2026-04-26T07:54:47Z</time></trkpt><trkpt lat="43.49912389429915" lon="12.31987726238066"><ele>637.0</ele><time>2026-04-26T07:54:48Z</time></trkpt><trkpt lat="43.49903976745123" lon="12.31987427385627"><ele>637.0</ele><time>2026-04-26T07:54:49Z</time></trkpt><trkpt lat="43.49895892672171" lon="12.319851334276468"><ele>637.0</ele><time>2026-04-26T07:54:50Z</time></trkpt><trkpt lat="43.49888652216129" lon="12.319812461695477"><ele>637.0</ele><time>2026-04-26T07:54:51Z</time></trkpt><trkpt lat="43.49881917745585" lon="12.319764322443019"><ele>637.0</ele><time>2026-04-26T07:54:52Z</time></trkpt><trkpt lat="43.498763953086964" lon="12.319722615182817"><ele>637.0</ele><time>2026-04-26T07:54:53Z</time></trkpt><trkpt lat="43.49869277249279" lon="12.319678383547775"><ele>634.6666666666667</ele><time>2026-04-26T07:54:54Z</time></trkpt><trkpt lat="43.49863302706978" lon="12.319645527515291"><ele>632.3333333333334</ele><time>2026-04-26T07:54:55Z</time></trkpt><trkpt lat="43.49853063203624" lon="12.319635864768493"><ele>630.0</ele><time>2026-04-26T07:54:57Z</time></trkpt><trkpt lat="43.49846589305831" lon="12.319663325641523"><ele>627.6666666666666</ele><time>2026-04-26T07:54:58Z</time></trkpt><trkpt lat="43.498382790841845" lon="12.319685851370414"><ele>625.3333333333333</ele><time>2026-04-26T07:54:59Z</time></trkpt><trkpt lat="43.49830153382715" lon="12.31969880277668"><ele>623.0</ele><time>2026-04-26T07:55:00Z</time></trkpt><trkpt lat="43.49818517255709" lon="12.319704293073142"><ele>623.0</ele><time>2026-04-26T07:55:02Z</time></trkpt><trkpt lat="43.498098677411825" lon="12.319679114187984"><ele>623.0</ele><time>2026-04-26T07:55:04Z</time></trkpt><trkpt lat="43.497983978592174" lon="12.319625661839382"><ele>623.0</ele><time>2026-04-26T07:55:06Z</time></trkpt><trkpt lat="43.49791033734957" lon="12.31968273029579"><ele>623.0</ele><time>2026-04-26T07:55:08Z</time></trkpt><trkpt lat="43.49789745163257" lon="12.319829034812736"><ele>623.0</ele><time>2026-04-26T07:55:10Z</time></trkpt><trkpt lat="43.49791427090371" lon="12.31991430903871"><ele>623.4</ele><time>2026-04-26T07:55:11Z</time></trkpt><trkpt lat="43.497935505969764" lon="12.320010636521365"><ele>623.8</ele><time>2026-04-26T07:55:12Z</time></trkpt><trkpt lat="43.497952580060826" lon="12.320184850372316"><ele>624.2</ele><time>2026-04-26T07:55:14Z</time></trkpt><trkpt lat="43.4979426005075" lon="12.320368428101467"><ele>624.6</ele><time>2026-04-26T07:55:16Z</time></trkpt><trkpt lat="43.49793392288574" lon="12.320467752168607"><ele>625.0</ele><time>2026-04-26T07:55:17Z</time></trkpt><trkpt lat="43.49792916289818" lon="12.320559334401077"><ele>622.8571428571429</ele><time>2026-04-26T07:55:18Z</time></trkpt><trkpt lat="43.49792159514671" lon="12.320665855503828"><ele>620.7142857142858</ele><time>2026-04-26T07:55:19Z</time></trkpt><trkpt lat="43.497934251098904" lon="12.320756014333304"><ele>618.5714285714287</ele><time>2026-04-26T07:55:20Z</time></trkpt><trkpt lat="43.49796018421345" lon="12.320855932380812"><ele>616.4285714285714</ele><time>2026-04-26T07:55:21Z</time></trkpt><trkpt lat="43.4979811087038" lon="12.320953839411686"><ele>614.2857142857142</ele><time>2026-04-26T07:55:22Z</time></trkpt><trkpt lat="43.49798648535579" lon="12.32104082684867"><ele>612.1428571428572</ele><time>2026-04-26T07:55:23Z</time></trkpt><trkpt lat="43.49799596181069" lon="12.321130684666175"><ele>610.0</ele><time>2026-04-26T07:55:24Z</time></trkpt><trkpt lat="43.49796267809118" lon="12.321270106817426"><ele>606.5</ele><time>2026-04-26T07:55:26Z</time></trkpt><trkpt lat="43.497916299774154" lon="12.321337754200167"><ele>603.0</ele><time>2026-04-26T07:55:27Z</time></trkpt><trkpt lat="43.4978681853705" lon="12.321406074288848"><ele>599.5</ele><time>2026-04-26T07:55:28Z</time></trkpt><trkpt lat="43.49782413231561" lon="12.321501842836021"><ele>596.0</ele><time>2026-04-26T07:55:29Z</time></trkpt><trkpt lat="43.497782051164656" lon="12.321605956813793"><ele>592.5</ele><time>2026-04-26T07:55:30Z</time></trkpt><trkpt lat="43.49775276127532" lon="12.321719798814835"><ele>589.0</ele><time>2026-04-26T07:55:31Z</time></trkpt><trkpt lat="43.497736613503776" lon="12.321849925382265"><ele>589.4</ele><time>2026-04-26T07:55:32Z</time></trkpt><trkpt lat="43.497723909974304" lon="12.321992953697771"><ele>589.8</ele><time>2026-04-26T07:55:33Z</time></trkpt><trkpt lat="43.49770576973202" lon="12.322145426804816"><ele>590.2</ele><time>2026-04-26T07:55:34Z</time></trkpt><trkpt lat="43.49768351358998" lon="12.322279444851215"><ele>590.6</ele><time>2026-04-26T07:55:35Z</time></trkpt><trkpt lat="43.49766916627294" lon="12.322392697186888"><ele>591.0</ele><time>2026-04-26T07:55:36Z</time></trkpt><trkpt lat="43.49766484992831" lon="12.322523302442894"><ele>591.0</ele><time>2026-04-26T07:55:37Z</time></trkpt><trkpt lat="43.497653999061576" lon="12.322609592083479"><ele>591.0</ele><time>2026-04-26T07:55:38Z</time></trkpt><trkpt lat="43.49760822777376" lon="12.322698978072475"><ele>591.0</ele><time>2026-04-26T07:55:39Z</time></trkpt><trkpt lat="43.497551901912836" lon="12.322783722913814"><ele>591.0</ele><time>2026-04-26T07:55:40Z</time></trkpt><trkpt lat="43.497496116086374" lon="12.322887727991574"><ele>591.0</ele><time>2026-04-26T07:55:41Z</time></trkpt><trkpt lat="43.497438215388335" lon="12.322980025100087"><ele>591.0</ele><time>2026-04-26T07:55:42Z</time></trkpt><trkpt lat="43.4973767055758" lon="12.323061065219022"><ele>591.0</ele><time>2026-04-26T07:55:43Z</time></trkpt><trkpt lat="43.49731152371459" lon="12.323133930920134"><ele>591.0</ele><time>2026-04-26T07:55:44Z</time></trkpt><trkpt lat="43.49723515035567" lon="12.32318579261714"><ele>591.0</ele><time>2026-04-26T07:55:45Z</time></trkpt><trkpt lat="43.49714717400453" lon="12.323220135881602"><ele>591.0</ele><time>2026-04-26T07:55:46Z</time></trkpt><trkpt lat="43.49705663257063" lon="12.323270049967643"><ele>591.0</ele><time>2026-04-26T07:55:47Z</time></trkpt><trkpt lat="43.496968593778206" lon="12.323330164358042"><ele>591.0</ele><time>2026-04-26T07:55:48Z</time></trkpt><trkpt lat="43.49688608146447" lon="12.32338998412842"><ele>591.0</ele><time>2026-04-26T07:55:49Z</time></trkpt><trkpt lat="43.49680576504569" lon="12.323459626793413"><ele>591.0</ele><time>2026-04-26T07:55:50Z</time></trkpt><trkpt lat="43.49674074732138" lon="12.323515689002948"><ele>591.0</ele><time>2026-04-26T07:55:51Z</time></trkpt><trkpt lat="43.496679059631255" lon="12.323584647542793"><ele>591.0</ele><time>2026-04-26T07:55:52Z</time></trkpt><trkpt lat="43.496614181572056" lon="12.323637899611716"><ele>591.0</ele><time>2026-04-26T07:55:53Z</time></trkpt><trkpt lat="43.496543331049224" lon="12.32366210349056"><ele>591.0</ele><time>2026-04-26T07:55:54Z</time></trkpt><trkpt lat="43.49647373713838" lon="12.3237000200646"><ele>591.0</ele><time>2026-04-26T07:55:55Z</time></trkpt><trkpt lat="43.49640697017273" lon="12.323764250066446"><ele>591.0</ele><time>2026-04-26T07:55:56Z</time></trkpt><trkpt lat="43.49636900445619" lon="12.323835697083616"><ele>591.0</ele><time>2026-04-26T07:55:57Z</time></trkpt><trkpt lat="43.49634351903799" lon="12.323961297302763"><ele>591.0</ele><time>2026-04-26T07:55:59Z</time></trkpt><trkpt lat="43.49639352401209" lon="12.324089267300751"><ele>591.0</ele><time>2026-04-26T07:56:01Z</time></trkpt><trkpt lat="43.49645388627667" lon="12.324175479908662"><ele>591.5</ele><time>2026-04-26T07:56:03Z</time></trkpt><trkpt lat="43.49638073246213" lon="12.324269427190254"><ele>592.0</ele><time>2026-04-26T07:56:05Z</time></trkpt><trkpt lat="43.49631934518071" lon="12.324330221071609"><ele>592.5</ele><time>2026-04-26T07:56:06Z</time></trkpt><trkpt lat="43.49625640879554" lon="12.324387876475651"><ele>593.0</ele><time>2026-04-26T07:56:07Z</time></trkpt><trkpt lat="43.496179835880824" lon="12.324447698332083"><ele>593.5</ele><time>2026-04-26T07:56:08Z</time></trkpt><trkpt lat="43.49611317056275" lon="12.324502314807226"><ele>594.0</ele><time>2026-04-26T07:56:09Z</time></trkpt><trkpt lat="43.496040991629066" lon="12.324576456182799"><ele>595.5</ele><time>2026-04-26T07:56:10Z</time></trkpt><trkpt lat="43.49597167564094" lon="12.324648259722103"><ele>597.0</ele><time>2026-04-26T07:56:11Z</time></trkpt><trkpt lat="43.4958834897361" lon="12.324693801534242"><ele>598.5</ele><time>2026-04-26T07:56:12Z</time></trkpt><trkpt lat="43.49579826922839" lon="12.324729977147273"><ele>600.0</ele><time>2026-04-26T07:56:13Z</time></trkpt><trkpt lat="43.49572178239187" lon="12.324790011417754"><ele>601.5</ele><time>2026-04-26T07:56:14Z</time></trkpt><trkpt lat="43.49565493622377" lon="12.324847057406481"><ele>603.0</ele><time>2026-04-26T07:56:15Z</time></trkpt><trkpt lat="43.495524936268794" lon="12.324913888272171"><ele>603.8</ele><time>2026-04-26T07:56:17Z</time></trkpt><trkpt lat="43.49542137218953" lon="12.324946315445285"><ele>604.5999999999999</ele><time>2026-04-26T07:56:18Z</time></trkpt><trkpt lat="43.49533567357342" lon="12.324983102346705"><ele>605.4000000000001</ele><time>2026-04-26T07:56:19Z</time></trkpt><trkpt lat="43.49527239137254" lon="12.32501843964344"><ele>606.2</ele><time>2026-04-26T07:56:20Z</time></trkpt><trkpt lat="43.49517300217604" lon="12.325141263302037"><ele>607.0</ele><time>2026-04-26T07:56:22Z</time></trkpt><trkpt lat="43.49511504348575" lon="12.325187517062313"><ele>608.1666666666667</ele><time>2026-04-26T07:56:23Z</time></trkpt><trkpt lat="43.49503737630934" lon="12.325226792397173"><ele>609.3333333333334</ele><time>2026-04-26T07:56:24Z</time></trkpt><trkpt lat="43.494950749694304" lon="12.325255384140108"><ele>610.5</ele><time>2026-04-26T07:56:25Z</time></trkpt><trkpt lat="43.49487020947743" lon="12.325250946386996"><ele>611.6666666666666</ele><time>2026-04-26T07:56:26Z</time></trkpt><trkpt lat="43.49478196583019" lon="12.32522923879286"><ele>612.8333333333333</ele><time>2026-04-26T07:56:27Z</time></trkpt><trkpt lat="43.49468766300883" lon="12.325219589003424"><ele>614.0</ele><time>2026-04-26T07:56:28Z</time></trkpt><trkpt lat="43.49458357346525" lon="12.325221834919494"><ele>614.0</ele><time>2026-04-26T07:56:29Z</time></trkpt><trkpt lat="43.49449447585209" lon="12.325218758526168"><ele>614.0</ele><time>2026-04-26T07:56:30Z</time></trkpt><trkpt lat="43.49440369068964" lon="12.325207027992548"><ele>614.0</ele><time>2026-04-26T07:56:31Z</time></trkpt><trkpt lat="43.494324589780035" lon="12.325202246228592"><ele>614.0</ele><time>2026-04-26T07:56:32Z</time></trkpt><trkpt lat="43.49423706274253" lon="12.325197683560715"><ele>614.0</ele><time>2026-04-26T07:56:33Z</time></trkpt><trkpt lat="43.49414980572455" lon="12.325200535561821"><ele>614.0</ele><time>2026-04-26T07:56:34Z</time></trkpt><trkpt lat="43.494076304820744" lon="12.325211292173712"><ele>614.0</ele><time>2026-04-26T07:56:35Z</time></trkpt><trkpt lat="43.4939993898988" lon="12.325235067396617"><ele>614.0</ele><time>2026-04-26T07:56:36Z</time></trkpt><trkpt lat="43.49393072283502" lon="12.325288470191222"><ele>614.0</ele><time>2026-04-26T07:56:37Z</time></trkpt><trkpt lat="43.49386604622055" lon="12.325355096733317"><ele>614.0</ele><time>2026-04-26T07:56:38Z</time></trkpt><trkpt lat="43.49379043507843" lon="12.325424443967895"><ele>614.0</ele><time>2026-04-26T07:56:39Z</time></trkpt><trkpt lat="43.493712195916906" lon="12.325484814357372"><ele>614.0</ele><time>2026-04-26T07:56:40Z</time></trkpt><trkpt lat="43.49364055528634" lon="12.325507520018647"><ele>613.3333333333333</ele><time>2026-04-26T07:56:41Z</time></trkpt><trkpt lat="43.493568267986035" lon="12.325507235042469"><ele>612.6666666666666</ele><time>2026-04-26T07:56:42Z</time></trkpt><trkpt lat="43.49350314614709" lon="12.325493325325665"><ele>612.0</ele><time>2026-04-26T07:56:43Z</time></trkpt><trkpt lat="43.493434817901814" lon="12.325486959523241"><ele>611.3333333333334</ele><time>2026-04-26T07:56:44Z</time></trkpt><trkpt lat="43.49332550979228" lon="12.32543819695007"><ele>610.6666666666667</ele><time>2026-04-26T07:56:46Z</time></trkpt><trkpt lat="43.493262353691485" lon="12.325321389280948"><ele>610.0</ele><time>2026-04-26T07:56:48Z</time></trkpt><trkpt lat="43.493209915396335" lon="12.325203101406807"><ele>610.0</ele><time>2026-04-26T07:56:50Z</time></trkpt><trkpt lat="43.49313285676236" lon="12.325087808068988"><ele>610.0</ele><time>2026-04-26T07:56:52Z</time></trkpt><trkpt lat="43.4930892196798" lon="12.325019146114009"><ele>610.0</ele><time>2026-04-26T07:56:53Z</time></trkpt><trkpt lat="43.4930032589214" lon="12.32489507752802"><ele>610.0</ele><time>2026-04-26T07:56:55Z</time></trkpt><trkpt lat="43.49295475683228" lon="12.324834745627614"><ele>610.0</ele><time>2026-04-26T07:56:56Z</time></trkpt><trkpt lat="43.49285652171192" lon="12.324743912479445"><ele>605.6</ele><time>2026-04-26T07:56:58Z</time></trkpt><trkpt lat="43.49275514557192" lon="12.32465289147417"><ele>601.2</ele><time>2026-04-26T07:57:00Z</time></trkpt><trkpt lat="43.492704940134" lon="12.324587785043365"><ele>596.8</ele><time>2026-04-26T07:57:01Z</time></trkpt><trkpt lat="43.492622471702646" lon="12.324476811290738"><ele>592.4</ele><time>2026-04-26T07:57:03Z</time></trkpt><trkpt lat="43.49252468892216" lon="12.324391582005923"><ele>588.0</ele><time>2026-04-26T07:57:05Z</time></trkpt><trkpt lat="43.49241560825273" lon="12.324336458061042"><ele>588.0</ele><time>2026-04-26T07:57:07Z</time></trkpt><trkpt lat="43.49236142928178" lon="12.324290217838886"><ele>588.0</ele><time>2026-04-26T07:57:08Z</time></trkpt><trkpt lat="43.49226934873215" lon="12.324186356270062"><ele>588.0</ele><time>2026-04-26T07:57:10Z</time></trkpt><trkpt lat="43.492217316555866" lon="12.324104473080089"><ele>588.0</ele><time>2026-04-26T07:57:12Z</time></trkpt><trkpt lat="43.49220646474584" lon="12.323970917655435"><ele>588.0</ele><time>2026-04-26T07:57:14Z</time></trkpt><trkpt lat="43.49217005967388" lon="12.323853401132828"><ele>582.4</ele><time>2026-04-26T07:57:16Z</time></trkpt><trkpt lat="43.49208828118342" lon="12.323804204744855"><ele>576.8</ele><time>2026-04-26T07:57:18Z</time></trkpt><trkpt lat="43.49202692816488" lon="12.323689885949731"><ele>571.2</ele><time>2026-04-26T07:57:20Z</time></trkpt><trkpt lat="43.492010545335624" lon="12.323575473487397"><ele>565.6</ele><time>2026-04-26T07:57:22Z</time></trkpt><trkpt lat="43.4919886641604" lon="12.323447101704428"><ele>560.0</ele><time>2026-04-26T07:57:24Z</time></trkpt><trkpt lat="43.49202363226324" lon="12.323341543631065"><ele>559.0</ele><time>2026-04-26T07:57:26Z</time></trkpt><trkpt lat="43.49210931840579" lon="12.323195693038478"><ele>558.0</ele><time>2026-04-26T07:57:28Z</time></trkpt><trkpt lat="43.49215147180435" lon="12.323117495959208"><ele>557.0</ele><time>2026-04-26T07:57:29Z</time></trkpt><trkpt lat="43.49220419761462" lon="12.32303080612836"><ele>556.0</ele><time>2026-04-26T07:57:30Z</time></trkpt><trkpt lat="43.492315292268934" lon="12.322971375577"><ele>555.0</ele><time>2026-04-26T07:57:32Z</time></trkpt><trkpt lat="43.49238699457733" lon="12.322955964641302"><ele>555.0</ele><time>2026-04-26T07:57:33Z</time></trkpt><trkpt lat="43.49247920329085" lon="12.322930827742487"><ele>555.0</ele><time>2026-04-26T07:57:34Z</time></trkpt><trkpt lat="43.49256084414622" lon="12.32289809660515"><ele>555.0</ele><time>2026-04-26T07:57:35Z</time></trkpt><trkpt lat="43.49263579901241" lon="12.322854322304657"><ele>555.0</ele><time>2026-04-26T07:57:36Z</time></trkpt><trkpt lat="43.49269818663965" lon="12.322815061106844"><ele>555.0</ele><time>2026-04-26T07:57:37Z</time></trkpt><trkpt lat="43.49280853959561" lon="12.322780095857297"><ele>555.0</ele><time>2026-04-26T07:57:39Z</time></trkpt><trkpt lat="43.49284934336649" lon="12.322692755171476"><ele>555.0000000000001</ele><time>2026-04-26T07:57:42Z</time></trkpt><trkpt lat="43.49279061388031" lon="12.322660240680923"><ele>555.0</ele><time>2026-04-26T07:57:44Z</time></trkpt><trkpt lat="43.49272602613584" lon="12.32267442775706"><ele>555.0</ele><time>2026-04-26T07:57:45Z</time></trkpt><trkpt lat="43.49266018579556" lon="12.322677569562469"><ele>555.0</ele><time>2026-04-26T07:57:46Z</time></trkpt><trkpt lat="43.49258512749731" lon="12.322672983649765"><ele>555.0</ele><time>2026-04-26T07:57:47Z</time></trkpt><trkpt lat="43.49251597284462" lon="12.322669638306456"><ele>555.0000000000001</ele><time>2026-04-26T07:57:48Z</time></trkpt><trkpt lat="43.49244694946357" lon="12.322660670095614"><ele>555.0</ele><time>2026-04-26T07:57:49Z</time></trkpt><trkpt lat="43.492377881621564" lon="12.322632830874676"><ele>555.0</ele><time>2026-04-26T07:57:50Z</time></trkpt><trkpt lat="43.492308641185055" lon="12.322562523575664"><ele>555.0</ele><time>2026-04-26T07:57:52Z</time></trkpt><trkpt lat="43.4922220802908" lon="12.322517820385945"><ele>555.0</ele><time>2026-04-26T07:57:54Z</time></trkpt><trkpt lat="43.49215833406618" lon="12.322517804835533"><ele>555.0</ele><time>2026-04-26T07:57:55Z</time></trkpt><trkpt lat="43.49204828159585" lon="12.322558494890158"><ele>555.0</ele><time>2026-04-26T07:57:57Z</time></trkpt><trkpt lat="43.49195851272384" lon="12.32257893525307"><ele>555.0</ele><time>2026-04-26T07:57:59Z</time></trkpt><trkpt lat="43.49185344250035" lon="12.322556913431008"><ele>553.0</ele><time>2026-04-26T07:58:01Z</time></trkpt><trkpt lat="43.49176948629751" lon="12.322528845796253"><ele>551.0</ele><time>2026-04-26T07:58:03Z</time></trkpt><trkpt lat="43.49168109708648" lon="12.322495950470092"><ele>549.0</ele><time>2026-04-26T07:58:05Z</time></trkpt><trkpt lat="43.49156581763527" lon="12.322425765616178"><ele>547.0</ele><time>2026-04-26T07:58:07Z</time></trkpt><trkpt lat="43.49146018303626" lon="12.322390317136437"><ele>545.0</ele><time>2026-04-26T07:58:09Z</time></trkpt><trkpt lat="43.491390917137714" lon="12.322380284015534"><ele>545.0</ele><time>2026-04-26T07:58:10Z</time></trkpt><trkpt lat="43.491290446699296" lon="12.322375881900852"><ele>545.0</ele><time>2026-04-26T07:58:12Z</time></trkpt><trkpt lat="43.49120096372689" lon="12.322430270413358"><ele>545.0</ele><time>2026-04-26T07:58:14Z</time></trkpt><trkpt lat="43.49111779144665" lon="12.322514723372821"><ele>545.0</ele><time>2026-04-26T07:58:16Z</time></trkpt><trkpt lat="43.49107573719418" lon="12.322608604405788"><ele>545.0</ele><time>2026-04-26T07:58:18Z</time></trkpt><trkpt lat="43.49103484644008" lon="12.322675749577252"><ele>545.0</ele><time>2026-04-26T07:58:22Z</time></trkpt><trkpt lat="43.49097994614313" lon="12.322621328915044"><ele>540.1666666666666</ele><time>2026-04-26T07:58:24Z</time></trkpt><trkpt lat="43.490919702353494" lon="12.322533946684361"><ele>535.3333333333333</ele><time>2026-04-26T07:58:27Z</time></trkpt><trkpt lat="43.49087966868865" lon="12.322464572588766"><ele>530.5</ele><time>2026-04-26T07:58:29Z</time></trkpt><trkpt lat="43.49084100262826" lon="12.32237385359401"><ele>525.6666666666666</ele><time>2026-04-26T07:58:32Z</time></trkpt><trkpt lat="43.490784430599874" lon="12.32229926757253"><ele>520.8333333333334</ele><time>2026-04-26T07:58:36Z</time></trkpt><trkpt lat="43.49077118290519" lon="12.322388499427065"><ele>516.0</ele><time>2026-04-26T07:58:55Z</time></trkpt><trkpt lat="43.49076646834635" lon="12.32250887066114"><ele>516.0</ele><time>2026-04-26T07:58:58Z</time></trkpt><trkpt lat="43.49077854112306" lon="12.322641634434508"><ele>516.0</ele><time>2026-04-26T07:59:01Z</time></trkpt><trkpt lat="43.49081173615097" lon="12.32275930710849"><ele>516.0</ele><time>2026-04-26T07:59:03Z</time></trkpt><trkpt lat="43.49084172720877" lon="12.322854807242818"><ele>516.0</ele><time>2026-04-26T07:59:05Z</time></trkpt><trkpt lat="43.49084936936058" lon="12.32295404422751"><ele>516.0</ele><time>2026-04-26T07:59:07Z</time></trkpt><trkpt lat="43.49085225611436" lon="12.323057080876675"><ele>516.0</ele><time>2026-04-26T07:59:09Z</time></trkpt><trkpt lat="43.4908520304953" lon="12.32314883809574"><ele>517.5</ele><time>2026-04-26T07:59:11Z</time></trkpt><trkpt lat="43.490857491393484" lon="12.323259064623498"><ele>519.0</ele><time>2026-04-26T07:59:13Z</time></trkpt><trkpt lat="43.49079795449378" lon="12.32330804472013"><ele>520.5</ele><time>2026-04-26T07:59:15Z</time></trkpt><trkpt lat="43.49073817729741" lon="12.32327815541746"><ele>522.0</ele><time>2026-04-26T07:59:17Z</time></trkpt><trkpt lat="43.49065744799346" lon="12.323272977076666"><ele>523.5</ele><time>2026-04-26T07:59:19Z</time></trkpt><trkpt lat="43.49055579662897" lon="12.323295926818027"><ele>525.0</ele><time>2026-04-26T07:59:21Z</time></trkpt><trkpt lat="43.49048257183113" lon="12.323332693956122"><ele>520.8</ele><time>2026-04-26T07:59:23Z</time></trkpt><trkpt lat="43.49039608928063" lon="12.323407661514885"><ele>516.6</ele><time>2026-04-26T07:59:25Z</time></trkpt><trkpt lat="43.49031879690274" lon="12.3234788686559"><ele>512.4</ele><time>2026-04-26T07:59:27Z</time></trkpt><trkpt lat="43.490206285832805" lon="12.323471122797063"><ele>508.2</ele><time>2026-04-26T07:59:29Z</time></trkpt><trkpt lat="43.49011774894303" lon="12.323436695617232"><ele>504.0</ele><time>2026-04-26T07:59:31Z</time></trkpt><trkpt lat="43.490035735445986" lon="12.323404931252135"><ele>504.0</ele><time>2026-04-26T07:59:33Z</time></trkpt><trkpt lat="43.48995900949689" lon="12.323376926261727"><ele>504.0</ele><time>2026-04-26T07:59:35Z</time></trkpt><trkpt lat="43.4898906020623" lon="12.32334485642886"><ele>504.0</ele><time>2026-04-26T07:59:37Z</time></trkpt><trkpt lat="43.48979871392904" lon="12.323316609026165"><ele>504.0</ele><time>2026-04-26T07:59:39Z</time></trkpt><trkpt lat="43.48970347697442" lon="12.323307593221847"><ele>504.0</ele><time>2026-04-26T07:59:41Z</time></trkpt><trkpt lat="43.4896203466481" lon="12.323292326399265"><ele>504.0</ele><time>2026-04-26T07:59:43Z</time></trkpt><trkpt lat="43.489547404992386" lon="12.323270240316242"><ele>500.8571428571429</ele><time>2026-04-26T07:59:45Z</time></trkpt><trkpt lat="43.48946679133419" lon="12.323294962993206"><ele>497.7142857142857</ele><time>2026-04-26T07:59:48Z</time></trkpt><trkpt lat="43.489390992302866" lon="12.323305868086393"><ele>494.57142857142856</ele><time>2026-04-26T07:59:52Z</time></trkpt><trkpt lat="43.48932539692108" lon="12.323335514810394"><ele>491.42857142857144</ele><time>2026-04-26T07:59:55Z</time></trkpt><trkpt lat="43.48927061922173" lon="12.323422067602245"><ele>488.28571428571433</ele><time>2026-04-26T07:59:57Z</time></trkpt><trkpt lat="43.489204914545105" lon="12.32339831406633"><ele>485.14285714285717</ele><time>2026-04-26T07:59:59Z</time></trkpt><trkpt lat="43.489157927949066" lon="12.32334010576279"><ele>482.0</ele><time>2026-04-26T08:00:01Z</time></trkpt><trkpt lat="43.48907271460299" lon="12.323270413453434"><ele>481.99999999999994</ele><time>2026-04-26T08:00:03Z</time></trkpt><trkpt lat="43.4889959358176" lon="12.323157787827606"><ele>482.0</ele><time>2026-04-26T08:00:05Z</time></trkpt><trkpt lat="43.4889404235412" lon="12.323111256078944"><ele>482.0</ele><time>2026-04-26T08:00:06Z</time></trkpt><trkpt lat="43.48887918895793" lon="12.323077288942265"><ele>482.0</ele><time>2026-04-26T08:00:07Z</time></trkpt><trkpt lat="43.488778001151566" lon="12.322989417692646"><ele>481.99999999999994</ele><time>2026-04-26T08:00:09Z</time></trkpt><trkpt lat="43.488696057293424" lon="12.32296674693193"><ele>482.0</ele><time>2026-04-26T08:00:11Z</time></trkpt><trkpt lat="43.48863269584976" lon="12.32306972405044"><ele>478.49999999999994</ele><time>2026-04-26T08:00:13Z</time></trkpt><trkpt lat="43.488658902224664" lon="12.323224712870267"><ele>475.0</ele><time>2026-04-26T08:00:15Z</time></trkpt><trkpt lat="43.48868175616355" lon="12.323311206284643"><ele>471.5</ele><time>2026-04-26T08:00:16Z</time></trkpt><trkpt lat="43.48870245521698" lon="12.323397002293543"><ele>468.0</ele><time>2026-04-26T08:00:17Z</time></trkpt><trkpt lat="43.48871862634779" lon="12.323543646474244"><ele>464.49999999999994</ele><time>2026-04-26T08:00:19Z</time></trkpt><trkpt lat="43.488719105012535" lon="12.323639318233516"><ele>461.0</ele><time>2026-04-26T08:00:21Z</time></trkpt><trkpt lat="43.488650448164066" lon="12.323661213894333"><ele>461.0</ele><time>2026-04-26T08:00:23Z</time></trkpt><trkpt lat="43.48856943975943" lon="12.323600104005525"><ele>461.0</ele><time>2026-04-26T08:00:25Z</time></trkpt><trkpt lat="43.48846488277782" lon="12.32355451606244"><ele>461.0</ele><time>2026-04-26T08:00:27Z</time></trkpt><trkpt lat="43.48840141976454" lon="12.323546433541738"><ele>461.0</ele><time>2026-04-26T08:00:28Z</time></trkpt><trkpt lat="43.488271366288544" lon="12.323529052456365"><ele>461.0</ele><time>2026-04-26T08:00:30Z</time></trkpt><trkpt lat="43.48817140962739" lon="12.323494028265086"><ele>460.99999999999994</ele><time>2026-04-26T08:00:32Z</time></trkpt><trkpt lat="43.488099488433654" lon="12.3234352653631"><ele>461.0</ele><time>2026-04-26T08:00:34Z</time></trkpt><trkpt lat="43.488058578977515" lon="12.323342274854118"><ele>461.0</ele><time>2026-04-26T08:00:36Z</time></trkpt><trkpt lat="43.48799331187441" lon="12.323298686855573"><ele>461.0</ele><time>2026-04-26T08:00:38Z</time></trkpt><trkpt lat="43.48792001901106" lon="12.323264554211663"><ele>460.99999999999994</ele><time>2026-04-26T08:00:40Z</time></trkpt><trkpt lat="43.48785279182782" lon="12.323337490509907"><ele>461.0</ele><time>2026-04-26T08:00:43Z</time></trkpt><trkpt lat="43.48782207030017" lon="12.323429968033905"><ele>461.0</ele><time>2026-04-26T08:00:46Z</time></trkpt><trkpt lat="43.48784075798297" lon="12.323541096343938"><ele>461.0</ele><time>2026-04-26T08:00:48Z</time></trkpt><trkpt lat="43.487880835058405" lon="12.323644897306034"><ele>461.0</ele><time>2026-04-26T08:00:50Z</time></trkpt><trkpt lat="43.487948359027754" lon="12.323767311524962"><ele>461.0</ele><time>2026-04-26T08:00:52Z</time></trkpt><trkpt lat="43.48800014096217" lon="12.323891389285638"><ele>461.0</ele><time>2026-04-26T08:00:54Z</time></trkpt><trkpt lat="43.48801836172192" lon="12.324077108116368"><ele>460.99999999999994</ele><time>2026-04-26T08:00:56Z</time></trkpt><trkpt lat="43.488027550853914" lon="12.324189911030375"><ele>461.0</ele><time>2026-04-26T08:00:57Z</time></trkpt><trkpt lat="43.48802277231055" lon="12.324289122130738"><ele>461.0</ele><time>2026-04-26T08:00:58Z</time></trkpt><trkpt lat="43.48801447724235" lon="12.324389721921749"><ele>461.0</ele><time>2026-04-26T08:00:59Z</time></trkpt><trkpt lat="43.487995215354594" lon="12.324511615698068"><ele>460.99999999999994</ele><time>2026-04-26T08:01:00Z</time></trkpt><trkpt lat="43.48797038368676" lon="12.324618542884355"><ele>461.0</ele><time>2026-04-26T08:01:01Z</time></trkpt><trkpt lat="43.487923661438735" lon="12.324710824762654"><ele>459.66666666666663</ele><time>2026-04-26T08:01:02Z</time></trkpt><trkpt lat="43.487871090502125" lon="12.324792988627074"><ele>458.3333333333333</ele><time>2026-04-26T08:01:03Z</time></trkpt><trkpt lat="43.48782376372862" lon="12.3248663578663"><ele>457.0</ele><time>2026-04-26T08:01:04Z</time></trkpt><trkpt lat="43.48777728584434" lon="12.324947804449632"><ele>455.66666666666663</ele><time>2026-04-26T08:01:05Z</time></trkpt><trkpt lat="43.48772575643548" lon="12.32502097937816"><ele>454.3333333333333</ele><time>2026-04-26T08:01:06Z</time></trkpt><trkpt lat="43.48768358904095" lon="12.32516118957045"><ele>453.0</ele><time>2026-04-26T08:01:08Z</time></trkpt><trkpt lat="43.4876956255596" lon="12.32533331676925"><ele>452.99999999999994</ele><time>2026-04-26T08:01:10Z</time></trkpt><trkpt lat="43.48769962955293" lon="12.325438796288955"><ele>453.0</ele><time>2026-04-26T08:01:11Z</time></trkpt><trkpt lat="43.48771659135281" lon="12.325532007098786"><ele>452.99999999999994</ele><time>2026-04-26T08:01:12Z</time></trkpt><trkpt lat="43.48774319889727" lon="12.325625580639754"><ele>452.99999999999994</ele><time>2026-04-26T08:01:13Z</time></trkpt><trkpt lat="43.48778526013061" lon="12.325711168684517"><ele>453.0</ele><time>2026-04-26T08:01:14Z</time></trkpt><trkpt lat="43.4878170435661" lon="12.325793169637786"><ele>452.99999999999994</ele><time>2026-04-26T08:01:15Z</time></trkpt><trkpt lat="43.48785401544569" lon="12.325880027023745"><ele>452.99999999999994</ele><time>2026-04-26T08:01:16Z</time></trkpt><trkpt lat="43.48789820117258" lon="12.32597009564663"><ele>453.5</ele><time>2026-04-26T08:01:17Z</time></trkpt><trkpt lat="43.48794255792608" lon="12.32605178680711"><ele>454.0</ele><time>2026-04-26T08:01:18Z</time></trkpt><trkpt lat="43.487995774145624" lon="12.326152230590091"><ele>454.5</ele><time>2026-04-26T08:01:19Z</time></trkpt><trkpt lat="43.488048843496955" lon="12.326254481196704"><ele>455.0</ele><time>2026-04-26T08:01:20Z</time></trkpt><trkpt lat="43.488092806229226" lon="12.326370196049146"><ele>455.5</ele><time>2026-04-26T08:01:21Z</time></trkpt><trkpt lat="43.488132343545516" lon="12.326472772928362"><ele>456.0</ele><time>2026-04-26T08:01:22Z</time></trkpt><trkpt lat="43.48816903644747" lon="12.326570347978052"><ele>456.0</ele><time>2026-04-26T08:01:23Z</time></trkpt><trkpt lat="43.48821609885506" lon="12.326661450260268"><ele>456.0</ele><time>2026-04-26T08:01:24Z</time></trkpt><trkpt lat="43.48827733500897" lon="12.326752112846133"><ele>456.0</ele><time>2026-04-26T08:01:25Z</time></trkpt><trkpt lat="43.48833644638827" lon="12.326856708261579"><ele>456.0</ele><time>2026-04-26T08:01:26Z</time></trkpt><trkpt lat="43.488404222224574" lon="12.326954266567585"><ele>456.0</ele><time>2026-04-26T08:01:27Z</time></trkpt><trkpt lat="43.48847218468182" lon="12.32704225127938"><ele>456.0</ele><time>2026-04-26T08:01:28Z</time></trkpt><trkpt lat="43.48854377030507" lon="12.32713349024314"><ele>456.0</ele><time>2026-04-26T08:01:29Z</time></trkpt><trkpt lat="43.48861325058656" lon="12.327218339652704"><ele>456.0</ele><time>2026-04-26T08:01:30Z</time></trkpt><trkpt lat="43.48867970466702" lon="12.32730854532178"><ele>456.0</ele><time>2026-04-26T08:01:31Z</time></trkpt><trkpt lat="43.48873740691445" lon="12.32741596230823"><ele>456.0</ele><time>2026-04-26T08:01:32Z</time></trkpt><trkpt lat="43.48878593050035" lon="12.32752536216022"><ele>456.1666666666667</ele><time>2026-04-26T08:01:33Z</time></trkpt><trkpt lat="43.48883603809993" lon="12.327634189817559"><ele>456.33333333333337</ele><time>2026-04-26T08:01:34Z</time></trkpt><trkpt lat="43.48888255432661" lon="12.327744551640796"><ele>456.5</ele><time>2026-04-26T08:01:35Z</time></trkpt><trkpt lat="43.48891139719737" lon="12.327854318457364"><ele>456.6666666666667</ele><time>2026-04-26T08:01:36Z</time></trkpt><trkpt lat="43.48893491436509" lon="12.327970938948756"><ele>456.83333333333337</ele><time>2026-04-26T08:01:37Z</time></trkpt><trkpt lat="43.48895888245765" lon="12.32809060977237"><ele>457.0</ele><time>2026-04-26T08:01:38Z</time></trkpt><trkpt lat="43.48899066190979" lon="12.328216567266816"><ele>457.0</ele><time>2026-04-26T08:01:39Z</time></trkpt><trkpt lat="43.48902693721636" lon="12.328336702379103"><ele>457.00000000000006</ele><time>2026-04-26T08:01:40Z</time></trkpt><trkpt lat="43.48907363621282" lon="12.328449860465822"><ele>457.00000000000006</ele><time>2026-04-26T08:01:41Z</time></trkpt><trkpt lat="43.48912905907563" lon="12.328565475267574"><ele>457.0</ele><time>2026-04-26T08:01:42Z</time></trkpt><trkpt lat="43.48918992970107" lon="12.328674713332022"><ele>457.0</ele><time>2026-04-26T08:01:43Z</time></trkpt><trkpt lat="43.48925321680805" lon="12.328771127719138"><ele>457.00000000000006</ele><time>2026-04-26T08:01:44Z</time></trkpt><trkpt lat="43.489317169738705" lon="12.328854162432785"><ele>457.0</ele><time>2026-04-26T08:01:45Z</time></trkpt><trkpt lat="43.48937818890372" lon="12.328929616587356"><ele>457.0</ele><time>2026-04-26T08:01:46Z</time></trkpt><trkpt lat="43.489421519240246" lon="12.329003796878762"><ele>457.0</ele><time>2026-04-26T08:01:47Z</time></trkpt><trkpt lat="43.48944537330179" lon="12.32909251421022"><ele>457.00000000000006</ele><time>2026-04-26T08:01:48Z</time></trkpt><trkpt lat="43.48943432108245" lon="12.32918177714607"><ele>457.0</ele><time>2026-04-26T08:01:49Z</time></trkpt><trkpt lat="43.489410498867656" lon="12.329290306524168"><ele>456.1666666666667</ele><time>2026-04-26T08:01:50Z</time></trkpt><trkpt lat="43.48937917262738" lon="12.329399277495915"><ele>455.33333333333337</ele><time>2026-04-26T08:01:51Z</time></trkpt><trkpt lat="43.48933085774383" lon="12.3294952826392"><ele>454.5</ele><time>2026-04-26T08:01:52Z</time></trkpt><trkpt lat="43.48927793738274" lon="12.329590640504758"><ele>453.66666666666663</ele><time>2026-04-26T08:01:53Z</time></trkpt><trkpt lat="43.489229896148345" lon="12.329688089096228"><ele>452.8333333333333</ele><time>2026-04-26T08:01:54Z</time></trkpt><trkpt lat="43.489197474124275" lon="12.329788443011093"><ele>452.0</ele><time>2026-04-26T08:01:55Z</time></trkpt><trkpt lat="43.48920456434546" lon="12.329892553640926"><ele>452.0</ele><time>2026-04-26T08:01:56Z</time></trkpt><trkpt lat="43.48923512064031" lon="12.329996857187536"><ele>452.00000000000006</ele><time>2026-04-26T08:01:57Z</time></trkpt><trkpt lat="43.48927768056633" lon="12.330114965555468"><ele>452.00000000000006</ele><time>2026-04-26T08:01:58Z</time></trkpt><trkpt lat="43.489327934563114" lon="12.330216442397408"><ele>452.0</ele><time>2026-04-26T08:01:59Z</time></trkpt><trkpt lat="43.48938254447998" lon="12.330311707766569"><ele>452.0</ele><time>2026-04-26T08:02:00Z</time></trkpt><trkpt lat="43.48943780981307" lon="12.330428125701872"><ele>451.20000000000005</ele><time>2026-04-26T08:02:01Z</time></trkpt><trkpt lat="43.48947841276673" lon="12.330564245213699"><ele>450.40000000000003</ele><time>2026-04-26T08:02:02Z</time></trkpt><trkpt lat="43.489505728784735" lon="12.330706088268338"><ele>449.59999999999997</ele><time>2026-04-26T08:02:03Z</time></trkpt><trkpt lat="43.48953673278504" lon="12.33083634588624"><ele>448.79999999999995</ele><time>2026-04-26T08:02:04Z</time></trkpt><trkpt lat="43.48956729051552" lon="12.330946282166597"><ele>448.0</ele><time>2026-04-26T08:02:05Z</time></trkpt><trkpt lat="43.489606408903" lon="12.33103787414689"><ele>452.4</ele><time>2026-04-26T08:02:06Z</time></trkpt><trkpt lat="43.48965462483058" lon="12.331141740474031"><ele>456.79999999999995</ele><time>2026-04-26T08:02:07Z</time></trkpt><trkpt lat="43.489700534167525" lon="12.331247842052184"><ele>461.2</ele><time>2026-04-26T08:02:08Z</time></trkpt><trkpt lat="43.48974193164857" lon="12.33135616150319"><ele>465.6</ele><time>2026-04-26T08:02:09Z</time></trkpt><trkpt lat="43.48978100280428" lon="12.331475180081288"><ele>470.0</ele><time>2026-04-26T08:02:10Z</time></trkpt><trkpt lat="43.48982051541748" lon="12.331607727627095"><ele>470.0</ele><time>2026-04-26T08:02:11Z</time></trkpt><trkpt lat="43.489861306317344" lon="12.331740898030843"><ele>470.0</ele><time>2026-04-26T08:02:12Z</time></trkpt><trkpt lat="43.48990926783078" lon="12.33188259853175"><ele>470.0</ele><time>2026-04-26T08:02:13Z</time></trkpt><trkpt lat="43.48995167768366" lon="12.332024606164603"><ele>470.0</ele><time>2026-04-26T08:02:14Z</time></trkpt><trkpt lat="43.489987944837985" lon="12.332148431103858"><ele>470.0</ele><time>2026-04-26T08:02:15Z</time></trkpt><trkpt lat="43.490028108023914" lon="12.332255688580917"><ele>470.6</ele><time>2026-04-26T08:02:16Z</time></trkpt><trkpt lat="43.490084852313544" lon="12.332335989891602"><ele>471.2</ele><time>2026-04-26T08:02:17Z</time></trkpt><trkpt lat="43.49016238402542" lon="12.332408104977436"><ele>471.79999999999995</ele><time>2026-04-26T08:02:18Z</time></trkpt><trkpt lat="43.49023977657933" lon="12.332458347422515"><ele>472.4</ele><time>2026-04-26T08:02:19Z</time></trkpt><trkpt lat="43.49032584029674" lon="12.332501458719241"><ele>473.0</ele><time>2026-04-26T08:02:20Z</time></trkpt><trkpt lat="43.490425094773066" lon="12.332538970770207"><ele>473.0</ele><time>2026-04-26T08:02:21Z</time></trkpt><trkpt lat="43.49054026894548" lon="12.332576437228937"><ele>473.0</ele><time>2026-04-26T08:02:22Z</time></trkpt><trkpt lat="43.49065691475807" lon="12.332613060319844"><ele>473.0</ele><time>2026-04-26T08:02:23Z</time></trkpt><trkpt lat="43.4907855394761" lon="12.332645485481011"><ele>473.0</ele><time>2026-04-26T08:02:24Z</time></trkpt><trkpt lat="43.490916125013705" lon="12.332683917083248"><ele>473.0</ele><time>2026-04-26T08:02:25Z</time></trkpt><trkpt lat="43.491041002139234" lon="12.332732919785752"><ele>473.0</ele><time>2026-04-26T08:02:26Z</time></trkpt><trkpt lat="43.49114923446597" lon="12.33279159978862"><ele>473.0</ele><time>2026-04-26T08:02:27Z</time></trkpt><trkpt lat="43.49124694168576" lon="12.332864278626202"><ele>473.0</ele><time>2026-04-26T08:02:28Z</time></trkpt><trkpt lat="43.4913257642695" lon="12.332931724286071"><ele>471.49999999999994</ele><time>2026-04-26T08:02:29Z</time></trkpt><trkpt lat="43.491389423095335" lon="12.333012287209069"><ele>470.0</ele><time>2026-04-26T08:02:30Z</time></trkpt><trkpt lat="43.491446711201014" lon="12.333096141346083"><ele>468.5</ele><time>2026-04-26T08:02:31Z</time></trkpt><trkpt lat="43.49150741827328" lon="12.33317123127965"><ele>467.0</ele><time>2026-04-26T08:02:32Z</time></trkpt><trkpt lat="43.49158103656718" lon="12.333248332348479"><ele>465.49999999999994</ele><time>2026-04-26T08:02:33Z</time></trkpt><trkpt lat="43.49167043966417" lon="12.333309080998227"><ele>464.0</ele><time>2026-04-26T08:02:34Z</time></trkpt><trkpt lat="43.4917654154019" lon="12.33337474505545"><ele>464.0</ele><time>2026-04-26T08:02:35Z</time></trkpt><trkpt lat="43.49185839087139" lon="12.33345252868873"><ele>464.0</ele><time>2026-04-26T08:02:36Z</time></trkpt><trkpt lat="43.491948618078254" lon="12.333539656525051"><ele>464.0</ele><time>2026-04-26T08:02:37Z</time></trkpt><trkpt lat="43.49203616632743" lon="12.333624615040703"><ele>464.0</ele><time>2026-04-26T08:02:38Z</time></trkpt><trkpt lat="43.492139728607796" lon="12.33371161874379"><ele>464.0</ele><time>2026-04-26T08:02:39Z</time></trkpt><trkpt lat="43.49223140262667" lon="12.333792191831769"><ele>463.4</ele><time>2026-04-26T08:02:40Z</time></trkpt><trkpt lat="43.492323985236474" lon="12.333888115126525"><ele>462.79999999999995</ele><time>2026-04-26T08:02:41Z</time></trkpt><trkpt lat="43.4924120317041" lon="12.333973765195811"><ele>462.20000000000005</ele><time>2026-04-26T08:02:42Z</time></trkpt><trkpt lat="43.492492155168975" lon="12.334046382034925"><ele>461.6</ele><time>2026-04-26T08:02:43Z</time></trkpt><trkpt lat="43.49258241115702" lon="12.334099049251803"><ele>461.0</ele><time>2026-04-26T08:02:44Z</time></trkpt><trkpt lat="43.4926836536776" lon="12.334119895555384"><ele>460.99999999999994</ele><time>2026-04-26T08:02:45Z</time></trkpt><trkpt lat="43.49278554317282" lon="12.334135527454805"><ele>461.0</ele><time>2026-04-26T08:02:46Z</time></trkpt><trkpt lat="43.492871051217726" lon="12.33414157748932"><ele>461.0</ele><time>2026-04-26T08:02:47Z</time></trkpt><trkpt lat="43.49294099584467" lon="12.334138173210789"><ele>461.0</ele><time>2026-04-26T08:02:48Z</time></trkpt><trkpt lat="43.49301009783398" lon="12.33410542443331"><ele>460.99999999999994</ele><time>2026-04-26T08:02:49Z</time></trkpt><trkpt lat="43.49307615461134" lon="12.334042328429783"><ele>461.0</ele><time>2026-04-26T08:02:50Z</time></trkpt><trkpt lat="43.49314138396624" lon="12.333951562605002"><ele>464.0</ele><time>2026-04-26T08:02:51Z</time></trkpt><trkpt lat="43.49321890272035" lon="12.333838961303387"><ele>467.0</ele><time>2026-04-26T08:02:52Z</time></trkpt><trkpt lat="43.49329961368938" lon="12.333720178512404"><ele>470.0</ele><time>2026-04-26T08:02:53Z</time></trkpt><trkpt lat="43.4933669347069" lon="12.333608475622562"><ele>473.0</ele><time>2026-04-26T08:02:54Z</time></trkpt><trkpt lat="43.493420074843534" lon="12.333495818671455"><ele>476.0</ele><time>2026-04-26T08:02:55Z</time></trkpt><trkpt lat="43.493462915951284" lon="12.33341638849769"><ele>476.0</ele><time>2026-04-26T08:02:56Z</time></trkpt><trkpt lat="43.4935130472658" lon="12.333360131265108"><ele>476.0</ele><time>2026-04-26T08:02:57Z</time></trkpt><trkpt lat="43.493602354491806" lon="12.333365445030802"><ele>476.0</ele><time>2026-04-26T08:02:59Z</time></trkpt><trkpt lat="43.493655961197874" lon="12.333503847429045"><ele>476.0</ele><time>2026-04-26T08:03:01Z</time></trkpt><trkpt lat="43.49359881688866" lon="12.333665691562956"><ele>476.0</ele><time>2026-04-26T08:03:03Z</time></trkpt><trkpt lat="43.493566947373864" lon="12.333817811599863"><ele>473.99999999999994</ele><time>2026-04-26T08:03:05Z</time></trkpt><trkpt lat="43.49355858957178" lon="12.3339389983067"><ele>472.0</ele><time>2026-04-26T08:03:07Z</time></trkpt><trkpt lat="43.493582737869474" lon="12.334022395779936"><ele>470.0</ele><time>2026-04-26T08:03:09Z</time></trkpt><trkpt lat="43.493624999142334" lon="12.334157502600952"><ele>468.0</ele><time>2026-04-26T08:03:11Z</time></trkpt><trkpt lat="43.49362280688811" lon="12.334249208824206"><ele>465.99999999999994</ele><time>2026-04-26T08:03:12Z</time></trkpt><trkpt lat="43.493600724156686" lon="12.334362112971263"><ele>464.0</ele><time>2026-04-26T08:03:13Z</time></trkpt><trkpt lat="43.49357684574589" lon="12.334452046120225"><ele>464.0</ele><time>2026-04-26T08:03:14Z</time></trkpt><trkpt lat="43.49356182612395" lon="12.334553621794022"><ele>464.0</ele><time>2026-04-26T08:03:15Z</time></trkpt><trkpt lat="43.49356992655641" lon="12.33471596561533"><ele>464.0</ele><time>2026-04-26T08:03:17Z</time></trkpt><trkpt lat="43.49363305533427" lon="12.334854243287928"><ele>464.0</ele><time>2026-04-26T08:03:19Z</time></trkpt><trkpt lat="43.493687348020885" lon="12.334922914842672"><ele>464.0</ele><time>2026-04-26T08:03:20Z</time></trkpt><trkpt lat="43.4937505356736" lon="12.334996230915051"><ele>466.3333333333333</ele><time>2026-04-26T08:03:21Z</time></trkpt><trkpt lat="43.4938277948914" lon="12.335058950330929"><ele>468.66666666666663</ele><time>2026-04-26T08:03:22Z</time></trkpt><trkpt lat="43.49390729674495" lon="12.335114953234068"><ele>471.0</ele><time>2026-04-26T08:03:23Z</time></trkpt><trkpt lat="43.49398640208136" lon="12.335173130447332"><ele>473.33333333333337</ele><time>2026-04-26T08:03:24Z</time></trkpt><trkpt lat="43.49404778040287" lon="12.335233458200095"><ele>475.6666666666667</ele><time>2026-04-26T08:03:25Z</time></trkpt><trkpt lat="43.49409060445328" lon="12.335304281956804"><ele>478.0</ele><time>2026-04-26T08:03:26Z</time></trkpt><trkpt lat="43.49411528012934" lon="12.335398661816786"><ele>478.00000000000006</ele><time>2026-04-26T08:03:27Z</time></trkpt><trkpt lat="43.49414519717282" lon="12.335489112204645"><ele>478.0</ele><time>2026-04-26T08:03:28Z</time></trkpt><trkpt lat="43.49420494061556" lon="12.335577393998907"><ele>478.0</ele><time>2026-04-26T08:03:29Z</time></trkpt><trkpt lat="43.49427040158825" lon="12.335641427071465"><ele>478.0</ele><time>2026-04-26T08:03:30Z</time></trkpt><trkpt lat="43.494327681791134" lon="12.335699591975626"><ele>478.00000000000006</ele><time>2026-04-26T08:03:31Z</time></trkpt><trkpt lat="43.494406797477545" lon="12.335740222854904"><ele>478.0</ele><time>2026-04-26T08:03:32Z</time></trkpt><trkpt lat="43.4945001370948" lon="12.335757147013183"><ele>476.5</ele><time>2026-04-26T08:03:33Z</time></trkpt><trkpt lat="43.49459871001155" lon="12.335764345029764"><ele>475.0</ele><time>2026-04-26T08:03:34Z</time></trkpt><trkpt lat="43.4947147590396" lon="12.335775962386826"><ele>473.5</ele><time>2026-04-26T08:03:35Z</time></trkpt><trkpt lat="43.49483273180652" lon="12.335798022763473"><ele>472.0</ele><time>2026-04-26T08:03:36Z</time></trkpt><trkpt lat="43.49494983762895" lon="12.335818427967922"><ele>472.0</ele><time>2026-04-26T08:03:37Z</time></trkpt><trkpt lat="43.49506691281608" lon="12.335855100503947"><ele>472.0</ele><time>2026-04-26T08:03:38Z</time></trkpt><trkpt lat="43.49520887277846" lon="12.335891436784713"><ele>472.0</ele><time>2026-04-26T08:03:39Z</time></trkpt><trkpt lat="43.49535086356929" lon="12.335934736566179"><ele>472.0</ele><time>2026-04-26T08:03:40Z</time></trkpt><trkpt lat="43.49548286191755" lon="12.335978673587684"><ele>474.0</ele><time>2026-04-26T08:03:41Z</time></trkpt><trkpt lat="43.49560633303003" lon="12.336006768516453"><ele>476.0</ele><time>2026-04-26T08:03:42Z</time></trkpt><trkpt lat="43.49572838626152" lon="12.336039415897494"><ele>478.0</ele><time>2026-04-26T08:03:43Z</time></trkpt><trkpt lat="43.49585155723505" lon="12.336072888257174"><ele>480.0</ele><time>2026-04-26T08:03:44Z</time></trkpt><trkpt lat="43.495971572517476" lon="12.33611729022609"><ele>480.0</ele><time>2026-04-26T08:03:45Z</time></trkpt><trkpt lat="43.496092986646836" lon="12.33616270126722"><ele>480.0</ele><time>2026-04-26T08:03:46Z</time></trkpt><trkpt lat="43.49621038009218" lon="12.336200004973257"><ele>480.0</ele><time>2026-04-26T08:03:47Z</time></trkpt><trkpt lat="43.49633481083435" lon="12.336243218213568"><ele>480.0</ele><time>2026-04-26T08:03:48Z</time></trkpt><trkpt lat="43.49645936461537" lon="12.336284627874411"><ele>478.25</ele><time>2026-04-26T08:03:49Z</time></trkpt><trkpt lat="43.4965809251039" lon="12.33633195972305"><ele>476.5</ele><time>2026-04-26T08:03:50Z</time></trkpt><trkpt lat="43.49670091386654" lon="12.336381991920032"><ele>474.75</ele><time>2026-04-26T08:03:51Z</time></trkpt><trkpt lat="43.4968186963773" lon="12.33642797027061"><ele>473.0</ele><time>2026-04-26T08:03:52Z</time></trkpt><trkpt lat="43.49693761259254" lon="12.336470535800785"><ele>473.0</ele><time>2026-04-26T08:03:53Z</time></trkpt><trkpt lat="43.497053465243155" lon="12.336510243024144"><ele>473.0</ele><time>2026-04-26T08:03:54Z</time></trkpt><trkpt lat="43.49716204729612" lon="12.336552893009857"><ele>473.0</ele><time>2026-04-26T08:03:55Z</time></trkpt><trkpt lat="43.497266027732536" lon="12.33660539166669"><ele>473.0</ele><time>2026-04-26T08:03:56Z</time></trkpt><trkpt lat="43.497374153705096" lon="12.336648493476439"><ele>474.2</ele><time>2026-04-26T08:03:57Z</time></trkpt><trkpt lat="43.49748208496525" lon="12.33666665973595"><ele>475.4</ele><time>2026-04-26T08:03:58Z</time></trkpt><trkpt lat="43.49758457483979" lon="12.336655711568127"><ele>476.59999999999997</ele><time>2026-04-26T08:03:59Z</time></trkpt><trkpt lat="43.49768106218619" lon="12.33665082236202"><ele>477.79999999999995</ele><time>2026-04-26T08:04:00Z</time></trkpt><trkpt lat="43.49776810172876" lon="12.336657923222775"><ele>479.0</ele><time>2026-04-26T08:04:01Z</time></trkpt><trkpt lat="43.49785098398097" lon="12.336718031350703"><ele>480.79999999999995</ele><time>2026-04-26T08:04:02Z</time></trkpt><trkpt lat="43.497938335438576" lon="12.336786703406812"><ele>482.59999999999997</ele><time>2026-04-26T08:04:03Z</time></trkpt><trkpt lat="43.498022032803625" lon="12.336849157985114"><ele>484.4</ele><time>2026-04-26T08:04:04Z</time></trkpt><trkpt lat="43.498108667927355" lon="12.336911076326189"><ele>486.2</ele><time>2026-04-26T08:04:05Z</time></trkpt><trkpt lat="43.49819387681714" lon="12.336996481933934"><ele>488.0</ele><time>2026-04-26T08:04:06Z</time></trkpt><trkpt lat="43.49826704548247" lon="12.33710206847786"><ele>488.0</ele><time>2026-04-26T08:04:07Z</time></trkpt><trkpt lat="43.49833716956499" lon="12.337214358554686"><ele>487.99999999999994</ele><time>2026-04-26T08:04:08Z</time></trkpt><trkpt lat="43.49840865147394" lon="12.3373080330648"><ele>487.99999999999994</ele><time>2026-04-26T08:04:09Z</time></trkpt><trkpt lat="43.498484734146295" lon="12.337384385102009"><ele>488.0</ele><time>2026-04-26T08:04:10Z</time></trkpt><trkpt lat="43.498568785541856" lon="12.337432858412756"><ele>488.0</ele><time>2026-04-26T08:04:11Z</time></trkpt><trkpt lat="43.498654330036764" lon="12.337469098940348"><ele>487.2</ele><time>2026-04-26T08:04:12Z</time></trkpt><trkpt lat="43.49874632402418" lon="12.337505652157779"><ele>486.4</ele><time>2026-04-26T08:04:13Z</time></trkpt><trkpt lat="43.49884507982879" lon="12.337547771661338"><ele>485.59999999999997</ele><time>2026-04-26T08:04:14Z</time></trkpt><trkpt lat="43.49895012661447" lon="12.337588369509959"><ele>484.79999999999995</ele><time>2026-04-26T08:04:15Z</time></trkpt><trkpt lat="43.49905971041944" lon="12.33761968542297"><ele>484.0</ele><time>2026-04-26T08:04:16Z</time></trkpt><trkpt lat="43.499158494436976" lon="12.337633336929128"><ele>484.0</ele><time>2026-04-26T08:04:17Z</time></trkpt><trkpt lat="43.499268729084086" lon="12.337655559951893"><ele>484.0</ele><time>2026-04-26T08:04:18Z</time></trkpt><trkpt lat="43.499379496473246" lon="12.337678654126512"><ele>484.0</ele><time>2026-04-26T08:04:19Z</time></trkpt><trkpt lat="43.499482175132194" lon="12.337704461316989"><ele>484.0</ele><time>2026-04-26T08:04:20Z</time></trkpt><trkpt lat="43.49957354354197" lon="12.337728610723241"><ele>484.0</ele><time>2026-04-26T08:04:21Z</time></trkpt><trkpt lat="43.49964146959326" lon="12.337770216960404"><ele>484.0</ele><time>2026-04-26T08:04:22Z</time></trkpt><trkpt lat="43.499759150629515" lon="12.337781580605986"><ele>484.0</ele><time>2026-04-26T08:04:24Z</time></trkpt><trkpt lat="43.49984546131962" lon="12.337839794802061"><ele>484.0</ele><time>2026-04-26T08:04:26Z</time></trkpt><trkpt lat="43.49986240893303" lon="12.33793468113157"><ele>484.0</ele><time>2026-04-26T08:04:27Z</time></trkpt><trkpt lat="43.4998796979713" lon="12.338034311766249"><ele>484.0</ele><time>2026-04-26T08:04:28Z</time></trkpt><trkpt lat="43.499918528770245" lon="12.338149272144916"><ele>484.00000000000006</ele><time>2026-04-26T08:04:29Z</time></trkpt><trkpt lat="43.499965988486366" lon="12.338250361066425"><ele>484.0</ele><time>2026-04-26T08:04:30Z</time></trkpt><trkpt lat="43.50002327816031" lon="12.338349208795465"><ele>484.0</ele><time>2026-04-26T08:04:31Z</time></trkpt><trkpt lat="43.500077253199805" lon="12.338421222536978"><ele>484.0</ele><time>2026-04-26T08:04:32Z</time></trkpt><trkpt lat="43.500157658220694" lon="12.338487577500533"><ele>484.00000000000006</ele><time>2026-04-26T08:04:33Z</time></trkpt><trkpt lat="43.500236259889085" lon="12.338537418619598"><ele>484.0</ele><time>2026-04-26T08:04:34Z</time></trkpt><trkpt lat="43.50030287452568" lon="12.338587764355673"><ele>484.00000000000006</ele><time>2026-04-26T08:04:35Z</time></trkpt><trkpt lat="43.500368475298764" lon="12.33864849107386"><ele>484.0</ele><time>2026-04-26T08:04:36Z</time></trkpt><trkpt lat="43.50043381033787" lon="12.33870665241857"><ele>484.0</ele><time>2026-04-26T08:04:37Z</time></trkpt><trkpt lat="43.50048916261703" lon="12.338761132783471"><ele>484.0</ele><time>2026-04-26T08:04:38Z</time></trkpt><trkpt lat="43.500574645909225" lon="12.338884875171948"><ele>484.00000000000006</ele><time>2026-04-26T08:04:40Z</time></trkpt><trkpt lat="43.50061603530469" lon="12.338963022773743"><ele>484.0</ele><time>2026-04-26T08:04:41Z</time></trkpt><trkpt lat="43.50065384554625" lon="12.339063932950182"><ele>484.33333333333337</ele><time>2026-04-26T08:04:42Z</time></trkpt><trkpt lat="43.500670832044406" lon="12.339158686029739"><ele>484.6666666666667</ele><time>2026-04-26T08:04:43Z</time></trkpt><trkpt lat="43.500670178377554" lon="12.339265662678576"><ele>485.0</ele><time>2026-04-26T08:04:44Z</time></trkpt><trkpt lat="43.500667152759824" lon="12.33938858059749"><ele>485.33333333333337</ele><time>2026-04-26T08:04:45Z</time></trkpt><trkpt lat="43.500674297621664" lon="12.339517334900991"><ele>485.6666666666667</ele><time>2026-04-26T08:04:46Z</time></trkpt><trkpt lat="43.50068708164903" lon="12.339644816756977"><ele>486.0</ele><time>2026-04-26T08:04:47Z</time></trkpt><trkpt lat="43.50071206699093" lon="12.339762456558566"><ele>486.8333333333333</ele><time>2026-04-26T08:04:48Z</time></trkpt><trkpt lat="43.50075900095452" lon="12.339858606743643"><ele>487.66666666666663</ele><time>2026-04-26T08:04:49Z</time></trkpt><trkpt lat="43.500816805904925" lon="12.339951179146258"><ele>488.5</ele><time>2026-04-26T08:04:50Z</time></trkpt><trkpt lat="43.500864397218194" lon="12.34003360913672"><ele>489.3333333333333</ele><time>2026-04-26T08:04:51Z</time></trkpt><trkpt lat="43.50091030752687" lon="12.340130026366475"><ele>490.16666666666663</ele><time>2026-04-26T08:04:52Z</time></trkpt><trkpt lat="43.50094906601074" lon="12.340236568136902"><ele>491.0</ele><time>2026-04-26T08:04:53Z</time></trkpt><trkpt lat="43.50099117683221" lon="12.34035271368343"><ele>491.0</ele><time>2026-04-26T08:04:54Z</time></trkpt><trkpt lat="43.501046074120254" lon="12.340467781918466"><ele>491.0</ele><time>2026-04-26T08:04:55Z</time></trkpt><trkpt lat="43.50110793405425" lon="12.34056573741135"><ele>491.0</ele><time>2026-04-26T08:04:56Z</time></trkpt><trkpt lat="43.50117491114088" lon="12.340655522769556"><ele>491.0</ele><time>2026-04-26T08:04:57Z</time></trkpt><trkpt lat="43.50124836113271" lon="12.340735098484034"><ele>491.0</ele><time>2026-04-26T08:04:58Z</time></trkpt><trkpt lat="43.50132456024221" lon="12.340815582937287"><ele>494.6</ele><time>2026-04-26T08:04:59Z</time></trkpt><trkpt lat="43.50137695010549" lon="12.34091151002804"><ele>498.20000000000005</ele><time>2026-04-26T08:05:00Z</time></trkpt><trkpt lat="43.50142495692963" lon="12.341032587680948"><ele>501.79999999999995</ele><time>2026-04-26T08:05:01Z</time></trkpt><trkpt lat="43.501461641952794" lon="12.341160039477495"><ele>505.4</ele><time>2026-04-26T08:05:02Z</time></trkpt><trkpt lat="43.501497582837054" lon="12.341289215114104"><ele>509.0</ele><time>2026-04-26T08:05:03Z</time></trkpt><trkpt lat="43.501527556316006" lon="12.34140431919267"><ele>509.0</ele><time>2026-04-26T08:05:04Z</time></trkpt><trkpt lat="43.50155949917716" lon="12.341513180805256"><ele>509.0</ele><time>2026-04-26T08:05:05Z</time></trkpt><trkpt lat="43.50158096491354" lon="12.341619913323981"><ele>509.0</ele><time>2026-04-26T08:05:06Z</time></trkpt><trkpt lat="43.50160511373691" lon="12.341741564726206"><ele>509.0</ele><time>2026-04-26T08:05:07Z</time></trkpt><trkpt lat="43.50163490835895" lon="12.341878090880137"><ele>509.0</ele><time>2026-04-26T08:05:08Z</time></trkpt><trkpt lat="43.50166132631844" lon="12.34201850660254"><ele>509.0</ele><time>2026-04-26T08:05:09Z</time></trkpt><trkpt lat="43.50168915238556" lon="12.342152261756313"><ele>509.0</ele><time>2026-04-26T08:05:10Z</time></trkpt><trkpt lat="43.5017207952611" lon="12.342273755056647"><ele>509.0</ele><time>2026-04-26T08:05:11Z</time></trkpt><trkpt lat="43.50174139858272" lon="12.342407443384433"><ele>509.0</ele><time>2026-04-26T08:05:12Z</time></trkpt><trkpt lat="43.50175913260731" lon="12.342541657349345"><ele>509.0</ele><time>2026-04-26T08:05:13Z</time></trkpt><trkpt lat="43.50177974506222" lon="12.342679010094628"><ele>507.6</ele><time>2026-04-26T08:05:14Z</time></trkpt><trkpt lat="43.50180166900308" lon="12.342814170052842"><ele>506.2</ele><time>2026-04-26T08:05:15Z</time></trkpt><trkpt lat="43.501834810306065" lon="12.342935504843107"><ele>504.80000000000007</ele><time>2026-04-26T08:05:16Z</time></trkpt><trkpt lat="43.50188914781515" lon="12.343057368784134"><ele>503.40000000000003</ele><time>2026-04-26T08:05:17Z</time></trkpt><trkpt lat="43.50195487791284" lon="12.343181364087116"><ele>502.0</ele><time>2026-04-26T08:05:18Z</time></trkpt><trkpt lat="43.502020032729455" lon="12.343295075352563"><ele>502.0</ele><time>2026-04-26T08:05:19Z</time></trkpt><trkpt lat="43.50207597098507" lon="12.34341867397134"><ele>502.00000000000006</ele><time>2026-04-26T08:05:20Z</time></trkpt><trkpt lat="43.50212392012965" lon="12.34354571965776"><ele>502.00000000000006</ele><time>2026-04-26T08:05:21Z</time></trkpt><trkpt lat="43.50217913693581" lon="12.34367937290347"><ele>502.0</ele><time>2026-04-26T08:05:22Z</time></trkpt><trkpt lat="43.50223017047611" lon="12.343790458685556"><ele>502.0</ele><time>2026-04-26T08:05:23Z</time></trkpt><trkpt lat="43.50229129274181" lon="12.343895595778758"><ele>504.50000000000006</ele><time>2026-04-26T08:05:24Z</time></trkpt><trkpt lat="43.50234389770107" lon="12.343979618521216"><ele>507.0</ele><time>2026-04-26T08:05:25Z</time></trkpt><trkpt lat="43.50237514217472" lon="12.344072296038398"><ele>509.5</ele><time>2026-04-26T08:05:26Z</time></trkpt><trkpt lat="43.50238945619468" lon="12.344184807779744"><ele>512.0</ele><time>2026-04-26T08:05:27Z</time></trkpt><trkpt lat="43.50239044779072" lon="12.344313248874041"><ele>514.5</ele><time>2026-04-26T08:05:28Z</time></trkpt><trkpt lat="43.502394929441635" lon="12.344443294861671"><ele>517.0</ele><time>2026-04-26T08:05:29Z</time></trkpt><trkpt lat="43.502406509869566" lon="12.344586123839566"><ele>516.8000000000001</ele><time>2026-04-26T08:05:30Z</time></trkpt><trkpt lat="43.50241425195422" lon="12.3447277093442"><ele>516.6</ele><time>2026-04-26T08:05:31Z</time></trkpt><trkpt lat="43.502424888275456" lon="12.344871417663297"><ele>516.4000000000001</ele><time>2026-04-26T08:05:32Z</time></trkpt><trkpt lat="43.50243499238313" lon="12.345025515522707"><ele>516.2</ele><time>2026-04-26T08:05:33Z</time></trkpt><trkpt lat="43.502448511994274" lon="12.345166977868173"><ele>516.0</ele><time>2026-04-26T08:05:34Z</time></trkpt><trkpt lat="43.50246808015725" lon="12.345291921989922"><ele>516.0</ele><time>2026-04-26T08:05:35Z</time></trkpt><trkpt lat="43.502492774159386" lon="12.345416863323623"><ele>516.0</ele><time>2026-04-26T08:05:36Z</time></trkpt><trkpt lat="43.502521537133845" lon="12.345553326181394"><ele>516.0</ele><time>2026-04-26T08:05:37Z</time></trkpt><trkpt lat="43.50255076558367" lon="12.345688837672842"><ele>516.0</ele><time>2026-04-26T08:05:38Z</time></trkpt><trkpt lat="43.502582715113824" lon="12.345815542097128"><ele>516.0</ele><time>2026-04-26T08:05:39Z</time></trkpt><trkpt lat="43.50261439938695" lon="12.345939861120192"><ele>515.3333333333334</ele><time>2026-04-26T08:05:40Z</time></trkpt><trkpt lat="43.50264484392302" lon="12.346058582818996"><ele>514.6666666666666</ele><time>2026-04-26T08:05:41Z</time></trkpt><trkpt lat="43.50267955158886" lon="12.346166235112271"><ele>514.0</ele><time>2026-04-26T08:05:42Z</time></trkpt><trkpt lat="43.502724696577" lon="12.346233256795466"><ele>513.3333333333333</ele><time>2026-04-26T08:05:43Z</time></trkpt><trkpt lat="43.50277971034326" lon="12.346287054077017"><ele>512.6666666666666</ele><time>2026-04-26T08:05:44Z</time></trkpt><trkpt lat="43.50285038902327" lon="12.346303509986416"><ele>512.0</ele><time>2026-04-26T08:05:45Z</time></trkpt><trkpt lat="43.50296249568005" lon="12.346352270169549"><ele>513.4</ele><time>2026-04-26T08:05:47Z</time></trkpt><trkpt lat="43.503009273371276" lon="12.34648374289886"><ele>514.8000000000001</ele><time>2026-04-26T08:05:49Z</time></trkpt><trkpt lat="43.5030192248803" lon="12.34659990289948"><ele>516.2</ele><time>2026-04-26T08:05:50Z</time></trkpt><trkpt lat="43.50303426746189" lon="12.346729084661073"><ele>517.6</ele><time>2026-04-26T08:05:51Z</time></trkpt><trkpt lat="43.503061072939154" lon="12.346859108393128"><ele>519.0</ele><time>2026-04-26T08:05:52Z</time></trkpt><trkpt lat="43.50311375707199" lon="12.346976590074414"><ele>519.0</ele><time>2026-04-26T08:05:53Z</time></trkpt><trkpt lat="43.503194135556896" lon="12.347107266513948"><ele>519.0</ele><time>2026-04-26T08:05:54Z</time></trkpt><trkpt lat="43.50325858021382" lon="12.34725593483941"><ele>519.0</ele><time>2026-04-26T08:05:55Z</time></trkpt><trkpt lat="43.50331751187051" lon="12.347393873860861"><ele>519.0</ele><time>2026-04-26T08:05:56Z</time></trkpt><trkpt lat="43.50337462966808" lon="12.347519642296152"><ele>518.6</ele><time>2026-04-26T08:05:57Z</time></trkpt><trkpt lat="43.50343605695864" lon="12.34764736967888"><ele>518.2</ele><time>2026-04-26T08:05:58Z</time></trkpt><trkpt lat="43.503501263444974" lon="12.347752622167906"><ele>517.8000000000001</ele><time>2026-04-26T08:05:59Z</time></trkpt><trkpt lat="43.50356704278558" lon="12.347863787368256"><ele>517.4</ele><time>2026-04-26T08:06:00Z</time></trkpt><trkpt lat="43.503630396273884" lon="12.347983325568004"><ele>517.0</ele><time>2026-04-26T08:06:01Z</time></trkpt><trkpt lat="43.50369409366403" lon="12.348097105874878"><ele>520.0</ele><time>2026-04-26T08:06:02Z</time></trkpt><trkpt lat="43.503758961570924" lon="12.34820952844953"><ele>523.0</ele><time>2026-04-26T08:06:03Z</time></trkpt><trkpt lat="43.50382335350777" lon="12.348330074687254"><ele>526.0</ele><time>2026-04-26T08:06:04Z</time></trkpt><trkpt lat="43.50389289268733" lon="12.348439898466575"><ele>529.0</ele><time>2026-04-26T08:06:05Z</time></trkpt><trkpt lat="43.503951605878285" lon="12.348569440721112"><ele>532.0</ele><time>2026-04-26T08:06:06Z</time></trkpt><trkpt lat="43.50400046860227" lon="12.348696952033631"><ele>532.0</ele><time>2026-04-26T08:06:07Z</time></trkpt><trkpt lat="43.50405168980341" lon="12.348829529918536"><ele>532.0</ele><time>2026-04-26T08:06:08Z</time></trkpt><trkpt lat="43.504086745748005" lon="12.34896318468453"><ele>532.0</ele><time>2026-04-26T08:06:09Z</time></trkpt><trkpt lat="43.5041190363378" lon="12.34909503743843"><ele>532.0</ele><time>2026-04-26T08:06:10Z</time></trkpt><trkpt lat="43.50415811302265" lon="12.349238602642817"><ele>532.0</ele><time>2026-04-26T08:06:11Z</time></trkpt><trkpt lat="43.50418910480782" lon="12.349355743842612"><ele>531.8000000000001</ele><time>2026-04-26T08:06:12Z</time></trkpt><trkpt lat="43.504226289185425" lon="12.349493874800702"><ele>531.6</ele><time>2026-04-26T08:06:13Z</time></trkpt><trkpt lat="43.504244189193834" lon="12.34964305814646"><ele>531.4000000000001</ele><time>2026-04-26T08:06:14Z</time></trkpt><trkpt lat="43.504254558416285" lon="12.349778776471195"><ele>531.2</ele><time>2026-04-26T08:06:15Z</time></trkpt><trkpt lat="43.50426582279092" lon="12.349911126886846"><ele>531.0</ele><time>2026-04-26T08:06:16Z</time></trkpt><trkpt lat="43.50427223684432" lon="12.350033231724879"><ele>531.0</ele><time>2026-04-26T08:06:17Z</time></trkpt><trkpt lat="43.50428793869393" lon="12.35016268613977"><ele>531.0</ele><time>2026-04-26T08:06:18Z</time></trkpt><trkpt lat="43.50428692239385" lon="12.3502817117475"><ele>531.0</ele><time>2026-04-26T08:06:19Z</time></trkpt><trkpt lat="43.50430325686644" lon="12.350404668309135"><ele>531.0</ele><time>2026-04-26T08:06:20Z</time></trkpt><trkpt lat="43.50431764383649" lon="12.350543168871182"><ele>531.0</ele><time>2026-04-26T08:06:21Z</time></trkpt><trkpt lat="43.50433441510359" lon="12.350672042642426"><ele>531.5</ele><time>2026-04-26T08:06:22Z</time></trkpt><trkpt lat="43.504356003458724" lon="12.350762636208584"><ele>532.0</ele><time>2026-04-26T08:06:23Z</time></trkpt><trkpt lat="43.50438484663233" lon="12.350886450654809"><ele>532.5</ele><time>2026-04-26T08:06:24Z</time></trkpt><trkpt lat="43.50441940950824" lon="12.351010057974477"><ele>533.0</ele><time>2026-04-26T08:06:25Z</time></trkpt><trkpt lat="43.50445981755778" lon="12.351117103525997"><ele>533.5</ele><time>2026-04-26T08:06:26Z</time></trkpt><trkpt lat="43.50449599838729" lon="12.351230479055937"><ele>534.0</ele><time>2026-04-26T08:06:27Z</time></trkpt><trkpt lat="43.50452822048775" lon="12.351364377129489"><ele>534.1666666666666</ele><time>2026-04-26T08:06:28Z</time></trkpt><trkpt lat="43.50454774769112" lon="12.351486986316702"><ele>534.3333333333334</ele><time>2026-04-26T08:06:29Z</time></trkpt><trkpt lat="43.504569890979376" lon="12.351597881799199"><ele>534.5</ele><time>2026-04-26T08:06:30Z</time></trkpt><trkpt lat="43.50458850842038" lon="12.351722097372978"><ele>534.6666666666667</ele><time>2026-04-26T08:06:31Z</time></trkpt><trkpt lat="43.50460516592504" lon="12.351847327432383"><ele>534.8333333333334</ele><time>2026-04-26T08:06:32Z</time></trkpt><trkpt lat="43.50459371453604" lon="12.35196074710732"><ele>535.0</ele><time>2026-04-26T08:06:33Z</time></trkpt><trkpt lat="43.50460425824112" lon="12.352103352314161"><ele>537.1666666666667</ele><time>2026-04-26T08:06:34Z</time></trkpt><trkpt lat="43.50462175025805" lon="12.352252896711908"><ele>539.3333333333334</ele><time>2026-04-26T08:06:35Z</time></trkpt><trkpt lat="43.50463804336435" lon="12.352381611905713"><ele>541.5</ele><time>2026-04-26T08:06:36Z</time></trkpt><trkpt lat="43.504657746063764" lon="12.352483125288039"><ele>543.6666666666666</ele><time>2026-04-26T08:06:37Z</time></trkpt><trkpt lat="43.50466829582997" lon="12.352577316299943"><ele>545.8333333333333</ele><time>2026-04-26T08:06:38Z</time></trkpt><trkpt lat="43.504683969012476" lon="12.352665421872283"><ele>548.0</ele><time>2026-04-26T08:06:39Z</time></trkpt><trkpt lat="43.504762937545635" lon="12.352795291827052"><ele>548.0</ele><time>2026-04-26T08:06:41.001Z</time></trkpt><trkpt lat="43.50481194812577" lon="12.352857763947993"><ele>548.0</ele><time>2026-04-26T08:06:42.001Z</time></trkpt><trkpt lat="43.504843762109154" lon="12.352949735933018"><ele>548.0</ele><time>2026-04-26T08:06:43Z</time></trkpt><trkpt lat="43.504868395376" lon="12.353043001716001"><ele>548.0</ele><time>2026-04-26T08:06:44Z</time></trkpt><trkpt lat="43.504871061913946" lon="12.353215642275323"><ele>548.0</ele><time>2026-04-26T08:06:46Z</time></trkpt><trkpt lat="43.504883850846895" lon="12.353313665648306"><ele>548.0</ele><time>2026-04-26T08:06:47Z</time></trkpt><trkpt lat="43.50489398695203" lon="12.353429233188033"><ele>548.6666666666666</ele><time>2026-04-26T08:06:48Z</time></trkpt><trkpt lat="43.504889650904424" lon="12.353541851604216"><ele>549.3333333333333</ele><time>2026-04-26T08:06:49Z</time></trkpt><trkpt lat="43.50488588711505" lon="12.353656900807229"><ele>550.0</ele><time>2026-04-26T08:06:50Z</time></trkpt><trkpt lat="43.50488952221464" lon="12.353754439163424"><ele>550.6666666666666</ele><time>2026-04-26T08:06:51Z</time></trkpt><trkpt lat="43.504886051349494" lon="12.353871938944515"><ele>551.3333333333334</ele><time>2026-04-26T08:06:52Z</time></trkpt><trkpt lat="43.50488892888716" lon="12.353965122135246"><ele>552.0</ele><time>2026-04-26T08:06:53Z</time></trkpt><trkpt lat="43.504896189601894" lon="12.35406561968147"><ele>552.6666666666666</ele><time>2026-04-26T08:06:54Z</time></trkpt><trkpt lat="43.50492289559533" lon="12.3541812436632"><ele>553.3333333333334</ele><time>2026-04-26T08:06:55Z</time></trkpt><trkpt lat="43.50494394170478" lon="12.354289280722137"><ele>554.0</ele><time>2026-04-26T08:06:56Z</time></trkpt><trkpt lat="43.50496232020083" lon="12.354390450671437"><ele>554.6666666666667</ele><time>2026-04-26T08:06:57Z</time></trkpt><trkpt lat="43.50499335971756" lon="12.35448870805858"><ele>555.3333333333334</ele><time>2026-04-26T08:06:58Z</time></trkpt><trkpt lat="43.50504295321342" lon="12.354567076938563"><ele>556.0</ele><time>2026-04-26T08:06:59Z</time></trkpt><trkpt lat="43.50508633239776" lon="12.354631701265257"><ele>555.1428571428571</ele><time>2026-04-26T08:07:00Z</time></trkpt><trkpt lat="43.5051403583786" lon="12.354705953303146"><ele>554.2857142857143</ele><time>2026-04-26T08:07:01Z</time></trkpt><trkpt lat="43.50519540951501" lon="12.354756194466121"><ele>553.4285714285714</ele><time>2026-04-26T08:07:02Z</time></trkpt><trkpt lat="43.505254778993155" lon="12.354805198938681"><ele>552.5714285714286</ele><time>2026-04-26T08:07:03Z</time></trkpt><trkpt lat="43.505318672756935" lon="12.354839369314487"><ele>551.7142857142857</ele><time>2026-04-26T08:07:04Z</time></trkpt><trkpt lat="43.50538311686932" lon="12.35488531377866"><ele>550.8571428571429</ele><time>2026-04-26T08:07:05Z</time></trkpt><trkpt lat="43.505447813546944" lon="12.354927024428862"><ele>550.0</ele><time>2026-04-26T08:07:06Z</time></trkpt><trkpt lat="43.50551565012453" lon="12.354944263563816"><ele>552.1428571428571</ele><time>2026-04-26T08:07:07Z</time></trkpt><trkpt lat="43.505592093766175" lon="12.354955225641687"><ele>554.2857142857142</ele><time>2026-04-26T08:07:08Z</time></trkpt><trkpt lat="43.50565821070572" lon="12.354969740156003"><ele>556.4285714285713</ele><time>2026-04-26T08:07:09Z</time></trkpt><trkpt lat="43.505732838316085" lon="12.354994779181359"><ele>558.5714285714286</ele><time>2026-04-26T08:07:10Z</time></trkpt><trkpt lat="43.50580467068532" lon="12.355014111298006"><ele>560.7142857142857</ele><time>2026-04-26T08:07:11Z</time></trkpt><trkpt lat="43.505874313555" lon="12.355036488177541"><ele>562.8571428571428</ele><time>2026-04-26T08:07:12Z</time></trkpt><trkpt lat="43.50594763972461" lon="12.355064366158338"><ele>565.0</ele><time>2026-04-26T08:07:13Z</time></trkpt><trkpt lat="43.50601684871756" lon="12.355082408001302"><ele>565.0</ele><time>2026-04-26T08:07:14Z</time></trkpt><trkpt lat="43.50608980203557" lon="12.355082754329773"><ele>565.0</ele><time>2026-04-26T08:07:15Z</time></trkpt><trkpt lat="43.50615436356775" lon="12.355084758845647"><ele>565.0</ele><time>2026-04-26T08:07:16Z</time></trkpt><trkpt lat="43.506232487359554" lon="12.355107926185827"><ele>565.0</ele><time>2026-04-26T08:07:17Z</time></trkpt><trkpt lat="43.50630094982673" lon="12.355138883111609"><ele>565.0</ele><time>2026-04-26T08:07:18Z</time></trkpt><trkpt lat="43.50635855281382" lon="12.355192608878047"><ele>565.0</ele><time>2026-04-26T08:07:19Z</time></trkpt><trkpt lat="43.50647252256015" lon="12.355250372210383"><ele>564.9999999999999</ele><time>2026-04-26T08:07:21Z</time></trkpt><trkpt lat="43.50653711182864" lon="12.35529207103323"><ele>565.0</ele><time>2026-04-26T08:07:22Z</time></trkpt><trkpt lat="43.50659988438982" lon="12.35535718223245"><ele>565.0</ele><time>2026-04-26T08:07:23Z</time></trkpt><trkpt lat="43.50664867868767" lon="12.355430515414646"><ele>565.0</ele><time>2026-04-26T08:07:24Z</time></trkpt><trkpt lat="43.50669128209175" lon="12.355501014853608"><ele>565.0</ele><time>2026-04-26T08:07:25Z</time></trkpt><trkpt lat="43.50674634576222" lon="12.355567568896946"><ele>564.9999999999999</ele><time>2026-04-26T08:07:26Z</time></trkpt><trkpt lat="43.506810424704" lon="12.355619655192982"><ele>565.0</ele><time>2026-04-26T08:07:27Z</time></trkpt><trkpt lat="43.50690357359498" lon="12.3556873013608"><ele>565.0</ele><time>2026-04-26T08:07:29Z</time></trkpt><trkpt lat="43.506988345368455" lon="12.35579634150185"><ele>565.0</ele><time>2026-04-26T08:07:31Z</time></trkpt><trkpt lat="43.50702266803929" lon="12.355879718849074"><ele>565.0</ele><time>2026-04-26T08:07:32Z</time></trkpt><trkpt lat="43.50707236195374" lon="12.35594195157954"><ele>565.0</ele><time>2026-04-26T08:07:33Z</time></trkpt><trkpt lat="43.50715341288902" lon="12.355975626258301"><ele>565.0</ele><time>2026-04-26T08:07:34Z</time></trkpt><trkpt lat="43.507221792316436" lon="12.356021310891995"><ele>565.0</ele><time>2026-04-26T08:07:35Z</time></trkpt><trkpt lat="43.50730140774573" lon="12.356070742868752"><ele>566.6666666666667</ele><time>2026-04-26T08:07:36Z</time></trkpt><trkpt lat="43.50737127653287" lon="12.35612502252314"><ele>568.3333333333334</ele><time>2026-04-26T08:07:37Z</time></trkpt><trkpt lat="43.50743082276369" lon="12.356183986635317"><ele>570.0</ele><time>2026-04-26T08:07:38Z</time></trkpt><trkpt lat="43.507516905610075" lon="12.356240108592687"><ele>571.6666666666666</ele><time>2026-04-26T08:07:39Z</time></trkpt><trkpt lat="43.50759634662748" lon="12.356298923852801"><ele>573.3333333333333</ele><time>2026-04-26T08:07:40Z</time></trkpt><trkpt lat="43.50767314405979" lon="12.356330612952657"><ele>575.0</ele><time>2026-04-26T08:07:41Z</time></trkpt><trkpt lat="43.507736884599375" lon="12.356373989207349"><ele>575.0</ele><time>2026-04-26T08:07:42Z</time></trkpt><trkpt lat="43.50778539713308" lon="12.356447249622832"><ele>575.0</ele><time>2026-04-26T08:07:43Z</time></trkpt><trkpt lat="43.50781556379817" lon="12.35653415835"><ele>575.0</ele><time>2026-04-26T08:07:44Z</time></trkpt><trkpt lat="43.50793386148984" lon="12.356604037205775"><ele>575.0</ele><time>2026-04-26T08:07:46Z</time></trkpt><trkpt lat="43.508013916887705" lon="12.356608042454369"><ele>575.0</ele><time>2026-04-26T08:07:47Z</time></trkpt><trkpt lat="43.50810886747362" lon="12.3566266089159"><ele>575.0</ele><time>2026-04-26T08:07:49Z</time></trkpt><trkpt lat="43.50815938328493" lon="12.356720330611967"><ele>576.6</ele><time>2026-04-26T08:07:51Z</time></trkpt><trkpt lat="43.50814185350839" lon="12.356861700154324"><ele>578.2</ele><time>2026-04-26T08:07:53Z</time></trkpt><trkpt lat="43.50814603418453" lon="12.356951968134954"><ele>579.8</ele><time>2026-04-26T08:07:54Z</time></trkpt><trkpt lat="43.50815704586647" lon="12.357041158609107"><ele>581.4</ele><time>2026-04-26T08:07:55Z</time></trkpt><trkpt lat="43.508169114255196" lon="12.35720772001641"><ele>583.0</ele><time>2026-04-26T08:07:57Z</time></trkpt><trkpt lat="43.50822807090785" lon="12.357360729040636"><ele>583.1999999999999</ele><time>2026-04-26T08:07:59Z</time></trkpt><trkpt lat="43.50830849983264" lon="12.357493954265179"><ele>583.4</ele><time>2026-04-26T08:08:01Z</time></trkpt><trkpt lat="43.50834082488734" lon="12.357579433560348"><ele>583.5999999999999</ele><time>2026-04-26T08:08:02Z</time></trkpt><trkpt lat="43.508366044658004" lon="12.357662957498682"><ele>583.8</ele><time>2026-04-26T08:08:03Z</time></trkpt><trkpt lat="43.508393949257794" lon="12.35774306645676"><ele>584.0</ele><time>2026-04-26T08:08:04Z</time></trkpt><trkpt lat="43.50841933950058" lon="12.357926094650914"><ele>584.0</ele><time>2026-04-26T08:08:06Z</time></trkpt><trkpt lat="43.5084119103601" lon="12.358029387776472"><ele>584.0</ele><time>2026-04-26T08:08:07Z</time></trkpt><trkpt lat="43.50843220003226" lon="12.358176784524582"><ele>584.0</ele><time>2026-04-26T08:08:09Z</time></trkpt><trkpt lat="43.50845840403673" lon="12.358331407986112"><ele>584.0</ele><time>2026-04-26T08:08:11Z</time></trkpt><trkpt lat="43.508485682016" lon="12.358419081521724"><ele>584.0</ele><time>2026-04-26T08:08:12Z</time></trkpt><trkpt lat="43.508555040745335" lon="12.358538373352282"><ele>584.6</ele><time>2026-04-26T08:08:14Z</time></trkpt><trkpt lat="43.50867812279281" lon="12.35860809087095"><ele>585.2</ele><time>2026-04-26T08:08:16Z</time></trkpt><trkpt lat="43.508762190708644" lon="12.358628379860189"><ele>585.8000000000001</ele><time>2026-04-26T08:08:17Z</time></trkpt><trkpt lat="43.50883812422204" lon="12.358646323018208"><ele>586.4</ele><time>2026-04-26T08:08:18Z</time></trkpt><trkpt lat="43.50891465325287" lon="12.358665267821301"><ele>587.0</ele><time>2026-04-26T08:08:19Z</time></trkpt><trkpt lat="43.50903882595406" lon="12.358725825717555"><ele>589.4</ele><time>2026-04-26T08:08:21Z</time></trkpt><trkpt lat="43.50910494529025" lon="12.35875848356284"><ele>591.8000000000001</ele><time>2026-04-26T08:08:22Z</time></trkpt><trkpt lat="43.50921245655022" lon="12.358770415920555"><ele>594.2</ele><time>2026-04-26T08:08:24Z</time></trkpt><trkpt lat="43.50932227952719" lon="12.358824336548766"><ele>596.6</ele><time>2026-04-26T08:08:26Z</time></trkpt><trkpt lat="43.50940324862366" lon="12.358924573305842"><ele>599.0</ele><time>2026-04-26T08:08:28Z</time></trkpt><trkpt lat="43.50949070734274" lon="12.359046572001375"><ele>603.6</ele><time>2026-04-26T08:08:30Z</time></trkpt><trkpt lat="43.50959827090105" lon="12.359139508475863"><ele>608.2</ele><time>2026-04-26T08:08:32Z</time></trkpt><trkpt lat="43.50965603845141" lon="12.359178192509663"><ele>612.8000000000001</ele><time>2026-04-26T08:08:33Z</time></trkpt><trkpt lat="43.50972844678477" lon="12.359218469499814"><ele>617.4</ele><time>2026-04-26T08:08:34Z</time></trkpt><trkpt lat="43.509803408042075" lon="12.359271972536538"><ele>622.0</ele><time>2026-04-26T08:08:35Z</time></trkpt><trkpt lat="43.509918352277836" lon="12.3593463035908"><ele>622.0</ele><time>2026-04-26T08:08:37Z</time></trkpt><trkpt lat="43.509977469276826" lon="12.35938755661617"><ele>622.0</ele><time>2026-04-26T08:08:38Z</time></trkpt><trkpt lat="43.510038930808875" lon="12.359432775119421"><ele>622.0</ele><time>2026-04-26T08:08:39Z</time></trkpt><trkpt lat="43.5101503447875" lon="12.359557509307303"><ele>622.0</ele><time>2026-04-26T08:08:41Z</time></trkpt><trkpt lat="43.51020606557449" lon="12.35962928753687"><ele>622.0</ele><time>2026-04-26T08:08:42Z</time></trkpt><trkpt lat="43.510246675829755" lon="12.359714712857151"><ele>622.0</ele><time>2026-04-26T08:08:43Z</time></trkpt><trkpt lat="43.510277621898986" lon="12.359803586941712"><ele>623.5</ele><time>2026-04-26T08:08:44Z</time></trkpt><trkpt lat="43.510301105845905" lon="12.359896560063419"><ele>625.0</ele><time>2026-04-26T08:08:45Z</time></trkpt><trkpt lat="43.51033505305265" lon="12.359982596467646"><ele>626.5</ele><time>2026-04-26T08:08:46Z</time></trkpt><trkpt lat="43.51035940691356" lon="12.360074566615008"><ele>628.0</ele><time>2026-04-26T08:08:47Z</time></trkpt><trkpt lat="43.51038972574885" lon="12.360165639586604"><ele>629.5</ele><time>2026-04-26T08:08:48Z</time></trkpt><trkpt lat="43.51042920635319" lon="12.360295858050804"><ele>631.0</ele><time>2026-04-26T08:08:50Z</time></trkpt><trkpt lat="43.510434927929495" lon="12.360416621596164"><ele>627.8</ele><time>2026-04-26T08:08:52Z</time></trkpt><trkpt lat="43.51042250118905" lon="12.360554964333504"><ele>624.6</ele><time>2026-04-26T08:08:54Z</time></trkpt><trkpt lat="43.510490441881686" lon="12.360691378668614"><ele>621.4</ele><time>2026-04-26T08:08:56Z</time></trkpt><trkpt lat="43.510559890530374" lon="12.360818052286268"><ele>618.2</ele><time>2026-04-26T08:08:58Z</time></trkpt><trkpt lat="43.5105886681569" lon="12.360968911749028"><ele>615.0</ele><time>2026-04-26T08:09:00Z</time></trkpt><trkpt lat="43.51062614765889" lon="12.361073577553075"><ele>615.0</ele><time>2026-04-26T08:09:02Z</time></trkpt><trkpt lat="43.510734962616574" lon="12.361127390736154"><ele>615.0</ele><time>2026-04-26T08:09:05Z</time></trkpt><trkpt lat="43.51082276760691" lon="12.361187011679181"><ele>615.0</ele><time>2026-04-26T08:09:07Z</time></trkpt><trkpt lat="43.510903998116724" lon="12.361284319996514"><ele>615.0</ele><time>2026-04-26T08:09:09Z</time></trkpt><trkpt lat="43.510979589137065" lon="12.361375692611988"><ele>615.0</ele><time>2026-04-26T08:09:11Z</time></trkpt><trkpt lat="43.51106742975038" lon="12.361465207803581"><ele>616.2</ele><time>2026-04-26T08:09:13Z</time></trkpt><trkpt lat="43.511170383397825" lon="12.361512122964875"><ele>617.4</ele><time>2026-04-26T08:09:15Z</time></trkpt><trkpt lat="43.51123149285957" lon="12.361537800835919"><ele>618.6</ele><time>2026-04-26T08:09:16Z</time></trkpt><trkpt lat="43.511312454779286" lon="12.361617560055548"><ele>619.8</ele><time>2026-04-26T08:09:18Z</time></trkpt><trkpt lat="43.51140316147359" lon="12.361681100270008"><ele>621.0</ele><time>2026-04-26T08:09:20Z</time></trkpt><trkpt lat="43.51148443552856" lon="12.361721058009845"><ele>623.1666666666666</ele><time>2026-04-26T08:09:22Z</time></trkpt><trkpt lat="43.5115683458001" lon="12.36177490160769"><ele>625.3333333333334</ele><time>2026-04-26T08:09:24Z</time></trkpt><trkpt lat="43.5116290045466" lon="12.361817570871994"><ele>627.5</ele><time>2026-04-26T08:09:26Z</time></trkpt><trkpt lat="43.51167409321447" lon="12.361906801826562"><ele>629.6666666666667</ele><time>2026-04-26T08:09:28Z</time></trkpt><trkpt lat="43.51170614841556" lon="12.36204972567211"><ele>631.8333333333334</ele><time>2026-04-26T08:09:30Z</time></trkpt><trkpt lat="43.511736301538825" lon="12.362162365289569"><ele>634.0</ele><time>2026-04-26T08:09:32Z</time></trkpt><trkpt lat="43.51174339042429" lon="12.36228326340311"><ele>634.0</ele><time>2026-04-26T08:09:34Z</time></trkpt><trkpt lat="43.51179460132615" lon="12.362339605826268"><ele>634.0</ele><time>2026-04-26T08:09:36Z</time></trkpt><trkpt lat="43.51186292023418" lon="12.362220921801365"><ele>634.0</ele><time>2026-04-26T08:09:38Z</time></trkpt><trkpt lat="43.51194432036899" lon="12.362125558370384"><ele>634.0</ele><time>2026-04-26T08:09:40Z</time></trkpt><trkpt lat="43.51200263446052" lon="12.362174377194606"><ele>634.0</ele><time>2026-04-26T08:09:42Z</time></trkpt><trkpt lat="43.51199292899409" lon="12.362315270602327"><ele>635.1666666666667</ele><time>2026-04-26T08:09:44Z</time></trkpt><trkpt lat="43.512027836424544" lon="12.362452243602833"><ele>636.3333333333334</ele><time>2026-04-26T08:09:46Z</time></trkpt><trkpt lat="43.51215777785871" lon="12.362447794092533"><ele>637.5</ele><time>2026-04-26T08:09:48Z</time></trkpt><trkpt lat="43.51222106050308" lon="12.362431268583196"><ele>638.6666666666666</ele><time>2026-04-26T08:09:49Z</time></trkpt><trkpt lat="43.512283493551976" lon="12.36241294472388"><ele>639.8333333333333</ele><time>2026-04-26T08:09:50Z</time></trkpt><trkpt lat="43.51234283638488" lon="12.362381301659518"><ele>641.0</ele><time>2026-04-26T08:09:51Z</time></trkpt><trkpt lat="43.51244950188349" lon="12.362278500561368"><ele>642.5</ele><time>2026-04-26T08:09:53Z</time></trkpt><trkpt lat="43.51251174403158" lon="12.36223667830517"><ele>644.0</ele><time>2026-04-26T08:09:54Z</time></trkpt><trkpt lat="43.51258198250211" lon="12.36220955551477"><ele>645.5</ele><time>2026-04-26T08:09:55Z</time></trkpt><trkpt lat="43.51264977188232" lon="12.362172656136153"><ele>647.0</ele><time>2026-04-26T08:09:56Z</time></trkpt><trkpt lat="43.5127536273877" lon="12.362158346765332"><ele>648.5</ele><time>2026-04-26T08:09:58Z</time></trkpt><trkpt lat="43.51287139371447" lon="12.362193486614377"><ele>650.0</ele><time>2026-04-26T08:10:00Z</time></trkpt><trkpt lat="43.512938904773094" lon="12.362201616237535"><ele>652.6</ele><time>2026-04-26T08:10:01Z</time></trkpt><trkpt lat="43.513007358491095" lon="12.362203967550174"><ele>655.2</ele><time>2026-04-26T08:10:02Z</time></trkpt><trkpt lat="43.51312703376096" lon="12.362146343581305"><ele>657.8</ele><time>2026-04-26T08:10:04Z</time></trkpt><trkpt lat="43.51323147129357" lon="12.362074119396599"><ele>660.4</ele><time>2026-04-26T08:10:06Z</time></trkpt><trkpt lat="43.51329813103747" lon="12.361956977166354"><ele>663.0</ele><time>2026-04-26T08:10:08Z</time></trkpt><trkpt lat="43.5133387311718" lon="12.361886316403648"><ele>663.0</ele><time>2026-04-26T08:10:09Z</time></trkpt><trkpt lat="43.51342145947832" lon="12.361810406478808"><ele>663.0</ele><time>2026-04-26T08:10:11Z</time></trkpt><trkpt lat="43.51349708074612" lon="12.361717195985404"><ele>663.0</ele><time>2026-04-26T08:10:13Z</time></trkpt><trkpt lat="43.51353106725123" lon="12.361573254219419"><ele>663.0</ele><time>2026-04-26T08:10:15Z</time></trkpt><trkpt lat="43.51351102549209" lon="12.36141663710692"><ele>663.0</ele><time>2026-04-26T08:10:17Z</time></trkpt><trkpt lat="43.51344207630151" lon="12.361282754447814"><ele>665.0</ele><time>2026-04-26T08:10:19Z</time></trkpt><trkpt lat="43.51337681852212" lon="12.36116852114253"><ele>667.0</ele><time>2026-04-26T08:10:21Z</time></trkpt><trkpt lat="43.51332020309177" lon="12.361036604265596"><ele>669.0</ele><time>2026-04-26T08:10:23Z</time></trkpt><trkpt lat="43.513263203797145" lon="12.360961637776127"><ele>671.0</ele><time>2026-04-26T08:10:24Z</time></trkpt><trkpt lat="43.513210761117755" lon="12.360888636553877"><ele>673.0</ele><time>2026-04-26T08:10:25Z</time></trkpt><trkpt lat="43.51316658657958" lon="12.360824445295037"><ele>675.0</ele><time>2026-04-26T08:10:26Z</time></trkpt><trkpt lat="43.51307541806534" lon="12.36067087333073"><ele>675.0</ele><time>2026-04-26T08:10:28Z</time></trkpt><trkpt lat="43.51302158296535" lon="12.360582748480095"><ele>675.0</ele><time>2026-04-26T08:10:29Z</time></trkpt><trkpt lat="43.512977376245225" lon="12.360491504797556"><ele>675.0</ele><time>2026-04-26T08:10:30Z</time></trkpt><trkpt lat="43.512936703067595" lon="12.360412191223128"><ele>675.0</ele><time>2026-04-26T08:10:31Z</time></trkpt><trkpt lat="43.51288403159328" lon="12.3603309495554"><ele>675.0</ele><time>2026-04-26T08:10:32Z</time></trkpt><trkpt lat="43.512829626262175" lon="12.360284152225823"><ele>675.0</ele><time>2026-04-26T08:10:33Z</time></trkpt><trkpt lat="43.51277197573523" lon="12.360228431556521"><ele>675.0</ele><time>2026-04-26T08:10:34Z</time></trkpt><trkpt lat="43.51267646589471" lon="12.360154249738606"><ele>675.3333333333334</ele><time>2026-04-26T08:10:36Z</time></trkpt><trkpt lat="43.51260627523607" lon="12.360000256524897"><ele>675.6666666666666</ele><time>2026-04-26T08:10:38Z</time></trkpt><trkpt lat="43.512570715562106" lon="12.35990809781707"><ele>676.0</ele><time>2026-04-26T08:10:39Z</time></trkpt><trkpt lat="43.51254184661442" lon="12.359825527214122"><ele>676.3333333333333</ele><time>2026-04-26T08:10:40Z</time></trkpt><trkpt lat="43.51252773626557" lon="12.359737408003491"><ele>676.6666666666666</ele><time>2026-04-26T08:10:41Z</time></trkpt><trkpt lat="43.51251490130094" lon="12.359638844871151"><ele>677.0</ele><time>2026-04-26T08:10:42Z</time></trkpt><trkpt lat="43.51250623839449" lon="12.35952452335656"><ele>677.0</ele><time>2026-04-26T08:10:43Z</time></trkpt><trkpt lat="43.51250566654628" lon="12.359436129319107"><ele>677.0</ele><time>2026-04-26T08:10:44Z</time></trkpt><trkpt lat="43.51250805762118" lon="12.359249080979536"><ele>677.0</ele><time>2026-04-26T08:10:46Z</time></trkpt><trkpt lat="43.512539504356475" lon="12.359110972941938"><ele>677.0</ele><time>2026-04-26T08:10:48Z</time></trkpt><trkpt lat="43.5126366618576" lon="12.359014704875857"><ele>677.0</ele><time>2026-04-26T08:10:50Z</time></trkpt><trkpt lat="43.51269263020843" lon="12.358965249024076"><ele>677.0</ele><time>2026-04-26T08:10:51Z</time></trkpt><trkpt lat="43.51280617045885" lon="12.358908327545628"><ele>677.0</ele><time>2026-04-26T08:10:53Z</time></trkpt><trkpt lat="43.5128764608841" lon="12.358906975101661"><ele>677.0</ele><time>2026-04-26T08:10:54Z</time></trkpt><trkpt lat="43.51298850893616" lon="12.35889247577095"><ele>677.0</ele><time>2026-04-26T08:10:56Z</time></trkpt><trkpt lat="43.51303162403118" lon="12.358820981034508"><ele>677.0</ele><time>2026-04-26T08:10:57Z</time></trkpt><trkpt lat="43.5130881267509" lon="12.358761475338172"><ele>677.0</ele><time>2026-04-26T08:10:58Z</time></trkpt><trkpt lat="43.513158444156545" lon="12.358722875849411"><ele>677.8</ele><time>2026-04-26T08:10:59Z</time></trkpt><trkpt lat="43.513240301156166" lon="12.358698088717397"><ele>678.6</ele><time>2026-04-26T08:11:00Z</time></trkpt><trkpt lat="43.513330847655176" lon="12.358677654081283"><ele>679.4</ele><time>2026-04-26T08:11:01Z</time></trkpt><trkpt lat="43.51341557014325" lon="12.358658383962183"><ele>680.1999999999999</ele><time>2026-04-26T08:11:02Z</time></trkpt><trkpt lat="43.51351145895994" lon="12.358625684023382"><ele>681.0</ele><time>2026-04-26T08:11:03Z</time></trkpt><trkpt lat="43.513618741034705" lon="12.358600194920701"><ele>681.0</ele><time>2026-04-26T08:11:04Z</time></trkpt><trkpt lat="43.51371648648234" lon="12.358576704401537"><ele>681.0</ele><time>2026-04-26T08:11:05Z</time></trkpt><trkpt lat="43.513801866390004" lon="12.358555210941658"><ele>681.0</ele><time>2026-04-26T08:11:06Z</time></trkpt><trkpt lat="43.51388624413581" lon="12.358518690173014"><ele>681.0</ele><time>2026-04-26T08:11:07Z</time></trkpt><trkpt lat="43.513957782262075" lon="12.358442496841201"><ele>681.0</ele><time>2026-04-26T08:11:08Z</time></trkpt><trkpt lat="43.514007759447544" lon="12.358334534321482"><ele>683.5999999999999</ele><time>2026-04-26T08:11:09Z</time></trkpt><trkpt lat="43.51407795778994" lon="12.358209176611822"><ele>686.2</ele><time>2026-04-26T08:11:10Z</time></trkpt><trkpt lat="43.514144472111546" lon="12.358117217861633"><ele>688.8</ele><time>2026-04-26T08:11:11Z</time></trkpt><trkpt lat="43.51421829018529" lon="12.358031183762847"><ele>691.4000000000001</ele><time>2026-04-26T08:11:12Z</time></trkpt><trkpt lat="43.51429649395458" lon="12.357949041228974"><ele>694.0</ele><time>2026-04-26T08:11:13Z</time></trkpt><trkpt lat="43.514374081197786" lon="12.357868112839617"><ele>694.0</ele><time>2026-04-26T08:11:14Z</time></trkpt><trkpt lat="43.51444829948464" lon="12.357791857860619"><ele>694.0</ele><time>2026-04-26T08:11:15Z</time></trkpt><trkpt lat="43.51450959070281" lon="12.357709135911316"><ele>694.0</ele><time>2026-04-26T08:11:16Z</time></trkpt><trkpt lat="43.51453674850917" lon="12.357609263477048"><ele>694.0</ele><time>2026-04-26T08:11:17Z</time></trkpt><trkpt lat="43.51454162528163" lon="12.35748750362355"><ele>694.0</ele><time>2026-04-26T08:11:18Z</time></trkpt><trkpt lat="43.51454778957257" lon="12.35738958097363"><ele>694.0</ele><time>2026-04-26T08:11:19Z</time></trkpt><trkpt lat="43.514574246072286" lon="12.357303468199625"><ele>696.8333333333334</ele><time>2026-04-26T08:11:20Z</time></trkpt><trkpt lat="43.51462792437247" lon="12.357231520170659"><ele>699.6666666666667</ele><time>2026-04-26T08:11:21Z</time></trkpt><trkpt lat="43.51468945766868" lon="12.357189109790868"><ele>702.5</ele><time>2026-04-26T08:11:22Z</time></trkpt><trkpt lat="43.51478202368511" lon="12.35716609259704"><ele>705.3333333333334</ele><time>2026-04-26T08:11:23Z</time></trkpt><trkpt lat="43.51486944673124" lon="12.357120267594347"><ele>708.1666666666666</ele><time>2026-04-26T08:11:24Z</time></trkpt><trkpt lat="43.514961734430756" lon="12.357089996532926"><ele>711.0</ele><time>2026-04-26T08:11:25Z</time></trkpt><trkpt lat="43.5150557064821" lon="12.357060350800941"><ele>711.0</ele><time>2026-04-26T08:11:26Z</time></trkpt><trkpt lat="43.515162032475104" lon="12.357031721837387"><ele>711.0</ele><time>2026-04-26T08:11:27Z</time></trkpt><trkpt lat="43.51525691032414" lon="12.357005942594917"><ele>711.0</ele><time>2026-04-26T08:11:28Z</time></trkpt><trkpt lat="43.515332901826405" lon="12.356985393421876"><ele>711.0</ele><time>2026-04-26T08:11:29Z</time></trkpt><trkpt lat="43.51540500587657" lon="12.356984569476083"><ele>711.0</ele><time>2026-04-26T08:11:30Z</time></trkpt><trkpt lat="43.51548529424667" lon="12.357083107182666"><ele>712.5</ele><time>2026-04-26T08:11:32Z</time></trkpt><trkpt lat="43.515489594803" lon="12.357179597066263"><ele>714.0</ele><time>2026-04-26T08:11:33Z</time></trkpt><trkpt lat="43.51546309223451" lon="12.357268474658424"><ele>715.5</ele><time>2026-04-26T08:11:34Z</time></trkpt><trkpt lat="43.515407393908085" lon="12.357362809526824"><ele>717.0</ele><time>2026-04-26T08:11:35Z</time></trkpt><trkpt lat="43.51534864144419" lon="12.357454633866972"><ele>718.5</ele><time>2026-04-26T08:11:36Z</time></trkpt><trkpt lat="43.51531689492798" lon="12.357586258918118"><ele>720.0</ele><time>2026-04-26T08:11:38Z</time></trkpt><trkpt lat="43.51539488317737" lon="12.357609009032927"><ele>723.2</ele><time>2026-04-26T08:11:40Z</time></trkpt><trkpt lat="43.51551010049723" lon="12.357533568980191"><ele>726.4</ele><time>2026-04-26T08:11:42Z</time></trkpt><trkpt lat="43.51558439993197" lon="12.357491200106166"><ele>729.5999999999999</ele><time>2026-04-26T08:11:43Z</time></trkpt><trkpt lat="43.515665091263074" lon="12.357449095427668"><ele>732.8</ele><time>2026-04-26T08:11:44Z</time></trkpt><trkpt lat="43.5157263003098" lon="12.357403825740025"><ele>736.0</ele><time>2026-04-26T08:11:45Z</time></trkpt><trkpt lat="43.515798331744534" lon="12.357329041741867"><ele>736.0</ele><time>2026-04-26T08:11:47Z</time></trkpt><trkpt lat="43.515847006904536" lon="12.357212370446044"><ele>736.0</ele><time>2026-04-26T08:11:56Z</time></trkpt><trkpt lat="43.51582635077688" lon="12.35713002422639"><ele>736.0</ele><time>2026-04-26T08:11:57Z</time></trkpt><trkpt lat="43.515790290243764" lon="12.357058110525982"><ele>736.0</ele><time>2026-04-26T08:11:58Z</time></trkpt><trkpt lat="43.51571873214513" lon="12.356966719271943"><ele>736.0</ele><time>2026-04-26T08:11:59Z</time></trkpt><trkpt lat="43.5156823440635" lon="12.356864492110345"><ele>736.0</ele><time>2026-04-26T08:12:00Z</time></trkpt><trkpt lat="43.51565937925103" lon="12.356726928262235"><ele>735.6666666666667</ele><time>2026-04-26T08:12:01Z</time></trkpt><trkpt lat="43.51563662367293" lon="12.356596260511353"><ele>735.3333333333334</ele><time>2026-04-26T08:12:02Z</time></trkpt><trkpt lat="43.5156156177786" lon="12.356474604770737"><ele>735.0</ele><time>2026-04-26T08:12:03Z</time></trkpt><trkpt lat="43.51560495129026" lon="12.35635867210862"><ele>734.6666666666666</ele><time>2026-04-26T08:12:04Z</time></trkpt><trkpt lat="43.51560194924438" lon="12.356245263921142"><ele>734.3333333333333</ele><time>2026-04-26T08:12:05Z</time></trkpt><trkpt lat="43.515628301946286" lon="12.356143265833266"><ele>734.0</ele><time>2026-04-26T08:12:06Z</time></trkpt><trkpt lat="43.51565631143742" lon="12.356057962359793"><ele>733.2</ele><time>2026-04-26T08:12:07Z</time></trkpt><trkpt lat="43.51568998883956" lon="12.355975238106314"><ele>732.4000000000001</ele><time>2026-04-26T08:12:08Z</time></trkpt><trkpt lat="43.515771708060946" lon="12.355848148566604"><ele>731.6</ele><time>2026-04-26T08:12:10Z</time></trkpt><trkpt lat="43.51582450260706" lon="12.355800669954135"><ele>730.8</ele><time>2026-04-26T08:12:11Z</time></trkpt><trkpt lat="43.51595484453028" lon="12.355724722052418"><ele>730.0</ele><time>2026-04-26T08:12:13Z</time></trkpt><trkpt lat="43.51601067535765" lon="12.355656376091455"><ele>730.0</ele><time>2026-04-26T08:12:14Z</time></trkpt><trkpt lat="43.51607914292296" lon="12.35557758051998"><ele>730.0</ele><time>2026-04-26T08:12:15Z</time></trkpt><trkpt lat="43.51617327097321" lon="12.355499127431328"><ele>730.0</ele><time>2026-04-26T08:12:16Z</time></trkpt><trkpt lat="43.51627054750747" lon="12.355442963389848"><ele>730.0</ele><time>2026-04-26T08:12:17Z</time></trkpt><trkpt lat="43.51637687115902" lon="12.35543107316675"><ele>730.0</ele><time>2026-04-26T08:12:18Z</time></trkpt><trkpt lat="43.51647010040038" lon="12.355417138312323"><ele>733.0</ele><time>2026-04-26T08:12:19Z</time></trkpt><trkpt lat="43.5165339413486" lon="12.355388003085434"><ele>736.0</ele><time>2026-04-26T08:12:20Z</time></trkpt><trkpt lat="43.516604576607605" lon="12.355340509402396"><ele>739.0</ele><time>2026-04-26T08:12:21Z</time></trkpt><trkpt lat="43.51667295798417" lon="12.355258564577502"><ele>742.0</ele><time>2026-04-26T08:12:22Z</time></trkpt><trkpt lat="43.51671734277209" lon="12.355155072086783"><ele>745.0</ele><time>2026-04-26T08:12:23Z</time></trkpt><trkpt lat="43.51675520516536" lon="12.35501341946776"><ele>748.0</ele><time>2026-04-26T08:12:24Z</time></trkpt><trkpt lat="43.5168016652644" lon="12.354867206762282"><ele>748.0</ele><time>2026-04-26T08:12:25Z</time></trkpt><trkpt lat="43.51684206592256" lon="12.354709516537971"><ele>748.0</ele><time>2026-04-26T08:12:26Z</time></trkpt><trkpt lat="43.51688557340295" lon="12.354598165470076"><ele>748.0</ele><time>2026-04-26T08:12:27Z</time></trkpt><trkpt lat="43.516924191505645" lon="12.354513124038231"><ele>748.0</ele><time>2026-04-26T08:12:28Z</time></trkpt><trkpt lat="43.517037151242796" lon="12.354430418385354"><ele>748.0</ele><time>2026-04-26T08:12:30Z</time></trkpt><trkpt lat="43.51712462349365" lon="12.354462907537467"><ele>752.4</ele><time>2026-04-26T08:12:31Z</time></trkpt><trkpt lat="43.51720149317746" lon="12.354486252685748"><ele>756.8</ele><time>2026-04-26T08:12:32Z</time></trkpt><trkpt lat="43.51728533061965" lon="12.354511630245883"><ele>761.2</ele><time>2026-04-26T08:12:33Z</time></trkpt><trkpt lat="43.51737962948825" lon="12.354547036213948"><ele>765.6</ele><time>2026-04-26T08:12:34Z</time></trkpt><trkpt lat="43.51747135282902" lon="12.354571886202107"><ele>770.0</ele><time>2026-04-26T08:12:35Z</time></trkpt><trkpt lat="43.517580856709586" lon="12.354577296393407"><ele>770.0000000000001</ele><time>2026-04-26T08:12:36Z</time></trkpt><trkpt lat="43.51768135995259" lon="12.354572017614357"><ele>770.0</ele><time>2026-04-26T08:12:37Z</time></trkpt><trkpt lat="43.517766276861494" lon="12.354562235126362"><ele>770.0</ele><time>2026-04-26T08:12:38Z</time></trkpt><trkpt lat="43.51783721940189" lon="12.354533209152866"><ele>770.0</ele><time>2026-04-26T08:12:39Z</time></trkpt><trkpt lat="43.51790086455432" lon="12.354478555411198"><ele>770.0000000000001</ele><time>2026-04-26T08:12:40Z</time></trkpt><trkpt lat="43.51796190393173" lon="12.354429011401589"><ele>770.0</ele><time>2026-04-26T08:12:41Z</time></trkpt><trkpt lat="43.51800431588391" lon="12.35424329510405"><ele>769.0000000000001</ele><time>2026-04-26T08:12:43Z</time></trkpt><trkpt lat="43.517997914830005" lon="12.354143464567834"><ele>768.0</ele><time>2026-04-26T08:12:44Z</time></trkpt><trkpt lat="43.51799254022582" lon="12.354006662512472"><ele>767.0</ele><time>2026-04-26T08:12:45Z</time></trkpt><trkpt lat="43.51800375622893" lon="12.353863608039262"><ele>766.0</ele><time>2026-04-26T08:12:46Z</time></trkpt><trkpt lat="43.51804515195217" lon="12.353767210222992"><ele>765.0</ele><time>2026-04-26T08:12:47Z</time></trkpt><trkpt lat="43.51810586820021" lon="12.353686002438723"><ele>764.0</ele><time>2026-04-26T08:12:48Z</time></trkpt><trkpt lat="43.51818078877879" lon="12.353637481870745"><ele>766.0</ele><time>2026-04-26T08:12:49Z</time></trkpt><trkpt lat="43.51826607588971" lon="12.353613587245375"><ele>768.0</ele><time>2026-04-26T08:12:50Z</time></trkpt><trkpt lat="43.51836129765717" lon="12.353588084339352"><ele>770.0</ele><time>2026-04-26T08:12:51Z</time></trkpt><trkpt lat="43.51841862666186" lon="12.353548559056987"><ele>772.0</ele><time>2026-04-26T08:12:52Z</time></trkpt><trkpt lat="43.518429089956825" lon="12.35340828479728"><ele>774.0000000000001</ele><time>2026-04-26T08:12:54Z</time></trkpt><trkpt lat="43.51838916087651" lon="12.35332890666288"><ele>776.0</ele><time>2026-04-26T08:12:55Z</time></trkpt><trkpt lat="43.51833289158755" lon="12.353220192823372"><ele>776.0000000000001</ele><time>2026-04-26T08:12:56Z</time></trkpt><trkpt lat="43.518307079734484" lon="12.3531105268839"><ele>776.0</ele><time>2026-04-26T08:12:57Z</time></trkpt><trkpt lat="43.518287885856836" lon="12.352998031501437"><ele>776.0</ele><time>2026-04-26T08:12:58Z</time></trkpt><trkpt lat="43.51826548513364" lon="12.352889891406386"><ele>776.0</ele><time>2026-04-26T08:12:58.998Z</time></trkpt><trkpt lat="43.51824738144517" lon="12.352795679776332"><ele>776.0000000000001</ele><time>2026-04-26T08:12:59.998Z</time></trkpt><trkpt lat="43.51822252982937" lon="12.352683668103081"><ele>776.0</ele><time>2026-04-26T08:13:00.998Z</time></trkpt><trkpt lat="43.5181928288082" lon="12.352564920462479"><ele>777.0000000000001</ele><time>2026-04-26T08:13:01.998Z</time></trkpt><trkpt lat="43.51815134917793" lon="12.35246000679341"><ele>778.0</ele><time>2026-04-26T08:13:02.998Z</time></trkpt><trkpt lat="43.51811115262867" lon="12.35235471027112"><ele>779.0</ele><time>2026-04-26T08:13:03.998Z</time></trkpt><trkpt lat="43.51808260826834" lon="12.352235918419957"><ele>780.0</ele><time>2026-04-26T08:13:04.998Z</time></trkpt><trkpt lat="43.51808016015131" lon="12.352135767973206"><ele>781.0000000000001</ele><time>2026-04-26T08:13:05.998Z</time></trkpt><trkpt lat="43.518092430237964" lon="12.352040152572972"><ele>782.0</ele><time>2026-04-26T08:13:06.998Z</time></trkpt><trkpt lat="43.51813384767838" lon="12.351953098209147"><ele>784.6</ele><time>2026-04-26T08:13:07.998Z</time></trkpt><trkpt lat="43.51819233931153" lon="12.351877847081218"><ele>787.2</ele><time>2026-04-26T08:13:08.998Z</time></trkpt><trkpt lat="43.51828133592443" lon="12.351811504066838"><ele>789.8</ele><time>2026-04-26T08:13:09.998Z</time></trkpt><trkpt lat="43.5183775487669" lon="12.351726627733974"><ele>792.4</ele><time>2026-04-26T08:13:10.998Z</time></trkpt><trkpt lat="43.518474099940356" lon="12.351637460337818"><ele>795.0</ele><time>2026-04-26T08:13:11.998Z</time></trkpt><trkpt lat="43.518544254619584" lon="12.351560073208486"><ele>795.0</ele><time>2026-04-26T08:13:12.998Z</time></trkpt><trkpt lat="43.518613742172555" lon="12.351488068697275"><ele>795.0</ele><time>2026-04-26T08:13:13.999Z</time></trkpt><trkpt lat="43.51868188469962" lon="12.351417885721842"><ele>795.0</ele><time>2026-04-26T08:13:14.999Z</time></trkpt><trkpt lat="43.5187759274474" lon="12.351371918330091"><ele>795.0</ele><time>2026-04-26T08:13:15.999Z</time></trkpt><trkpt lat="43.51883642708633" lon="12.351323028695107"><ele>795.0</ele><time>2026-04-26T08:13:16.999Z</time></trkpt><trkpt lat="43.51886260057954" lon="12.35118586421494"><ele>795.0</ele><time>2026-04-26T08:13:18.999Z</time></trkpt><trkpt lat="43.51885983914372" lon="12.35109182053688"><ele>795.6666666666666</ele><time>2026-04-26T08:13:19.999Z</time></trkpt><trkpt lat="43.51888343853276" lon="12.350963332189883"><ele>796.3333333333333</ele><time>2026-04-26T08:13:21.999Z</time></trkpt><trkpt lat="43.518921236094485" lon="12.3508929055137"><ele>797.0</ele><time>2026-04-26T08:13:22.999Z</time></trkpt><trkpt lat="43.51893705198203" lon="12.35073340511882"><ele>797.6666666666666</ele><time>2026-04-26T08:13:24.999Z</time></trkpt><trkpt lat="43.518908309339395" lon="12.350634430628544"><ele>798.3333333333333</ele><time>2026-04-26T08:13:25.999Z</time></trkpt><trkpt lat="43.51889605721354" lon="12.350540857474284"><ele>799.0</ele><time>2026-04-26T08:13:26.999Z</time></trkpt><trkpt lat="43.518910928444896" lon="12.35042496552833"><ele>797.1666666666666</ele><time>2026-04-26T08:13:27.999Z</time></trkpt><trkpt lat="43.518948404173386" lon="12.3503271243022"><ele>795.3333333333333</ele><time>2026-04-26T08:13:28.999Z</time></trkpt><trkpt lat="43.51900153469902" lon="12.350221719299872"><ele>793.5</ele><time>2026-04-26T08:13:29.999Z</time></trkpt><trkpt lat="43.519064179639294" lon="12.35015646158409"><ele>791.6666666666667</ele><time>2026-04-26T08:13:30.999Z</time></trkpt><trkpt lat="43.519131269940594" lon="12.350080786774127"><ele>789.8333333333334</ele><time>2026-04-26T08:13:31.999Z</time></trkpt><trkpt lat="43.5191906848076" lon="12.350008338155575"><ele>788.0</ele><time>2026-04-26T08:13:32.999Z</time></trkpt><trkpt lat="43.51924347309972" lon="12.349925587765192"><ele>788.0000000000001</ele><time>2026-04-26T08:13:33.999Z</time></trkpt><trkpt lat="43.51928445359966" lon="12.34983147615753"><ele>788.0</ele><time>2026-04-26T08:13:34.999Z</time></trkpt><trkpt lat="43.51932043160452" lon="12.349754550880181"><ele>788.0</ele><time>2026-04-26T08:13:35.999Z</time></trkpt><trkpt lat="43.51936933741984" lon="12.349657183331495"><ele>788.0</ele><time>2026-04-26T08:13:36.999Z</time></trkpt><trkpt lat="43.519426574344344" lon="12.349579534367845"><ele>788.0000000000001</ele><time>2026-04-26T08:13:37.999Z</time></trkpt><trkpt lat="43.519495373455" lon="12.349477278566235"><ele>788.0</ele><time>2026-04-26T08:13:38.999Z</time></trkpt><trkpt lat="43.51955924584759" lon="12.349373763102397"><ele>788.6666666666667</ele><time>2026-04-26T08:13:39.999Z</time></trkpt><trkpt lat="43.51961202944207" lon="12.34928098774359"><ele>789.3333333333334</ele><time>2026-04-26T08:13:40.999Z</time></trkpt><trkpt lat="43.51966364861339" lon="12.349226112091916"><ele>790.0</ele><time>2026-04-26T08:13:41.999Z</time></trkpt><trkpt lat="43.51972588568759" lon="12.34918557009163"><ele>790.6666666666667</ele><time>2026-04-26T08:13:42.999Z</time></trkpt><trkpt lat="43.51983795923638" lon="12.349141449722742"><ele>791.3333333333334</ele><time>2026-04-26T08:13:44.999Z</time></trkpt><trkpt lat="43.519924829459086" lon="12.349105150712756"><ele>792.0</ele><time>2026-04-26T08:13:46.999Z</time></trkpt><trkpt lat="43.51995902429685" lon="12.348985554867959"><ele>792.0</ele><time>2026-04-26T08:13:48.999Z</time></trkpt><trkpt lat="43.51999912031116" lon="12.348880703795954"><ele>792.0</ele><time>2026-04-26T08:13:52.999Z</time></trkpt><trkpt lat="43.52005423794085" lon="12.348788918554742"><ele>792.0</ele><time>2026-04-26T08:13:56.999Z</time></trkpt><trkpt lat="43.52011252385938" lon="12.348672931870352"><ele>792.0</ele><time>2026-04-26T08:13:59.999Z</time></trkpt><trkpt lat="43.52012622357916" lon="12.348529502314628"><ele>792.0</ele><time>2026-04-26T08:14:02Z</time></trkpt><trkpt lat="43.52012442465003" lon="12.3484422917138"><ele>792.0</ele><time>2026-04-26T08:14:03Z</time></trkpt><trkpt lat="43.52015432960819" lon="12.348292343847358"><ele>792.5714285714286</ele><time>2026-04-26T08:14:05Z</time></trkpt><trkpt lat="43.52020628837543" lon="12.348230717464132"><ele>793.1428571428571</ele><time>2026-04-26T08:14:06Z</time></trkpt><trkpt lat="43.52026714138566" lon="12.348184933589"><ele>793.7142857142857</ele><time>2026-04-26T08:14:07Z</time></trkpt><trkpt lat="43.52031938857513" lon="12.348120730504908"><ele>794.2857142857142</ele><time>2026-04-26T08:14:08Z</time></trkpt><trkpt lat="43.520368685213256" lon="12.34803228729847"><ele>794.8571428571429</ele><time>2026-04-26T08:14:10Z</time></trkpt><trkpt lat="43.52042835954694" lon="12.348002500525759"><ele>795.4285714285713</ele><time>2026-04-26T08:14:13Z</time></trkpt><trkpt lat="43.520509910026085" lon="12.347942842114115"><ele>796.0</ele><time>2026-04-26T08:14:15Z</time></trkpt><trkpt lat="43.520591526046864" lon="12.347897927028269"><ele>796.0</ele><time>2026-04-26T08:14:17Z</time></trkpt><trkpt lat="43.520606973136886" lon="12.34775170995558"><ele>796.0</ele><time>2026-04-26T08:14:19Z</time></trkpt><trkpt lat="43.52057187969557" lon="12.347636560968537"><ele>796.0</ele><time>2026-04-26T08:14:20Z</time></trkpt><trkpt lat="43.52055732438963" lon="12.347547088336572"><ele>796.0</ele><time>2026-04-26T08:14:21Z</time></trkpt><trkpt lat="43.52061681090605" lon="12.347404689098136"><ele>796.0</ele><time>2026-04-26T08:14:23Z</time></trkpt><trkpt lat="43.520656387153586" lon="12.347321219835347"><ele>796.0</ele><time>2026-04-26T08:14:24Z</time></trkpt><trkpt lat="43.52065601501211" lon="12.347213734014455"><ele>796.0</ele><time>2026-04-26T08:14:25Z</time></trkpt><trkpt lat="43.5206398786055" lon="12.347113834360863"><ele>796.0</ele><time>2026-04-26T08:14:26Z</time></trkpt><trkpt lat="43.520603749837626" lon="12.347015759386924"><ele>796.0</ele><time>2026-04-26T08:14:27Z</time></trkpt><trkpt lat="43.520579073132104" lon="12.34686201478603"><ele>796.0</ele><time>2026-04-26T08:14:29Z</time></trkpt><trkpt lat="43.52057374456396" lon="12.346715443052812"><ele>796.1999999999999</ele><time>2026-04-26T08:14:31Z</time></trkpt><trkpt lat="43.52058845966274" lon="12.346621583413087"><ele>796.4</ele><time>2026-04-26T08:14:32Z</time></trkpt><trkpt lat="43.52053410972944" lon="12.346450401639826"><ele>796.6</ele><time>2026-04-26T08:14:34Z</time></trkpt><trkpt lat="43.52053064641839" lon="12.346324619181468"><ele>796.8</ele><time>2026-04-26T08:14:36Z</time></trkpt><trkpt lat="43.52054589386123" lon="12.346183521060613"><ele>797.0</ele><time>2026-04-26T08:14:38Z</time></trkpt><trkpt lat="43.52052997890758" lon="12.346095609651721"><ele>797.0000000000001</ele><time>2026-04-26T08:14:39Z</time></trkpt><trkpt lat="43.520548251620646" lon="12.345966799745003"><ele>797.0</ele><time>2026-04-26T08:14:41Z</time></trkpt><trkpt lat="43.520598163240614" lon="12.345901911920032"><ele>797.0</ele><time>2026-04-26T08:14:42Z</time></trkpt><trkpt lat="43.520674009802796" lon="12.345825797771809"><ele>797.0</ele><time>2026-04-26T08:14:43Z</time></trkpt><trkpt lat="43.52074732575195" lon="12.345767944182885"><ele>797.0000000000001</ele><time>2026-04-26T08:14:44Z</time></trkpt><trkpt lat="43.52083433065524" lon="12.345692049235387"><ele>797.0</ele><time>2026-04-26T08:14:45Z</time></trkpt><trkpt lat="43.52091602893682" lon="12.345638206404558"><ele>797.0000000000001</ele><time>2026-04-26T08:14:46Z</time></trkpt><trkpt lat="43.52098358722111" lon="12.345581116732758"><ele>797.0</ele><time>2026-04-26T08:14:47Z</time></trkpt><trkpt lat="43.52105522303421" lon="12.34551145374635"><ele>797.0</ele><time>2026-04-26T08:14:48Z</time></trkpt><trkpt lat="43.521117223674096" lon="12.345435056059415"><ele>797.0</ele><time>2026-04-26T08:14:49Z</time></trkpt><trkpt lat="43.52118087792931" lon="12.345377264179143"><ele>797.0000000000001</ele><time>2026-04-26T08:14:50Z</time></trkpt><trkpt lat="43.52123124557059" lon="12.34530200322423"><ele>797.0</ele><time>2026-04-26T08:14:51Z</time></trkpt><trkpt lat="43.52127192257472" lon="12.34523076301967"><ele>795.6</ele><time>2026-04-26T08:14:52Z</time></trkpt><trkpt lat="43.52133867553271" lon="12.345105723244574"><ele>794.2</ele><time>2026-04-26T08:14:54Z</time></trkpt><trkpt lat="43.52135276564062" lon="12.344985631596028"><ele>792.8</ele><time>2026-04-26T08:14:55Z</time></trkpt><trkpt lat="43.52137415705724" lon="12.34486197135295"><ele>791.4</ele><time>2026-04-26T08:14:56Z</time></trkpt><trkpt lat="43.521395688256135" lon="12.344767015626793"><ele>790.0</ele><time>2026-04-26T08:14:57Z</time></trkpt><trkpt lat="43.52150593272126" lon="12.344672459294964"><ele>790.0</ele><time>2026-04-26T08:14:59Z</time></trkpt><trkpt lat="43.52159533236937" lon="12.34461907564771"><ele>790.0</ele><time>2026-04-26T08:15:01Z</time></trkpt><trkpt lat="43.52165703533348" lon="12.34453087462038"><ele>790.0</ele><time>2026-04-26T08:15:03Z</time></trkpt><trkpt lat="43.52170691292907" lon="12.34443083720839"><ele>790.0</ele><time>2026-04-26T08:15:09.998Z</time></trkpt><trkpt lat="43.52175205242141" lon="12.344284212301137"><ele>790.0</ele><time>2026-04-26T08:15:11.998Z</time></trkpt><trkpt lat="43.521758346410536" lon="12.344133880166815"><ele>790.0</ele><time>2026-04-26T08:15:13.999Z</time></trkpt><trkpt lat="43.52171489419247" lon="12.34398043513538"><ele>790.0</ele><time>2026-04-26T08:15:15.999Z</time></trkpt><trkpt lat="43.52165874815832" lon="12.343908965466225"><ele>790.0</ele><time>2026-04-26T08:15:16.999Z</time></trkpt><trkpt lat="43.52158318602679" lon="12.343848369035795"><ele>790.0</ele><time>2026-04-26T08:15:17.999Z</time></trkpt><trkpt lat="43.52151306876836" lon="12.34380587801869"><ele>790.0</ele><time>2026-04-26T08:15:18.999Z</time></trkpt><trkpt lat="43.52142851006179" lon="12.343733548902376"><ele>788.6</ele><time>2026-04-26T08:15:19.999Z</time></trkpt><trkpt lat="43.52134829787653" lon="12.343644681910742"><ele>787.2</ele><time>2026-04-26T08:15:20.999Z</time></trkpt><trkpt lat="43.521273134132294" lon="12.343561115130194"><ele>785.8</ele><time>2026-04-26T08:15:21.999Z</time></trkpt><trkpt lat="43.52122930900447" lon="12.343493905955071"><ele>784.4</ele><time>2026-04-26T08:15:22.999Z</time></trkpt><trkpt lat="43.521180742367974" lon="12.34337147165298"><ele>783.0</ele><time>2026-04-26T08:15:24.999Z</time></trkpt><trkpt lat="43.52116378707849" lon="12.343222092330207"><ele>783.0</ele><time>2026-04-26T08:15:26.999Z</time></trkpt><trkpt lat="43.521136117072245" lon="12.34312261316381"><ele>783.0</ele><time>2026-04-26T08:15:27.999Z</time></trkpt><trkpt lat="43.5210909575907" lon="12.343014784459246"><ele>783.0</ele><time>2026-04-26T08:15:28.999Z</time></trkpt><trkpt lat="43.5210557358995" lon="12.342915347264146"><ele>783.0</ele><time>2026-04-26T08:15:29.999Z</time></trkpt><trkpt lat="43.52103459604151" lon="12.342828495562168"><ele>783.0</ele><time>2026-04-26T08:15:30.999Z</time></trkpt><trkpt lat="43.52102070086334" lon="12.342731368338443"><ele>783.0</ele><time>2026-04-26T08:15:31.999Z</time></trkpt><trkpt lat="43.5209980571423" lon="12.342644989187809"><ele>782.5999999999999</ele><time>2026-04-26T08:15:32.999Z</time></trkpt><trkpt lat="43.52103690808859" lon="12.342497729955493"><ele>782.1999999999999</ele><time>2026-04-26T08:15:34.999Z</time></trkpt><trkpt lat="43.52108738021735" lon="12.342409176916355"><ele>781.8</ele><time>2026-04-26T08:15:35.999Z</time></trkpt><trkpt lat="43.52115700633837" lon="12.342322066467496"><ele>781.4</ele><time>2026-04-26T08:15:36.999Z</time></trkpt><trkpt lat="43.52122269906932" lon="12.342248915087843"><ele>781.0</ele><time>2026-04-26T08:15:37.999Z</time></trkpt><trkpt lat="43.521315744584605" lon="12.342108671215255"><ele>782.6666666666666</ele><time>2026-04-26T08:15:39.999Z</time></trkpt><trkpt lat="43.52136170319577" lon="12.34203583931702"><ele>784.3333333333333</ele><time>2026-04-26T08:15:40.999Z</time></trkpt><trkpt lat="43.521461719088194" lon="12.341939491749224"><ele>786.0</ele><time>2026-04-26T08:15:43Z</time></trkpt><trkpt lat="43.52152447994953" lon="12.341880548650616"><ele>787.6666666666667</ele><time>2026-04-26T08:15:44Z</time></trkpt><trkpt lat="43.52160111613176" lon="12.341818308069755"><ele>789.3333333333334</ele><time>2026-04-26T08:15:45Z</time></trkpt><trkpt lat="43.521660478004236" lon="12.341737251676097"><ele>791.0</ele><time>2026-04-26T08:15:46Z</time></trkpt><trkpt lat="43.52171649451743" lon="12.34164870247724"><ele>791.0000000000001</ele><time>2026-04-26T08:15:47Z</time></trkpt><trkpt lat="43.521770444648624" lon="12.341589427166623"><ele>791.0</ele><time>2026-04-26T08:15:48Z</time></trkpt><trkpt lat="43.521847228776416" lon="12.341527814619706"><ele>791.0</ele><time>2026-04-26T08:15:50Z</time></trkpt><trkpt lat="43.52187929232534" lon="12.341410351981262"><ele>791.0</ele><time>2026-04-26T08:15:52Z</time></trkpt><trkpt lat="43.521843422480245" lon="12.341332369104597"><ele>791.0000000000001</ele><time>2026-04-26T08:15:53Z</time></trkpt><trkpt lat="43.52179443942747" lon="12.341242880749084"><ele>791.0</ele><time>2026-04-26T08:15:54Z</time></trkpt><trkpt lat="43.521774303853206" lon="12.341118866670742"><ele>791.0</ele><time>2026-04-26T08:15:56Z</time></trkpt><trkpt lat="43.52172551377315" lon="12.34097784218468"><ele>791.0</ele><time>2026-04-26T08:15:58Z</time></trkpt><trkpt lat="43.52164482749005" lon="12.34084898376289"><ele>791.0</ele><time>2026-04-26T08:16:00Z</time></trkpt><trkpt lat="43.521611395856546" lon="12.34077285369289"><ele>791.0</ele><time>2026-04-26T08:16:01Z</time></trkpt><trkpt lat="43.521575651054555" lon="12.34068054989178"><ele>791.0</ele><time>2026-04-26T08:16:02Z</time></trkpt><trkpt lat="43.52152488547779" lon="12.340595750531895"><ele>790.0</ele><time>2026-04-26T08:16:03Z</time></trkpt><trkpt lat="43.52146457492048" lon="12.340531709062455"><ele>789.0</ele><time>2026-04-26T08:16:04Z</time></trkpt><trkpt lat="43.521357781055606" lon="12.340439285204722"><ele>788.0</ele><time>2026-04-26T08:16:06Z</time></trkpt><trkpt lat="43.52130244282158" lon="12.340297495511223"><ele>787.0</ele><time>2026-04-26T08:16:08Z</time></trkpt><trkpt lat="43.52120191704194" lon="12.340251699321152"><ele>786.0</ele><time>2026-04-26T08:16:10Z</time></trkpt><trkpt lat="43.52108813644784" lon="12.340251890050423"><ele>786.0</ele><time>2026-04-26T08:16:12Z</time></trkpt><trkpt lat="43.52106273378889" lon="12.340108938503095"><ele>786.0</ele><time>2026-04-26T08:16:14Z</time></trkpt><trkpt lat="43.52100003521611" lon="12.339951376826138"><ele>786.0</ele><time>2026-04-26T08:16:16Z</time></trkpt><trkpt lat="43.5209700834816" lon="12.339834558981641"><ele>786.0</ele><time>2026-04-26T08:16:17Z</time></trkpt><trkpt lat="43.52093595919672" lon="12.339745370521145"><ele>786.0</ele><time>2026-04-26T08:16:18Z</time></trkpt><trkpt lat="43.52081742409993" lon="12.33972025111771"><ele>786.0000000000001</ele><time>2026-04-26T08:16:20Z</time></trkpt><trkpt lat="43.52073431300955" lon="12.339745249617033"><ele>786.0</ele><time>2026-04-26T08:16:21Z</time></trkpt><trkpt lat="43.52065864704534" lon="12.33973887849167"><ele>786.0</ele><time>2026-04-26T08:16:22Z</time></trkpt><trkpt lat="43.52059346449807" lon="12.339711425141811"><ele>786.0</ele><time>2026-04-26T08:16:23Z</time></trkpt><trkpt lat="43.52053205788036" lon="12.33966872071997"><ele>786.0</ele><time>2026-04-26T08:16:24Z</time></trkpt><trkpt lat="43.520475133624906" lon="12.339605844591452"><ele>786.0000000000001</ele><time>2026-04-26T08:16:25Z</time></trkpt><trkpt lat="43.520433285654974" lon="12.339529905356503"><ele>786.0</ele><time>2026-04-26T08:16:26Z</time></trkpt><trkpt lat="43.52041458859494" lon="12.339400631020402"><ele>788.8333333333334</ele><time>2026-04-26T08:16:28Z</time></trkpt><trkpt lat="43.52042152351819" lon="12.339299247301186"><ele>791.6666666666667</ele><time>2026-04-26T08:16:29Z</time></trkpt><trkpt lat="43.52042096462871" lon="12.339171107898423"><ele>794.5</ele><time>2026-04-26T08:16:30Z</time></trkpt><trkpt lat="43.5204093645546" lon="12.339042709707993"><ele>797.3333333333334</ele><time>2026-04-26T08:16:31Z</time></trkpt><trkpt lat="43.52040379411161" lon="12.33892898014018"><ele>800.1666666666667</ele><time>2026-04-26T08:16:32Z</time></trkpt><trkpt lat="43.52042043262055" lon="12.33880473775308"><ele>803.0</ele><time>2026-04-26T08:16:33Z</time></trkpt><trkpt lat="43.52042748366998" lon="12.338697280226116"><ele>803.0000000000001</ele><time>2026-04-26T08:16:34Z</time></trkpt><trkpt lat="43.52040416550777" lon="12.338588978570295"><ele>803.0</ele><time>2026-04-26T08:16:35Z</time></trkpt><trkpt lat="43.52038793955196" lon="12.338465675241109"><ele>803.0</ele><time>2026-04-26T08:16:36Z</time></trkpt><trkpt lat="43.52037744540634" lon="12.338337402551781"><ele>803.0</ele><time>2026-04-26T08:16:37Z</time></trkpt><trkpt lat="43.52037308066926" lon="12.338225403017553"><ele>803.0000000000001</ele><time>2026-04-26T08:16:38Z</time></trkpt><trkpt lat="43.52036975151053" lon="12.338124296538393"><ele>803.0</ele><time>2026-04-26T08:16:39Z</time></trkpt><trkpt lat="43.52038781963038" lon="12.338025277487908"><ele>801.3333333333334</ele><time>2026-04-26T08:16:40Z</time></trkpt><trkpt lat="43.52042233506426" lon="12.337930670864099"><ele>799.6666666666667</ele><time>2026-04-26T08:16:41Z</time></trkpt><trkpt lat="43.520472393761736" lon="12.337819264535945"><ele>798.0</ele><time>2026-04-26T08:16:42Z</time></trkpt><trkpt lat="43.520507334558694" lon="12.337688889987424"><ele>796.3333333333333</ele><time>2026-04-26T08:16:43Z</time></trkpt><trkpt lat="43.520528403518426" lon="12.337578803697673"><ele>794.6666666666666</ele><time>2026-04-26T08:16:44Z</time></trkpt><trkpt lat="43.52055589518403" lon="12.337488873849793"><ele>793.0</ele><time>2026-04-26T08:16:45Z</time></trkpt><trkpt lat="43.520602088052804" lon="12.337336503462177"><ele>793.0</ele><time>2026-04-26T08:16:47Z</time></trkpt><trkpt lat="43.52062447321084" lon="12.337251742197457"><ele>793.0</ele><time>2026-04-26T08:16:48Z</time></trkpt><trkpt lat="43.52064498910909" lon="12.337098306102627"><ele>793.0</ele><time>2026-04-26T08:16:50Z</time></trkpt><trkpt lat="43.5206525797703" lon="12.336999387375895"><ele>793.0</ele><time>2026-04-26T08:16:51Z</time></trkpt><trkpt lat="43.52072229451076" lon="12.336867316216425"><ele>793.0</ele><time>2026-04-26T08:16:53Z</time></trkpt><trkpt lat="43.52082271487623" lon="12.336769044375812"><ele>790.5999999999999</ele><time>2026-04-26T08:16:55Z</time></trkpt><trkpt lat="43.520910548994934" lon="12.336668068209192"><ele>788.1999999999999</ele><time>2026-04-26T08:16:57Z</time></trkpt><trkpt lat="43.52094016002399" lon="12.336491703646768"><ele>785.8</ele><time>2026-04-26T08:16:59Z</time></trkpt><trkpt lat="43.520939462674974" lon="12.336388123822838"><ele>783.4</ele><time>2026-04-26T08:17:00Z</time></trkpt><trkpt lat="43.52094403876859" lon="12.336268269020854"><ele>781.0</ele><time>2026-04-26T08:17:01Z</time></trkpt><trkpt lat="43.52091192859678" lon="12.336178865663053"><ele>780.4</ele><time>2026-04-26T08:17:02Z</time></trkpt><trkpt lat="43.520869504347814" lon="12.336035452228932"><ele>779.8</ele><time>2026-04-26T08:17:04Z</time></trkpt><trkpt lat="43.520903604452364" lon="12.33588430065744"><ele>779.1999999999999</ele><time>2026-04-26T08:17:06.001Z</time></trkpt><trkpt lat="43.52091012236458" lon="12.335782322113456"><ele>778.5999999999999</ele><time>2026-04-26T08:17:07.001Z</time></trkpt><trkpt lat="43.52091528592196" lon="12.335667763704102"><ele>778.0</ele><time>2026-04-26T08:17:08.001Z</time></trkpt><trkpt lat="43.52092214406704" lon="12.335547778021443"><ele>777.9999999999999</ele><time>2026-04-26T08:17:10.001Z</time></trkpt><trkpt lat="43.520964428724675" lon="12.335444693674667"><ele>778.0</ele><time>2026-04-26T08:17:11.999Z</time></trkpt><trkpt lat="43.52104237422887" lon="12.335332556856818"><ele>778.0</ele><time>2026-04-26T08:17:13.999Z</time></trkpt><trkpt lat="43.52109574724351" lon="12.335276059513836"><ele>778.0</ele><time>2026-04-26T08:17:14.999Z</time></trkpt><trkpt lat="43.52115517347517" lon="12.335246179235138"><ele>777.9999999999999</ele><time>2026-04-26T08:17:15.999Z</time></trkpt><trkpt lat="43.521231690886665" lon="12.335238112621157"><ele>778.0</ele><time>2026-04-26T08:17:16.999Z</time></trkpt><trkpt lat="43.521326904074904" lon="12.335253480692675"><ele>777.4</ele><time>2026-04-26T08:17:17.999Z</time></trkpt><trkpt lat="43.52142623921039" lon="12.33527054777263"><ele>776.8</ele><time>2026-04-26T08:17:18.999Z</time></trkpt><trkpt lat="43.521522948907126" lon="12.335289760717608"><ele>776.2</ele><time>2026-04-26T08:17:19.999Z</time></trkpt><trkpt lat="43.52162224825796" lon="12.335302411392323"><ele>775.6</ele><time>2026-04-26T08:17:20.999Z</time></trkpt><trkpt lat="43.521721848889044" lon="12.33529155660581"><ele>775.0</ele><time>2026-04-26T08:17:21.999Z</time></trkpt><trkpt lat="43.52180656623331" lon="12.33524440047031"><ele>774.9999999999999</ele><time>2026-04-26T08:17:22.999Z</time></trkpt><trkpt lat="43.52188716648613" lon="12.335177635497624"><ele>775.0</ele><time>2026-04-26T08:17:23.999Z</time></trkpt><trkpt lat="43.521968762409045" lon="12.335097254499077"><ele>775.0</ele><time>2026-04-26T08:17:24.999Z</time></trkpt><trkpt lat="43.522041773837394" lon="12.335029112807044"><ele>775.0</ele><time>2026-04-26T08:17:25.999Z</time></trkpt><trkpt lat="43.52210334919945" lon="12.334962529401665"><ele>774.9999999999999</ele><time>2026-04-26T08:17:26.999Z</time></trkpt><trkpt lat="43.522161043469076" lon="12.334893854951813"><ele>775.0</ele><time>2026-04-26T08:17:27.999Z</time></trkpt><trkpt lat="43.52222609739737" lon="12.33483669651447"><ele>774.4999999999999</ele><time>2026-04-26T08:17:28.999Z</time></trkpt><trkpt lat="43.522284701085525" lon="12.33477117680384"><ele>774.0</ele><time>2026-04-26T08:17:29.999Z</time></trkpt><trkpt lat="43.522355058222395" lon="12.334713535124182"><ele>773.5</ele><time>2026-04-26T08:17:31Z</time></trkpt><trkpt lat="43.52241360033695" lon="12.334635610304645"><ele>773.0</ele><time>2026-04-26T08:17:32Z</time></trkpt><trkpt lat="43.52249140570071" lon="12.334579329357107"><ele>772.4999999999999</ele><time>2026-04-26T08:17:33Z</time></trkpt><trkpt lat="43.522578713349546" lon="12.334509231749355"><ele>772.0</ele><time>2026-04-26T08:17:34Z</time></trkpt><trkpt lat="43.52266419395662" lon="12.3344381732"><ele>772.0</ele><time>2026-04-26T08:17:35Z</time></trkpt><trkpt lat="43.522749067956155" lon="12.334387833191622"><ele>772.0</ele><time>2026-04-26T08:17:36Z</time></trkpt><trkpt lat="43.522828024425365" lon="12.334321497001765"><ele>772.0</ele><time>2026-04-26T08:17:37Z</time></trkpt><trkpt lat="43.522909850073574" lon="12.334246175892346"><ele>772.0</ele><time>2026-04-26T08:17:38Z</time></trkpt><trkpt lat="43.52298884378688" lon="12.334163723905569"><ele>772.0</ele><time>2026-04-26T08:17:39Z</time></trkpt><trkpt lat="43.52305967486333" lon="12.334079696512724"><ele>772.6</ele><time>2026-04-26T08:17:40Z</time></trkpt><trkpt lat="43.52312082775203" lon="12.333996905883646"><ele>773.2</ele><time>2026-04-26T08:17:41Z</time></trkpt><trkpt lat="43.523188255638345" lon="12.333894743528685"><ele>773.8</ele><time>2026-04-26T08:17:42Z</time></trkpt><trkpt lat="43.52322789986239" lon="12.333773317315648"><ele>774.4</ele><time>2026-04-26T08:17:43Z</time></trkpt><trkpt lat="43.52325059221955" lon="12.333642067345806"><ele>775.0</ele><time>2026-04-26T08:17:44Z</time></trkpt><trkpt lat="43.523281958300046" lon="12.333510428333213"><ele>774.9999999999999</ele><time>2026-04-26T08:17:45Z</time></trkpt><trkpt lat="43.52332265420155" lon="12.333405417488256"><ele>775.0</ele><time>2026-04-26T08:17:46Z</time></trkpt><trkpt lat="43.52336119510687" lon="12.333310057589818"><ele>775.0</ele><time>2026-04-26T08:17:47Z</time></trkpt><trkpt lat="43.52340665090347" lon="12.333228928796219"><ele>775.0</ele><time>2026-04-26T08:17:48Z</time></trkpt><trkpt lat="43.523456139177874" lon="12.333164261061969"><ele>774.9999999999999</ele><time>2026-04-26T08:17:49Z</time></trkpt><trkpt lat="43.52350933844074" lon="12.333097760708254"><ele>775.0</ele><time>2026-04-26T08:17:50Z</time></trkpt><trkpt lat="43.52356565814644" lon="12.332997876044848"><ele>775.0</ele><time>2026-04-26T08:17:51Z</time></trkpt><trkpt lat="43.52362263276041" lon="12.33289075085388"><ele>775.0</ele><time>2026-04-26T08:17:52Z</time></trkpt><trkpt lat="43.52366875727438" lon="12.332778604803472"><ele>775.0</ele><time>2026-04-26T08:17:53Z</time></trkpt><trkpt lat="43.52371803806207" lon="12.332654483481432"><ele>775.0</ele><time>2026-04-26T08:17:54Z</time></trkpt><trkpt lat="43.52376991800884" lon="12.332538676520782"><ele>775.0</ele><time>2026-04-26T08:17:55Z</time></trkpt><trkpt lat="43.52382193056399" lon="12.332427189156716"><ele>775.0</ele><time>2026-04-26T08:17:56Z</time></trkpt><trkpt lat="43.52388058122851" lon="12.332333600136693"><ele>775.0</ele><time>2026-04-26T08:17:57Z</time></trkpt><trkpt lat="43.52394885962198" lon="12.33225045122602"><ele>775.0</ele><time>2026-04-26T08:17:58Z</time></trkpt><trkpt lat="43.52402889084333" lon="12.332189537980826"><ele>775.0</ele><time>2026-04-26T08:17:59Z</time></trkpt><trkpt lat="43.52411445212903" lon="12.33214046974038"><ele>775.0</ele><time>2026-04-26T08:18:00Z</time></trkpt><trkpt lat="43.524204087044716" lon="12.332104534129261"><ele>776.2</ele><time>2026-04-26T08:18:01Z</time></trkpt><trkpt lat="43.52428807023018" lon="12.332078500789562"><ele>777.4</ele><time>2026-04-26T08:18:02Z</time></trkpt><trkpt lat="43.524383399142934" lon="12.332065458531895"><ele>778.5999999999999</ele><time>2026-04-26T08:18:03Z</time></trkpt><trkpt lat="43.524486864942375" lon="12.332053433745068"><ele>779.8</ele><time>2026-04-26T08:18:04Z</time></trkpt><trkpt lat="43.52458249479871" lon="12.332050870231747"><ele>781.0</ele><time>2026-04-26T08:18:05Z</time></trkpt><trkpt lat="43.52467105015151" lon="12.332058316193091"><ele>782.8</ele><time>2026-04-26T08:18:06Z</time></trkpt><trkpt lat="43.524755732992894" lon="12.332070244810447"><ele>784.5999999999999</ele><time>2026-04-26T08:18:07Z</time></trkpt><trkpt lat="43.52483006994295" lon="12.332064602674444"><ele>786.4</ele><time>2026-04-26T08:18:08Z</time></trkpt><trkpt lat="43.52488970372359" lon="12.332028084359393"><ele>788.2</ele><time>2026-04-26T08:18:09Z</time></trkpt><trkpt lat="43.524975522296344" lon="12.331876485659556"><ele>790.0</ele><time>2026-04-26T08:18:11Z</time></trkpt><trkpt lat="43.525021243071926" lon="12.331762428564838"><ele>790.0</ele><time>2026-04-26T08:18:12Z</time></trkpt><trkpt lat="43.525076075100195" lon="12.331651013686681"><ele>790.0</ele><time>2026-04-26T08:18:13Z</time></trkpt><trkpt lat="43.525128770434776" lon="12.331549035681658"><ele>790.0</ele><time>2026-04-26T08:18:14Z</time></trkpt><trkpt lat="43.52518175689133" lon="12.331454121843056"><ele>790.0</ele><time>2026-04-26T08:18:15Z</time></trkpt><trkpt lat="43.52523420812189" lon="12.331350801514025"><ele>790.0</ele><time>2026-04-26T08:18:16Z</time></trkpt><trkpt lat="43.52528049241786" lon="12.331255820066461"><ele>789.9999999999999</ele><time>2026-04-26T08:18:17Z</time></trkpt><trkpt lat="43.52533113168983" lon="12.331137707623396"><ele>790.0</ele><time>2026-04-26T08:18:18Z</time></trkpt><trkpt lat="43.52538211120801" lon="12.33103124193702"><ele>790.0</ele><time>2026-04-26T08:18:19Z</time></trkpt><trkpt lat="43.52542595462279" lon="12.330930617332676"><ele>790.0</ele><time>2026-04-26T08:18:20Z</time></trkpt><trkpt lat="43.525456088004994" lon="12.330829350491008"><ele>789.9999999999999</ele><time>2026-04-26T08:18:21Z</time></trkpt><trkpt lat="43.52548011338334" lon="12.33072963459123"><ele>790.0</ele><time>2026-04-26T08:18:22Z</time></trkpt><trkpt lat="43.52551441884297" lon="12.330623012127559"><ele>789.9999999999999</ele><time>2026-04-26T08:18:23Z</time></trkpt><trkpt lat="43.52555403195306" lon="12.330513743646998"><ele>790.0</ele><time>2026-04-26T08:18:24Z</time></trkpt><trkpt lat="43.525602189813746" lon="12.330429142614026"><ele>790.0</ele><time>2026-04-26T08:18:25Z</time></trkpt><trkpt lat="43.52566371315626" lon="12.330350209139768"><ele>790.0</ele><time>2026-04-26T08:18:26Z</time></trkpt><trkpt lat="43.52573076229625" lon="12.33027747587803"><ele>789.9999999999999</ele><time>2026-04-26T08:18:27Z</time></trkpt><trkpt lat="43.525794046839366" lon="12.330185973206584"><ele>790.0</ele><time>2026-04-26T08:18:28Z</time></trkpt><trkpt lat="43.52585074604397" lon="12.330099773615162"><ele>789.9999999999999</ele><time>2026-04-26T08:18:29Z</time></trkpt><trkpt lat="43.525915690870356" lon="12.330006296723688"><ele>790.0</ele><time>2026-04-26T08:18:30Z</time></trkpt><trkpt lat="43.525980414593064" lon="12.329920609930321"><ele>790.0</ele><time>2026-04-26T08:18:31.001Z</time></trkpt><trkpt lat="43.526044171163655" lon="12.329843028563667"><ele>790.0</ele><time>2026-04-26T08:18:32.001Z</time></trkpt><trkpt lat="43.52609361346157" lon="12.329749913593423"><ele>789.9999999999999</ele><time>2026-04-26T08:18:33.001Z</time></trkpt><trkpt lat="43.526122469680956" lon="12.329630645288322"><ele>790.0</ele><time>2026-04-26T08:18:34.001Z</time></trkpt><trkpt lat="43.526138588601384" lon="12.329514804199492"><ele>789.1666666666666</ele><time>2026-04-26T08:18:35.001Z</time></trkpt><trkpt lat="43.526151034031315" lon="12.329384201815422"><ele>788.3333333333333</ele><time>2026-04-26T08:18:36.001Z</time></trkpt><trkpt lat="43.52615900101109" lon="12.32925669899657"><ele>787.5</ele><time>2026-04-26T08:18:37.001Z</time></trkpt><trkpt lat="43.5261851151327" lon="12.329144999490772"><ele>786.6666666666667</ele><time>2026-04-26T08:18:38.001Z</time></trkpt><trkpt lat="43.526225375291965" lon="12.329068796795429"><ele>785.8333333333334</ele><time>2026-04-26T08:18:39.001Z</time></trkpt><trkpt lat="43.52627724626023" lon="12.329011041474654"><ele>785.0</ele><time>2026-04-26T08:18:40.001Z</time></trkpt><trkpt lat="43.52634682829405" lon="12.328939022708703"><ele>790.2</ele><time>2026-04-26T08:18:41.001Z</time></trkpt><trkpt lat="43.526413825623735" lon="12.328843814408772"><ele>795.4</ele><time>2026-04-26T08:18:42.001Z</time></trkpt><trkpt lat="43.52648071305776" lon="12.328734543002335"><ele>800.5999999999999</ele><time>2026-04-26T08:18:43.001Z</time></trkpt><trkpt lat="43.526531938339446" lon="12.328628893042483"><ele>805.8</ele><time>2026-04-26T08:18:44.001Z</time></trkpt><trkpt lat="43.52657252555284" lon="12.328494853394712"><ele>811.0</ele><time>2026-04-26T08:18:45.001Z</time></trkpt><trkpt lat="43.52661016557258" lon="12.328371955985693"><ele>811.0</ele><time>2026-04-26T08:18:46.001Z</time></trkpt><trkpt lat="43.5266555119981" lon="12.328253258487907"><ele>811.0</ele><time>2026-04-26T08:18:47.001Z</time></trkpt><trkpt lat="43.526712847824896" lon="12.328135254362087"><ele>811.0</ele><time>2026-04-26T08:18:48.001Z</time></trkpt><trkpt lat="43.52676963021341" lon="12.328040522724212"><ele>811.0</ele><time>2026-04-26T08:18:49.001Z</time></trkpt><trkpt lat="43.526835065073236" lon="12.3279645899758"><ele>811.0</ele><time>2026-04-26T08:18:50.001Z</time></trkpt><trkpt lat="43.52690638026734" lon="12.327912472178804"><ele>810.3333333333333</ele><time>2026-04-26T08:18:51.001Z</time></trkpt><trkpt lat="43.52698041800098" lon="12.327861905443417"><ele>809.6666666666666</ele><time>2026-04-26T08:18:52.001Z</time></trkpt><trkpt lat="43.527057566432276" lon="12.327804644522482"><ele>809.0</ele><time>2026-04-26T08:18:53.001Z</time></trkpt><trkpt lat="43.527126434641666" lon="12.32773803204656"><ele>808.3333333333333</ele><time>2026-04-26T08:18:54.001Z</time></trkpt><trkpt lat="43.5272063403139" lon="12.327705274067702"><ele>807.6666666666666</ele><time>2026-04-26T08:18:55.001Z</time></trkpt><trkpt lat="43.52729285252309" lon="12.327691036892721"><ele>807.0</ele><time>2026-04-26T08:18:56.001Z</time></trkpt><trkpt lat="43.52739757894706" lon="12.327685065235428"><ele>807.0</ele><time>2026-04-26T08:18:57.001Z</time></trkpt><trkpt lat="43.5275015227428" lon="12.327683207963092"><ele>807.0</ele><time>2026-04-26T08:18:58.001Z</time></trkpt><trkpt lat="43.52760135185726" lon="12.327680777697145"><ele>807.0</ele><time>2026-04-26T08:18:59.001Z</time></trkpt><trkpt lat="43.52770177282977" lon="12.327658819896433"><ele>807.0</ele><time>2026-04-26T08:19:00.001Z</time></trkpt><trkpt lat="43.52779177267064" lon="12.327618615069186"><ele>807.0</ele><time>2026-04-26T08:19:01.001Z</time></trkpt><trkpt lat="43.52788199918717" lon="12.327582691094804"><ele>806.5</ele><time>2026-04-26T08:19:02.001Z</time></trkpt><trkpt lat="43.52796674070554" lon="12.327583983033193"><ele>806.0</ele><time>2026-04-26T08:19:03.001Z</time></trkpt><trkpt lat="43.5280458002944" lon="12.32762104532275"><ele>805.5</ele><time>2026-04-26T08:19:04.001Z</time></trkpt><trkpt lat="43.528121465871735" lon="12.327625688171649"><ele>805.0</ele><time>2026-04-26T08:19:05.001Z</time></trkpt><trkpt lat="43.52818890532636" lon="12.32758412753203"><ele>804.5</ele><time>2026-04-26T08:19:06.001Z</time></trkpt><trkpt lat="43.528242247508864" lon="12.327496619684814"><ele>804.0</ele><time>2026-04-26T08:19:07.001Z</time></trkpt><trkpt lat="43.52828083095252" lon="12.327382910486733"><ele>804.0</ele><time>2026-04-26T08:19:08.001Z</time></trkpt><trkpt lat="43.52831573041585" lon="12.327259088153717"><ele>804.0</ele><time>2026-04-26T08:19:09.001Z</time></trkpt><trkpt lat="43.52835747089613" lon="12.327136763038919"><ele>804.0</ele><time>2026-04-26T08:19:10.001Z</time></trkpt><trkpt lat="43.52840391563178" lon="12.327026856696662"><ele>804.0</ele><time>2026-04-26T08:19:11.001Z</time></trkpt><trkpt lat="43.52845552073964" lon="12.326929876421701"><ele>804.0</ele><time>2026-04-26T08:19:12.001Z</time></trkpt><trkpt lat="43.52852766487855" lon="12.326852108996173"><ele>805.4000000000001</ele><time>2026-04-26T08:19:13.001Z</time></trkpt><trkpt lat="43.528608483920294" lon="12.326809506660528"><ele>806.8</ele><time>2026-04-26T08:19:14.001Z</time></trkpt><trkpt lat="43.52869925752996" lon="12.32677267829098"><ele>808.2</ele><time>2026-04-26T08:19:15.001Z</time></trkpt><trkpt lat="43.52878162061246" lon="12.3267547414983"><ele>809.5999999999999</ele><time>2026-04-26T08:19:16.001Z</time></trkpt><trkpt lat="43.528874882349825" lon="12.326757402922192"><ele>811.0</ele><time>2026-04-26T08:19:16.999Z</time></trkpt><trkpt lat="43.52897388087392" lon="12.326765843542258"><ele>812.1666666666666</ele><time>2026-04-26T08:19:17.999Z</time></trkpt><trkpt lat="43.52906599859855" lon="12.32678266575638"><ele>813.3333333333333</ele><time>2026-04-26T08:19:18.999Z</time></trkpt><trkpt lat="43.52915335103964" lon="12.32680517247226"><ele>814.5</ele><time>2026-04-26T08:19:19.999Z</time></trkpt><trkpt lat="43.52923682109657" lon="12.32683536949421"><ele>815.6666666666667</ele><time>2026-04-26T08:19:20.999Z</time></trkpt><trkpt lat="43.52932614201708" lon="12.326862399254203"><ele>816.8333333333334</ele><time>2026-04-26T08:19:21.999Z</time></trkpt><trkpt lat="43.52940286905876" lon="12.32688315455993"><ele>818.0</ele><time>2026-04-26T08:19:22.999Z</time></trkpt><trkpt lat="43.52950911617527" lon="12.326861929825881"><ele>818.0000000000001</ele><time>2026-04-26T08:19:24.999Z</time></trkpt><trkpt lat="43.52955646208039" lon="12.326802576304322"><ele>818.0</ele><time>2026-04-26T08:19:25.999Z</time></trkpt><trkpt lat="43.52958681829944" lon="12.326707233651568"><ele>818.0</ele><time>2026-04-26T08:19:26.999Z</time></trkpt><trkpt lat="43.529610919463366" lon="12.32660210442287"><ele>818.0</ele><time>2026-04-26T08:19:27.999Z</time></trkpt><trkpt lat="43.52963650272651" lon="12.32648228922597"><ele>818.0000000000001</ele><time>2026-04-26T08:19:28.999Z</time></trkpt><trkpt lat="43.529660848108264" lon="12.326382528656294"><ele>818.0</ele><time>2026-04-26T08:19:29.999Z</time></trkpt><trkpt lat="43.52970689794668" lon="12.326233376798498"><ele>814.3333333333334</ele><time>2026-04-26T08:19:32Z</time></trkpt><trkpt lat="43.52975137389236" lon="12.326149748508872"><ele>810.6666666666667</ele><time>2026-04-26T08:19:33Z</time></trkpt><trkpt lat="43.529809089381125" lon="12.32607891602942"><ele>807.0</ele><time>2026-04-26T08:19:34Z</time></trkpt><trkpt lat="43.52984055003612" lon="12.325984811265672"><ele>803.3333333333333</ele><time>2026-04-26T08:19:35Z</time></trkpt><trkpt lat="43.52989185601857" lon="12.325904012996354"><ele>799.6666666666666</ele><time>2026-04-26T08:19:36Z</time></trkpt><trkpt lat="43.52994043104475" lon="12.325788914224809"><ele>796.0</ele><time>2026-04-26T08:19:37Z</time></trkpt><trkpt lat="43.530011495870674" lon="12.325697089638073"><ele>795.9999999999999</ele><time>2026-04-26T08:19:38Z</time></trkpt><trkpt lat="43.53009926598813" lon="12.325622265331095"><ele>796.0</ele><time>2026-04-26T08:19:39Z</time></trkpt><trkpt lat="43.53018457088983" lon="12.325571752566356"><ele>796.0</ele><time>2026-04-26T08:19:40Z</time></trkpt><trkpt lat="43.53024611033121" lon="12.325550457503438"><ele>796.0</ele><time>2026-04-26T08:19:41Z</time></trkpt><trkpt lat="43.530330622334326" lon="12.3255320008629"><ele>795.9999999999999</ele><time>2026-04-26T08:19:43Z</time></trkpt><trkpt lat="43.53042006874363" lon="12.325520591712417"><ele>796.0</ele><time>2026-04-26T08:19:45Z</time></trkpt><trkpt lat="43.53053782366787" lon="12.325486659748178"><ele>792.9999999999999</ele><time>2026-04-26T08:19:47Z</time></trkpt><trkpt lat="43.53059859761758" lon="12.325436963349423"><ele>790.0</ele><time>2026-04-26T08:19:48Z</time></trkpt><trkpt lat="43.53066414577835" lon="12.325356747062846"><ele>787.0</ele><time>2026-04-26T08:19:49Z</time></trkpt><trkpt lat="43.5307409457103" lon="12.325275519421323"><ele>784.0</ele><time>2026-04-26T08:19:50Z</time></trkpt><trkpt lat="43.53082491341008" lon="12.325233926915267"><ele>780.9999999999999</ele><time>2026-04-26T08:19:51Z</time></trkpt><trkpt lat="43.5309269066891" lon="12.325208699028357"><ele>778.0</ele><time>2026-04-26T08:19:52Z</time></trkpt><trkpt lat="43.53102465751794" lon="12.325188434254152"><ele>778.0</ele><time>2026-04-26T08:19:53Z</time></trkpt><trkpt lat="43.531126420210974" lon="12.325161925808002"><ele>778.0</ele><time>2026-04-26T08:19:54Z</time></trkpt><trkpt lat="43.53123033501562" lon="12.325143875359075"><ele>778.0</ele><time>2026-04-26T08:19:55Z</time></trkpt><trkpt lat="43.53133770608462" lon="12.325110612844455"><ele>778.0</ele><time>2026-04-26T08:19:56Z</time></trkpt><trkpt lat="43.53143731317163" lon="12.325073555774157"><ele>778.0</ele><time>2026-04-26T08:19:57Z</time></trkpt><trkpt lat="43.531539171077135" lon="12.325049760490403"><ele>777.8333333333333</ele><time>2026-04-26T08:19:58Z</time></trkpt><trkpt lat="43.53163538711746" lon="12.325023377300917"><ele>777.6666666666666</ele><time>2026-04-26T08:19:59Z</time></trkpt><trkpt lat="43.531723321233514" lon="12.324993646828206"><ele>777.5</ele><time>2026-04-26T08:20:00Z</time></trkpt><trkpt lat="43.53180469157716" lon="12.324967117472253"><ele>777.3333333333333</ele><time>2026-04-26T08:20:01Z</time></trkpt><trkpt lat="43.531888986817734" lon="12.324944998715088"><ele>777.1666666666666</ele><time>2026-04-26T08:20:02Z</time></trkpt><trkpt lat="43.53195864728757" lon="12.324929906090782"><ele>777.0</ele><time>2026-04-26T08:20:03Z</time></trkpt><trkpt lat="43.532063563375964" lon="12.324911253369127"><ele>778.1666666666666</ele><time>2026-04-26T08:20:04Z</time></trkpt><trkpt lat="43.53215482892512" lon="12.324898983972783"><ele>779.3333333333333</ele><time>2026-04-26T08:20:05Z</time></trkpt><trkpt lat="43.53224093663912" lon="12.324877229862484"><ele>780.5</ele><time>2026-04-26T08:20:06Z</time></trkpt><trkpt lat="43.53232785770275" lon="12.324839095892909"><ele>781.6666666666666</ele><time>2026-04-26T08:20:07Z</time></trkpt><trkpt lat="43.53240700584072" lon="12.324823351689448"><ele>782.8333333333333</ele><time>2026-04-26T08:20:08Z</time></trkpt><trkpt lat="43.53248870450955" lon="12.324786913986522"><ele>784.0</ele><time>2026-04-26T08:20:09Z</time></trkpt><trkpt lat="43.53257553525441" lon="12.324738372861516"><ele>781.4000000000001</ele><time>2026-04-26T08:20:10Z</time></trkpt><trkpt lat="43.532651583583075" lon="12.324649428751624"><ele>778.8</ele><time>2026-04-26T08:20:11Z</time></trkpt><trkpt lat="43.532692972024655" lon="12.324562393835265"><ele>776.2</ele><time>2026-04-26T08:20:12Z</time></trkpt><trkpt lat="43.53276239525825" lon="12.324476625879635"><ele>773.5999999999999</ele><time>2026-04-26T08:20:13Z</time></trkpt><trkpt lat="43.532836472650544" lon="12.32438095967673"><ele>771.0</ele><time>2026-04-26T08:20:14Z</time></trkpt><trkpt lat="43.53289310550533" lon="12.32429426602955"><ele>775.8333333333334</ele><time>2026-04-26T08:20:15Z</time></trkpt><trkpt lat="43.532947617901485" lon="12.32419254337638"><ele>780.6666666666667</ele><time>2026-04-26T08:20:16Z</time></trkpt><trkpt lat="43.5329887622975" lon="12.324092346248566"><ele>785.5</ele><time>2026-04-26T08:20:17Z</time></trkpt><trkpt lat="43.533034888686714" lon="12.323998466138542"><ele>790.3333333333334</ele><time>2026-04-26T08:20:18Z</time></trkpt><trkpt lat="43.5330633990943" lon="12.323894457179525"><ele>795.1666666666667</ele><time>2026-04-26T08:20:19Z</time></trkpt><trkpt lat="43.5330602054392" lon="12.323766566917444"><ele>800.0</ele><time>2026-04-26T08:20:20Z</time></trkpt><trkpt lat="43.53306035424571" lon="12.323636095774711"><ele>800.0</ele><time>2026-04-26T08:20:21Z</time></trkpt><trkpt lat="43.53306885815425" lon="12.323499747884593"><ele>800.0</ele><time>2026-04-26T08:20:22.001Z</time></trkpt><trkpt lat="43.53308820914537" lon="12.323361867222593"><ele>800.0</ele><time>2026-04-26T08:20:23.001Z</time></trkpt><trkpt lat="43.5330841438229" lon="12.323225304978859"><ele>800.0</ele><time>2026-04-26T08:20:24.001Z</time></trkpt><trkpt lat="43.53304418107041" lon="12.323112085448336"><ele>800.0</ele><time>2026-04-26T08:20:25.001Z</time></trkpt><trkpt lat="43.533013758955235" lon="12.32298927760889"><ele>798.5000000000001</ele><time>2026-04-26T08:20:26.001Z</time></trkpt><trkpt lat="43.53299920033758" lon="12.322891596984116"><ele>797.0</ele><time>2026-04-26T08:20:27.001Z</time></trkpt><trkpt lat="43.53298172024941" lon="12.322764511695986"><ele>795.5</ele><time>2026-04-26T08:20:28.001Z</time></trkpt><trkpt lat="43.53299018374098" lon="12.322673435385484"><ele>794.0</ele><time>2026-04-26T08:20:29.001Z</time></trkpt><trkpt lat="43.53303941144415" lon="12.322562680438335"><ele>792.5000000000001</ele><time>2026-04-26T08:20:31.001Z</time></trkpt><trkpt lat="43.53311302608982" lon="12.322583533368505"><ele>791.0</ele><time>2026-04-26T08:20:33.001Z</time></trkpt><trkpt lat="43.53314384067734" lon="12.322677663051438"><ele>791.0000000000001</ele><time>2026-04-26T08:20:35.001Z</time></trkpt><trkpt lat="43.53321109088145" lon="12.322838736584973"><ele>791.0</ele><time>2026-04-26T08:20:37.001Z</time></trkpt><trkpt lat="43.53325289066601" lon="12.322920590921079"><ele>791.0</ele><time>2026-04-26T08:20:38.001Z</time></trkpt><trkpt lat="43.53329983667508" lon="12.323007562199228"><ele>791.0</ele><time>2026-04-26T08:20:39.001Z</time></trkpt><trkpt lat="43.53334901277537" lon="12.323091752489633"><ele>791.0000000000001</ele><time>2026-04-26T08:20:40.001Z</time></trkpt><trkpt lat="43.533402560707174" lon="12.323179739800311"><ele>791.0</ele><time>2026-04-26T08:20:41.001Z</time></trkpt><trkpt lat="43.533447412205874" lon="12.323255530531293"><ele>792.8</ele><time>2026-04-26T08:20:42.001Z</time></trkpt><trkpt lat="43.53350185919302" lon="12.32336929925784"><ele>794.5999999999999</ele><time>2026-04-26T08:20:44.001Z</time></trkpt><trkpt lat="43.533596659139995" lon="12.323559063090016"><ele>796.4</ele><time>2026-04-26T08:20:46.001Z</time></trkpt><trkpt lat="43.53362079721633" lon="12.323644013321504"><ele>798.2</ele><time>2026-04-26T08:20:47.001Z</time></trkpt><trkpt lat="43.53362648654671" lon="12.323740275099532"><ele>800.0</ele><time>2026-04-26T08:20:48.001Z</time></trkpt><trkpt lat="43.533637340844585" lon="12.323830982197213"><ele>800.6666666666667</ele><time>2026-04-26T08:20:49.001Z</time></trkpt><trkpt lat="43.53370852278639" lon="12.323983445779346"><ele>801.3333333333334</ele><time>2026-04-26T08:20:51.001Z</time></trkpt><trkpt lat="43.533769430564256" lon="12.324053248316513"><ele>802.0</ele><time>2026-04-26T08:20:52.001Z</time></trkpt><trkpt lat="43.53383430960864" lon="12.32409645281266"><ele>802.6666666666667</ele><time>2026-04-26T08:20:53.001Z</time></trkpt><trkpt lat="43.533907341586506" lon="12.324121197245836"><ele>803.3333333333334</ele><time>2026-04-26T08:20:54.001Z</time></trkpt><trkpt lat="43.533983616662994" lon="12.324126942217248"><ele>804.0</ele><time>2026-04-26T08:20:55.001Z</time></trkpt><trkpt lat="43.534055796183566" lon="12.324115414315935"><ele>809.1666666666666</ele><time>2026-04-26T08:20:56.001Z</time></trkpt><trkpt lat="43.534123112412274" lon="12.324088260317748"><ele>814.3333333333333</ele><time>2026-04-26T08:20:57.001Z</time></trkpt><trkpt lat="43.53419759014446" lon="12.324058334236971"><ele>819.5</ele><time>2026-04-26T08:20:58.001Z</time></trkpt><trkpt lat="43.53428774178182" lon="12.32402994794109"><ele>824.6666666666666</ele><time>2026-04-26T08:20:59.001Z</time></trkpt><trkpt lat="43.53438031539689" lon="12.32400544475544"><ele>829.8333333333333</ele><time>2026-04-26T08:21:00.001Z</time></trkpt><trkpt lat="43.53446564041126" lon="12.32398947730109"><ele>835.0</ele><time>2026-04-26T08:21:01.001Z</time></trkpt><trkpt lat="43.53456004459784" lon="12.323973841614293"><ele>837.4</ele><time>2026-04-26T08:21:02.001Z</time></trkpt><trkpt lat="43.53466225471603" lon="12.323950519229038"><ele>839.8</ele><time>2026-04-26T08:21:03.001Z</time></trkpt><trkpt lat="43.53475957912664" lon="12.32393826117009"><ele>842.2</ele><time>2026-04-26T08:21:04.001Z</time></trkpt><trkpt lat="43.53486510219315" lon="12.323938453710229"><ele>844.6</ele><time>2026-04-26T08:21:05.001Z</time></trkpt><trkpt lat="43.534960788616566" lon="12.323942270916575"><ele>847.0</ele><time>2026-04-26T08:21:06.001Z</time></trkpt><trkpt lat="43.535048875566936" lon="12.32394383597044"><ele>846.9999999999999</ele><time>2026-04-26T08:21:07.001Z</time></trkpt><trkpt lat="43.53513227154042" lon="12.32396010097133"><ele>847.0</ele><time>2026-04-26T08:21:08.001Z</time></trkpt><trkpt lat="43.5352078517758" lon="12.323992610491587"><ele>847.0</ele><time>2026-04-26T08:21:09.001Z</time></trkpt><trkpt lat="43.535292456319446" lon="12.324035405769397"><ele>847.0</ele><time>2026-04-26T08:21:10.001Z</time></trkpt><trkpt lat="43.53537547974796" lon="12.324086548333035"><ele>846.9999999999999</ele><time>2026-04-26T08:21:11.001Z</time></trkpt><trkpt lat="43.5354580055408" lon="12.324132548840105"><ele>847.0</ele><time>2026-04-26T08:21:12.001Z</time></trkpt><trkpt lat="43.53554382590101" lon="12.324177193729941"><ele>847.4999999999999</ele><time>2026-04-26T08:21:13.001Z</time></trkpt><trkpt lat="43.5356328221196" lon="12.32418608827661"><ele>848.0</ele><time>2026-04-26T08:21:14.001Z</time></trkpt><trkpt lat="43.53572318929514" lon="12.324165878626703"><ele>848.5</ele><time>2026-04-26T08:21:15.001Z</time></trkpt><trkpt lat="43.535821804072626" lon="12.324131695523779"><ele>849.0</ele><time>2026-04-26T08:21:16.001Z</time></trkpt><trkpt lat="43.53589846511884" lon="12.32408741349809"><ele>849.4999999999999</ele><time>2026-04-26T08:21:17.001Z</time></trkpt><trkpt lat="43.535968513384034" lon="12.32407923496497"><ele>850.0</ele><time>2026-04-26T08:21:18.001Z</time></trkpt><trkpt lat="43.536043348978794" lon="12.32405799059323"><ele>850.0</ele><time>2026-04-26T08:21:19.001Z</time></trkpt><trkpt lat="43.536122139132864" lon="12.324050535695463"><ele>850.0</ele><time>2026-04-26T08:21:20.001Z</time></trkpt><trkpt lat="43.53621652302956" lon="12.32408562322275"><ele>850.0</ele><time>2026-04-26T08:21:21.001Z</time></trkpt><trkpt lat="43.536313526426774" lon="12.324132313611308"><ele>850.0</ele><time>2026-04-26T08:21:22Z</time></trkpt><trkpt lat="43.536421521298784" lon="12.324168528309416"><ele>850.0</ele><time>2026-04-26T08:21:23Z</time></trkpt><trkpt lat="43.53652359157136" lon="12.324187978832558"><ele>849.2</ele><time>2026-04-26T08:21:24Z</time></trkpt><trkpt lat="43.53661836615427" lon="12.324220045686246"><ele>848.4</ele><time>2026-04-26T08:21:25Z</time></trkpt><trkpt lat="43.536706384975275" lon="12.324249772382576"><ele>847.5999999999999</ele><time>2026-04-26T08:21:26Z</time></trkpt><trkpt lat="43.53679971953849" lon="12.324286750012275"><ele>846.8</ele><time>2026-04-26T08:21:27Z</time></trkpt><trkpt lat="43.53688544112164" lon="12.324314376858093"><ele>846.0</ele><time>2026-04-26T08:21:28Z</time></trkpt><trkpt lat="43.536968813989965" lon="12.324322993914885"><ele>846.0</ele><time>2026-04-26T08:21:29Z</time></trkpt><trkpt lat="43.53705211572924" lon="12.324338459139398"><ele>846.0</ele><time>2026-04-26T08:21:30Z</time></trkpt><trkpt lat="43.537137115787814" lon="12.324376397495357"><ele>846.0</ele><time>2026-04-26T08:21:31Z</time></trkpt><trkpt lat="43.53720780360693" lon="12.324386014887317"><ele>846.0</ele><time>2026-04-26T08:21:32Z</time></trkpt><trkpt lat="43.53727212434909" lon="12.324390281604888"><ele>846.0</ele><time>2026-04-26T08:21:33Z</time></trkpt><trkpt lat="43.53733864286455" lon="12.32438658794671"><ele>846.0</ele><time>2026-04-26T08:21:34Z</time></trkpt><trkpt lat="43.537401550091836" lon="12.324372357553786"><ele>846.0</ele><time>2026-04-26T08:21:35Z</time></trkpt><trkpt lat="43.537459090133744" lon="12.324321557583227"><ele>845.8333333333334</ele><time>2026-04-26T08:21:36Z</time></trkpt><trkpt lat="43.53749590855204" lon="12.324240319384824"><ele>845.6666666666667</ele><time>2026-04-26T08:21:37Z</time></trkpt><trkpt lat="43.537529217253635" lon="12.324163660794131"><ele>845.5</ele><time>2026-04-26T08:21:38Z</time></trkpt><trkpt lat="43.537557114263514" lon="12.324078786517864"><ele>845.3333333333334</ele><time>2026-04-26T08:21:39Z</time></trkpt><trkpt lat="43.53756907296648" lon="12.32398142112696"><ele>845.1666666666667</ele><time>2026-04-26T08:21:40Z</time></trkpt><trkpt lat="43.53759234359085" lon="12.32389881090668"><ele>845.0</ele><time>2026-04-26T08:21:41Z</time></trkpt><trkpt lat="43.53764231086425" lon="12.323753736526129"><ele>842.4</ele><time>2026-04-26T08:21:43Z</time></trkpt><trkpt lat="43.53767875313327" lon="12.323588867383958"><ele>839.8</ele><time>2026-04-26T08:21:45Z</time></trkpt><trkpt lat="43.53772314984058" lon="12.323396327294095"><ele>837.2</ele><time>2026-04-26T08:21:47Z</time></trkpt><trkpt lat="43.537749812128375" lon="12.323284948890421"><ele>834.6</ele><time>2026-04-26T08:21:48Z</time></trkpt><trkpt lat="43.537777757946614" lon="12.323187618719256"><ele>832.0</ele><time>2026-04-26T08:21:49Z</time></trkpt><trkpt lat="43.53780726526943" lon="12.323093949078885"><ele>829.9999999999999</ele><time>2026-04-26T08:21:50Z</time></trkpt><trkpt lat="43.53783682104421" lon="12.323001012385127"><ele>828.0</ele><time>2026-04-26T08:21:51Z</time></trkpt><trkpt lat="43.537884172024754" lon="12.3228814546615"><ele>826.0</ele><time>2026-04-26T08:21:52Z</time></trkpt><trkpt lat="43.537906865809674" lon="12.322756256725336"><ele>824.0</ele><time>2026-04-26T08:21:53Z</time></trkpt><trkpt lat="43.53796322614676" lon="12.32266105517476"><ele>821.9999999999999</ele><time>2026-04-26T08:21:54Z</time></trkpt><trkpt lat="43.538016984103706" lon="12.322564742123898"><ele>820.0</ele><time>2026-04-26T08:21:55Z</time></trkpt><trkpt lat="43.53807491983006" lon="12.322464915524495"><ele>820.0</ele><time>2026-04-26T08:21:56Z</time></trkpt><trkpt lat="43.53813431057728" lon="12.322364738221337"><ele>820.0</ele><time>2026-04-26T08:21:57Z</time></trkpt><trkpt lat="43.53819926695088" lon="12.32226355995008"><ele>820.0</ele><time>2026-04-26T08:21:58Z</time></trkpt><trkpt lat="43.538272667693455" lon="12.322172746398381"><ele>820.0</ele><time>2026-04-26T08:21:59Z</time></trkpt><trkpt lat="43.53834946024467" lon="12.32207773268578"><ele>820.0</ele><time>2026-04-26T08:22:00Z</time></trkpt><trkpt lat="43.53842327503588" lon="12.321991058662"><ele>820.4</ele><time>2026-04-26T08:22:01Z</time></trkpt><trkpt lat="43.53850827680676" lon="12.32191113064306"><ele>820.8</ele><time>2026-04-26T08:22:02Z</time></trkpt><trkpt lat="43.53860019430453" lon="12.321832370691597"><ele>821.2</ele><time>2026-04-26T08:22:03Z</time></trkpt><trkpt lat="43.538693499424454" lon="12.321759140523003"><ele>821.6</ele><time>2026-04-26T08:22:04Z</time></trkpt><trkpt lat="43.53878580360054" lon="12.321684292660114"><ele>822.0</ele><time>2026-04-26T08:22:05Z</time></trkpt><trkpt lat="43.53886034186945" lon="12.321606716879561"><ele>821.3333333333334</ele><time>2026-04-26T08:22:06Z</time></trkpt><trkpt lat="43.538919949064" lon="12.321533249613754"><ele>820.6666666666667</ele><time>2026-04-26T08:22:07Z</time></trkpt><trkpt lat="43.53896685068315" lon="12.321445226401368"><ele>820.0</ele><time>2026-04-26T08:22:08.001Z</time></trkpt><trkpt lat="43.53898038247443" lon="12.321334090609689"><ele>819.3333333333334</ele><time>2026-04-26T08:22:09.001Z</time></trkpt><trkpt lat="43.53898003869678" lon="12.321213023039798"><ele>818.6666666666667</ele><time>2026-04-26T08:22:10.001Z</time></trkpt><trkpt lat="43.53897368923907" lon="12.321078867599486"><ele>818.0</ele><time>2026-04-26T08:22:11.001Z</time></trkpt><trkpt lat="43.53896951183236" lon="12.320947461751437"><ele>820.6666666666667</ele><time>2026-04-26T08:22:12.001Z</time></trkpt><trkpt lat="43.53902209008519" lon="12.32082817110226"><ele>823.3333333333334</ele><time>2026-04-26T08:22:13.001Z</time></trkpt><trkpt lat="43.53903726933173" lon="12.320723123098793"><ele>826.0</ele><time>2026-04-26T08:22:14.001Z</time></trkpt><trkpt lat="43.53905992354351" lon="12.32062538162774"><ele>828.6666666666667</ele><time>2026-04-26T08:22:15.001Z</time></trkpt><trkpt lat="43.539074660260766" lon="12.32048249480158"><ele>831.3333333333334</ele><time>2026-04-26T08:22:17.001Z</time></trkpt><trkpt lat="43.53908365531196" lon="12.320393472404824"><ele>834.0</ele><time>2026-04-26T08:22:18.001Z</time></trkpt><trkpt lat="43.53909317319759" lon="12.320256181023103"><ele>834.2</ele><time>2026-04-26T08:22:20.001Z</time></trkpt><trkpt lat="43.53910252807279" lon="12.320085657671855"><ele>834.4000000000001</ele><time>2026-04-26T08:22:22.001Z</time></trkpt><trkpt lat="43.53909153564517" lon="12.319978754166172"><ele>834.6</ele><time>2026-04-26T08:22:23.001Z</time></trkpt><trkpt lat="43.53906149125721" lon="12.319846052769394"><ele>834.8</ele><time>2026-04-26T08:22:24.001Z</time></trkpt><trkpt lat="43.53903024993624" lon="12.319719179350203"><ele>835.0</ele><time>2026-04-26T08:22:25.001Z</time></trkpt><trkpt lat="43.53899913756934" lon="12.319592212389137"><ele>834.2</ele><time>2026-04-26T08:22:26.001Z</time></trkpt><trkpt lat="43.53896723390713" lon="12.319475604930396"><ele>833.4</ele><time>2026-04-26T08:22:27.001Z</time></trkpt><trkpt lat="43.5389352901798" lon="12.319367801627768"><ele>832.5999999999999</ele><time>2026-04-26T08:22:28.001Z</time></trkpt><trkpt lat="43.538922871758786" lon="12.319256348973719"><ele>831.8</ele><time>2026-04-26T08:22:29.001Z</time></trkpt><trkpt lat="43.53893411737232" lon="12.319092759834396"><ele>831.0</ele><time>2026-04-26T08:22:31.001Z</time></trkpt><trkpt lat="43.5389537750509" lon="12.318909102334883"><ele>831.8</ele><time>2026-04-26T08:22:33.001Z</time></trkpt><trkpt lat="43.538967202129015" lon="12.318792446598453"><ele>832.5999999999999</ele><time>2026-04-26T08:22:34.001Z</time></trkpt><trkpt lat="43.53900031676232" lon="12.318674212605256"><ele>833.4</ele><time>2026-04-26T08:22:35.001Z</time></trkpt><trkpt lat="43.5390305210537" lon="12.318535097757579"><ele>834.2</ele><time>2026-04-26T08:22:36.001Z</time></trkpt><trkpt lat="43.5390687001999" lon="12.318410699646698"><ele>835.0</ele><time>2026-04-26T08:22:37.001Z</time></trkpt><trkpt lat="43.539106165944844" lon="12.318281255901763"><ele>835.0</ele><time>2026-04-26T08:22:38.001Z</time></trkpt><trkpt lat="43.53914147431272" lon="12.318153753776196"><ele>835.0</ele><time>2026-04-26T08:22:39.001Z</time></trkpt><trkpt lat="43.539169833971194" lon="12.318008894610818"><ele>835.0</ele><time>2026-04-26T08:22:40.001Z</time></trkpt><trkpt lat="43.539202776404345" lon="12.317876125854655"><ele>835.0</ele><time>2026-04-26T08:22:41.001Z</time></trkpt><trkpt lat="43.5392394377555" lon="12.317755847597244"><ele>835.0</ele><time>2026-04-26T08:22:42.001Z</time></trkpt><trkpt lat="43.53928947973295" lon="12.317654138912278"><ele>833.6</ele><time>2026-04-26T08:22:43.001Z</time></trkpt><trkpt lat="43.53934474192562" lon="12.317559941474126"><ele>832.2</ele><time>2026-04-26T08:22:44.001Z</time></trkpt><trkpt lat="43.539420032421546" lon="12.31749379141836"><ele>830.8</ele><time>2026-04-26T08:22:45.001Z</time></trkpt><trkpt lat="43.539488442766256" lon="12.317427080314138"><ele>829.4</ele><time>2026-04-26T08:22:46.001Z</time></trkpt><trkpt lat="43.53956183772951" lon="12.317350765692732"><ele>828.0</ele><time>2026-04-26T08:22:47.001Z</time></trkpt><trkpt lat="43.539644601903014" lon="12.317268398718033"><ele>827.0</ele><time>2026-04-26T08:22:48.001Z</time></trkpt><trkpt lat="43.53970885871877" lon="12.317164079171807"><ele>826.0</ele><time>2026-04-26T08:22:49.001Z</time></trkpt><trkpt lat="43.5397722494158" lon="12.317073083381331"><ele>825.0</ele><time>2026-04-26T08:22:50.001Z</time></trkpt><trkpt lat="43.539843771542195" lon="12.316999438797607"><ele>824.0</ele><time>2026-04-26T08:22:51.001Z</time></trkpt><trkpt lat="43.539901313868384" lon="12.316927565370651"><ele>823.0</ele><time>2026-04-26T08:22:52.001Z</time></trkpt><trkpt lat="43.53997554096472" lon="12.316858857213768"><ele>822.0</ele><time>2026-04-26T08:22:53.001Z</time></trkpt><trkpt lat="43.54005731676155" lon="12.316770555418849"><ele>822.0</ele><time>2026-04-26T08:22:54.001Z</time></trkpt><trkpt lat="43.54016140298029" lon="12.316704284991854"><ele>822.0</ele><time>2026-04-26T08:22:55.001Z</time></trkpt><trkpt lat="43.540264068643594" lon="12.31665176644715"><ele>822.0</ele><time>2026-04-26T08:22:56.001Z</time></trkpt><trkpt lat="43.54036844469963" lon="12.31659576307245"><ele>822.0</ele><time>2026-04-26T08:22:57.001Z</time></trkpt><trkpt lat="43.54046847546074" lon="12.316537020153527"><ele>822.0</ele><time>2026-04-26T08:22:58.001Z</time></trkpt><trkpt lat="43.54056873761315" lon="12.316494084750891"><ele>824.4000000000001</ele><time>2026-04-26T08:22:59.001Z</time></trkpt><trkpt lat="43.540646343455535" lon="12.316398533088813"><ele>826.8000000000001</ele><time>2026-04-26T08:23:00.001Z</time></trkpt><trkpt lat="43.540720035471814" lon="12.316308440705955"><ele>829.2</ele><time>2026-04-26T08:23:01.001Z</time></trkpt><trkpt lat="43.5407876476821" lon="12.316212417963287"><ele>831.6</ele><time>2026-04-26T08:23:02.001Z</time></trkpt><trkpt lat="43.54084502232729" lon="12.31611566444424"><ele>834.0</ele><time>2026-04-26T08:23:03.001Z</time></trkpt><trkpt lat="43.54089847598623" lon="12.316013624115467"><ele>834.0</ele><time>2026-04-26T08:23:04.001Z</time></trkpt><trkpt lat="43.54094674794198" lon="12.315898547021856"><ele>834.0</ele><time>2026-04-26T08:23:05.001Z</time></trkpt><trkpt lat="43.54098833383184" lon="12.31577394178404"><ele>834.0</ele><time>2026-04-26T08:23:06.001Z</time></trkpt><trkpt lat="43.54101884241724" lon="12.315638627586734"><ele>834.0</ele><time>2026-04-26T08:23:07.001Z</time></trkpt><trkpt lat="43.54106317099653" lon="12.31552298089757"><ele>834.0</ele><time>2026-04-26T08:23:08.001Z</time></trkpt><trkpt lat="43.54111414542811" lon="12.315438149044704"><ele>834.3333333333334</ele><time>2026-04-26T08:23:09.001Z</time></trkpt><trkpt lat="43.541176631012995" lon="12.315399123015782"><ele>834.6666666666667</ele><time>2026-04-26T08:23:10.001Z</time></trkpt><trkpt lat="43.54124520902999" lon="12.315344526526212"><ele>835.0</ele><time>2026-04-26T08:23:11.001Z</time></trkpt><trkpt lat="43.5413266140568" lon="12.315279725623673"><ele>835.3333333333334</ele><time>2026-04-26T08:23:12.001Z</time></trkpt><trkpt lat="43.541388750456726" lon="12.31519168798237"><ele>835.6666666666667</ele><time>2026-04-26T08:23:13.001Z</time></trkpt><trkpt lat="43.54145262951273" lon="12.315097787206273"><ele>836.0</ele><time>2026-04-26T08:23:14.001Z</time></trkpt><trkpt lat="43.541522405011655" lon="12.3149955912378"><ele>838.4</ele><time>2026-04-26T08:23:15.001Z</time></trkpt><trkpt lat="43.54159166371128" lon="12.314894069326431"><ele>840.8</ele><time>2026-04-26T08:23:16.002Z</time></trkpt><trkpt lat="43.54165781806824" lon="12.314795564884912"><ele>843.1999999999999</ele><time>2026-04-26T08:23:17.002Z</time></trkpt><trkpt lat="43.54172744589957" lon="12.314689427577813"><ele>845.5999999999999</ele><time>2026-04-26T08:23:18.002Z</time></trkpt><trkpt lat="43.541801529639486" lon="12.314589732707045"><ele>848.0</ele><time>2026-04-26T08:23:19.002Z</time></trkpt><trkpt lat="43.54187864709936" lon="12.314497019218503"><ele>848.0000000000001</ele><time>2026-04-26T08:23:20.002Z</time></trkpt><trkpt lat="43.541945254580746" lon="12.314413002029163"><ele>848.0</ele><time>2026-04-26T08:23:21.002Z</time></trkpt><trkpt lat="43.541991842032836" lon="12.314326209334821"><ele>848.0</ele><time>2026-04-26T08:23:22.002Z</time></trkpt><trkpt lat="43.542018986067475" lon="12.31422167619635"><ele>848.0</ele><time>2026-04-26T08:23:23.002Z</time></trkpt><trkpt lat="43.5420440113546" lon="12.314112980269051"><ele>848.0000000000001</ele><time>2026-04-26T08:23:24.002Z</time></trkpt><trkpt lat="43.542054031046376" lon="12.313994068689263"><ele>848.0</ele><time>2026-04-26T08:23:25.002Z</time></trkpt><trkpt lat="43.542092845790926" lon="12.313821034029898"><ele>851.5000000000001</ele><time>2026-04-26T08:23:27.002Z</time></trkpt><trkpt lat="43.54214389169208" lon="12.313743887317823"><ele>855.0</ele><time>2026-04-26T08:23:28.001Z</time></trkpt><trkpt lat="43.54221346336926" lon="12.313665497997563"><ele>858.5</ele><time>2026-04-26T08:23:29.001Z</time></trkpt><trkpt lat="43.54228398635192" lon="12.313575782823623"><ele>862.0</ele><time>2026-04-26T08:23:30.001Z</time></trkpt><trkpt lat="43.542341803132274" lon="12.313481075090069"><ele>865.5000000000001</ele><time>2026-04-26T08:23:31.001Z</time></trkpt><trkpt lat="43.542379335892996" lon="12.31337266862396"><ele>869.0</ele><time>2026-04-26T08:23:32.001Z</time></trkpt><trkpt lat="43.54239004405174" lon="12.313260856335557"><ele>869.0</ele><time>2026-04-26T08:23:33.001Z</time></trkpt><trkpt lat="43.542396250152585" lon="12.313171077458387"><ele>869.0000000000001</ele><time>2026-04-26T08:23:34.001Z</time></trkpt><trkpt lat="43.5424677254505" lon="12.313100200241967"><ele>869.0000000000001</ele><time>2026-04-26T08:23:36.001Z</time></trkpt><trkpt lat="43.54254782762652" lon="12.313208597025369"><ele>869.0</ele><time>2026-04-26T08:23:38.001Z</time></trkpt><trkpt lat="43.54260772607642" lon="12.313389084689145"><ele>869.0</ele><time>2026-04-26T08:23:40.001Z</time></trkpt><trkpt lat="43.54262479556401" lon="12.313497072659448"><ele>869.0000000000001</ele><time>2026-04-26T08:23:41.001Z</time></trkpt><trkpt lat="43.54263357579481" lon="12.313611675526554"><ele>869.0</ele><time>2026-04-26T08:23:42.001Z</time></trkpt><trkpt lat="43.54265223461367" lon="12.313704270149657"><ele>869.0</ele><time>2026-04-26T08:23:43.001Z</time></trkpt><trkpt lat="43.54275945499211" lon="12.313770911667126"><ele>869.0</ele><time>2026-04-26T08:23:45.001Z</time></trkpt><trkpt lat="43.54283131551219" lon="12.313724771408879"><ele>869.0000000000001</ele><time>2026-04-26T08:23:46.001Z</time></trkpt><trkpt lat="43.54288420643009" lon="12.313643458583368"><ele>869.0</ele><time>2026-04-26T08:23:47.001Z</time></trkpt><trkpt lat="43.54292412158584" lon="12.31354888888486"><ele>872.1666666666667</ele><time>2026-04-26T08:23:48.001Z</time></trkpt><trkpt lat="43.542977223436964" lon="12.313452602005547"><ele>875.3333333333334</ele><time>2026-04-26T08:23:49.001Z</time></trkpt><trkpt lat="43.54302720890278" lon="12.313365737464023"><ele>878.5</ele><time>2026-04-26T08:23:50.001Z</time></trkpt><trkpt lat="43.54308509675792" lon="12.313279465384339"><ele>881.6666666666667</ele><time>2026-04-26T08:23:51.001Z</time></trkpt><trkpt lat="43.54313960561888" lon="12.313189247094456"><ele>884.8333333333334</ele><time>2026-04-26T08:23:52.001Z</time></trkpt><trkpt lat="43.54321400074948" lon="12.313106199280785"><ele>888.0</ele><time>2026-04-26T08:23:53.001Z</time></trkpt><trkpt lat="43.54328452447478" lon="12.313020108619916"><ele>890.4</ele><time>2026-04-26T08:23:54.001Z</time></trkpt><trkpt lat="43.543355184991654" lon="12.312934672098999"><ele>892.8</ele><time>2026-04-26T08:23:55.001Z</time></trkpt><trkpt lat="43.54342523821972" lon="12.312843201415452"><ele>895.2</ele><time>2026-04-26T08:23:56.001Z</time></trkpt><trkpt lat="43.543496653995476" lon="12.31276566701503"><ele>897.6</ele><time>2026-04-26T08:23:57.001Z</time></trkpt><trkpt lat="43.54356383915102" lon="12.312702047784509"><ele>900.0</ele><time>2026-04-26T08:23:58.001Z</time></trkpt><trkpt lat="43.543669298727565" lon="12.31265037904402"><ele>903.0</ele><time>2026-04-26T08:24:00.001Z</time></trkpt><trkpt lat="43.543765218288605" lon="12.312776613741944"><ele>906.0</ele><time>2026-04-26T08:24:02.001Z</time></trkpt><trkpt lat="43.54379902602676" lon="12.312878062200191"><ele>909.0</ele><time>2026-04-26T08:24:03.001Z</time></trkpt><trkpt lat="43.54383505338226" lon="12.312982091898496"><ele>912.0</ele><time>2026-04-26T08:24:04.001Z</time></trkpt><trkpt lat="43.543888538849195" lon="12.313083809385107"><ele>915.0</ele><time>2026-04-26T08:24:05.001Z</time></trkpt><trkpt lat="43.543933007470145" lon="12.313167934508115"><ele>915.0</ele><time>2026-04-26T08:24:06.001Z</time></trkpt><trkpt lat="43.54398119001269" lon="12.313259051554384"><ele>915.0</ele><time>2026-04-26T08:24:07.001Z</time></trkpt><trkpt lat="43.54403618545213" lon="12.31332762947565"><ele>915.0</ele><time>2026-04-26T08:24:08.001Z</time></trkpt><trkpt lat="43.544102337008994" lon="12.31337511284446"><ele>915.0</ele><time>2026-04-26T08:24:09.001Z</time></trkpt><trkpt lat="43.54417139718247" lon="12.313415035752469"><ele>915.0</ele><time>2026-04-26T08:24:10.001Z</time></trkpt><trkpt lat="43.544246980989854" lon="12.313450439524603"><ele>915.0</ele><time>2026-04-26T08:24:11.001Z</time></trkpt><trkpt lat="43.54431885702679" lon="12.313489806367032"><ele>915.0</ele><time>2026-04-26T08:24:12.001Z</time></trkpt><trkpt lat="43.544390426241264" lon="12.313527229429079"><ele>915.0</ele><time>2026-04-26T08:24:13.001Z</time></trkpt><trkpt lat="43.544477040905505" lon="12.313573383032704"><ele>915.0</ele><time>2026-04-26T08:24:14.001Z</time></trkpt><trkpt lat="43.54455367704282" lon="12.31362317615086"><ele>915.0</ele><time>2026-04-26T08:24:15.001Z</time></trkpt><trkpt lat="43.54463295288821" lon="12.313668580268825"><ele>915.0</ele><time>2026-04-26T08:24:16.001Z</time></trkpt><trkpt lat="43.54472010752528" lon="12.313721015691025"><ele>915.0</ele><time>2026-04-26T08:24:17.001Z</time></trkpt><trkpt lat="43.54479467329166" lon="12.313775338751222"><ele>916.4</ele><time>2026-04-26T08:24:18.001Z</time></trkpt><trkpt lat="43.54489581084501" lon="12.313840044666623"><ele>917.8</ele><time>2026-04-26T08:24:20.001Z</time></trkpt><trkpt lat="43.5449960488894" lon="12.313906034254302"><ele>919.2</ele><time>2026-04-26T08:24:22.001Z</time></trkpt><trkpt lat="43.5451073571413" lon="12.313959832963867"><ele>920.6</ele><time>2026-04-26T08:24:24.001Z</time></trkpt><trkpt lat="43.545197859354694" lon="12.313978762815093"><ele>922.0</ele><time>2026-04-26T08:24:26.001Z</time></trkpt><trkpt lat="43.54526811029262" lon="12.314018006278651"><ele>922.1666666666666</ele><time>2026-04-26T08:24:28.001Z</time></trkpt><trkpt lat="43.545338082225996" lon="12.314026351958377"><ele>922.3333333333333</ele><time>2026-04-26T08:24:30.001Z</time></trkpt><trkpt lat="43.54542330268991" lon="12.313987710143108"><ele>922.5</ele><time>2026-04-26T08:24:32.001Z</time></trkpt><trkpt lat="43.54548575697076" lon="12.313962245483179"><ele>922.6666666666667</ele><time>2026-04-26T08:24:33.001Z</time></trkpt><trkpt lat="43.545546633851345" lon="12.313934669207617"><ele>922.8333333333334</ele><time>2026-04-26T08:24:34.001Z</time></trkpt><trkpt lat="43.54567175677669" lon="12.313885444259027"><ele>923.0</ele><time>2026-04-26T08:24:36.001Z</time></trkpt><trkpt lat="43.545747353308606" lon="12.313874556266155"><ele>920.1666666666667</ele><time>2026-04-26T08:24:37.001Z</time></trkpt><trkpt lat="43.54582207951157" lon="12.313884234714907"><ele>917.3333333333334</ele><time>2026-04-26T08:24:38.001Z</time></trkpt><trkpt lat="43.5458957104803" lon="12.313865592820864"><ele>914.5</ele><time>2026-04-26T08:24:39.001Z</time></trkpt><trkpt lat="43.545972298132476" lon="12.313837812978988"><ele>911.6666666666667</ele><time>2026-04-26T08:24:40.001Z</time></trkpt><trkpt lat="43.5460391446" lon="12.313805513564535"><ele>908.8333333333334</ele><time>2026-04-26T08:24:41.001Z</time></trkpt><trkpt lat="43.54609279736796" lon="12.313759674868212"><ele>906.0</ele><time>2026-04-26T08:24:42.001Z</time></trkpt><trkpt lat="43.546192639704785" lon="12.313673924203822"><ele>905.8571428571427</ele><time>2026-04-26T08:24:44.001Z</time></trkpt><trkpt lat="43.546262243108686" lon="12.313664683989824"><ele>905.7142857142857</ele><time>2026-04-26T08:24:45.001Z</time></trkpt><trkpt lat="43.5463252919699" lon="12.313655951216633"><ele>905.5714285714284</ele><time>2026-04-26T08:24:46.001Z</time></trkpt><trkpt lat="43.54639611986275" lon="12.313656096294027"><ele>905.4285714285713</ele><time>2026-04-26T08:24:47.001Z</time></trkpt><trkpt lat="43.54646508402261" lon="12.31368196243658"><ele>905.2857142857142</ele><time>2026-04-26T08:24:48.001Z</time></trkpt><trkpt lat="43.54653375788115" lon="12.313708254537998"><ele>905.1428571428571</ele><time>2026-04-26T08:24:49.001Z</time></trkpt><trkpt lat="43.546605305838156" lon="12.31374673236607"><ele>905.0</ele><time>2026-04-26T08:24:50.001Z</time></trkpt><trkpt lat="43.546674328382224" lon="12.313780777660394"><ele>905.0</ele><time>2026-04-26T08:24:51.001Z</time></trkpt><trkpt lat="43.54673972889733" lon="12.313817480294517"><ele>905.0</ele><time>2026-04-26T08:24:52.001Z</time></trkpt><trkpt lat="43.546858606740436" lon="12.313814965361692"><ele>905.0</ele><time>2026-04-26T08:24:54.001Z</time></trkpt><trkpt lat="43.54698323961927" lon="12.313822809719229"><ele>905.0</ele><time>2026-04-26T08:24:56.001Z</time></trkpt><trkpt lat="43.54709769269998" lon="12.313849419695806"><ele>905.0</ele><time>2026-04-26T08:24:58.001Z</time></trkpt><trkpt lat="43.5471948435601" lon="12.313902482635697"><ele>905.0000000000001</ele><time>2026-04-26T08:25:00.001Z</time></trkpt><trkpt lat="43.547248330237665" lon="12.313952145834286"><ele>905.0</ele><time>2026-04-26T08:25:02.001Z</time></trkpt><trkpt lat="43.54716380940516" lon="12.313841793904137"><ele>905.0</ele><time>2026-04-26T08:25:08.001Z</time></trkpt><trkpt lat="43.54709710921084" lon="12.313849568011976"><ele>905.0</ele><time>2026-04-26T08:25:09.001Z</time></trkpt><trkpt lat="43.546979878495726" lon="12.313837814887439"><ele>905.0000000000001</ele><time>2026-04-26T08:25:11.001Z</time></trkpt><trkpt lat="43.54691556610944" lon="12.31382709113574"><ele>905.0</ele><time>2026-04-26T08:25:12.001Z</time></trkpt><trkpt lat="43.54683908442472" lon="12.313810234721291"><ele>905.0000000000001</ele><time>2026-04-26T08:25:13.001Z</time></trkpt><trkpt lat="43.5467596361072" lon="12.31379410398939"><ele>905.0</ele><time>2026-04-26T08:25:14.001Z</time></trkpt><trkpt lat="43.54668464542796" lon="12.313775298989725"><ele>905.0</ele><time>2026-04-26T08:25:15.001Z</time></trkpt><trkpt lat="43.54659804188998" lon="12.313741726931873"><ele>905.0</ele><time>2026-04-26T08:25:16.001Z</time></trkpt><trkpt lat="43.54652241814076" lon="12.313715527668398"><ele>905.0000000000001</ele><time>2026-04-26T08:25:17.001Z</time></trkpt><trkpt lat="43.54643077393112" lon="12.313687785872446"><ele>905.0</ele><time>2026-04-26T08:25:18.001Z</time></trkpt><trkpt lat="43.546341830760376" lon="12.313669314033135"><ele>905.0000000000001</ele><time>2026-04-26T08:25:19.001Z</time></trkpt><trkpt lat="43.54625867485806" lon="12.313678299250478"><ele>905.0</ele><time>2026-04-26T08:25:20.002Z</time></trkpt><trkpt lat="43.5461841473276" lon="12.313694115526562"><ele>905.0</ele><time>2026-04-26T08:25:21.002Z</time></trkpt><trkpt lat="43.54611953489319" lon="12.313733715681115"><ele>905.0</ele><time>2026-04-26T08:25:22.002Z</time></trkpt><trkpt lat="43.54605744966617" lon="12.313798374745817"><ele>905.0000000000001</ele><time>2026-04-26T08:25:23.002Z</time></trkpt><trkpt lat="43.54598660171701" lon="12.313857957875825"><ele>905.0</ele><time>2026-04-26T08:25:24.002Z</time></trkpt><trkpt lat="43.54590968177381" lon="12.313886964773449"><ele>905.1666666666667</ele><time>2026-04-26T08:25:25.002Z</time></trkpt><trkpt lat="43.54583280596454" lon="12.313909376226864"><ele>905.3333333333334</ele><time>2026-04-26T08:25:26.002Z</time></trkpt><trkpt lat="43.54575362963714" lon="12.313912072636054"><ele>905.5</ele><time>2026-04-26T08:25:27.002Z</time></trkpt><trkpt lat="43.54568219984213" lon="12.313899469579422"><ele>905.6666666666667</ele><time>2026-04-26T08:25:28.002Z</time></trkpt><trkpt lat="43.54560453328515" lon="12.313912445207146"><ele>905.8333333333334</ele><time>2026-04-26T08:25:29.002Z</time></trkpt><trkpt lat="43.545526091663305" lon="12.31394662181473"><ele>906.0</ele><time>2026-04-26T08:25:30.002Z</time></trkpt><trkpt lat="43.54545039266641" lon="12.313981140839324"><ele>909.1999999999999</ele><time>2026-04-26T08:25:31.002Z</time></trkpt><trkpt lat="43.54537497655973" lon="12.314014704621613"><ele>912.3999999999999</ele><time>2026-04-26T08:25:32.002Z</time></trkpt><trkpt lat="43.54530322905159" lon="12.314029837403439"><ele>915.6</ele><time>2026-04-26T08:25:33.002Z</time></trkpt><trkpt lat="43.54519172226128" lon="12.313990071832702"><ele>918.8</ele><time>2026-04-26T08:25:35.001Z</time></trkpt><trkpt lat="43.545094559146115" lon="12.313953231429105"><ele>922.0</ele><time>2026-04-26T08:25:37.001Z</time></trkpt><trkpt lat="43.544975426118725" lon="12.313899246978254"><ele>922.0</ele><time>2026-04-26T08:25:39.001Z</time></trkpt><trkpt lat="43.544909259319546" lon="12.313851410097273"><ele>922.0000000000001</ele><time>2026-04-26T08:25:40.001Z</time></trkpt><trkpt lat="43.54484908760705" lon="12.313809752107128"><ele>922.0</ele><time>2026-04-26T08:25:41.001Z</time></trkpt><trkpt lat="43.54479138773232" lon="12.313764281420104"><ele>922.0</ele><time>2026-04-26T08:25:42.001Z</time></trkpt><trkpt lat="43.54472043566593" lon="12.31372572979838"><ele>922.0000000000001</ele><time>2026-04-26T08:25:43.001Z</time></trkpt><trkpt lat="43.54465009098641" lon="12.313691401541371"><ele>922.0</ele><time>2026-04-26T08:25:44.001Z</time></trkpt><trkpt lat="43.544583686441875" lon="12.313645015346646"><ele>922.0</ele><time>2026-04-26T08:25:45.001Z</time></trkpt><trkpt lat="43.54446755793461" lon="12.313577020674135"><ele>920.8333333333333</ele><time>2026-04-26T08:25:47.001Z</time></trkpt><trkpt lat="43.54440638566055" lon="12.313538244268267"><ele>919.6666666666666</ele><time>2026-04-26T08:25:48.001Z</time></trkpt><trkpt lat="43.544346082836164" lon="12.313501519065278"><ele>918.5</ele><time>2026-04-26T08:25:49.001Z</time></trkpt><trkpt lat="43.54428776588361" lon="12.31346605643448"><ele>917.3333333333333</ele><time>2026-04-26T08:25:50.001Z</time></trkpt><trkpt lat="43.54417481737169" lon="12.313411941577298"><ele>916.1666666666666</ele><time>2026-04-26T08:25:52.001Z</time></trkpt><trkpt lat="43.54409306217737" lon="12.313356174144108"><ele>915.0</ele><time>2026-04-26T08:25:54.001Z</time></trkpt><trkpt lat="43.54400181117619" lon="12.313269800464173"><ele>915.0</ele><time>2026-04-26T08:25:56.001Z</time></trkpt><trkpt lat="43.543942861376834" lon="12.313147180269345"><ele>915.0</ele><time>2026-04-26T08:25:58.001Z</time></trkpt><trkpt lat="43.54389178564442" lon="12.313016720865955"><ele>915.0</ele><time>2026-04-26T08:26:00.001Z</time></trkpt><trkpt lat="43.54382731178368" lon="12.312883179513902"><ele>915.0</ele><time>2026-04-26T08:26:02.001Z</time></trkpt><trkpt lat="43.54377620480643" lon="12.31275984951541"><ele>915.0</ele><time>2026-04-26T08:26:04.001Z</time></trkpt><trkpt lat="43.54371078983098" lon="12.312674783580153"><ele>912.0</ele><time>2026-04-26T08:26:06.001Z</time></trkpt><trkpt lat="43.54364711983048" lon="12.3126578365536"><ele>909.0</ele><time>2026-04-26T08:26:07.001Z</time></trkpt><trkpt lat="43.54359136210104" lon="12.312704374297137"><ele>906.0</ele><time>2026-04-26T08:26:08.001Z</time></trkpt><trkpt lat="43.54353585506234" lon="12.312757919814143"><ele>903.0</ele><time>2026-04-26T08:26:09.001Z</time></trkpt><trkpt lat="43.543442959212484" lon="12.312880390817483"><ele>900.0</ele><time>2026-04-26T08:26:11.001Z</time></trkpt><trkpt lat="43.54334361593227" lon="12.312991605713615"><ele>900.0</ele><time>2026-04-26T08:26:13.001Z</time></trkpt><trkpt lat="43.54328829884381" lon="12.313058566382615"><ele>900.0</ele><time>2026-04-26T08:26:14.001Z</time></trkpt><trkpt lat="43.54323538976185" lon="12.313117835725576"><ele>900.0</ele><time>2026-04-26T08:26:15.001Z</time></trkpt><trkpt lat="43.54318878680325" lon="12.31318554458426"><ele>900.0</ele><time>2026-04-26T08:26:16.001Z</time></trkpt><trkpt lat="43.54314234140848" lon="12.313253919066554"><ele>900.0</ele><time>2026-04-26T08:26:17.001Z</time></trkpt><trkpt lat="43.54309340561515" lon="12.313326509609055"><ele>900.0</ele><time>2026-04-26T08:26:18.001Z</time></trkpt><trkpt lat="43.54300904872341" lon="12.313440129814436"><ele>897.6</ele><time>2026-04-26T08:26:20.001Z</time></trkpt><trkpt lat="43.54296629394332" lon="12.313507404908762"><ele>895.2</ele><time>2026-04-26T08:26:21.001Z</time></trkpt><trkpt lat="43.5428977641612" lon="12.313616557954251"><ele>892.8</ele><time>2026-04-26T08:26:23.001Z</time></trkpt><trkpt lat="43.542821936075335" lon="12.313712038225317"><ele>890.4</ele><time>2026-04-26T08:26:25.001Z</time></trkpt><trkpt lat="43.54273614632054" lon="12.313745576719807"><ele>888.0</ele><time>2026-04-26T08:26:27.001Z</time></trkpt><trkpt lat="43.54265493497199" lon="12.313673436272273"><ele>884.8333333333334</ele><time>2026-04-26T08:26:29.001Z</time></trkpt><trkpt lat="43.54262608692217" lon="12.313546388300068"><ele>881.6666666666667</ele><time>2026-04-26T08:26:31.001Z</time></trkpt><trkpt lat="43.542620869854254" lon="12.3134297148803"><ele>878.5</ele><time>2026-04-26T08:26:33.001Z</time></trkpt><trkpt lat="43.542600540839004" lon="12.313316173611106"><ele>875.3333333333334</ele><time>2026-04-26T08:26:35.001Z</time></trkpt><trkpt lat="43.54256233127802" lon="12.31320806142603"><ele>872.1666666666667</ele><time>2026-04-26T08:26:37.001Z</time></trkpt><trkpt lat="43.54250674019272" lon="12.313132054794448"><ele>869.0</ele><time>2026-04-26T08:26:39.001Z</time></trkpt><trkpt lat="43.54243148131473" lon="12.313130256390986"><ele>869.0000000000001</ele><time>2026-04-26T08:26:41.001Z</time></trkpt><trkpt lat="43.542383045064774" lon="12.313231202265685"><ele>869.0</ele><time>2026-04-26T08:26:43.001Z</time></trkpt><trkpt lat="43.542367773233806" lon="12.313364774171863"><ele>869.0</ele><time>2026-04-26T08:26:45.001Z</time></trkpt><trkpt lat="43.542346456288165" lon="12.313488886296007"><ele>869.0</ele><time>2026-04-26T08:26:47.001Z</time></trkpt><trkpt lat="43.54229565353737" lon="12.31357759351447"><ele>869.0000000000001</ele><time>2026-04-26T08:26:49.001Z</time></trkpt><trkpt lat="43.54224779511452" lon="12.313640054534988"><ele>869.0</ele><time>2026-04-26T08:26:51.001Z</time></trkpt><trkpt lat="43.54218516320737" lon="12.3136213861725"><ele>869.0000000000001</ele><time>2026-04-26T08:26:55.001Z</time></trkpt><trkpt lat="43.54220734447623" lon="12.31347110837403"><ele>869.0</ele><time>2026-04-26T08:26:58.001Z</time></trkpt><trkpt lat="43.54223512749152" lon="12.313378093574673"><ele>869.0</ele><time>2026-04-26T08:26:59.001Z</time></trkpt><trkpt lat="43.542246407010104" lon="12.313287601535619"><ele>869.0</ele><time>2026-04-26T08:27:00.001Z</time></trkpt><trkpt lat="43.54221842900268" lon="12.313119627176489"><ele>869.0000000000001</ele><time>2026-04-26T08:27:02.001Z</time></trkpt><trkpt lat="43.542203176837276" lon="12.313033785681501"><ele>869.0</ele><time>2026-04-26T08:27:03.001Z</time></trkpt><trkpt lat="43.542176778089754" lon="12.312858949643104"><ele>869.7142857142858</ele><time>2026-04-26T08:27:05.001Z</time></trkpt><trkpt lat="43.54215478039514" lon="12.312765641682544"><ele>870.4285714285713</ele><time>2026-04-26T08:27:06.001Z</time></trkpt><trkpt lat="43.542127474642" lon="12.312678960678541"><ele>871.1428571428571</ele><time>2026-04-26T08:27:07.001Z</time></trkpt><trkpt lat="43.542099654559934" lon="12.31259012662444"><ele>871.8571428571429</ele><time>2026-04-26T08:27:08.001Z</time></trkpt><trkpt lat="43.54206651055727" lon="12.31249978877156"><ele>872.5714285714287</ele><time>2026-04-26T08:27:09.001Z</time></trkpt><trkpt lat="43.542026926762595" lon="12.312402372189084"><ele>873.2857142857142</ele><time>2026-04-26T08:27:10.001Z</time></trkpt><trkpt lat="43.541995178038825" lon="12.312317840960493"><ele>874.0</ele><time>2026-04-26T08:27:11.001Z</time></trkpt><trkpt lat="43.54196536738164" lon="12.312234717759898"><ele>867.4000000000001</ele><time>2026-04-26T08:27:12.001Z</time></trkpt><trkpt lat="43.54192268093159" lon="12.312083672480975"><ele>860.8000000000001</ele><time>2026-04-26T08:27:14.001Z</time></trkpt><trkpt lat="43.541887369306046" lon="12.311944927877263"><ele>854.2</ele><time>2026-04-26T08:27:16.001Z</time></trkpt><trkpt lat="43.54188098597375" lon="12.311777318752588"><ele>847.5999999999999</ele><time>2026-04-26T08:27:18.001Z</time></trkpt><trkpt lat="43.54186472771126" lon="12.311670689805716"><ele>841.0</ele><time>2026-04-26T08:27:19.001Z</time></trkpt><trkpt lat="43.54184637851128" lon="12.311561869291129"><ele>840.9999999999999</ele><time>2026-04-26T08:27:20.001Z</time></trkpt><trkpt lat="43.541846335333084" lon="12.311453512710639"><ele>841.0</ele><time>2026-04-26T08:27:21.001Z</time></trkpt><trkpt lat="43.54185049650203" lon="12.311358908987906"><ele>841.0</ele><time>2026-04-26T08:27:22.001Z</time></trkpt><trkpt lat="43.541863029400105" lon="12.311253118955394"><ele>841.0</ele><time>2026-04-26T08:27:23.001Z</time></trkpt><trkpt lat="43.54188633311754" lon="12.311153197402783"><ele>840.9999999999999</ele><time>2026-04-26T08:27:24.001Z</time></trkpt><trkpt lat="43.541914353269746" lon="12.31105279702229"><ele>841.0</ele><time>2026-04-26T08:27:25.001Z</time></trkpt><trkpt lat="43.5419320838164" lon="12.310952253334031"><ele>841.1666666666666</ele><time>2026-04-26T08:27:26.001Z</time></trkpt><trkpt lat="43.54194805542932" lon="12.310849701029923"><ele>841.3333333333333</ele><time>2026-04-26T08:27:27.001Z</time></trkpt><trkpt lat="43.54194664027132" lon="12.31073984724434"><ele>841.5</ele><time>2026-04-26T08:27:28.001Z</time></trkpt><trkpt lat="43.54194229859675" lon="12.310640506758817"><ele>841.6666666666667</ele><time>2026-04-26T08:27:29.001Z</time></trkpt><trkpt lat="43.541924216211775" lon="12.310519962567005"><ele>841.8333333333334</ele><time>2026-04-26T08:27:30.001Z</time></trkpt><trkpt lat="43.541905760242315" lon="12.310403056558238"><ele>842.0</ele><time>2026-04-26T08:27:31.001Z</time></trkpt><trkpt lat="43.54186820582719" lon="12.310298063247618"><ele>843.2</ele><time>2026-04-26T08:27:32.001Z</time></trkpt><trkpt lat="43.54182974909731" lon="12.310219190211196"><ele>844.4000000000001</ele><time>2026-04-26T08:27:33.001Z</time></trkpt><trkpt lat="43.541785034103626" lon="12.310146402801374"><ele>845.5999999999999</ele><time>2026-04-26T08:27:34.002Z</time></trkpt><trkpt lat="43.5417271410376" lon="12.310064204134095"><ele>846.8</ele><time>2026-04-26T08:27:35.002Z</time></trkpt><trkpt lat="43.541690319264276" lon="12.309919250415438"><ele>848.0</ele><time>2026-04-26T08:27:37.002Z</time></trkpt><trkpt lat="43.54167390390471" lon="12.309753558927952"><ele>849.6666666666667</ele><time>2026-04-26T08:27:39.002Z</time></trkpt><trkpt lat="43.541628780150916" lon="12.309635891998205"><ele>851.3333333333334</ele><time>2026-04-26T08:27:41.001Z</time></trkpt><trkpt lat="43.54159384879858" lon="12.309562384983549"><ele>853.0</ele><time>2026-04-26T08:27:42.001Z</time></trkpt><trkpt lat="43.541554147431036" lon="12.30939648148396"><ele>854.6666666666667</ele><time>2026-04-26T08:27:44.001Z</time></trkpt><trkpt lat="43.54152310202464" lon="12.309298033176763"><ele>856.3333333333334</ele><time>2026-04-26T08:27:45.001Z</time></trkpt><trkpt lat="43.54149592386931" lon="12.309194758585456"><ele>858.0</ele><time>2026-04-26T08:27:46.001Z</time></trkpt><trkpt lat="43.541469851948904" lon="12.309101100002103"><ele>858.0</ele><time>2026-04-26T08:27:47.001Z</time></trkpt><trkpt lat="43.54140898926074" lon="12.308948002478441"><ele>858.0</ele><time>2026-04-26T08:27:49.001Z</time></trkpt><trkpt lat="43.54137103415714" lon="12.308867090971642"><ele>858.0</ele><time>2026-04-26T08:27:50.001Z</time></trkpt><trkpt lat="43.541302928896485" lon="12.30875118753759"><ele>858.0</ele><time>2026-04-26T08:27:52.001Z</time></trkpt><trkpt lat="43.541251218128174" lon="12.308677807177677"><ele>858.0</ele><time>2026-04-26T08:27:53.001Z</time></trkpt><trkpt lat="43.54118708397125" lon="12.308619227626865"><ele>856.3333333333334</ele><time>2026-04-26T08:27:54.001Z</time></trkpt><trkpt lat="43.54112043215443" lon="12.308542579975036"><ele>854.6666666666667</ele><time>2026-04-26T08:27:55.001Z</time></trkpt><trkpt lat="43.54106064094092" lon="12.30845220616755"><ele>853.0</ele><time>2026-04-26T08:27:56.001Z</time></trkpt><trkpt lat="43.54100667131062" lon="12.308361850368263"><ele>851.3333333333334</ele><time>2026-04-26T08:27:57.001Z</time></trkpt><trkpt lat="43.540966896778166" lon="12.308268524177617"><ele>849.6666666666667</ele><time>2026-04-26T08:27:58.001Z</time></trkpt><trkpt lat="43.540950381156044" lon="12.30817286017754"><ele>848.0</ele><time>2026-04-26T08:27:59.001Z</time></trkpt><trkpt lat="43.540933227753406" lon="12.30808683486345"><ele>848.6666666666667</ele><time>2026-04-26T08:28:00.001Z</time></trkpt><trkpt lat="43.54090532709105" lon="12.30799941573763"><ele>849.3333333333334</ele><time>2026-04-26T08:28:01.001Z</time></trkpt><trkpt lat="43.54086681265564" lon="12.307926679114297"><ele>850.0</ele><time>2026-04-26T08:28:02.001Z</time></trkpt><trkpt lat="43.5408210282014" lon="12.307863007472724"><ele>850.6666666666667</ele><time>2026-04-26T08:28:03.001Z</time></trkpt><trkpt lat="43.54074794117972" lon="12.307732418783143"><ele>851.3333333333334</ele><time>2026-04-26T08:28:05.001Z</time></trkpt><trkpt lat="43.5406918166884" lon="12.307584572715621"><ele>852.0</ele><time>2026-04-26T08:28:07.001Z</time></trkpt><trkpt lat="43.540657231417846" lon="12.307428992262619"><ele>852.0</ele><time>2026-04-26T08:28:09.001Z</time></trkpt><trkpt lat="43.54063038796781" lon="12.307287387574323"><ele>852.0</ele><time>2026-04-26T08:28:11.001Z</time></trkpt><trkpt lat="43.540592854942865" lon="12.307146526350328"><ele>852.0</ele><time>2026-04-26T08:28:13.001Z</time></trkpt><trkpt lat="43.54052588353288" lon="12.307030687980127"><ele>852.0</ele><time>2026-04-26T08:28:15.001Z</time></trkpt><trkpt lat="43.5404763728905" lon="12.306935306760368"><ele>852.0</ele><time>2026-04-26T08:28:17.001Z</time></trkpt><trkpt lat="43.540433809082934" lon="12.306779356261162"><ele>850.5</ele><time>2026-04-26T08:28:19.001Z</time></trkpt><trkpt lat="43.540397899513266" lon="12.306687202853219"><ele>849.0</ele><time>2026-04-26T08:28:20.001Z</time></trkpt><trkpt lat="43.54036377241412" lon="12.306608766913229"><ele>847.5</ele><time>2026-04-26T08:28:21.001Z</time></trkpt><trkpt lat="43.54032793791842" lon="12.306526952395899"><ele>846.0</ele><time>2026-04-26T08:28:22.001Z</time></trkpt><trkpt lat="43.540288795411534" lon="12.30638263055999"><ele>844.5</ele><time>2026-04-26T08:28:24.001Z</time></trkpt><trkpt lat="43.540261691574344" lon="12.306241525013819"><ele>843.0</ele><time>2026-04-26T08:28:26.001Z</time></trkpt><trkpt lat="43.540246580912616" lon="12.306149801271975"><ele>841.4</ele><time>2026-04-26T08:28:27.001Z</time></trkpt><trkpt lat="43.54023073332674" lon="12.306061640137651"><ele>839.8</ele><time>2026-04-26T08:28:28.001Z</time></trkpt><trkpt lat="43.540201050065825" lon="12.305927745282546"><ele>838.2</ele><time>2026-04-26T08:28:30.001Z</time></trkpt><trkpt lat="43.54016190683907" lon="12.305792801628984"><ele>836.6</ele><time>2026-04-26T08:28:32.001Z</time></trkpt><trkpt lat="43.5401021239326" lon="12.30564979273308"><ele>835.0</ele><time>2026-04-26T08:28:34.001Z</time></trkpt><trkpt lat="43.540057214359294" lon="12.305572407378826"><ele>833.6</ele><time>2026-04-26T08:28:35.001Z</time></trkpt><trkpt lat="43.539974027375365" lon="12.305434028826863"><ele>832.2</ele><time>2026-04-26T08:28:37.001Z</time></trkpt><trkpt lat="43.53992997812714" lon="12.305358485831638"><ele>830.8</ele><time>2026-04-26T08:28:38.001Z</time></trkpt><trkpt lat="43.539877728892954" lon="12.30523506968125"><ele>829.4</ele><time>2026-04-26T08:28:40.001Z</time></trkpt><trkpt lat="43.53986001827016" lon="12.305127065708435"><ele>828.0</ele><time>2026-04-26T08:28:42.001Z</time></trkpt><trkpt lat="43.539830038997195" lon="12.304960163538425"><ele>828.0</ele><time>2026-04-26T08:33:27.001Z</time></trkpt><trkpt lat="43.53978180057584" lon="12.304810225308346"><ele>828.0</ele><time>2026-04-26T08:33:29.001Z</time></trkpt><trkpt lat="43.53975073605019" lon="12.304730891573755"><ele>828.0</ele><time>2026-04-26T08:33:30.001Z</time></trkpt><trkpt lat="43.539717717840965" lon="12.304656596396423"><ele>828.0</ele><time>2026-04-26T08:33:31.001Z</time></trkpt><trkpt lat="43.53963858558278" lon="12.304530908302915"><ele>828.0</ele><time>2026-04-26T08:33:33.001Z</time></trkpt><trkpt lat="43.53957881055173" lon="12.304467442794413"><ele>828.0</ele><time>2026-04-26T08:33:34.001Z</time></trkpt><trkpt lat="43.53952709112087" lon="12.304406339901504"><ele>827.2</ele><time>2026-04-26T08:33:35.001Z</time></trkpt><trkpt lat="43.539475749005405" lon="12.304329667952848"><ele>826.4</ele><time>2026-04-26T08:33:36.001Z</time></trkpt><trkpt lat="43.53942940686033" lon="12.30424548496275"><ele>825.6</ele><time>2026-04-26T08:33:37.001Z</time></trkpt><trkpt lat="43.539389594519676" lon="12.304170263630594"><ele>824.8000000000001</ele><time>2026-04-26T08:33:38.001Z</time></trkpt><trkpt lat="43.53930542760184" lon="12.304045829925533"><ele>824.0</ele><time>2026-04-26T08:33:40.001Z</time></trkpt><trkpt lat="43.53926901077324" lon="12.30388091743746"><ele>824.0</ele><time>2026-04-26T08:33:42.001Z</time></trkpt><trkpt lat="43.53924065806938" lon="12.303737798690868"><ele>824.0</ele><time>2026-04-26T08:33:44.001Z</time></trkpt><trkpt lat="43.53918631124931" lon="12.303633434240215"><ele>824.0</ele><time>2026-04-26T08:33:46.001Z</time></trkpt><trkpt lat="43.539138345982934" lon="12.30352791795787"><ele>824.0</ele><time>2026-04-26T08:33:48.001Z</time></trkpt><trkpt lat="43.53910596217492" lon="12.303409791715657"><ele>824.0</ele><time>2026-04-26T08:33:50.001Z</time></trkpt><trkpt lat="43.53905633052501" lon="12.303316272739677"><ele>824.0</ele><time>2026-04-26T08:33:52.001Z</time></trkpt><trkpt lat="43.53899693319466" lon="12.30323035383177"><ele>824.0</ele><time>2026-04-26T08:33:54.001Z</time></trkpt><trkpt lat="43.53895304860542" lon="12.303124332847014"><ele>824.0</ele><time>2026-04-26T08:33:56.001Z</time></trkpt><trkpt lat="43.53887213617627" lon="12.303035616088186"><ele>824.0</ele><time>2026-04-26T08:33:58.001Z</time></trkpt><trkpt lat="43.53879634958206" lon="12.30294729716401"><ele>824.0</ele><time>2026-04-26T08:34:00.001Z</time></trkpt><trkpt lat="43.538728944524735" lon="12.302848876212604"><ele>819.6666666666667</ele><time>2026-04-26T08:34:02.001Z</time></trkpt><trkpt lat="43.53867667767331" lon="12.302723567140628"><ele>815.3333333333334</ele><time>2026-04-26T08:34:04.001Z</time></trkpt><trkpt lat="43.53864006536798" lon="12.302629376362646"><ele>811.0</ele><time>2026-04-26T08:34:06.001Z</time></trkpt><trkpt lat="43.538576573660954" lon="12.302539974647642"><ele>806.6666666666667</ele><time>2026-04-26T08:34:08.001Z</time></trkpt><trkpt lat="43.538516828779144" lon="12.302457285727073"><ele>802.3333333333334</ele><time>2026-04-26T08:34:10.001Z</time></trkpt><trkpt lat="43.53848202906327" lon="12.302359269961077"><ele>798.0</ele><time>2026-04-26T08:34:12.001Z</time></trkpt><trkpt lat="43.538453115721126" lon="12.302270742567599"><ele>795.5</ele><time>2026-04-26T08:34:14.001Z</time></trkpt><trkpt lat="43.5383925406871" lon="12.302158929079477"><ele>793.0</ele><time>2026-04-26T08:34:16.001Z</time></trkpt><trkpt lat="43.53833187443667" lon="12.302054812838579"><ele>790.5</ele><time>2026-04-26T08:34:18.001Z</time></trkpt><trkpt lat="43.53827525727179" lon="12.301951449138313"><ele>788.0</ele><time>2026-04-26T08:34:20.001Z</time></trkpt><trkpt lat="43.53822002018807" lon="12.30190009135506"><ele>785.5</ele><time>2026-04-26T08:34:21.001Z</time></trkpt><trkpt lat="43.53816131732901" lon="12.301862670200403"><ele>783.0</ele><time>2026-04-26T08:34:22.001Z</time></trkpt><trkpt lat="43.53810951339852" lon="12.301811937044615"><ele>783.0</ele><time>2026-04-26T08:34:23.001Z</time></trkpt><trkpt lat="43.53804636542978" lon="12.301678598043551"><ele>783.0</ele><time>2026-04-26T08:34:25.001Z</time></trkpt><trkpt lat="43.53796333050776" lon="12.301550247555337"><ele>783.0</ele><time>2026-04-26T08:34:27.001Z</time></trkpt><trkpt lat="43.5379109931662" lon="12.301487790442234"><ele>783.0</ele><time>2026-04-26T08:34:28Z</time></trkpt><trkpt lat="43.537857963287756" lon="12.301424801328405"><ele>783.0</ele><time>2026-04-26T08:34:29Z</time></trkpt><trkpt lat="43.53781409215769" lon="12.30135905782791"><ele>783.0</ele><time>2026-04-26T08:34:30Z</time></trkpt><trkpt lat="43.53776726165844" lon="12.30128241493452"><ele>781.6666666666666</ele><time>2026-04-26T08:34:31Z</time></trkpt><trkpt lat="43.53772084572357" lon="12.301193770038534"><ele>780.3333333333333</ele><time>2026-04-26T08:34:32Z</time></trkpt><trkpt lat="43.537671719869586" lon="12.301108177582135"><ele>779.0</ele><time>2026-04-26T08:34:33Z</time></trkpt><trkpt lat="43.53761495346791" lon="12.301033447539009"><ele>777.6666666666666</ele><time>2026-04-26T08:34:34Z</time></trkpt><trkpt lat="43.53755095534764" lon="12.30096840649737"><ele>776.3333333333333</ele><time>2026-04-26T08:34:35Z</time></trkpt><trkpt lat="43.53749483409003" lon="12.30091178015911"><ele>775.0</ele><time>2026-04-26T08:34:36Z</time></trkpt><trkpt lat="43.53744397141041" lon="12.300837134078114"><ele>774.9999999999999</ele><time>2026-04-26T08:34:37Z</time></trkpt><trkpt lat="43.537382365197416" lon="12.300770669996828"><ele>775.0</ele><time>2026-04-26T08:34:38Z</time></trkpt><trkpt lat="43.53733127710144" lon="12.300713875335502"><ele>775.0</ele><time>2026-04-26T08:34:39Z</time></trkpt><trkpt lat="43.537272373249664" lon="12.300643293103224"><ele>775.0</ele><time>2026-04-26T08:34:40Z</time></trkpt><trkpt lat="43.53714812325279" lon="12.300535695524287"><ele>774.9999999999999</ele><time>2026-04-26T08:34:42Z</time></trkpt><trkpt lat="43.53708556636323" lon="12.30050280906342"><ele>775.0</ele><time>2026-04-26T08:34:43Z</time></trkpt><trkpt lat="43.53702864596888" lon="12.300452536005745"><ele>773.1666666666666</ele><time>2026-04-26T08:34:44Z</time></trkpt><trkpt lat="43.536973866713055" lon="12.300389057492902"><ele>771.3333333333333</ele><time>2026-04-26T08:34:45Z</time></trkpt><trkpt lat="43.53691735609048" lon="12.30032384454287"><ele>769.5</ele><time>2026-04-26T08:34:46Z</time></trkpt><trkpt lat="43.53686943551876" lon="12.300257281009351"><ele>767.6666666666666</ele><time>2026-04-26T08:34:47Z</time></trkpt><trkpt lat="43.536782896588534" lon="12.300134327440606"><ele>765.8333333333333</ele><time>2026-04-26T08:34:49Z</time></trkpt><trkpt lat="43.53673047954839" lon="12.300046963729232"><ele>764.0</ele><time>2026-04-26T08:34:50Z</time></trkpt><trkpt lat="43.53668357765927" lon="12.299966325240177"><ele>764.0</ele><time>2026-04-26T08:34:51Z</time></trkpt><trkpt lat="43.53661565673481" lon="12.29982754420492"><ele>764.0</ele><time>2026-04-26T08:34:53Z</time></trkpt><trkpt lat="43.536561721360584" lon="12.299713853679114"><ele>764.0</ele><time>2026-04-26T08:34:55Z</time></trkpt><trkpt lat="43.53645689237239" lon="12.299666260425582"><ele>764.0</ele><time>2026-04-26T08:34:57Z</time></trkpt><trkpt lat="43.536401902527736" lon="12.299622145520702"><ele>764.0</ele><time>2026-04-26T08:34:58Z</time></trkpt><trkpt lat="43.53634616241638" lon="12.299547275258748"><ele>762.8333333333333</ele><time>2026-04-26T08:34:59Z</time></trkpt><trkpt lat="43.536304822689814" lon="12.299458544841643"><ele>761.6666666666666</ele><time>2026-04-26T08:35:00Z</time></trkpt><trkpt lat="43.536266548316235" lon="12.299373624312544"><ele>760.5</ele><time>2026-04-26T08:35:01Z</time></trkpt><trkpt lat="43.53622951934238" lon="12.299291946931891"><ele>759.3333333333334</ele><time>2026-04-26T08:35:02Z</time></trkpt><trkpt lat="43.536184471522006" lon="12.299164491003927"><ele>758.1666666666667</ele><time>2026-04-26T08:35:04Z</time></trkpt><trkpt lat="43.53616832802461" lon="12.299047804270785"><ele>757.0</ele><time>2026-04-26T08:35:06Z</time></trkpt><trkpt lat="43.536137456618384" lon="12.298935248511594"><ele>754.6</ele><time>2026-04-26T08:35:08Z</time></trkpt><trkpt lat="43.53607906769346" lon="12.298825038365292"><ele>752.2</ele><time>2026-04-26T08:35:10Z</time></trkpt><trkpt lat="43.536053490583434" lon="12.29867345064847"><ele>749.8</ele><time>2026-04-26T08:35:12Z</time></trkpt><trkpt lat="43.53604057081371" lon="12.298559506317265"><ele>747.4</ele><time>2026-04-26T08:35:14Z</time></trkpt><trkpt lat="43.53601611917523" lon="12.298430142676528"><ele>745.0</ele><time>2026-04-26T08:35:16Z</time></trkpt><trkpt lat="43.53598827233236" lon="12.298326194586485"><ele>745.0</ele><time>2026-04-26T08:35:18Z</time></trkpt><trkpt lat="43.53593015498379" lon="12.298198270544548"><ele>745.0</ele><time>2026-04-26T08:35:20Z</time></trkpt><trkpt lat="43.53589586929177" lon="12.298104806177076"><ele>745.0</ele><time>2026-04-26T08:35:22Z</time></trkpt><trkpt lat="43.53585336998907" lon="12.297995857393879"><ele>745.0</ele><time>2026-04-26T08:35:24Z</time></trkpt><trkpt lat="43.53583043454966" lon="12.29788955330287"><ele>745.0</ele><time>2026-04-26T08:35:26Z</time></trkpt><trkpt lat="43.535762606835306" lon="12.297797979074758"><ele>742.0</ele><time>2026-04-26T08:35:28Z</time></trkpt><trkpt lat="43.535701293300995" lon="12.297722738944584"><ele>739.0</ele><time>2026-04-26T08:35:30Z</time></trkpt><trkpt lat="43.53565081565719" lon="12.297639875645425"><ele>736.0</ele><time>2026-04-26T08:35:32Z</time></trkpt><trkpt lat="43.535573863897" lon="12.297557390876603"><ele>733.0</ele><time>2026-04-26T08:35:34Z</time></trkpt><trkpt lat="43.535510150699274" lon="12.29747699312228"><ele>730.0</ele><time>2026-04-26T08:35:36Z</time></trkpt><trkpt lat="43.53549407012656" lon="12.297341691856788"><ele>727.0</ele><time>2026-04-26T08:35:39Z</time></trkpt><trkpt lat="43.53548512863525" lon="12.29717678214351"><ele>724.3333333333334</ele><time>2026-04-26T08:35:41Z</time></trkpt><trkpt lat="43.53549176877116" lon="12.29705888082581"><ele>721.6666666666667</ele><time>2026-04-26T08:35:42Z</time></trkpt><trkpt lat="43.535501430356256" lon="12.296916590412167"><ele>719.0</ele><time>2026-04-26T08:35:43Z</time></trkpt><trkpt lat="43.53550956125457" lon="12.296794042147786"><ele>716.3333333333334</ele><time>2026-04-26T08:35:44Z</time></trkpt><trkpt lat="43.53552356044903" lon="12.29668675511727"><ele>713.6666666666666</ele><time>2026-04-26T08:35:45Z</time></trkpt><trkpt lat="43.535539818494264" lon="12.296578042179304"><ele>711.0</ele><time>2026-04-26T08:35:46Z</time></trkpt><trkpt lat="43.535531077800606" lon="12.296464766184954"><ele>710.1666666666666</ele><time>2026-04-26T08:35:47Z</time></trkpt><trkpt lat="43.535504843980796" lon="12.29634311519857"><ele>709.3333333333334</ele><time>2026-04-26T08:35:48Z</time></trkpt><trkpt lat="43.53548724967403" lon="12.296207584466252"><ele>708.5</ele><time>2026-04-26T08:35:49Z</time></trkpt><trkpt lat="43.53547344454739" lon="12.296080978512265"><ele>707.6666666666667</ele><time>2026-04-26T08:35:50Z</time></trkpt><trkpt lat="43.535461717546994" lon="12.29597833569987"><ele>706.8333333333334</ele><time>2026-04-26T08:35:51Z</time></trkpt><trkpt lat="43.53544514372537" lon="12.295876063809693"><ele>706.0</ele><time>2026-04-26T08:35:52Z</time></trkpt><trkpt lat="43.53542182940989" lon="12.295776141319829"><ele>706.0</ele><time>2026-04-26T08:35:53Z</time></trkpt><trkpt lat="43.53539132275167" lon="12.295658590504539"><ele>706.0</ele><time>2026-04-26T08:35:54Z</time></trkpt><trkpt lat="43.53536023564471" lon="12.295553073360896"><ele>706.0</ele><time>2026-04-26T08:35:55Z</time></trkpt><trkpt lat="43.53530825720663" lon="12.295390097491541"><ele>706.0</ele><time>2026-04-26T08:35:57Z</time></trkpt><trkpt lat="43.53529377300031" lon="12.295229162212312"><ele>706.0</ele><time>2026-04-26T08:35:59Z</time></trkpt><trkpt lat="43.53528156490466" lon="12.29505281482144"><ele>706.1999999999999</ele><time>2026-04-26T08:36:01Z</time></trkpt><trkpt lat="43.53525992180587" lon="12.294968375892177"><ele>706.4</ele><time>2026-04-26T08:36:02Z</time></trkpt><trkpt lat="43.53520017756687" lon="12.294845054558786"><ele>706.6</ele><time>2026-04-26T08:36:03.999Z</time></trkpt><trkpt lat="43.535156003416965" lon="12.2947144425483"><ele>706.8</ele><time>2026-04-26T08:36:05.999Z</time></trkpt><trkpt lat="43.53512309731278" lon="12.294555952632814"><ele>707.0</ele><time>2026-04-26T08:36:07.999Z</time></trkpt><trkpt lat="43.53509486610548" lon="12.294465627526092"><ele>705.0</ele><time>2026-04-26T08:36:08.999Z</time></trkpt><trkpt lat="43.5350405236049" lon="12.294338741323791"><ele>703.0</ele><time>2026-04-26T08:36:10.999Z</time></trkpt><trkpt lat="43.534997310522044" lon="12.294188587521433"><ele>701.0</ele><time>2026-04-26T08:36:12.999Z</time></trkpt><trkpt lat="43.534964395744105" lon="12.294112773022606"><ele>699.0</ele><time>2026-04-26T08:36:13.999Z</time></trkpt><trkpt lat="43.534942643738155" lon="12.294016473263275"><ele>697.0</ele><time>2026-04-26T08:36:14.999Z</time></trkpt><trkpt lat="43.53492654728309" lon="12.29391995092044"><ele>695.0</ele><time>2026-04-26T08:36:15.999Z</time></trkpt><trkpt lat="43.53492326103767" lon="12.293804063248848"><ele>692.6666666666666</ele><time>2026-04-26T08:36:16.999Z</time></trkpt><trkpt lat="43.53491916122225" lon="12.293672896422475"><ele>690.3333333333333</ele><time>2026-04-26T08:36:17.999Z</time></trkpt><trkpt lat="43.53491263349283" lon="12.29354211981778"><ele>688.0</ele><time>2026-04-26T08:36:18.999Z</time></trkpt><trkpt lat="43.53490772161034" lon="12.29342045362257"><ele>685.6666666666666</ele><time>2026-04-26T08:36:19.999Z</time></trkpt><trkpt lat="43.534903444020316" lon="12.293309822574466"><ele>683.3333333333334</ele><time>2026-04-26T08:36:20.999Z</time></trkpt><trkpt lat="43.53488770720978" lon="12.293193539935995"><ele>681.0</ele><time>2026-04-26T08:36:21.999Z</time></trkpt><trkpt lat="43.534858157502114" lon="12.293093182985569"><ele>679.8333333333334</ele><time>2026-04-26T08:36:22.999Z</time></trkpt><trkpt lat="43.534812817616896" lon="12.29298493292146"><ele>678.6666666666666</ele><time>2026-04-26T08:36:23.999Z</time></trkpt><trkpt lat="43.53476733278313" lon="12.292893792318745"><ele>677.5</ele><time>2026-04-26T08:36:24.999Z</time></trkpt><trkpt lat="43.53472993042068" lon="12.292817109037276"><ele>676.3333333333333</ele><time>2026-04-26T08:36:25.999Z</time></trkpt><trkpt lat="43.53470958547413" lon="12.292659989585092"><ele>675.1666666666666</ele><time>2026-04-26T08:36:27.999Z</time></trkpt><trkpt lat="43.53471764990425" lon="12.292564074157221"><ele>674.0</ele><time>2026-04-26T08:36:28.999Z</time></trkpt><trkpt lat="43.53471566558672" lon="12.292449029168832"><ele>674.0</ele><time>2026-04-26T08:36:29.999Z</time></trkpt><trkpt lat="43.53468977379815" lon="12.292357577276434"><ele>674.0</ele><time>2026-04-26T08:36:30.999Z</time></trkpt><trkpt lat="43.534640978213936" lon="12.292280310524538"><ele>674.0</ele><time>2026-04-26T08:36:31.999Z</time></trkpt><trkpt lat="43.53457357754658" lon="12.292176601363412"><ele>674.0</ele><time>2026-04-26T08:36:33.999Z</time></trkpt><trkpt lat="43.53455322726187" lon="12.292056086820779"><ele>674.0</ele><time>2026-04-26T08:36:36Z</time></trkpt><trkpt lat="43.534528713123095" lon="12.291888195178666"><ele>670.6</ele><time>2026-04-26T08:36:38Z</time></trkpt><trkpt lat="43.53448190065254" lon="12.291721129964802"><ele>667.2</ele><time>2026-04-26T08:36:40Z</time></trkpt><trkpt lat="43.53444107990892" lon="12.29164707422732"><ele>663.8000000000001</ele><time>2026-04-26T08:36:41Z</time></trkpt><trkpt lat="43.534394934016994" lon="12.291578037681742"><ele>660.4000000000001</ele><time>2026-04-26T08:36:42Z</time></trkpt><trkpt lat="43.53435421555639" lon="12.291499701514137"><ele>657.0</ele><time>2026-04-26T08:36:43Z</time></trkpt><trkpt lat="43.53427687288439" lon="12.291341790228637"><ele>657.0</ele><time>2026-04-26T08:36:45Z</time></trkpt><trkpt lat="43.53422687107137" lon="12.29127949249412"><ele>657.0</ele><time>2026-04-26T08:36:46Z</time></trkpt><trkpt lat="43.534162262296" lon="12.291218017034645"><ele>657.0</ele><time>2026-04-26T08:36:47Z</time></trkpt><trkpt lat="43.5341073715716" lon="12.291167542295529"><ele>657.0</ele><time>2026-04-26T08:36:48Z</time></trkpt><trkpt lat="43.53402744862138" lon="12.291057357341545"><ele>657.0</ele><time>2026-04-26T08:36:50Z</time></trkpt><trkpt lat="43.53396378518054" lon="12.290935330249388"><ele>657.0</ele><time>2026-04-26T08:36:52Z</time></trkpt><trkpt lat="43.53389518683141" lon="12.290854924073841"><ele>657.0</ele><time>2026-04-26T08:36:54Z</time></trkpt><trkpt lat="43.5338525508799" lon="12.290779538235169"><ele>657.0</ele><time>2026-04-26T08:36:56Z</time></trkpt><trkpt lat="43.53383605008071" lon="12.290622567691488"><ele>657.0</ele><time>2026-04-26T08:36:58Z</time></trkpt><trkpt lat="43.533815884533134" lon="12.29044653552882"><ele>657.0</ele><time>2026-04-26T08:37:00Z</time></trkpt><trkpt lat="43.53381583178517" lon="12.290355656869403"><ele>657.0</ele><time>2026-04-26T08:37:01Z</time></trkpt><trkpt lat="43.53382498313714" lon="12.29024452973279"><ele>656.1428571428571</ele><time>2026-04-26T08:37:02Z</time></trkpt><trkpt lat="43.533833214697914" lon="12.290152045968183"><ele>655.2857142857143</ele><time>2026-04-26T08:37:03Z</time></trkpt><trkpt lat="43.53383482787667" lon="12.290058627429557"><ele>654.4285714285714</ele><time>2026-04-26T08:37:04Z</time></trkpt><trkpt lat="43.533832156255286" lon="12.289969489965603"><ele>653.5714285714286</ele><time>2026-04-26T08:37:05Z</time></trkpt><trkpt lat="43.53382288134151" lon="12.289878786554965"><ele>652.7142857142858</ele><time>2026-04-26T08:37:06Z</time></trkpt><trkpt lat="43.533808566639586" lon="12.289785583861764"><ele>651.8571428571429</ele><time>2026-04-26T08:37:07Z</time></trkpt><trkpt lat="43.53377825801891" lon="12.28970055643084"><ele>651.0</ele><time>2026-04-26T08:37:08Z</time></trkpt><trkpt lat="43.53375495401528" lon="12.289613757944673"><ele>648.8333333333334</ele><time>2026-04-26T08:37:09Z</time></trkpt><trkpt lat="43.53374305490348" lon="12.289525641141651"><ele>646.6666666666666</ele><time>2026-04-26T08:37:10Z</time></trkpt><trkpt lat="43.53373030168153" lon="12.289353435295329"><ele>644.5</ele><time>2026-04-26T08:37:12Z</time></trkpt><trkpt lat="43.53372346550265" lon="12.289263832097125"><ele>642.3333333333333</ele><time>2026-04-26T08:37:13Z</time></trkpt><trkpt lat="43.5337078431034" lon="12.289121908491444"><ele>640.1666666666666</ele><time>2026-04-26T08:37:15Z</time></trkpt><trkpt lat="43.53367644675994" lon="12.2890397011782"><ele>638.0</ele><time>2026-04-26T08:37:16Z</time></trkpt><trkpt lat="43.53363617334646" lon="12.288967758601952"><ele>635.1999999999999</ele><time>2026-04-26T08:37:17Z</time></trkpt><trkpt lat="43.53355117758022" lon="12.288852521223596"><ele>632.4</ele><time>2026-04-26T08:37:19Z</time></trkpt><trkpt lat="43.533488657690114" lon="12.28871245226379"><ele>629.5999999999999</ele><time>2026-04-26T08:37:21Z</time></trkpt><trkpt lat="43.53347835844768" lon="12.28861121127508"><ele>626.8</ele><time>2026-04-26T08:37:22Z</time></trkpt><trkpt lat="43.5334682397567" lon="12.28850607605438"><ele>624.0</ele><time>2026-04-26T08:37:23Z</time></trkpt><trkpt lat="43.53344306392022" lon="12.288419887259423"><ele>624.0</ele><time>2026-04-26T08:37:24Z</time></trkpt><trkpt lat="43.53337162637794" lon="12.288307046615564"><ele>624.0</ele><time>2026-04-26T08:37:26Z</time></trkpt><trkpt lat="43.53329850588356" lon="12.288195904069296"><ele>624.0</ele><time>2026-04-26T08:37:28Z</time></trkpt><trkpt lat="43.5332393921946" lon="12.288089081772304"><ele>624.0</ele><time>2026-04-26T08:37:30Z</time></trkpt><trkpt lat="43.53319483078932" lon="12.287943775813462"><ele>624.0</ele><time>2026-04-26T08:37:32Z</time></trkpt><trkpt lat="43.53316920230712" lon="12.287862072283003"><ele>621.3333333333334</ele><time>2026-04-26T08:37:33Z</time></trkpt><trkpt lat="43.53314616519962" lon="12.2877798014256"><ele>618.6666666666666</ele><time>2026-04-26T08:37:34Z</time></trkpt><trkpt lat="43.53311387025269" lon="12.287700888593394"><ele>616.0</ele><time>2026-04-26T08:37:35Z</time></trkpt><trkpt lat="43.533055021989185" lon="12.287583336898072"><ele>613.3333333333333</ele><time>2026-04-26T08:37:37Z</time></trkpt><trkpt lat="43.5329929297977" lon="12.287491270277284"><ele>610.6666666666666</ele><time>2026-04-26T08:37:39Z</time></trkpt><trkpt lat="43.53295492914149" lon="12.287400729657982"><ele>608.0</ele><time>2026-04-26T08:37:41Z</time></trkpt><trkpt lat="43.53301225073998" lon="12.287313132690542"><ele>608.0</ele><time>2026-04-26T08:37:43Z</time></trkpt><trkpt lat="43.53308171914124" lon="12.28724068483501"><ele>608.0</ele><time>2026-04-26T08:37:45Z</time></trkpt><trkpt lat="43.5331788984586" lon="12.287263186154"><ele>608.0</ele><time>2026-04-26T08:37:47Z</time></trkpt><trkpt lat="43.533297585590944" lon="12.287299479513587"><ele>608.0</ele><time>2026-04-26T08:37:48.999Z</time></trkpt><trkpt lat="43.53341725765558" lon="12.2873045842427"><ele>608.0</ele><time>2026-04-26T08:37:50.999Z</time></trkpt><trkpt lat="43.53353451369385" lon="12.287326575282622"><ele>608.0</ele><time>2026-04-26T08:37:52.999Z</time></trkpt><trkpt lat="43.53361624803993" lon="12.287333254378359"><ele>608.0</ele><time>2026-04-26T08:37:54.999Z</time></trkpt><trkpt lat="43.53370999681943" lon="12.287262007479214"><ele>608.0</ele><time>2026-04-26T08:37:56.999Z</time></trkpt><trkpt lat="43.53377786638425" lon="12.287137185539768"><ele>608.0</ele><time>2026-04-26T08:37:58.999Z</time></trkpt><trkpt lat="43.5337988572239" lon="12.286974335755529"><ele>608.0</ele><time>2026-04-26T08:38:00.999Z</time></trkpt><trkpt lat="43.533792746505476" lon="12.286830292746348"><ele>601.4</ele><time>2026-04-26T08:38:02.999Z</time></trkpt><trkpt lat="43.53383713073534" lon="12.286703816880323"><ele>594.8</ele><time>2026-04-26T08:38:04.999Z</time></trkpt><trkpt lat="43.533912295453845" lon="12.286587847062886"><ele>588.2</ele><time>2026-04-26T08:38:06.999Z</time></trkpt><trkpt lat="43.53398206732373" lon="12.286471919835018"><ele>581.6</ele><time>2026-04-26T08:38:08.999Z</time></trkpt><trkpt lat="43.5340543405334" lon="12.286375978009051"><ele>575.0</ele><time>2026-04-26T08:38:10.999Z</time></trkpt><trkpt lat="43.53415283426137" lon="12.286386997136557"><ele>573.6666666666666</ele><time>2026-04-26T08:38:12.999Z</time></trkpt><trkpt lat="43.53423635760221" lon="12.286336413183172"><ele>572.3333333333333</ele><time>2026-04-26T08:38:14.999Z</time></trkpt><trkpt lat="43.53422091503538" lon="12.28619312181689"><ele>571.0</ele><time>2026-04-26T08:38:16.999Z</time></trkpt><trkpt lat="43.5341543798202" lon="12.286049483803193"><ele>569.6666666666666</ele><time>2026-04-26T08:38:18.999Z</time></trkpt><trkpt lat="43.53411687067913" lon="12.285977854782077"><ele>568.3333333333334</ele><time>2026-04-26T08:38:19.999Z</time></trkpt><trkpt lat="43.534076567267036" lon="12.285907490736877"><ele>567.0</ele><time>2026-04-26T08:38:20.999Z</time></trkpt><trkpt lat="43.53401097094961" lon="12.285785497467524"><ele>567.0</ele><time>2026-04-26T08:38:22.999Z</time></trkpt><trkpt lat="43.53394749735443" lon="12.285663308118941"><ele>567.0</ele><time>2026-04-26T08:38:24.999Z</time></trkpt><trkpt lat="43.53393237121474" lon="12.285546874348944"><ele>567.0</ele><time>2026-04-26T08:38:26.999Z</time></trkpt><trkpt lat="43.53395578907805" lon="12.285462747533233"><ele>567.0</ele><time>2026-04-26T08:38:28.999Z</time></trkpt><trkpt lat="43.53397844220264" lon="12.285313209904341"><ele>567.0</ele><time>2026-04-26T08:38:30.999Z</time></trkpt><trkpt lat="43.53397186601928" lon="12.285199908847401"><ele>563.8000000000001</ele><time>2026-04-26T08:38:31.999Z</time></trkpt><trkpt lat="43.53395744970641" lon="12.285109411684397"><ele>560.6</ele><time>2026-04-26T08:38:32.999Z</time></trkpt><trkpt lat="43.53395388334216" lon="12.285006787753845"><ele>557.4000000000001</ele><time>2026-04-26T08:38:33.999Z</time></trkpt><trkpt lat="43.53395179730582" lon="12.284856583228615"><ele>554.2</ele><time>2026-04-26T08:38:35.999Z</time></trkpt><trkpt lat="43.53398578136058" lon="12.28471348793641"><ele>551.0</ele><time>2026-04-26T08:38:37.999Z</time></trkpt><trkpt lat="43.534064556142695" lon="12.284608606559905"><ele>548.1666666666666</ele><time>2026-04-26T08:38:39.999Z</time></trkpt><trkpt lat="43.534124325673766" lon="12.284483774970301"><ele>545.3333333333333</ele><time>2026-04-26T08:38:41.999Z</time></trkpt><trkpt lat="43.5340885873347" lon="12.284334335751677"><ele>542.5</ele><time>2026-04-26T08:38:43.999Z</time></trkpt><trkpt lat="43.53405373726545" lon="12.28425078903628"><ele>539.6666666666666</ele><time>2026-04-26T08:38:44.999Z</time></trkpt><trkpt lat="43.53402202583579" lon="12.28416431562248"><ele>536.8333333333334</ele><time>2026-04-26T08:38:45.999Z</time></trkpt><trkpt lat="43.533993978222036" lon="12.284076992078717"><ele>534.0</ele><time>2026-04-26T08:38:46.999Z</time></trkpt><trkpt lat="43.53396110442496" lon="12.283998464427091"><ele>530.6</ele><time>2026-04-26T08:38:47.999Z</time></trkpt><trkpt lat="43.53392619158481" lon="12.283902763276467"><ele>527.2</ele><time>2026-04-26T08:38:48.999Z</time></trkpt><trkpt lat="43.533894890116805" lon="12.283812198122568"><ele>523.8000000000001</ele><time>2026-04-26T08:38:49.999Z</time></trkpt><trkpt lat="43.53383763497406" lon="12.283682731965307"><ele>520.4</ele><time>2026-04-26T08:38:51.999Z</time></trkpt><trkpt lat="43.53374603741206" lon="12.28360897735267"><ele>517.0</ele><time>2026-04-26T08:38:53.999Z</time></trkpt><trkpt lat="43.533629988636164" lon="12.283540893013127"><ele>517.0</ele><time>2026-04-26T08:38:55.999Z</time></trkpt><trkpt lat="43.53356929736606" lon="12.28350330390217"><ele>517.0</ele><time>2026-04-26T08:38:56.999Z</time></trkpt><trkpt lat="43.53350486699022" lon="12.28346819737107"><ele>517.0</ele><time>2026-04-26T08:38:57.999Z</time></trkpt><trkpt lat="43.53338691138074" lon="12.28340823094394"><ele>517.0</ele><time>2026-04-26T08:38:59.999Z</time></trkpt><trkpt lat="43.53326377750431" lon="12.28335673230104"><ele>517.0</ele><time>2026-04-26T08:39:01.999Z</time></trkpt><trkpt lat="43.533207001232384" lon="12.2833191385238"><ele>517.0</ele><time>2026-04-26T08:39:02.999Z</time></trkpt><trkpt lat="43.53317278522118" lon="12.283193577227438"><ele>517.0</ele><time>2026-04-26T08:39:04.999Z</time></trkpt><trkpt lat="43.53322363821799" lon="12.283039669433794"><ele>517.0</ele><time>2026-04-26T08:39:06.999Z</time></trkpt><trkpt lat="43.53325623260479" lon="12.28296334769348"><ele>517.0</ele><time>2026-04-26T08:39:07.999Z</time></trkpt><trkpt lat="43.533293305574006" lon="12.282858750709158"><ele>517.0</ele><time>2026-04-26T08:39:09.999Z</time></trkpt><trkpt lat="43.533304482239075" lon="12.282770554038478"><ele>517.0</ele><time>2026-04-26T08:39:10.999Z</time></trkpt><trkpt lat="43.533327541739126" lon="12.282627726029094"><ele>512.75</ele><time>2026-04-26T08:39:13Z</time></trkpt><trkpt lat="43.53333544592282" lon="12.28248102728634"><ele>508.5</ele><time>2026-04-26T08:39:15Z</time></trkpt><trkpt lat="43.53336451643174" lon="12.282342109544405"><ele>504.25</ele><time>2026-04-26T08:39:17Z</time></trkpt><trkpt lat="43.53344026727049" lon="12.28216312806548"><ele>500.0</ele><time>2026-04-26T08:39:20Z</time></trkpt><trkpt lat="43.533513009730484" lon="12.282037527294401"><ele>496.4</ele><time>2026-04-26T08:39:22Z</time></trkpt><trkpt lat="43.533593080376264" lon="12.28192738642234"><ele>492.8</ele><time>2026-04-26T08:39:24Z</time></trkpt><trkpt lat="43.53368784677709" lon="12.28184046859001"><ele>489.20000000000005</ele><time>2026-04-26T08:39:26Z</time></trkpt><trkpt lat="43.53377690678483" lon="12.281758192929157"><ele>485.6</ele><time>2026-04-26T08:39:28Z</time></trkpt><trkpt lat="43.53386485320776" lon="12.281681099356412"><ele>482.0</ele><time>2026-04-26T08:39:30Z</time></trkpt><trkpt lat="43.53394164273474" lon="12.281561986952049"><ele>479.20000000000005</ele><time>2026-04-26T08:39:32Z</time></trkpt><trkpt lat="43.53398666127599" lon="12.281414295831219"><ele>476.40000000000003</ele><time>2026-04-26T08:39:34Z</time></trkpt><trkpt lat="43.53401937495293" lon="12.281269241750463"><ele>473.59999999999997</ele><time>2026-04-26T08:39:36Z</time></trkpt><trkpt lat="43.53407577379926" lon="12.281148837572564"><ele>470.79999999999995</ele><time>2026-04-26T08:39:38Z</time></trkpt><trkpt lat="43.53414657435411" lon="12.281044901585695"><ele>468.0</ele><time>2026-04-26T08:39:40Z</time></trkpt><trkpt lat="43.53414746934449" lon="12.28091019576473"><ele>468.0</ele><time>2026-04-26T08:39:42Z</time></trkpt><trkpt lat="43.53408313074102" lon="12.280773799522139"><ele>467.99999999999994</ele><time>2026-04-26T08:39:44Z</time></trkpt><trkpt lat="43.534029135926986" lon="12.280656424873104"><ele>467.99999999999994</ele><time>2026-04-26T08:39:46Z</time></trkpt><trkpt lat="43.53399253757397" lon="12.280517642721245"><ele>468.0</ele><time>2026-04-26T08:39:48Z</time></trkpt><trkpt lat="43.53396619000853" lon="12.280398022904535"><ele>468.0</ele><time>2026-04-26T08:39:50Z</time></trkpt><trkpt lat="43.533921450598854" lon="12.280302753347625"><ele>468.3333333333333</ele><time>2026-04-26T08:39:52Z</time></trkpt><trkpt lat="43.533892479914584" lon="12.280199315897743"><ele>468.66666666666663</ele><time>2026-04-26T08:39:54Z</time></trkpt><trkpt lat="43.533877596189114" lon="12.280083926639936"><ele>469.0</ele><time>2026-04-26T08:39:56Z</time></trkpt><trkpt lat="43.53383665316497" lon="12.279960059381944"><ele>469.3333333333333</ele><time>2026-04-26T08:39:58Z</time></trkpt><trkpt lat="43.53377294068625" lon="12.279866558969536"><ele>469.66666666666663</ele><time>2026-04-26T08:40:00Z</time></trkpt><trkpt lat="43.53368740916975" lon="12.279832816069597"><ele>470.0</ele><time>2026-04-26T08:40:02Z</time></trkpt><trkpt lat="43.5335776422811" lon="12.27979344524819"><ele>470.0</ele><time>2026-04-26T08:40:04Z</time></trkpt><trkpt lat="43.533492660182596" lon="12.279787773348028"><ele>470.0</ele><time>2026-04-26T08:40:06Z</time></trkpt><trkpt lat="43.53339305128018" lon="12.279770412499314"><ele>470.0</ele><time>2026-04-26T08:40:08Z</time></trkpt><trkpt lat="43.53332656200778" lon="12.279679209967341"><ele>470.0</ele><time>2026-04-26T08:40:10Z</time></trkpt><trkpt lat="43.533365680796244" lon="12.279547442129934"><ele>470.0</ele><time>2026-04-26T08:40:12Z</time></trkpt><trkpt lat="43.53333380168453" lon="12.279434653598484"><ele>469.99999999999994</ele><time>2026-04-26T08:40:14Z</time></trkpt><trkpt lat="43.5332398309629" lon="12.279356105392845"><ele>470.0</ele><time>2026-04-26T08:40:15.998Z</time></trkpt><trkpt lat="43.533170815761885" lon="12.279324941194579"><ele>470.0</ele><time>2026-04-26T08:40:16.998Z</time></trkpt><trkpt lat="43.53308315875429" lon="12.27929209460986"><ele>470.0</ele><time>2026-04-26T08:40:17.998Z</time></trkpt><trkpt lat="43.53300627527682" lon="12.279259818926823"><ele>469.99999999999994</ele><time>2026-04-26T08:40:18.998Z</time></trkpt><trkpt lat="43.53293114944332" lon="12.279227707147166"><ele>470.0</ele><time>2026-04-26T08:40:19.998Z</time></trkpt><trkpt lat="43.53286648571429" lon="12.279198624672764"><ele>468.16666666666663</ele><time>2026-04-26T08:40:20.998Z</time></trkpt><trkpt lat="43.53280428209543" lon="12.279169268405903"><ele>466.3333333333333</ele><time>2026-04-26T08:40:21.998Z</time></trkpt><trkpt lat="43.53267280110721" lon="12.27916767267166"><ele>464.5</ele><time>2026-04-26T08:40:23.999Z</time></trkpt><trkpt lat="43.53260062874538" lon="12.279214080057406"><ele>462.66666666666663</ele><time>2026-04-26T08:40:24.999Z</time></trkpt><trkpt lat="43.53252901962144" lon="12.279275128078128"><ele>460.8333333333333</ele><time>2026-04-26T08:40:25.999Z</time></trkpt><trkpt lat="43.53246088303782" lon="12.27933385314274"><ele>459.0</ele><time>2026-04-26T08:40:26.999Z</time></trkpt><trkpt lat="43.53238040848905" lon="12.2793687540592"><ele>459.0</ele><time>2026-04-26T08:40:27.999Z</time></trkpt><trkpt lat="43.53229587397943" lon="12.27937684570458"><ele>459.0</ele><time>2026-04-26T08:40:28.999Z</time></trkpt><trkpt lat="43.53221579675358" lon="12.279359366352798"><ele>459.0</ele><time>2026-04-26T08:40:29.999Z</time></trkpt><trkpt lat="43.532140590911574" lon="12.279310615335755"><ele>459.0</ele><time>2026-04-26T08:40:30.999Z</time></trkpt><trkpt lat="43.53207085725454" lon="12.2792414946417"><ele>459.0</ele><time>2026-04-26T08:40:31.999Z</time></trkpt><trkpt lat="43.532014935809066" lon="12.279160660055446"><ele>459.0</ele><time>2026-04-26T08:40:32.999Z</time></trkpt><trkpt lat="43.531965810996994" lon="12.279066371970423"><ele>460.2</ele><time>2026-04-26T08:40:33.999Z</time></trkpt><trkpt lat="43.53190536548247" lon="12.278983606404868"><ele>461.4</ele><time>2026-04-26T08:40:34.999Z</time></trkpt><trkpt lat="43.531828716143764" lon="12.278903912045907"><ele>462.6</ele><time>2026-04-26T08:40:35.999Z</time></trkpt><trkpt lat="43.53175533492268" lon="12.278823637189504"><ele>463.8</ele><time>2026-04-26T08:40:36.999Z</time></trkpt><trkpt lat="43.53169156107828" lon="12.27872195277277"><ele>465.0</ele><time>2026-04-26T08:40:37.999Z</time></trkpt><trkpt lat="43.53163540431472" lon="12.27861639995916"><ele>465.0</ele><time>2026-04-26T08:40:38.999Z</time></trkpt><trkpt lat="43.53157542849497" lon="12.278506149099071"><ele>465.0</ele><time>2026-04-26T08:40:39.999Z</time></trkpt><trkpt lat="43.53152667222548" lon="12.278401646935565"><ele>465.0</ele><time>2026-04-26T08:40:40.999Z</time></trkpt><trkpt lat="43.53147936151902" lon="12.278295496616664"><ele>465.0</ele><time>2026-04-26T08:40:41.999Z</time></trkpt><trkpt lat="43.53143723532048" lon="12.278202024991684"><ele>465.0</ele><time>2026-04-26T08:40:42.999Z</time></trkpt><trkpt lat="43.53138736072461" lon="12.278124933116194"><ele>465.0</ele><time>2026-04-26T08:40:43.999Z</time></trkpt><trkpt lat="43.53125590594331" lon="12.278073483848795"><ele>470.8333333333333</ele><time>2026-04-26T08:40:45.999Z</time></trkpt><trkpt lat="43.53118055909257" lon="12.278096851744474"><ele>476.66666666666663</ele><time>2026-04-26T08:40:46.999Z</time></trkpt><trkpt lat="43.53111120067524" lon="12.278131450005716"><ele>482.5</ele><time>2026-04-26T08:40:47.999Z</time></trkpt><trkpt lat="43.53102914482662" lon="12.27816794088454"><ele>488.3333333333333</ele><time>2026-04-26T08:40:48.999Z</time></trkpt><trkpt lat="43.5309412961138" lon="12.278193987485245"><ele>494.16666666666663</ele><time>2026-04-26T08:40:49.999Z</time></trkpt><trkpt lat="43.530851785234994" lon="12.278234029189774"><ele>500.0</ele><time>2026-04-26T08:40:50.999Z</time></trkpt><trkpt lat="43.5307655272579" lon="12.278250120157539"><ele>499.99999999999994</ele><time>2026-04-26T08:40:51.999Z</time></trkpt><trkpt lat="43.530679354812484" lon="12.27825201792014"><ele>500.0</ele><time>2026-04-26T08:40:52.999Z</time></trkpt><trkpt lat="43.53060635877008" lon="12.278258388279971"><ele>500.0</ele><time>2026-04-26T08:40:53.999Z</time></trkpt><trkpt lat="43.530536778391294" lon="12.278290017812555"><ele>500.0</ele><time>2026-04-26T08:40:54.999Z</time></trkpt><trkpt lat="43.53047101806198" lon="12.27835303197938"><ele>499.99999999999994</ele><time>2026-04-26T08:40:55.999Z</time></trkpt><trkpt lat="43.530425677633495" lon="12.278422440840492"><ele>500.0</ele><time>2026-04-26T08:40:56.999Z</time></trkpt><trkpt lat="43.53033108340868" lon="12.278427352408505"><ele>502.16666666666663</ele><time>2026-04-26T08:40:58.999Z</time></trkpt><trkpt lat="43.53030545448463" lon="12.278268820669537"><ele>504.3333333333333</ele><time>2026-04-26T08:41:01Z</time></trkpt><trkpt lat="43.530322124473656" lon="12.278172012260695"><ele>506.5</ele><time>2026-04-26T08:41:02Z</time></trkpt><trkpt lat="43.530336388909866" lon="12.278081834885922"><ele>508.66666666666663</ele><time>2026-04-26T08:41:03Z</time></trkpt><trkpt lat="43.53033090704824" lon="12.277993245735434"><ele>510.8333333333333</ele><time>2026-04-26T08:41:04Z</time></trkpt><trkpt lat="43.53030005989143" lon="12.277913608153582"><ele>513.0</ele><time>2026-04-26T08:41:05Z</time></trkpt><trkpt lat="43.53017493665929" lon="12.277879545187917"><ele>513.0</ele><time>2026-04-26T08:41:07Z</time></trkpt><trkpt lat="43.53010588918527" lon="12.277925297330084"><ele>513.0</ele><time>2026-04-26T08:41:08Z</time></trkpt><trkpt lat="43.53004050416148" lon="12.27799072659301"><ele>513.0</ele><time>2026-04-26T08:41:09Z</time></trkpt><trkpt lat="43.52998144479996" lon="12.278073524703457"><ele>513.0</ele><time>2026-04-26T08:41:10Z</time></trkpt><trkpt lat="43.52992330194727" lon="12.278158152651976"><ele>513.0</ele><time>2026-04-26T08:41:11Z</time></trkpt><trkpt lat="43.529868074280884" lon="12.27824009850888"><ele>513.0</ele><time>2026-04-26T08:41:12Z</time></trkpt><trkpt lat="43.529795742495814" lon="12.278311393673773"><ele>513.0</ele><time>2026-04-26T08:41:13Z</time></trkpt><trkpt lat="43.52970937597865" lon="12.278388210889634"><ele>513.0</ele><time>2026-04-26T08:41:14Z</time></trkpt><trkpt lat="43.52962356020923" lon="12.278463958380387"><ele>513.0</ele><time>2026-04-26T08:41:15Z</time></trkpt><trkpt lat="43.52954218255208" lon="12.278525391476222"><ele>513.0</ele><time>2026-04-26T08:41:16Z</time></trkpt><trkpt lat="43.529475506366694" lon="12.278563041490804"><ele>513.0</ele><time>2026-04-26T08:41:17Z</time></trkpt><trkpt lat="43.5294005133998" lon="12.278572582599773"><ele>513.0</ele><time>2026-04-26T08:41:18Z</time></trkpt><trkpt lat="43.529320699284064" lon="12.278564050821247"><ele>515.3333333333334</ele><time>2026-04-26T08:41:19Z</time></trkpt><trkpt lat="43.529244373887266" lon="12.278531791057283"><ele>517.6666666666666</ele><time>2026-04-26T08:41:20Z</time></trkpt><trkpt lat="43.52916250684234" lon="12.27850385521121"><ele>520.0</ele><time>2026-04-26T08:41:21Z</time></trkpt><trkpt lat="43.52907054918405" lon="12.278483462078706"><ele>522.3333333333333</ele><time>2026-04-26T08:41:22Z</time></trkpt><trkpt lat="43.52899254682033" lon="12.278466343812038"><ele>524.6666666666666</ele><time>2026-04-26T08:41:23Z</time></trkpt><trkpt lat="43.52892578853076" lon="12.278448652868407"><ele>527.0</ele><time>2026-04-26T08:41:24Z</time></trkpt><trkpt lat="43.52883475333107" lon="12.278483136825969"><ele>527.0</ele><time>2026-04-26T08:41:26Z</time></trkpt><trkpt lat="43.52876556463948" lon="12.27863023934964"><ele>527.0</ele><time>2026-04-26T08:41:28Z</time></trkpt><trkpt lat="43.5287357740723" lon="12.278759115810947"><ele>527.0</ele><time>2026-04-26T08:41:29Z</time></trkpt><trkpt lat="43.52870668181311" lon="12.278902447020695"><ele>527.0</ele><time>2026-04-26T08:41:30Z</time></trkpt><trkpt lat="43.528680716928534" lon="12.279038671345054"><ele>527.0</ele><time>2026-04-26T08:41:31Z</time></trkpt><trkpt lat="43.52865732157231" lon="12.279166324781164"><ele>525.0</ele><time>2026-04-26T08:41:32Z</time></trkpt><trkpt lat="43.52862113511895" lon="12.27928925834381"><ele>523.0</ele><time>2026-04-26T08:41:33Z</time></trkpt><trkpt lat="43.528563580286885" lon="12.27941227486362"><ele>521.0</ele><time>2026-04-26T08:41:34Z</time></trkpt><trkpt lat="43.528503979146684" lon="12.27952089515898"><ele>519.0</ele><time>2026-04-26T08:41:35Z</time></trkpt><trkpt lat="43.528438284258456" lon="12.279611234088236"><ele>517.0</ele><time>2026-04-26T08:41:36Z</time></trkpt><trkpt lat="43.528367087348485" lon="12.279674554759326"><ele>517.0</ele><time>2026-04-26T08:41:37Z</time></trkpt><trkpt lat="43.528279135873966" lon="12.279696645040653"><ele>517.0</ele><time>2026-04-26T08:41:38Z</time></trkpt><trkpt lat="43.52818406179898" lon="12.279688213551704"><ele>517.0</ele><time>2026-04-26T08:41:39Z</time></trkpt><trkpt lat="43.528095008644975" lon="12.279671111006616"><ele>517.0</ele><time>2026-04-26T08:41:40Z</time></trkpt><trkpt lat="43.52800444080308" lon="12.279672535233633"><ele>517.0</ele><time>2026-04-26T08:41:41Z</time></trkpt><trkpt lat="43.52792339225047" lon="12.279689788223983"><ele>517.0</ele><time>2026-04-26T08:41:42Z</time></trkpt><trkpt lat="43.52785723312603" lon="12.279713013774435"><ele>517.6666666666667</ele><time>2026-04-26T08:41:43Z</time></trkpt><trkpt lat="43.52779014310516" lon="12.279731780478375"><ele>518.3333333333334</ele><time>2026-04-26T08:41:44Z</time></trkpt><trkpt lat="43.52772449562101" lon="12.27975862003577"><ele>519.0</ele><time>2026-04-26T08:41:45Z</time></trkpt><trkpt lat="43.52764522472011" lon="12.27979016973824"><ele>519.6666666666666</ele><time>2026-04-26T08:41:46Z</time></trkpt><trkpt lat="43.52756781834116" lon="12.279823016959813"><ele>520.3333333333333</ele><time>2026-04-26T08:41:47Z</time></trkpt><trkpt lat="43.527505733788665" lon="12.279856000359006"><ele>521.0</ele><time>2026-04-26T08:41:48Z</time></trkpt><trkpt lat="43.527404281859035" lon="12.279890709907843"><ele>521.0</ele><time>2026-04-26T08:41:50Z</time></trkpt><trkpt lat="43.52744305841448" lon="12.279965093460797"><ele>521.0</ele><time>2026-04-26T08:41:56Z</time></trkpt><trkpt lat="43.52754519716278" lon="12.279992732407523"><ele>521.0</ele><time>2026-04-26T08:41:59Z</time></trkpt><trkpt lat="43.527612616167126" lon="12.279994079415438"><ele>521.0</ele><time>2026-04-26T08:42:00Z</time></trkpt><trkpt lat="43.52774142396373" lon="12.280033638030451"><ele>521.0</ele><time>2026-04-26T08:42:02Z</time></trkpt><trkpt lat="43.52780854377615" lon="12.280058478091501"><ele>521.0</ele><time>2026-04-26T08:42:03Z</time></trkpt><trkpt lat="43.527870753678044" lon="12.280087248922051"><ele>522.0</ele><time>2026-04-26T08:42:04Z</time></trkpt><trkpt lat="43.527928585837515" lon="12.280139275365938"><ele>523.0</ele><time>2026-04-26T08:42:05Z</time></trkpt><trkpt lat="43.527989316573354" lon="12.280197976480007"><ele>524.0</ele><time>2026-04-26T08:42:06Z</time></trkpt><trkpt lat="43.52804995794174" lon="12.280261973867143"><ele>525.0</ele><time>2026-04-26T08:42:07Z</time></trkpt><trkpt lat="43.528097771844074" lon="12.280339455091212"><ele>526.0</ele><time>2026-04-26T08:42:08Z</time></trkpt><trkpt lat="43.52814207702909" lon="12.280442119331823"><ele>527.0</ele><time>2026-04-26T08:42:09Z</time></trkpt><trkpt lat="43.52819212632442" lon="12.280536872946211"><ele>528.3333333333333</ele><time>2026-04-26T08:42:10Z</time></trkpt><trkpt lat="43.52825256632995" lon="12.280625929655692"><ele>529.6666666666666</ele><time>2026-04-26T08:42:11Z</time></trkpt><trkpt lat="43.52831579024791" lon="12.280711750929571"><ele>531.0</ele><time>2026-04-26T08:42:12Z</time></trkpt><trkpt lat="43.528387104374794" lon="12.280780561132444"><ele>532.3333333333334</ele><time>2026-04-26T08:42:13Z</time></trkpt><trkpt lat="43.52847232554304" lon="12.280837518893179"><ele>533.6666666666667</ele><time>2026-04-26T08:42:14Z</time></trkpt><trkpt lat="43.52855902083175" lon="12.280857612432245"><ele>535.0</ele><time>2026-04-26T08:42:15Z</time></trkpt><trkpt lat="43.528634289575315" lon="12.280885867014229"><ele>535.0</ele><time>2026-04-26T08:42:16Z</time></trkpt><trkpt lat="43.52870005018525" lon="12.280935394397469"><ele>535.0</ele><time>2026-04-26T08:42:17Z</time></trkpt><trkpt lat="43.52873428382694" lon="12.28110116547786"><ele>535.0</ele><time>2026-04-26T08:42:19Z</time></trkpt><trkpt lat="43.52874344420245" lon="12.281221120775795"><ele>535.0</ele><time>2026-04-26T08:42:20Z</time></trkpt><trkpt lat="43.52875686474724" lon="12.281325254508944"><ele>535.0</ele><time>2026-04-26T08:42:20.999Z</time></trkpt><trkpt lat="43.52877279273243" lon="12.281437911668037"><ele>535.0</ele><time>2026-04-26T08:42:21.999Z</time></trkpt><trkpt lat="43.52878536111104" lon="12.281537528996617"><ele>536.6666666666667</ele><time>2026-04-26T08:42:22.999Z</time></trkpt><trkpt lat="43.528793042885674" lon="12.281628559157545"><ele>538.3333333333334</ele><time>2026-04-26T08:42:23.999Z</time></trkpt><trkpt lat="43.528789864213884" lon="12.281740634875995"><ele>540.0</ele><time>2026-04-26T08:42:24.999Z</time></trkpt><trkpt lat="43.52877602745424" lon="12.281845287544753"><ele>541.6666666666666</ele><time>2026-04-26T08:42:25.999Z</time></trkpt><trkpt lat="43.528756816090926" lon="12.281945012169116"><ele>543.3333333333333</ele><time>2026-04-26T08:42:26.999Z</time></trkpt><trkpt lat="43.52873674455608" lon="12.282052632138276"><ele>545.0</ele><time>2026-04-26T08:42:27.999Z</time></trkpt><trkpt lat="43.528720717595576" lon="12.282151574131795"><ele>545.0</ele><time>2026-04-26T08:42:28.999Z</time></trkpt><trkpt lat="43.52872123506528" lon="12.282250063597608"><ele>545.0</ele><time>2026-04-26T08:42:29.999Z</time></trkpt><trkpt lat="43.528739152015405" lon="12.28234964449851"><ele>545.0</ele><time>2026-04-26T08:42:30.999Z</time></trkpt><trkpt lat="43.528767658007894" lon="12.282448202228231"><ele>545.0</ele><time>2026-04-26T08:42:31.999Z</time></trkpt><trkpt lat="43.5287909461023" lon="12.282550473302772"><ele>545.0</ele><time>2026-04-26T08:42:32.999Z</time></trkpt><trkpt lat="43.52880892174037" lon="12.282650250472033"><ele>545.0</ele><time>2026-04-26T08:42:33.999Z</time></trkpt><trkpt lat="43.52880063990649" lon="12.282742896841354"><ele>545.0</ele><time>2026-04-26T08:42:34.999Z</time></trkpt><trkpt lat="43.52868666742305" lon="12.282817453487498"><ele>547.4</ele><time>2026-04-26T08:42:36.999Z</time></trkpt><trkpt lat="43.52861039218576" lon="12.2828135018301"><ele>549.8</ele><time>2026-04-26T08:42:37.999Z</time></trkpt><trkpt lat="43.52850895174476" lon="12.282804984666987"><ele>552.2</ele><time>2026-04-26T08:42:38.999Z</time></trkpt><trkpt lat="43.52840803739972" lon="12.282806822120682"><ele>554.6</ele><time>2026-04-26T08:42:39.999Z</time></trkpt><trkpt lat="43.5283055662457" lon="12.282817462337373"><ele>557.0</ele><time>2026-04-26T08:42:40.999Z</time></trkpt><trkpt lat="43.528199422763144" lon="12.282834213268654"><ele>557.0</ele><time>2026-04-26T08:42:41.999Z</time></trkpt><trkpt lat="43.52809725718225" lon="12.28284969123186"><ele>557.0</ele><time>2026-04-26T08:42:42.999Z</time></trkpt><trkpt lat="43.52799713752373" lon="12.282872688182628"><ele>557.0</ele><time>2026-04-26T08:42:43.999Z</time></trkpt><trkpt lat="43.52790425381016" lon="12.282904924259444"><ele>557.0</ele><time>2026-04-26T08:42:44.999Z</time></trkpt><trkpt lat="43.52781406384735" lon="12.282942142805453"><ele>557.0</ele><time>2026-04-26T08:42:45.999Z</time></trkpt><trkpt lat="43.52772508063382" lon="12.282997220762118"><ele>555.5</ele><time>2026-04-26T08:42:46.999Z</time></trkpt><trkpt lat="43.527643895036874" lon="12.283030011507055"><ele>554.0</ele><time>2026-04-26T08:42:47.999Z</time></trkpt><trkpt lat="43.52755439884892" lon="12.283037061639249"><ele>552.5</ele><time>2026-04-26T08:42:48.999Z</time></trkpt><trkpt lat="43.52747801796809" lon="12.283006714988693"><ele>551.0</ele><time>2026-04-26T08:42:49.999Z</time></trkpt><trkpt lat="43.52740431969982" lon="12.282975361677332"><ele>549.5</ele><time>2026-04-26T08:42:50.999Z</time></trkpt><trkpt lat="43.52733195474208" lon="12.282963588323243"><ele>548.0</ele><time>2026-04-26T08:42:51.999Z</time></trkpt><trkpt lat="43.52726716448736" lon="12.28298659300923"><ele>548.0</ele><time>2026-04-26T08:42:52.999Z</time></trkpt><trkpt lat="43.52721382919773" lon="12.283053761605652"><ele>548.0</ele><time>2026-04-26T08:42:53.999Z</time></trkpt><trkpt lat="43.52717291698582" lon="12.283159203696133"><ele>548.0</ele><time>2026-04-26T08:42:54.999Z</time></trkpt><trkpt lat="43.527126418272594" lon="12.283275507457718"><ele>548.0</ele><time>2026-04-26T08:42:56Z</time></trkpt><trkpt lat="43.52706649149618" lon="12.283367807086053"><ele>548.0</ele><time>2026-04-26T08:42:57Z</time></trkpt><trkpt lat="43.52698026085369" lon="12.283435304666156"><ele>548.0</ele><time>2026-04-26T08:42:58Z</time></trkpt><trkpt lat="43.52689371671741" lon="12.283469997860898"><ele>550.3333333333333</ele><time>2026-04-26T08:42:59Z</time></trkpt><trkpt lat="43.52680027622248" lon="12.28347546705775"><ele>552.6666666666666</ele><time>2026-04-26T08:43:00Z</time></trkpt><trkpt lat="43.526708786419306" lon="12.283464835547907"><ele>555.0</ele><time>2026-04-26T08:43:01Z</time></trkpt><trkpt lat="43.52662491299719" lon="12.28347559643282"><ele>557.3333333333334</ele><time>2026-04-26T08:43:02Z</time></trkpt><trkpt lat="43.52656628642274" lon="12.283514360874602"><ele>559.6666666666667</ele><time>2026-04-26T08:43:03Z</time></trkpt><trkpt lat="43.52650265603175" lon="12.283576305074995"><ele>562.0</ele><time>2026-04-26T08:43:04Z</time></trkpt><trkpt lat="43.526439396744024" lon="12.28364065845648"><ele>562.0</ele><time>2026-04-26T08:43:05Z</time></trkpt><trkpt lat="43.5263779792902" lon="12.283697908689529"><ele>562.0</ele><time>2026-04-26T08:43:06Z</time></trkpt><trkpt lat="43.52630667694729" lon="12.28371849344092"><ele>562.0</ele><time>2026-04-26T08:43:07Z</time></trkpt><trkpt lat="43.52622905453882" lon="12.28371904367481"><ele>562.0</ele><time>2026-04-26T08:43:08Z</time></trkpt><trkpt lat="43.52614479054553" lon="12.283700687721549"><ele>562.0</ele><time>2026-04-26T08:43:09Z</time></trkpt><trkpt lat="43.526036750955974" lon="12.283678707186969"><ele>562.0</ele><time>2026-04-26T08:43:10Z</time></trkpt><trkpt lat="43.525935902350625" lon="12.28367276642054"><ele>561.8333333333334</ele><time>2026-04-26T08:43:11Z</time></trkpt><trkpt lat="43.52584800414095" lon="12.283684932394452"><ele>561.6666666666667</ele><time>2026-04-26T08:43:12Z</time></trkpt><trkpt lat="43.525764279620226" lon="12.283717888585103"><ele>561.5</ele><time>2026-04-26T08:43:13Z</time></trkpt><trkpt lat="43.525681986618515" lon="12.283753710495613"><ele>561.3333333333334</ele><time>2026-04-26T08:43:14Z</time></trkpt><trkpt lat="43.52558172497818" lon="12.283776072435392"><ele>561.1666666666666</ele><time>2026-04-26T08:43:15Z</time></trkpt><trkpt lat="43.525498642510435" lon="12.283778339584192"><ele>561.0</ele><time>2026-04-26T08:43:16Z</time></trkpt><trkpt lat="43.52542114576635" lon="12.28378367412559"><ele>561.0</ele><time>2026-04-26T08:43:17Z</time></trkpt><trkpt lat="43.52534563596674" lon="12.283809689524535"><ele>561.0</ele><time>2026-04-26T08:43:18Z</time></trkpt><trkpt lat="43.525275111714755" lon="12.283856457316821"><ele>561.0</ele><time>2026-04-26T08:43:19Z</time></trkpt><trkpt lat="43.52519395023648" lon="12.283890375352964"><ele>561.0</ele><time>2026-04-26T08:43:20Z</time></trkpt><trkpt lat="43.525122970509464" lon="12.283913717032142"><ele>561.0</ele><time>2026-04-26T08:43:21Z</time></trkpt><trkpt lat="43.52505793737258" lon="12.28393435079281"><ele>561.0</ele><time>2026-04-26T08:43:22Z</time></trkpt><trkpt lat="43.52499387216061" lon="12.28394111333803"><ele>561.0</ele><time>2026-04-26T08:43:23Z</time></trkpt><trkpt lat="43.52493955673023" lon="12.284052047604309"><ele>563.6666666666666</ele><time>2026-04-26T08:43:25Z</time></trkpt><trkpt lat="43.524924418227144" lon="12.284154803301899"><ele>566.3333333333334</ele><time>2026-04-26T08:43:26Z</time></trkpt><trkpt lat="43.52490172345692" lon="12.284259545207167"><ele>569.0</ele><time>2026-04-26T08:43:27Z</time></trkpt><trkpt lat="43.52487446760663" lon="12.28435150942105"><ele>571.6666666666667</ele><time>2026-04-26T08:43:28Z</time></trkpt><trkpt lat="43.52484285785347" lon="12.28444246489123"><ele>574.3333333333334</ele><time>2026-04-26T08:43:29Z</time></trkpt><trkpt lat="43.52480122681231" lon="12.2845418678048"><ele>577.0</ele><time>2026-04-26T08:43:30Z</time></trkpt><trkpt lat="43.52475259109397" lon="12.284629392132722"><ele>577.0</ele><time>2026-04-26T08:43:31Z</time></trkpt><trkpt lat="43.524678173797284" lon="12.284699449555557"><ele>577.0</ele><time>2026-04-26T08:43:32Z</time></trkpt><trkpt lat="43.52459442978719" lon="12.284744625756568"><ele>577.0</ele><time>2026-04-26T08:43:33Z</time></trkpt><trkpt lat="43.5245145750355" lon="12.284790014879247"><ele>577.0</ele><time>2026-04-26T08:43:34Z</time></trkpt><trkpt lat="43.52443613778028" lon="12.28485161560923"><ele>577.0</ele><time>2026-04-26T08:43:35Z</time></trkpt><trkpt lat="43.524359009441454" lon="12.284913519088901"><ele>577.0</ele><time>2026-04-26T08:43:36Z</time></trkpt><trkpt lat="43.52428787271217" lon="12.28496496710445"><ele>574.8333333333334</ele><time>2026-04-26T08:43:37Z</time></trkpt><trkpt lat="43.52421302485164" lon="12.285007666274186"><ele>572.6666666666667</ele><time>2026-04-26T08:43:38Z</time></trkpt><trkpt lat="43.52414599566739" lon="12.285049241285407"><ele>570.5</ele><time>2026-04-26T08:43:39Z</time></trkpt><trkpt lat="43.52406851774912" lon="12.285087762060263"><ele>568.3333333333334</ele><time>2026-04-26T08:43:40Z</time></trkpt><trkpt lat="43.523994443243886" lon="12.285118820023309"><ele>566.1666666666666</ele><time>2026-04-26T08:43:41Z</time></trkpt><trkpt lat="43.52392751572757" lon="12.28512178053854"><ele>564.0</ele><time>2026-04-26T08:43:42Z</time></trkpt><trkpt lat="43.523848905199735" lon="12.285093892646342"><ele>564.0</ele><time>2026-04-26T08:43:43Z</time></trkpt><trkpt lat="43.523785481943065" lon="12.285034391855227"><ele>564.0</ele><time>2026-04-26T08:43:44Z</time></trkpt><trkpt lat="43.52373354321705" lon="12.284970640681507"><ele>564.0</ele><time>2026-04-26T08:43:45Z</time></trkpt><trkpt lat="43.52368013754756" lon="12.284905859870852"><ele>564.0</ele><time>2026-04-26T08:43:46Z</time></trkpt><trkpt lat="43.523627148577674" lon="12.284837468005678"><ele>564.0</ele><time>2026-04-26T08:43:47Z</time></trkpt><trkpt lat="43.5235527274064" lon="12.284748815199409"><ele>564.0</ele><time>2026-04-26T08:43:49Z</time></trkpt><trkpt lat="43.52348951611681" lon="12.284675216855899"><ele>562.6666666666666</ele><time>2026-04-26T08:43:51Z</time></trkpt><trkpt lat="43.52343293882385" lon="12.28460839337786"><ele>561.3333333333334</ele><time>2026-04-26T08:43:53Z</time></trkpt><trkpt lat="43.523369419016014" lon="12.28453771810231"><ele>560.0</ele><time>2026-04-26T08:43:55Z</time></trkpt><trkpt lat="43.523265754548206" lon="12.284446067604726"><ele>558.6666666666667</ele><time>2026-04-26T08:43:57Z</time></trkpt><trkpt lat="43.52320705357124" lon="12.284374837505279"><ele>557.3333333333334</ele><time>2026-04-26T08:43:58Z</time></trkpt><trkpt lat="43.52313889097448" lon="12.284303976027505"><ele>556.0</ele><time>2026-04-26T08:43:59Z</time></trkpt><trkpt lat="43.52306190180971" lon="12.284230889845057"><ele>556.0</ele><time>2026-04-26T08:44:00Z</time></trkpt><trkpt lat="43.52297773325025" lon="12.284147704053176"><ele>556.0</ele><time>2026-04-26T08:44:01Z</time></trkpt><trkpt lat="43.52288796360878" lon="12.284054231451202"><ele>556.0</ele><time>2026-04-26T08:44:02Z</time></trkpt><trkpt lat="43.52279806061982" lon="12.28395866156379"><ele>556.0</ele><time>2026-04-26T08:44:03Z</time></trkpt><trkpt lat="43.52271377632462" lon="12.28386208191124"><ele>556.0</ele><time>2026-04-26T08:44:04Z</time></trkpt><trkpt lat="43.52262386511061" lon="12.283765476897058"><ele>556.2</ele><time>2026-04-26T08:44:05Z</time></trkpt><trkpt lat="43.52253848258013" lon="12.283669749793894"><ele>556.4000000000001</ele><time>2026-04-26T08:44:06Z</time></trkpt><trkpt lat="43.52244971426223" lon="12.283575913089093"><ele>556.6</ele><time>2026-04-26T08:44:07Z</time></trkpt><trkpt lat="43.52235953681937" lon="12.283483428846774"><ele>556.8000000000001</ele><time>2026-04-26T08:44:08Z</time></trkpt><trkpt lat="43.52226847602907" lon="12.28338721177605"><ele>557.0</ele><time>2026-04-26T08:44:09Z</time></trkpt><trkpt lat="43.522179345797554" lon="12.283287373410401"><ele>557.0</ele><time>2026-04-26T08:44:10Z</time></trkpt><trkpt lat="43.52209759654937" lon="12.28319821495426"><ele>557.0</ele><time>2026-04-26T08:44:11Z</time></trkpt><trkpt lat="43.522013854453625" lon="12.283107967265128"><ele>557.0</ele><time>2026-04-26T08:44:12Z</time></trkpt><trkpt lat="43.521928188884" lon="12.283013173639015"><ele>557.0</ele><time>2026-04-26T08:44:13Z</time></trkpt><trkpt lat="43.52183811547352" lon="12.282921636189494"><ele>557.0</ele><time>2026-04-26T08:44:14Z</time></trkpt><trkpt lat="43.52175489478108" lon="12.282827725823857"><ele>556.8000000000001</ele><time>2026-04-26T08:44:15Z</time></trkpt><trkpt lat="43.521673330923846" lon="12.282723080736217"><ele>556.6</ele><time>2026-04-26T08:44:16Z</time></trkpt><trkpt lat="43.52159190335329" lon="12.282617665248173"><ele>556.4000000000001</ele><time>2026-04-26T08:44:17Z</time></trkpt><trkpt lat="43.52151223170505" lon="12.28251196391936"><ele>556.2</ele><time>2026-04-26T08:44:18Z</time></trkpt><trkpt lat="43.52142950731871" lon="12.28242032740185"><ele>556.0</ele><time>2026-04-26T08:44:19Z</time></trkpt><trkpt lat="43.521346324540424" lon="12.282319005451996"><ele>555.4</ele><time>2026-04-26T08:44:20Z</time></trkpt><trkpt lat="43.52125959723157" lon="12.28222760469612"><ele>554.8</ele><time>2026-04-26T08:44:21Z</time></trkpt><trkpt lat="43.52118123929566" lon="12.282140176853767"><ele>554.1999999999999</ele><time>2026-04-26T08:44:22Z</time></trkpt><trkpt lat="43.52108878349904" lon="12.282053104398269"><ele>553.6</ele><time>2026-04-26T08:44:23Z</time></trkpt><trkpt lat="43.52099291075608" lon="12.281972909478107"><ele>553.0</ele><time>2026-04-26T08:44:24Z</time></trkpt><trkpt lat="43.52089947923243" lon="12.28189755391035"><ele>553.0</ele><time>2026-04-26T08:44:25.001Z</time></trkpt><trkpt lat="43.52081096199797" lon="12.281824852961382"><ele>553.0</ele><time>2026-04-26T08:44:26.001Z</time></trkpt><trkpt lat="43.52071990142271" lon="12.2817401139996"><ele>553.0</ele><time>2026-04-26T08:44:27Z</time></trkpt><trkpt lat="43.52063707584521" lon="12.281650195619939"><ele>553.0</ele><time>2026-04-26T08:44:28Z</time></trkpt><trkpt lat="43.52055892866517" lon="12.281562185372014"><ele>553.0</ele><time>2026-04-26T08:44:29Z</time></trkpt><trkpt lat="43.520487787082985" lon="12.281482340818812"><ele>552.4</ele><time>2026-04-26T08:44:30Z</time></trkpt><trkpt lat="43.52041385931079" lon="12.281414811175988"><ele>551.8</ele><time>2026-04-26T08:44:31Z</time></trkpt><trkpt lat="43.52033738350015" lon="12.281348914314265"><ele>551.2</ele><time>2026-04-26T08:44:32Z</time></trkpt><trkpt lat="43.52026259564847" lon="12.281288704001321"><ele>550.6</ele><time>2026-04-26T08:44:33Z</time></trkpt><trkpt lat="43.52019197969854" lon="12.281206472770796"><ele>550.0</ele><time>2026-04-26T08:44:34Z</time></trkpt><trkpt lat="43.52011905728289" lon="12.281097380035808"><ele>550.0</ele><time>2026-04-26T08:44:35Z</time></trkpt><trkpt lat="43.520060226005356" lon="12.281000931764451"><ele>550.0</ele><time>2026-04-26T08:44:36Z</time></trkpt><trkpt lat="43.51998950607679" lon="12.280916263814403"><ele>550.0</ele><time>2026-04-26T08:44:37Z</time></trkpt><trkpt lat="43.519904039420126" lon="12.280859110759557"><ele>550.0</ele><time>2026-04-26T08:44:38Z</time></trkpt><trkpt lat="43.51980975641954" lon="12.280823903261398"><ele>550.0</ele><time>2026-04-26T08:44:39Z</time></trkpt><trkpt lat="43.51972683160011" lon="12.280802029444065"><ele>550.0</ele><time>2026-04-26T08:44:40Z</time></trkpt><trkpt lat="43.51963566325287" lon="12.280780043254417"><ele>550.0</ele><time>2026-04-26T08:44:41Z</time></trkpt><trkpt lat="43.51954964986936" lon="12.28075529369344"><ele>550.0</ele><time>2026-04-26T08:44:42Z</time></trkpt><trkpt lat="43.519462295549424" lon="12.280745715155515"><ele>550.0</ele><time>2026-04-26T08:44:43Z</time></trkpt><trkpt lat="43.51936460060245" lon="12.28072909175698"><ele>550.0</ele><time>2026-04-26T08:44:44Z</time></trkpt><trkpt lat="43.51928676307981" lon="12.280711101312408"><ele>550.0</ele><time>2026-04-26T08:44:45Z</time></trkpt><trkpt lat="43.51922077316008" lon="12.28069094588035"><ele>548.0</ele><time>2026-04-26T08:44:46Z</time></trkpt><trkpt lat="43.519145508143644" lon="12.28059140327224"><ele>546.0</ele><time>2026-04-26T08:44:48Z</time></trkpt><trkpt lat="43.519130423139195" lon="12.280493144579113"><ele>544.0</ele><time>2026-04-26T08:44:49Z</time></trkpt><trkpt lat="43.519131330435414" lon="12.280354321737061"><ele>542.0</ele><time>2026-04-26T08:44:50Z</time></trkpt><trkpt lat="43.519150727062566" lon="12.280192863548482"><ele>540.0</ele><time>2026-04-26T08:44:51Z</time></trkpt><trkpt lat="43.51916759735786" lon="12.280043451139115"><ele>540.0</ele><time>2026-04-26T08:44:52Z</time></trkpt><trkpt lat="43.51918673206716" lon="12.279881427934056"><ele>540.0</ele><time>2026-04-26T08:44:53Z</time></trkpt><trkpt lat="43.51918778171122" lon="12.279730205383242"><ele>540.0</ele><time>2026-04-26T08:44:54Z</time></trkpt><trkpt lat="43.51917546671447" lon="12.279588476181587"><ele>540.0</ele><time>2026-04-26T08:44:55Z</time></trkpt><trkpt lat="43.51915518808205" lon="12.27945531827888"><ele>540.0</ele><time>2026-04-26T08:44:56Z</time></trkpt><trkpt lat="43.51912015318373" lon="12.279335452843213"><ele>540.2</ele><time>2026-04-26T08:44:57Z</time></trkpt><trkpt lat="43.51906435301672" lon="12.279216950743796"><ele>540.4</ele><time>2026-04-26T08:44:58Z</time></trkpt><trkpt lat="43.51899866897988" lon="12.279112931720745"><ele>540.6</ele><time>2026-04-26T08:44:59Z</time></trkpt><trkpt lat="43.518920195152" lon="12.279022463904253"><ele>540.8</ele><time>2026-04-26T08:45:00Z</time></trkpt><trkpt lat="43.51883924717349" lon="12.278936380372594"><ele>541.0</ele><time>2026-04-26T08:45:01Z</time></trkpt><trkpt lat="43.518758563671085" lon="12.278830492159493"><ele>540.8</ele><time>2026-04-26T08:45:02Z</time></trkpt><trkpt lat="43.51869297191453" lon="12.27875031286608"><ele>540.6</ele><time>2026-04-26T08:45:03Z</time></trkpt><trkpt lat="43.51862417590677" lon="12.278661590581375"><ele>540.4</ele><time>2026-04-26T08:45:04Z</time></trkpt><trkpt lat="43.51856100709638" lon="12.278557493297523"><ele>540.2</ele><time>2026-04-26T08:45:05Z</time></trkpt><trkpt lat="43.51850409087048" lon="12.278444954684783"><ele>540.0</ele><time>2026-04-26T08:45:06Z</time></trkpt><trkpt lat="43.518441890720354" lon="12.278330326673258"><ele>540.0</ele><time>2026-04-26T08:45:07Z</time></trkpt><trkpt lat="43.5183842166276" lon="12.278224350070474"><ele>540.0</ele><time>2026-04-26T08:45:08Z</time></trkpt><trkpt lat="43.51833512145102" lon="12.278136405698044"><ele>540.0</ele><time>2026-04-26T08:45:09Z</time></trkpt><trkpt lat="43.518265717083416" lon="12.278039668108939"><ele>540.0</ele><time>2026-04-26T08:45:10Z</time></trkpt><trkpt lat="43.518213816697944" lon="12.277943877426452"><ele>540.0</ele><time>2026-04-26T08:45:11Z</time></trkpt><trkpt lat="43.518167572531105" lon="12.27786155377455"><ele>540.0</ele><time>2026-04-26T08:45:12Z</time></trkpt><trkpt lat="43.51813443046501" lon="12.277767120025452"><ele>540.6666666666666</ele><time>2026-04-26T08:45:13Z</time></trkpt><trkpt lat="43.5181239410803" lon="12.277657131530646"><ele>541.3333333333334</ele><time>2026-04-26T08:45:14Z</time></trkpt><trkpt lat="43.51811916135527" lon="12.27754036228551"><ele>542.0</ele><time>2026-04-26T08:45:15Z</time></trkpt><trkpt lat="43.51809691820479" lon="12.27741140429492"><ele>542.6666666666667</ele><time>2026-04-26T08:45:16Z</time></trkpt><trkpt lat="43.5180685223197" lon="12.277302890099673"><ele>543.3333333333334</ele><time>2026-04-26T08:45:17Z</time></trkpt><trkpt lat="43.51803988552111" lon="12.277194994877677"><ele>544.0</ele><time>2026-04-26T08:45:18Z</time></trkpt><trkpt lat="43.51800743622784" lon="12.277113804118963"><ele>544.0</ele><time>2026-04-26T08:45:19Z</time></trkpt><trkpt lat="43.517966165321525" lon="12.276976536269865"><ele>544.0</ele><time>2026-04-26T08:45:21Z</time></trkpt><trkpt lat="43.51791692604507" lon="12.276893424747586"><ele>544.0</ele><time>2026-04-26T08:45:22Z</time></trkpt><trkpt lat="43.51785075932869" lon="12.27680926912906"><ele>544.0</ele><time>2026-04-26T08:45:23Z</time></trkpt><trkpt lat="43.51778621341866" lon="12.2767089205136"><ele>544.0</ele><time>2026-04-26T08:45:24Z</time></trkpt><trkpt lat="43.51771372094124" lon="12.276609367897363"><ele>542.9999999999999</ele><time>2026-04-26T08:45:25Z</time></trkpt><trkpt lat="43.517657808509846" lon="12.276527989592946"><ele>542.0</ele><time>2026-04-26T08:45:26Z</time></trkpt><trkpt lat="43.517602765957456" lon="12.276464560619933"><ele>541.0</ele><time>2026-04-26T08:45:27Z</time></trkpt><trkpt lat="43.51754003486182" lon="12.276405190980158"><ele>540.0</ele><time>2026-04-26T08:45:28Z</time></trkpt><trkpt lat="43.51748193252676" lon="12.276366151369764"><ele>539.0</ele><time>2026-04-26T08:45:29Z</time></trkpt><trkpt lat="43.51741722365831" lon="12.27633032174031"><ele>537.9999999999999</ele><time>2026-04-26T08:45:30Z</time></trkpt><trkpt lat="43.51734781077076" lon="12.276284097911748"><ele>537.0</ele><time>2026-04-26T08:45:31Z</time></trkpt><trkpt lat="43.51726660308321" lon="12.276223432293474"><ele>536.8333333333334</ele><time>2026-04-26T08:45:32Z</time></trkpt><trkpt lat="43.51718007453684" lon="12.27615737578204"><ele>536.6666666666666</ele><time>2026-04-26T08:45:33Z</time></trkpt><trkpt lat="43.51710789037696" lon="12.27609691854133"><ele>536.5</ele><time>2026-04-26T08:45:34Z</time></trkpt><trkpt lat="43.51703861036209" lon="12.27604027813024"><ele>536.3333333333333</ele><time>2026-04-26T08:45:35Z</time></trkpt><trkpt lat="43.516970836064615" lon="12.275966114170457"><ele>536.1666666666666</ele><time>2026-04-26T08:45:36.001Z</time></trkpt><trkpt lat="43.516923426585365" lon="12.275883692347303"><ele>536.0</ele><time>2026-04-26T08:45:37.001Z</time></trkpt><trkpt lat="43.51686388605444" lon="12.275821961991008"><ele>535.6666666666666</ele><time>2026-04-26T08:45:38.001Z</time></trkpt><trkpt lat="43.51679118754382" lon="12.275770874000212"><ele>535.3333333333333</ele><time>2026-04-26T08:45:39.001Z</time></trkpt><trkpt lat="43.51673592353326" lon="12.275687668105933"><ele>535.0</ele><time>2026-04-26T08:45:40.001Z</time></trkpt><trkpt lat="43.51668484391185" lon="12.275612125597656"><ele>534.6666666666666</ele><time>2026-04-26T08:45:41.001Z</time></trkpt><trkpt lat="43.51662371760171" lon="12.275554563193994"><ele>534.3333333333334</ele><time>2026-04-26T08:45:42.001Z</time></trkpt><trkpt lat="43.516544543431074" lon="12.275425979866405"><ele>534.0</ele><time>2026-04-26T08:45:44.001Z</time></trkpt><trkpt lat="43.51646094294162" lon="12.275320568504755"><ele>532.6666666666666</ele><time>2026-04-26T08:45:46.001Z</time></trkpt><trkpt lat="43.516416761830605" lon="12.275254772404686"><ele>531.3333333333334</ele><time>2026-04-26T08:45:47.001Z</time></trkpt><trkpt lat="43.51630946115002" lon="12.275154649367826"><ele>530.0</ele><time>2026-04-26T08:45:49.001Z</time></trkpt><trkpt lat="43.51624840691712" lon="12.275127406440092"><ele>528.6666666666667</ele><time>2026-04-26T08:45:50.001Z</time></trkpt><trkpt lat="43.516142831539405" lon="12.27504548039908"><ele>527.3333333333334</ele><time>2026-04-26T08:45:52.001Z</time></trkpt><trkpt lat="43.51608655948406" lon="12.275003171521869"><ele>526.0</ele><time>2026-04-26T08:45:53.001Z</time></trkpt><trkpt lat="43.516022628573225" lon="12.274957512905956"><ele>524.6</ele><time>2026-04-26T08:45:54.001Z</time></trkpt><trkpt lat="43.51596702148324" lon="12.274910349354213"><ele>523.2</ele><time>2026-04-26T08:45:55.001Z</time></trkpt><trkpt lat="43.515871078096374" lon="12.274833041862294"><ele>521.8</ele><time>2026-04-26T08:45:57.001Z</time></trkpt><trkpt lat="43.51577032047964" lon="12.274754265013836"><ele>520.4</ele><time>2026-04-26T08:45:59.001Z</time></trkpt><trkpt lat="43.51565852328145" lon="12.274732054229313"><ele>519.0</ele><time>2026-04-26T08:46:01.001Z</time></trkpt><trkpt lat="43.515573623169686" lon="12.27465292079738"><ele>516.5</ele><time>2026-04-26T08:46:03.001Z</time></trkpt><trkpt lat="43.5154872768214" lon="12.274564704747261"><ele>514.0</ele><time>2026-04-26T08:46:05.001Z</time></trkpt><trkpt lat="43.515424228522896" lon="12.274533221766516"><ele>511.5</ele><time>2026-04-26T08:46:06.001Z</time></trkpt><trkpt lat="43.51536051759008" lon="12.274485491040531"><ele>509.0</ele><time>2026-04-26T08:46:07.001Z</time></trkpt><trkpt lat="43.5152937404081" lon="12.274406898555942"><ele>506.5</ele><time>2026-04-26T08:46:08.001Z</time></trkpt><trkpt lat="43.515234915719326" lon="12.274334719579747"><ele>504.0</ele><time>2026-04-26T08:46:09.001Z</time></trkpt><trkpt lat="43.515179556543835" lon="12.274267777162581"><ele>503.6666666666667</ele><time>2026-04-26T08:46:10.001Z</time></trkpt><trkpt lat="43.51512079249105" lon="12.274201179226964"><ele>503.33333333333337</ele><time>2026-04-26T08:46:11.001Z</time></trkpt><trkpt lat="43.51505777799746" lon="12.274142945483868"><ele>503.0</ele><time>2026-04-26T08:46:12.001Z</time></trkpt><trkpt lat="43.514991733775716" lon="12.274072889318449"><ele>502.6666666666667</ele><time>2026-04-26T08:46:13.001Z</time></trkpt><trkpt lat="43.51493649109156" lon="12.273996393573833"><ele>502.33333333333337</ele><time>2026-04-26T08:46:14.001Z</time></trkpt><trkpt lat="43.5148855017511" lon="12.273923320898987"><ele>502.0</ele><time>2026-04-26T08:46:15.001Z</time></trkpt><trkpt lat="43.51483088108318" lon="12.273853385112139"><ele>500.33333333333337</ele><time>2026-04-26T08:46:16.001Z</time></trkpt><trkpt lat="43.514782315534184" lon="12.273788307258865"><ele>498.6666666666667</ele><time>2026-04-26T08:46:17.001Z</time></trkpt><trkpt lat="43.514729568663746" lon="12.273731848800683"><ele>497.0</ele><time>2026-04-26T08:46:18.001Z</time></trkpt><trkpt lat="43.51463641335102" lon="12.273682730942946"><ele>495.33333333333337</ele><time>2026-04-26T08:46:20.001Z</time></trkpt><trkpt lat="43.514565558444644" lon="12.273675264349514"><ele>493.6666666666667</ele><time>2026-04-26T08:46:22.001Z</time></trkpt><trkpt lat="43.51450875727684" lon="12.273606772110387"><ele>492.0</ele><time>2026-04-26T08:47:22Z</time></trkpt><trkpt lat="43.514453334905824" lon="12.273504899520647"><ele>492.0</ele><time>2026-04-26T08:47:25.001Z</time></trkpt><trkpt lat="43.51441152076841" lon="12.273398351828154"><ele>492.0</ele><time>2026-04-26T08:47:28.001Z</time></trkpt><trkpt lat="43.51436747121551" lon="12.273329973791483"><ele>492.0</ele><time>2026-04-26T08:48:18.001Z</time></trkpt><trkpt lat="43.514318047678685" lon="12.273233334034302"><ele>492.0</ele><time>2026-04-26T08:48:22.001Z</time></trkpt><trkpt lat="43.51424630909005" lon="12.273175125932385"><ele>492.0</ele><time>2026-04-26T08:48:24.001Z</time></trkpt><trkpt lat="43.51417298729961" lon="12.273092529075926"><ele>492.0</ele><time>2026-04-26T08:48:26.001Z</time></trkpt><trkpt lat="43.51409940816494" lon="12.272994624285538"><ele>489.5</ele><time>2026-04-26T08:48:28.001Z</time></trkpt><trkpt lat="43.51402568278452" lon="12.27290476849248"><ele>487.0</ele><time>2026-04-26T08:48:30.001Z</time></trkpt><trkpt lat="43.51393228602946" lon="12.272799774466264"><ele>484.5</ele><time>2026-04-26T08:48:32.001Z</time></trkpt><trkpt lat="43.51384647001535" lon="12.272685787920787"><ele>482.0</ele><time>2026-04-26T08:48:34.001Z</time></trkpt><trkpt lat="43.513747557948015" lon="12.272601061779556"><ele>482.40000000000003</ele><time>2026-04-26T08:48:36.001Z</time></trkpt><trkpt lat="43.51364703577942" lon="12.27251265114616"><ele>482.80000000000007</ele><time>2026-04-26T08:48:38.001Z</time></trkpt><trkpt lat="43.513547578860404" lon="12.27239326716999"><ele>483.2</ele><time>2026-04-26T08:48:40.001Z</time></trkpt><trkpt lat="43.51349743994356" lon="12.272337028481203"><ele>483.6</ele><time>2026-04-26T08:48:41.001Z</time></trkpt><trkpt lat="43.51340345392384" lon="12.27225404300659"><ele>484.0</ele><time>2026-04-26T08:48:43.001Z</time></trkpt><trkpt lat="43.513329701846416" lon="12.272182048242218"><ele>482.0</ele><time>2026-04-26T08:48:45.001Z</time></trkpt><trkpt lat="43.513227787009434" lon="12.272071924546417"><ele>480.0</ele><time>2026-04-26T08:48:47.001Z</time></trkpt><trkpt lat="43.51314146590923" lon="12.271974239153597"><ele>478.0</ele><time>2026-04-26T08:48:49.001Z</time></trkpt><trkpt lat="43.513040818948696" lon="12.271904413665956"><ele>476.0</ele><time>2026-04-26T08:48:51.001Z</time></trkpt><trkpt lat="43.51293918810876" lon="12.271851250786554"><ele>475.4</ele><time>2026-04-26T08:48:53.001Z</time></trkpt><trkpt lat="43.51284141969334" lon="12.271761864794376"><ele>474.8</ele><time>2026-04-26T08:48:55.001Z</time></trkpt><trkpt lat="43.51274963028659" lon="12.271657969066789"><ele>474.19999999999993</ele><time>2026-04-26T08:48:57.001Z</time></trkpt><trkpt lat="43.51266733994486" lon="12.27154669592232"><ele>473.59999999999997</ele><time>2026-04-26T08:48:59.001Z</time></trkpt><trkpt lat="43.51260987125727" lon="12.271468758651343"><ele>473.0</ele><time>2026-04-26T08:49:01.001Z</time></trkpt><trkpt lat="43.512557534333254" lon="12.271416028369135"><ele>471.4</ele><time>2026-04-26T08:49:03.001Z</time></trkpt><trkpt lat="43.51246259119572" lon="12.271335759046355"><ele>469.79999999999995</ele><time>2026-04-26T08:49:05.001Z</time></trkpt><trkpt lat="43.51238283930142" lon="12.271249871060585"><ele>468.2</ele><time>2026-04-26T08:49:07.001Z</time></trkpt><trkpt lat="43.512307852008824" lon="12.271161689670697"><ele>466.6</ele><time>2026-04-26T08:49:09.001Z</time></trkpt><trkpt lat="43.51220514882862" lon="12.271128834951309"><ele>465.0</ele><time>2026-04-26T08:49:11.001Z</time></trkpt><trkpt lat="43.512089691515875" lon="12.271108839783864"><ele>465.0</ele><time>2026-04-26T08:49:13.001Z</time></trkpt><trkpt lat="43.5119880955719" lon="12.271063706378943"><ele>465.0</ele><time>2026-04-26T08:49:15.001Z</time></trkpt><trkpt lat="43.511874848311045" lon="12.271009894733995"><ele>465.0</ele><time>2026-04-26T08:49:17.001Z</time></trkpt><trkpt lat="43.511771030723445" lon="12.270952444828755"><ele>465.0</ele><time>2026-04-26T08:49:19.001Z</time></trkpt><trkpt lat="43.51165967766245" lon="12.270879540871192"><ele>465.0</ele><time>2026-04-26T08:49:21.001Z</time></trkpt><trkpt lat="43.511567009319556" lon="12.270816896619088"><ele>465.0</ele><time>2026-04-26T08:49:23.001Z</time></trkpt><trkpt lat="43.511467530777196" lon="12.27077758867879"><ele>465.0</ele><time>2026-04-26T08:49:25.001Z</time></trkpt><trkpt lat="43.511375684240456" lon="12.27076453055273"><ele>465.0</ele><time>2026-04-26T08:49:27.001Z</time></trkpt><trkpt lat="43.51127066065258" lon="12.270749625453478"><ele>465.0</ele><time>2026-04-26T08:49:29.001Z</time></trkpt><trkpt lat="43.51116794280771" lon="12.270738787885163"><ele>462.4</ele><time>2026-04-26T08:49:31.001Z</time></trkpt><trkpt lat="43.51105963593716" lon="12.270767516654594"><ele>459.8</ele><time>2026-04-26T08:49:33.001Z</time></trkpt><trkpt lat="43.51095373983066" lon="12.270772203161755"><ele>457.20000000000005</ele><time>2026-04-26T08:49:35.001Z</time></trkpt><trkpt lat="43.510859396101765" lon="12.27076068743959"><ele>454.6</ele><time>2026-04-26T08:49:37.001Z</time></trkpt><trkpt lat="43.510771384050216" lon="12.270702548167918"><ele>452.0</ele><time>2026-04-26T08:49:39.001Z</time></trkpt><trkpt lat="43.51068090621097" lon="12.270640530589587"><ele>451.6</ele><time>2026-04-26T08:49:41.001Z</time></trkpt><trkpt lat="43.51059817613857" lon="12.270574094939931"><ele>451.20000000000005</ele><time>2026-04-26T08:49:43.001Z</time></trkpt><trkpt lat="43.51051775928716" lon="12.270496188561864"><ele>450.8</ele><time>2026-04-26T08:49:45.001Z</time></trkpt><trkpt lat="43.51042687457338" lon="12.270463102475647"><ele>450.4</ele><time>2026-04-26T08:49:47.001Z</time></trkpt><trkpt lat="43.5103352060343" lon="12.270462098153146"><ele>450.0</ele><time>2026-04-26T08:49:49.001Z</time></trkpt><trkpt lat="43.51025617245509" lon="12.270403354418658"><ele>448.4</ele><time>2026-04-26T08:49:51.001Z</time></trkpt><trkpt lat="43.51015830368878" lon="12.270354923665739"><ele>446.8</ele><time>2026-04-26T08:49:53.001Z</time></trkpt><trkpt lat="43.510060148556434" lon="12.270311952400803"><ele>445.20000000000005</ele><time>2026-04-26T08:49:55.001Z</time></trkpt><trkpt lat="43.509965530598365" lon="12.270255129861846"><ele>443.6</ele><time>2026-04-26T08:49:57.001Z</time></trkpt><trkpt lat="43.50986387915581" lon="12.270236275356133"><ele>442.0</ele><time>2026-04-26T08:49:59.001Z</time></trkpt><trkpt lat="43.509769572572566" lon="12.270194381961252"><ele>442.0</ele><time>2026-04-26T08:50:01.001Z</time></trkpt><trkpt lat="43.509676325931004" lon="12.270169857245074"><ele>442.00000000000006</ele><time>2026-04-26T08:50:03.001Z</time></trkpt><trkpt lat="43.50956172566225" lon="12.270156395277388"><ele>442.00000000000006</ele><time>2026-04-26T08:50:05.001Z</time></trkpt><trkpt lat="43.509467457075814" lon="12.270171238963927"><ele>442.0</ele><time>2026-04-26T08:50:07.001Z</time></trkpt><trkpt lat="43.50939241195158" lon="12.270179693391007"><ele>442.0</ele><time>2026-04-26T08:50:09.001Z</time></trkpt><trkpt lat="43.50930108230338" lon="12.270165555376321"><ele>440.50000000000006</ele><time>2026-04-26T08:50:11.001Z</time></trkpt><trkpt lat="43.50922517382083" lon="12.270127924803054"><ele>439.0</ele><time>2026-04-26T08:50:13.001Z</time></trkpt><trkpt lat="43.50914917656472" lon="12.27015266918567"><ele>437.5</ele><time>2026-04-26T08:50:15.001Z</time></trkpt><trkpt lat="43.50906462118826" lon="12.270198777930549"><ele>436.0</ele><time>2026-04-26T08:50:17.001Z</time></trkpt><trkpt lat="43.50897901227634" lon="12.270218940073923"><ele>434.50000000000006</ele><time>2026-04-26T08:50:19.001Z</time></trkpt><trkpt lat="43.50889163859107" lon="12.27016880356141"><ele>433.0</ele><time>2026-04-26T08:50:21.001Z</time></trkpt><trkpt lat="43.50879297030796" lon="12.270151357533594"><ele>429.79999999999995</ele><time>2026-04-26T08:50:23.001Z</time></trkpt><trkpt lat="43.508693715536126" lon="12.27017663781796"><ele>426.59999999999997</ele><time>2026-04-26T08:50:25.001Z</time></trkpt><trkpt lat="43.508583199741246" lon="12.270118373838708"><ele>423.4</ele><time>2026-04-26T08:50:27.001Z</time></trkpt><trkpt lat="43.508504150983036" lon="12.270025589698516"><ele>420.20000000000005</ele><time>2026-04-26T08:50:29.001Z</time></trkpt><trkpt lat="43.508413477054255" lon="12.269934059839814"><ele>417.0</ele><time>2026-04-26T08:50:31.001Z</time></trkpt><trkpt lat="43.50831411264273" lon="12.269875177529183"><ele>417.0</ele><time>2026-04-26T08:50:33.001Z</time></trkpt><trkpt lat="43.50823690706687" lon="12.26981878807468"><ele>417.0</ele><time>2026-04-26T08:50:35.001Z</time></trkpt><trkpt lat="43.5081811776454" lon="12.269755515471097"><ele>417.0</ele><time>2026-04-26T08:50:37.001Z</time></trkpt><trkpt lat="43.50813455015877" lon="12.269690632367066"><ele>417.0</ele><time>2026-04-26T08:50:42.001Z</time></trkpt><trkpt lat="43.508066562446395" lon="12.269623567786473"><ele>417.0</ele><time>2026-04-26T08:50:45Z</time></trkpt><trkpt lat="43.507994542258054" lon="12.269591968281551"><ele>417.0</ele><time>2026-04-26T08:50:47Z</time></trkpt><trkpt lat="43.50790650351239" lon="12.269557621519981"><ele>412.7142857142857</ele><time>2026-04-26T08:50:50Z</time></trkpt><trkpt lat="43.50782618261401" lon="12.269532406526036"><ele>408.4285714285714</ele><time>2026-04-26T08:50:53Z</time></trkpt><trkpt lat="43.50776262681822" lon="12.269494747819758"><ele>404.1428571428571</ele><time>2026-04-26T08:50:57Z</time></trkpt><trkpt lat="43.50768597238223" lon="12.269481924485369"><ele>399.8571428571429</ele><time>2026-04-26T08:51:19Z</time></trkpt><trkpt lat="43.50761496173461" lon="12.269494041583101"><ele>395.57142857142856</ele><time>2026-04-26T08:51:30Z</time></trkpt><trkpt lat="43.50754235991139" lon="12.269521507557455"><ele>391.2857142857143</ele><time>2026-04-26T08:51:37Z</time></trkpt><trkpt lat="43.50749087963618" lon="12.269581937944643"><ele>387.0</ele><time>2026-04-26T08:51:40Z</time></trkpt><trkpt lat="43.50743142429673" lon="12.269665950117801"><ele>387.0</ele><time>2026-04-26T08:51:45Z</time></trkpt><trkpt lat="43.50736641628257" lon="12.269760256697387"><ele>387.0</ele><time>2026-04-26T08:51:51Z</time></trkpt><trkpt lat="43.5073212260562" lon="12.269853924361216"><ele>387.0</ele><time>2026-04-26T08:51:53Z</time></trkpt><trkpt lat="43.507240967995116" lon="12.269887472406928"><ele>387.0</ele><time>2026-04-26T08:51:56Z</time></trkpt><trkpt lat="43.50720656338803" lon="12.269779308128562"><ele>387.0</ele><time>2026-04-26T08:51:59.001Z</time></trkpt><trkpt lat="43.507250582175246" lon="12.269678399013571"><ele>387.0</ele><time>2026-04-26T08:52:02.001Z</time></trkpt><trkpt lat="43.507274672024906" lon="12.26957081419714"><ele>387.0</ele><time>2026-04-26T08:52:05.001Z</time></trkpt><trkpt lat="43.50731314508651" lon="12.269481920785589"><ele>387.0</ele><time>2026-04-26T08:52:07.001Z</time></trkpt><trkpt lat="43.50736359304919" lon="12.269400647487325"><ele>387.0</ele><time>2026-04-26T08:52:09.001Z</time></trkpt><trkpt lat="43.50740627234331" lon="12.269314490157068"><ele>387.0</ele><time>2026-04-26T08:52:12.001Z</time></trkpt><trkpt lat="43.5074410096508" lon="12.269218682047853"><ele>387.0</ele><time>2026-04-26T08:52:15.001Z</time></trkpt><trkpt lat="43.5074810984434" lon="12.269143513759992"><ele>387.0</ele><time>2026-04-26T08:52:17.001Z</time></trkpt><trkpt lat="43.507523928898415" lon="12.269044900459821"><ele>387.0</ele><time>2026-04-26T08:52:19.001Z</time></trkpt><trkpt lat="43.50758422315518" lon="12.26895514524113"><ele>387.0</ele><time>2026-04-26T08:52:21.001Z</time></trkpt><trkpt lat="43.50762699810377" lon="12.268874401586062"><ele>387.0</ele><time>2026-04-26T08:52:23.001Z</time></trkpt><trkpt lat="43.50763551861892" lon="12.268754882320504"><ele>387.0</ele><time>2026-04-26T08:52:25.001Z</time></trkpt><trkpt lat="43.5076451675917" lon="12.268622475076924"><ele>387.0</ele><time>2026-04-26T08:52:27.001Z</time></trkpt><trkpt lat="43.507659380827924" lon="12.268512247975941"><ele>387.0</ele><time>2026-04-26T08:52:29.001Z</time></trkpt><trkpt lat="43.507673247053035" lon="12.268413935431605"><ele>384.20000000000005</ele><time>2026-04-26T08:52:31.001Z</time></trkpt><trkpt lat="43.50768658359849" lon="12.268316277785155"><ele>381.4</ele><time>2026-04-26T08:52:33.001Z</time></trkpt><trkpt lat="43.507600285005566" lon="12.268379875830325"><ele>378.6</ele><time>2026-04-26T08:52:38.001Z</time></trkpt><trkpt lat="43.507549261142636" lon="12.268264609694514"><ele>375.79999999999995</ele><time>2026-04-26T08:52:42.001Z</time></trkpt><trkpt lat="43.50761542032503" lon="12.268131034586862"><ele>373.0</ele><time>2026-04-26T08:52:44.001Z</time></trkpt><trkpt lat="43.50764451830599" lon="12.268036837054263"><ele>371.79999999999995</ele><time>2026-04-26T08:52:45.001Z</time></trkpt><trkpt lat="43.5076693784985" lon="12.2679266007233"><ele>370.6</ele><time>2026-04-26T08:52:46.001Z</time></trkpt><trkpt lat="43.5076911196726" lon="12.26781509414588"><ele>369.4</ele><time>2026-04-26T08:52:47.001Z</time></trkpt><trkpt lat="43.5077163833693" lon="12.267679350629232"><ele>368.20000000000005</ele><time>2026-04-26T08:52:48.001Z</time></trkpt><trkpt lat="43.50773396533751" lon="12.267559743732752"><ele>367.0</ele><time>2026-04-26T08:52:49.001Z</time></trkpt><trkpt lat="43.50775030177115" lon="12.267431908061194"><ele>367.0</ele><time>2026-04-26T08:52:50.001Z</time></trkpt><trkpt lat="43.50776001890414" lon="12.267292295245014"><ele>367.0</ele><time>2026-04-26T08:52:51Z</time></trkpt><trkpt lat="43.507768254290724" lon="12.267151285324395"><ele>367.0</ele><time>2026-04-26T08:52:52Z</time></trkpt><trkpt lat="43.50776648119839" lon="12.267011135113226"><ele>367.0</ele><time>2026-04-26T08:52:53Z</time></trkpt><trkpt lat="43.507762065905794" lon="12.266867432563927"><ele>367.0</ele><time>2026-04-26T08:52:54Z</time></trkpt><trkpt lat="43.50775614143448" lon="12.266719974851355"><ele>365.8</ele><time>2026-04-26T08:52:55Z</time></trkpt><trkpt lat="43.507755120844834" lon="12.26657733635482"><ele>364.6</ele><time>2026-04-26T08:52:56Z</time></trkpt><trkpt lat="43.50775200673523" lon="12.266435659416636"><ele>363.40000000000003</ele><time>2026-04-26T08:52:57Z</time></trkpt><trkpt lat="43.50775989323858" lon="12.266301194955998"><ele>362.20000000000005</ele><time>2026-04-26T08:52:58Z</time></trkpt><trkpt lat="43.50776990591563" lon="12.26617059193148"><ele>361.0</ele><time>2026-04-26T08:52:59Z</time></trkpt><trkpt lat="43.507776036957445" lon="12.266035092987673"><ele>360.8</ele><time>2026-04-26T08:53:00Z</time></trkpt><trkpt lat="43.50779490988285" lon="12.265900173759997"><ele>360.6</ele><time>2026-04-26T08:53:01Z</time></trkpt><trkpt lat="43.50782197798636" lon="12.265763791628812"><ele>360.4</ele><time>2026-04-26T08:53:02Z</time></trkpt><trkpt lat="43.50784642672353" lon="12.26563002531214"><ele>360.2</ele><time>2026-04-26T08:53:03Z</time></trkpt><trkpt lat="43.50786396954954" lon="12.26549217879262"><ele>360.0</ele><time>2026-04-26T08:53:04Z</time></trkpt><trkpt lat="43.507877416858655" lon="12.265347141929501"><ele>359.6</ele><time>2026-04-26T08:53:05Z</time></trkpt><trkpt lat="43.50789902931642" lon="12.265199890944157"><ele>359.2</ele><time>2026-04-26T08:53:06Z</time></trkpt><trkpt lat="43.50792313857576" lon="12.265054622096832"><ele>358.79999999999995</ele><time>2026-04-26T08:53:07Z</time></trkpt><trkpt lat="43.5079445288535" lon="12.264902126836907"><ele>358.4</ele><time>2026-04-26T08:53:08Z</time></trkpt><trkpt lat="43.50796321449568" lon="12.264747475107031"><ele>358.0</ele><time>2026-04-26T08:53:09Z</time></trkpt><trkpt lat="43.50798626635027" lon="12.26459884029078"><ele>358.79999999999995</ele><time>2026-04-26T08:53:10Z</time></trkpt><trkpt lat="43.50800832340528" lon="12.264453305924496"><ele>359.6</ele><time>2026-04-26T08:53:11Z</time></trkpt><trkpt lat="43.50803062457405" lon="12.264312203614583"><ele>360.4</ele><time>2026-04-26T08:53:12Z</time></trkpt><trkpt lat="43.50805969068393" lon="12.264181177527481"><ele>361.20000000000005</ele><time>2026-04-26T08:53:13Z</time></trkpt><trkpt lat="43.50810240917674" lon="12.26406005787344"><ele>362.0</ele><time>2026-04-26T08:53:14Z</time></trkpt><trkpt lat="43.508158538719876" lon="12.263938335692401"><ele>362.0</ele><time>2026-04-26T08:53:15Z</time></trkpt><trkpt lat="43.5082271115232" lon="12.2638252452982"><ele>362.0</ele><time>2026-04-26T08:53:16Z</time></trkpt><trkpt lat="43.50829132900799" lon="12.263703078037445"><ele>362.0</ele><time>2026-04-26T08:53:17Z</time></trkpt><trkpt lat="43.50836783689295" lon="12.26359229728017"><ele>362.0</ele><time>2026-04-26T08:53:18Z</time></trkpt><trkpt lat="43.50842359129912" lon="12.263460227593729"><ele>362.0</ele><time>2026-04-26T08:53:19Z</time></trkpt><trkpt lat="43.50845629726382" lon="12.263330785959704"><ele>362.0</ele><time>2026-04-26T08:53:20Z</time></trkpt><trkpt lat="43.50845907037582" lon="12.263178154970548"><ele>362.0</ele><time>2026-04-26T08:53:21Z</time></trkpt><trkpt lat="43.508441818922954" lon="12.263021272457026"><ele>362.0</ele><time>2026-04-26T08:53:22Z</time></trkpt><trkpt lat="43.50842264873297" lon="12.262860153722077"><ele>362.0</ele><time>2026-04-26T08:53:23Z</time></trkpt><trkpt lat="43.50841107800374" lon="12.262694159063999"><ele>362.25</ele><time>2026-04-26T08:53:24Z</time></trkpt><trkpt lat="43.508401793913464" lon="12.262526867627216"><ele>362.5</ele><time>2026-04-26T08:53:25Z</time></trkpt><trkpt lat="43.50839655704572" lon="12.26235882194422"><ele>362.75</ele><time>2026-04-26T08:53:26Z</time></trkpt><trkpt lat="43.50839719005872" lon="12.262186783371376"><ele>363.0</ele><time>2026-04-26T08:53:27Z</time></trkpt><trkpt lat="43.50839922021719" lon="12.262013080988135"><ele>363.0</ele><time>2026-04-26T08:53:28Z</time></trkpt><trkpt lat="43.508408853733165" lon="12.26184398127326"><ele>363.0</ele><time>2026-04-26T08:53:29Z</time></trkpt><trkpt lat="43.50840796182644" lon="12.261665599087296"><ele>363.0</ele><time>2026-04-26T08:53:30Z</time></trkpt><trkpt lat="43.508392083971906" lon="12.261493778524157"><ele>363.0</ele><time>2026-04-26T08:53:31Z</time></trkpt><trkpt lat="43.508350767667174" lon="12.261316611068445"><ele>362.5</ele><time>2026-04-26T08:53:32Z</time></trkpt><trkpt lat="43.5082886130802" lon="12.261154162761779"><ele>362.0</ele><time>2026-04-26T08:53:33Z</time></trkpt><trkpt lat="43.50822528653087" lon="12.260996825016827"><ele>361.5</ele><time>2026-04-26T08:53:34Z</time></trkpt><trkpt lat="43.50818816278467" lon="12.260835457339594"><ele>361.0</ele><time>2026-04-26T08:53:35Z</time></trkpt><trkpt lat="43.508178206873495" lon="12.260670159394364"><ele>360.8</ele><time>2026-04-26T08:53:36Z</time></trkpt><trkpt lat="43.50817261602835" lon="12.260514202555814"><ele>360.6</ele><time>2026-04-26T08:53:37Z</time></trkpt><trkpt lat="43.50815065043116" lon="12.260392604655829"><ele>360.4</ele><time>2026-04-26T08:53:38Z</time></trkpt><trkpt lat="43.5081038585199" lon="12.260295533169312"><ele>360.2</ele><time>2026-04-26T08:53:39Z</time></trkpt><trkpt lat="43.5080186169201" lon="12.260231546763038"><ele>360.0</ele><time>2026-04-26T08:53:40Z</time></trkpt><trkpt lat="43.507914817483886" lon="12.260202972965951"><ele>357.5</ele><time>2026-04-26T08:53:41Z</time></trkpt><trkpt lat="43.507800758968095" lon="12.260217072444282"><ele>355.0</ele><time>2026-04-26T08:53:42Z</time></trkpt><trkpt lat="43.50768220633583" lon="12.260256053469076"><ele>352.5</ele><time>2026-04-26T08:53:43Z</time></trkpt><trkpt lat="43.50757372694521" lon="12.260301747086144"><ele>350.0</ele><time>2026-04-26T08:53:44Z</time></trkpt><trkpt lat="43.507478980624036" lon="12.260377391485164"><ele>350.0</ele><time>2026-04-26T08:53:45Z</time></trkpt><trkpt lat="43.50739166471112" lon="12.260456225027701"><ele>350.0</ele><time>2026-04-26T08:53:46Z</time></trkpt><trkpt lat="43.50730614573924" lon="12.26051634382831"><ele>350.0</ele><time>2026-04-26T08:53:47Z</time></trkpt><trkpt lat="43.50720540516137" lon="12.260544127131073"><ele>350.0</ele><time>2026-04-26T08:53:48Z</time></trkpt><trkpt lat="43.507098475632205" lon="12.260561455697955"><ele>350.0</ele><time>2026-04-26T08:53:49Z</time></trkpt><trkpt lat="43.507002619246855" lon="12.260550283493842"><ele>353.6</ele><time>2026-04-26T08:53:50Z</time></trkpt><trkpt lat="43.50691475905687" lon="12.260512024011708"><ele>357.2</ele><time>2026-04-26T08:53:51Z</time></trkpt><trkpt lat="43.50685134453253" lon="12.260427889569339"><ele>360.79999999999995</ele><time>2026-04-26T08:53:52Z</time></trkpt><trkpt lat="43.506820265627" lon="12.26032032096621"><ele>364.4</ele><time>2026-04-26T08:53:53Z</time></trkpt><trkpt lat="43.50681324995054" lon="12.2601877582196"><ele>368.0</ele><time>2026-04-26T08:53:54Z</time></trkpt><trkpt lat="43.50681834030677" lon="12.260046704459434"><ele>368.0</ele><time>2026-04-26T08:53:55Z</time></trkpt><trkpt lat="43.50681631070761" lon="12.259897622661725"><ele>368.0</ele><time>2026-04-26T08:53:56Z</time></trkpt><trkpt lat="43.50679720030157" lon="12.259742084198711"><ele>368.0</ele><time>2026-04-26T08:53:57Z</time></trkpt><trkpt lat="43.50676249694523" lon="12.259585409014994"><ele>368.0</ele><time>2026-04-26T08:53:58Z</time></trkpt><trkpt lat="43.50671537148362" lon="12.259421875485847"><ele>365.25</ele><time>2026-04-26T08:53:59Z</time></trkpt><trkpt lat="43.50666184655642" lon="12.259260150831013"><ele>362.5</ele><time>2026-04-26T08:54:00Z</time></trkpt><trkpt lat="43.506602338631865" lon="12.259112311378656"><ele>359.75</ele><time>2026-04-26T08:54:01Z</time></trkpt><trkpt lat="43.50656463609848" lon="12.2589558808992"><ele>357.0</ele><time>2026-04-26T08:54:02Z</time></trkpt><trkpt lat="43.50656325838303" lon="12.25879773632109"><ele>355.5</ele><time>2026-04-26T08:54:03Z</time></trkpt><trkpt lat="43.50656083650589" lon="12.258633557246897"><ele>354.0</ele><time>2026-04-26T08:54:04Z</time></trkpt><trkpt lat="43.50657821074488" lon="12.25847425120458"><ele>352.5</ele><time>2026-04-26T08:54:05Z</time></trkpt><trkpt lat="43.50660952704981" lon="12.258316970894349"><ele>351.0</ele><time>2026-04-26T08:54:06Z</time></trkpt><trkpt lat="43.50665457875543" lon="12.258162520880386"><ele>350.25</ele><time>2026-04-26T08:54:07Z</time></trkpt><trkpt lat="43.506683982006244" lon="12.258009368010155"><ele>349.5</ele><time>2026-04-26T08:54:08Z</time></trkpt><trkpt lat="43.50667226126664" lon="12.257861617885677"><ele>348.75</ele><time>2026-04-26T08:54:09Z</time></trkpt><trkpt lat="43.506630195395076" lon="12.257708507719345"><ele>348.0</ele><time>2026-04-26T08:54:10Z</time></trkpt><trkpt lat="43.50657250147624" lon="12.25756707287797"><ele>348.0</ele><time>2026-04-26T08:54:11Z</time></trkpt><trkpt lat="43.50651281826908" lon="12.25742574583542"><ele>348.0</ele><time>2026-04-26T08:54:12Z</time></trkpt><trkpt lat="43.50645478877706" lon="12.257287953361146"><ele>348.0</ele><time>2026-04-26T08:54:13Z</time></trkpt><trkpt lat="43.50638546963341" lon="12.257152987109802"><ele>348.0</ele><time>2026-04-26T08:54:14Z</time></trkpt><trkpt lat="43.506324806448724" lon="12.257009010069533"><ele>348.25</ele><time>2026-04-26T08:54:15Z</time></trkpt><trkpt lat="43.506264831984524" lon="12.256860573078797"><ele>348.5</ele><time>2026-04-26T08:54:16Z</time></trkpt><trkpt lat="43.50620115761504" lon="12.256714430230469"><ele>348.75</ele><time>2026-04-26T08:54:17Z</time></trkpt><trkpt lat="43.5061382774968" lon="12.25656830132728"><ele>349.0</ele><time>2026-04-26T08:54:18Z</time></trkpt><trkpt lat="43.50607268408284" lon="12.256420812115635"><ele>347.75</ele><time>2026-04-26T08:54:19Z</time></trkpt><trkpt lat="43.50600578376851" lon="12.256272591474808"><ele>346.5</ele><time>2026-04-26T08:54:20Z</time></trkpt><trkpt lat="43.505934301183814" lon="12.256127810830684"><ele>345.25</ele><time>2026-04-26T08:54:21Z</time></trkpt><trkpt lat="43.50584672567197" lon="12.256001358812304"><ele>344.0</ele><time>2026-04-26T08:54:22Z</time></trkpt><trkpt lat="43.505747065350015" lon="12.255885716313596"><ele>344.0</ele><time>2026-04-26T08:54:23Z</time></trkpt><trkpt lat="43.50564636696549" lon="12.255775686538417"><ele>344.0</ele><time>2026-04-26T08:54:24Z</time></trkpt><trkpt lat="43.50554471912993" lon="12.255675331966218"><ele>344.0</ele><time>2026-04-26T08:54:25Z</time></trkpt><trkpt lat="43.5054337042358" lon="12.255584862655528"><ele>344.0</ele><time>2026-04-26T08:54:26Z</time></trkpt><trkpt lat="43.50532523525838" lon="12.255498748101436"><ele>343.75</ele><time>2026-04-26T08:54:27Z</time></trkpt><trkpt lat="43.50522214742096" lon="12.25540340553623"><ele>343.5</ele><time>2026-04-26T08:54:28Z</time></trkpt><trkpt lat="43.505114699375426" lon="12.25531169997345"><ele>343.25</ele><time>2026-04-26T08:54:29Z</time></trkpt><trkpt lat="43.50500605025453" lon="12.255221799406693"><ele>343.0</ele><time>2026-04-26T08:54:30Z</time></trkpt><trkpt lat="43.50489037186695" lon="12.255128039701756"><ele>343.0</ele><time>2026-04-26T08:54:31Z</time></trkpt><trkpt lat="43.50477571575054" lon="12.255032124277413"><ele>343.0</ele><time>2026-04-26T08:54:32Z</time></trkpt><trkpt lat="43.504665390700744" lon="12.254935590302964"><ele>343.0</ele><time>2026-04-26T08:54:33Z</time></trkpt><trkpt lat="43.50456086912113" lon="12.254836788052527"><ele>343.0</ele><time>2026-04-26T08:54:34Z</time></trkpt><trkpt lat="43.50445454639394" lon="12.254726505113885"><ele>343.5</ele><time>2026-04-26T08:54:35Z</time></trkpt><trkpt lat="43.50436162366265" lon="12.254596108607034"><ele>344.0</ele><time>2026-04-26T08:54:36Z</time></trkpt><trkpt lat="43.50427420322333" lon="12.254460087568445"><ele>344.5</ele><time>2026-04-26T08:54:37Z</time></trkpt><trkpt lat="43.504196023972234" lon="12.254328446772028"><ele>345.0</ele><time>2026-04-26T08:54:38Z</time></trkpt><trkpt lat="43.504125802250385" lon="12.254199111283539"><ele>345.0</ele><time>2026-04-26T08:54:39Z</time></trkpt><trkpt lat="43.50406023890401" lon="12.25407784231533"><ele>345.0</ele><time>2026-04-26T08:54:40Z</time></trkpt><trkpt lat="43.503995732839215" lon="12.253959623381894"><ele>345.0</ele><time>2026-04-26T08:54:41Z</time></trkpt><trkpt lat="43.50393537381321" lon="12.253845330180663"><ele>345.0</ele><time>2026-04-26T08:54:42Z</time></trkpt><trkpt lat="43.50387843360467" lon="12.253754996222302"><ele>345.0</ele><time>2026-04-26T08:54:43Z</time></trkpt><trkpt lat="43.50382966466706" lon="12.253667205879928"><ele>344.0</ele><time>2026-04-26T08:54:44Z</time></trkpt><trkpt lat="43.50379518408751" lon="12.253592685802161"><ele>343.0</ele><time>2026-04-26T08:54:45Z</time></trkpt><trkpt lat="43.50375417603885" lon="12.253520001459197"><ele>342.0</ele><time>2026-04-26T08:54:46Z</time></trkpt><trkpt lat="43.503700004958596" lon="12.253444010958223"><ele>341.0</ele><time>2026-04-26T08:54:48Z</time></trkpt><trkpt lat="43.50362373199905" lon="12.253470466792042"><ele>340.0</ele><time>2026-04-26T08:54:50Z</time></trkpt><trkpt lat="43.50354445141223" lon="12.253495783798435"><ele>339.0</ele><time>2026-04-26T08:54:52Z</time></trkpt><trkpt lat="43.50345304186539" lon="12.253506641623161"><ele>339.0</ele><time>2026-04-26T08:54:54Z</time></trkpt><trkpt lat="43.50338553231094" lon="12.253510107202915"><ele>339.0</ele><time>2026-04-26T08:54:56Z</time></trkpt><trkpt lat="43.50334773620657" lon="12.253579647874448"><ele>339.0</ele><time>2026-04-26T08:55:00.999Z</time></trkpt><trkpt lat="43.50325443163008" lon="12.25366094833937"><ele>339.0</ele><time>2026-04-26T08:55:06.999Z</time></trkpt><trkpt lat="43.503176986268194" lon="12.253759829557845"><ele>339.0</ele><time>2026-04-26T08:55:08.999Z</time></trkpt><trkpt lat="43.503140449857014" lon="12.253849632691704"><ele>339.0</ele><time>2026-04-26T08:55:09.999Z</time></trkpt><trkpt lat="43.50314036094993" lon="12.25401285116229"><ele>340.5</ele><time>2026-04-26T08:55:11.999Z</time></trkpt><trkpt lat="43.50314505289213" lon="12.254118803634269"><ele>342.0</ele><time>2026-04-26T08:55:12.999Z</time></trkpt><trkpt lat="43.503138943277264" lon="12.254221645986364"><ele>343.5</ele><time>2026-04-26T08:55:13.999Z</time></trkpt><trkpt lat="43.50311941751298" lon="12.254316456098373"><ele>345.0</ele><time>2026-04-26T08:55:14.999Z</time></trkpt><trkpt lat="43.50307850265788" lon="12.254482447258937"><ele>346.5</ele><time>2026-04-26T08:55:16.999Z</time></trkpt><trkpt lat="43.50307992698788" lon="12.254582074110298"><ele>348.0</ele><time>2026-04-26T08:55:17.999Z</time></trkpt><trkpt lat="43.50306591105462" lon="12.254677153961723"><ele>348.0</ele><time>2026-04-26T08:55:18.999Z</time></trkpt><trkpt lat="43.50304098042071" lon="12.254784893957916"><ele>348.0</ele><time>2026-04-26T08:55:20Z</time></trkpt><trkpt lat="43.5030244054529" lon="12.254886809147754"><ele>348.0</ele><time>2026-04-26T08:55:21Z</time></trkpt><trkpt lat="43.503015257108835" lon="12.25500646024287"><ele>348.0</ele><time>2026-04-26T08:55:22Z</time></trkpt><trkpt lat="43.502994812717425" lon="12.25509635104278"><ele>348.0</ele><time>2026-04-26T08:55:23Z</time></trkpt><trkpt lat="43.502967794265594" lon="12.255203371238538"><ele>348.0</ele><time>2026-04-26T08:55:24Z</time></trkpt><trkpt lat="43.50294176220624" lon="12.255311345671394"><ele>349.42857142857144</ele><time>2026-04-26T08:55:25Z</time></trkpt><trkpt lat="43.50291746208896" lon="12.255410444446996"><ele>350.8571428571429</ele><time>2026-04-26T08:55:26Z</time></trkpt><trkpt lat="43.502894750436035" lon="12.255500663204883"><ele>352.28571428571433</ele><time>2026-04-26T08:55:27Z</time></trkpt><trkpt lat="43.502866132189595" lon="12.25559097183123"><ele>353.7142857142857</ele><time>2026-04-26T08:55:28Z</time></trkpt><trkpt lat="43.50284288676441" lon="12.255678440292069"><ele>355.14285714285717</ele><time>2026-04-26T08:55:29Z</time></trkpt><trkpt lat="43.5028076212397" lon="12.255757055017963"><ele>356.5714285714286</ele><time>2026-04-26T08:55:30Z</time></trkpt><trkpt lat="43.50278178254229" lon="12.255845447804976"><ele>358.0</ele><time>2026-04-26T08:55:31Z</time></trkpt><trkpt lat="43.50275283408867" lon="12.255929503941108"><ele>358.59999999999997</ele><time>2026-04-26T08:55:32Z</time></trkpt><trkpt lat="43.50273061065973" lon="12.256017586795528"><ele>359.2</ele><time>2026-04-26T08:55:33Z</time></trkpt><trkpt lat="43.50268636869592" lon="12.256190250626611"><ele>359.8</ele><time>2026-04-26T08:55:35Z</time></trkpt><trkpt lat="43.5026528422071" lon="12.256265725779716"><ele>360.4</ele><time>2026-04-26T08:55:36Z</time></trkpt><trkpt lat="43.502589826407146" lon="12.256418647648065"><ele>361.0</ele><time>2026-04-26T08:55:38Z</time></trkpt><trkpt lat="43.502564771753626" lon="12.2565086254104"><ele>361.8333333333333</ele><time>2026-04-26T08:55:39Z</time></trkpt><trkpt lat="43.502504957765865" lon="12.25667348649273"><ele>362.66666666666663</ele><time>2026-04-26T08:55:41Z</time></trkpt><trkpt lat="43.502509060899065" lon="12.256779776000664"><ele>363.5</ele><time>2026-04-26T08:55:42Z</time></trkpt><trkpt lat="43.5025092326678" lon="12.256872071730038"><ele>364.3333333333333</ele><time>2026-04-26T08:55:43Z</time></trkpt><trkpt lat="43.50250424335658" lon="12.256974750111802"><ele>365.1666666666667</ele><time>2026-04-26T08:55:44Z</time></trkpt><trkpt lat="43.502504069676085" lon="12.257073115914537"><ele>366.0</ele><time>2026-04-26T08:55:45Z</time></trkpt><trkpt lat="43.50250093503086" lon="12.25722296078546"><ele>366.8</ele><time>2026-04-26T08:55:47Z</time></trkpt><trkpt lat="43.50256048494602" lon="12.257369618719187"><ele>367.6</ele><time>2026-04-26T08:55:49Z</time></trkpt><trkpt lat="43.50256352249368" lon="12.257547101270339"><ele>368.4</ele><time>2026-04-26T08:55:51Z</time></trkpt><trkpt lat="43.502538426926925" lon="12.25764602005181"><ele>369.2</ele><time>2026-04-26T08:55:52Z</time></trkpt><trkpt lat="43.502530025968525" lon="12.257734605265108"><ele>370.0</ele><time>2026-04-26T08:55:53Z</time></trkpt><trkpt lat="43.50257218031001" lon="12.2578613732511"><ele>370.0</ele><time>2026-04-26T08:55:55Z</time></trkpt><trkpt lat="43.502601749140254" lon="12.25802404704019"><ele>370.0</ele><time>2026-04-26T08:55:57Z</time></trkpt><trkpt lat="43.50259103149659" lon="12.258110778350748"><ele>370.0</ele><time>2026-04-26T08:55:58Z</time></trkpt><trkpt lat="43.50258250661308" lon="12.258272620398616"><ele>370.0</ele><time>2026-04-26T08:56:00Z</time></trkpt><trkpt lat="43.50255111223816" lon="12.258406418580602"><ele>370.0</ele><time>2026-04-26T08:56:02Z</time></trkpt><trkpt lat="43.502461215087756" lon="12.258506251769683"><ele>371.16666666666663</ele><time>2026-04-26T08:56:04Z</time></trkpt><trkpt lat="43.502437698795795" lon="12.258667598257235"><ele>372.3333333333333</ele><time>2026-04-26T08:56:06Z</time></trkpt><trkpt lat="43.50245799888799" lon="12.258761303448376"><ele>373.5</ele><time>2026-04-26T08:56:07Z</time></trkpt><trkpt lat="43.502480240673805" lon="12.258862363094451"><ele>374.6666666666667</ele><time>2026-04-26T08:56:08Z</time></trkpt><trkpt lat="43.50248348333662" lon="12.25895670441937"><ele>375.83333333333337</ele><time>2026-04-26T08:56:09Z</time></trkpt><trkpt lat="43.502522876763976" lon="12.259081130974442"><ele>377.0</ele><time>2026-04-26T08:56:11Z</time></trkpt><trkpt lat="43.502572385811" lon="12.259134772592448"><ele>377.33333333333337</ele><time>2026-04-26T08:56:12Z</time></trkpt><trkpt lat="43.50261650291501" lon="12.259273488433989"><ele>377.6666666666667</ele><time>2026-04-26T08:56:14Z</time></trkpt><trkpt lat="43.50261637076117" lon="12.259371843971133"><ele>378.0</ele><time>2026-04-26T08:56:15Z</time></trkpt><trkpt lat="43.502636266419" lon="12.259466661536347"><ele>378.3333333333333</ele><time>2026-04-26T08:56:16Z</time></trkpt><trkpt lat="43.502647803393714" lon="12.259577871637598"><ele>378.66666666666663</ele><time>2026-04-26T08:56:17Z</time></trkpt><trkpt lat="43.502643844571836" lon="12.259684396772656"><ele>379.0</ele><time>2026-04-26T08:56:18Z</time></trkpt><trkpt lat="43.502636504252564" lon="12.259793000887669"><ele>380.16666666666663</ele><time>2026-04-26T08:56:19Z</time></trkpt><trkpt lat="43.50263756580954" lon="12.259907529397582"><ele>381.3333333333333</ele><time>2026-04-26T08:56:20Z</time></trkpt><trkpt lat="43.50264641001044" lon="12.260026189324236"><ele>382.5</ele><time>2026-04-26T08:56:21Z</time></trkpt><trkpt lat="43.50266141865071" lon="12.260133729005265"><ele>383.66666666666663</ele><time>2026-04-26T08:56:22Z</time></trkpt><trkpt lat="43.50266776108467" lon="12.260233745984987"><ele>384.8333333333333</ele><time>2026-04-26T08:56:23Z</time></trkpt><trkpt lat="43.502670524631924" lon="12.260344667356758"><ele>386.0</ele><time>2026-04-26T08:56:24Z</time></trkpt><trkpt lat="43.502688189438956" lon="12.26047332670014"><ele>385.99999999999994</ele><time>2026-04-26T08:56:26Z</time></trkpt><trkpt lat="43.50268736763451" lon="12.260608244826102"><ele>386.0</ele><time>2026-04-26T08:56:28Z</time></trkpt><trkpt lat="43.50268377249369" lon="12.260704072492391"><ele>386.0</ele><time>2026-04-26T08:56:29Z</time></trkpt><trkpt lat="43.502637384617344" lon="12.2608508308228"><ele>386.0</ele><time>2026-04-26T08:56:31Z</time></trkpt><trkpt lat="43.502618598565746" lon="12.260984849837017"><ele>385.99999999999994</ele><time>2026-04-26T08:56:33Z</time></trkpt><trkpt lat="43.5026231204844" lon="12.261075345609669"><ele>386.0</ele><time>2026-04-26T08:56:34Z</time></trkpt><trkpt lat="43.502636835637" lon="12.261163123784252"><ele>387.4</ele><time>2026-04-26T08:56:35Z</time></trkpt><trkpt lat="43.50265771490754" lon="12.261313709738886"><ele>388.8</ele><time>2026-04-26T08:56:37Z</time></trkpt><trkpt lat="43.50270133962596" lon="12.261464963540048"><ele>390.2</ele><time>2026-04-26T08:56:39Z</time></trkpt><trkpt lat="43.5027414779609" lon="12.261561827964528"><ele>391.59999999999997</ele><time>2026-04-26T08:56:40Z</time></trkpt><trkpt lat="43.50278796827428" lon="12.261636642109675"><ele>393.0</ele><time>2026-04-26T08:56:41Z</time></trkpt><trkpt lat="43.50284498767093" lon="12.261696778606463"><ele>393.8333333333333</ele><time>2026-04-26T08:56:42Z</time></trkpt><trkpt lat="43.502886374746474" lon="12.261825015709297"><ele>394.66666666666663</ele><time>2026-04-26T08:56:44Z</time></trkpt><trkpt lat="43.502919338804645" lon="12.261914926261552"><ele>395.5</ele><time>2026-04-26T08:56:45Z</time></trkpt><trkpt lat="43.50296661834817" lon="12.261987047905233"><ele>396.3333333333333</ele><time>2026-04-26T08:56:46Z</time></trkpt><trkpt lat="43.503026370764516" lon="12.262058792501934"><ele>397.16666666666663</ele><time>2026-04-26T08:56:47Z</time></trkpt><trkpt lat="43.5030741066306" lon="12.262134408801808"><ele>398.0</ele><time>2026-04-26T08:56:48Z</time></trkpt><trkpt lat="43.50313059476294" lon="12.262207260051165"><ele>400.49999999999994</ele><time>2026-04-26T08:56:49Z</time></trkpt><trkpt lat="43.50317448443115" lon="12.262305132247466"><ele>403.0</ele><time>2026-04-26T08:56:50Z</time></trkpt><trkpt lat="43.50321524675561" lon="12.2624308338608"><ele>405.5</ele><time>2026-04-26T08:56:51Z</time></trkpt><trkpt lat="43.50326409071216" lon="12.26248772333751"><ele>408.0</ele><time>2026-04-26T08:56:52Z</time></trkpt><trkpt lat="43.50331432863274" lon="12.2625538253937"><ele>410.49999999999994</ele><time>2026-04-26T08:56:53Z</time></trkpt><trkpt lat="43.50336082087012" lon="12.26263454277897"><ele>413.0</ele><time>2026-04-26T08:56:54Z</time></trkpt><trkpt lat="43.5034031745263" lon="12.262718930736359"><ele>412.99999999999994</ele><time>2026-04-26T08:56:55Z</time></trkpt><trkpt lat="43.50348744355986" lon="12.262838059656287"><ele>413.0</ele><time>2026-04-26T08:56:57Z</time></trkpt><trkpt lat="43.50353864322748" lon="12.262895970514363"><ele>413.0</ele><time>2026-04-26T08:56:58Z</time></trkpt><trkpt lat="43.50360464377778" lon="12.262943744806355"><ele>413.0</ele><time>2026-04-26T08:56:59Z</time></trkpt><trkpt lat="43.50367202905432" lon="12.262999527287084"><ele>412.99999999999994</ele><time>2026-04-26T08:57:00Z</time></trkpt><trkpt lat="43.50373972182782" lon="12.263058393959412"><ele>413.0</ele><time>2026-04-26T08:57:01Z</time></trkpt><trkpt lat="43.50380200635935" lon="12.263115691377314"><ele>415.49999999999994</ele><time>2026-04-26T08:57:02Z</time></trkpt><trkpt lat="43.50387076990312" lon="12.263176892752336"><ele>418.0</ele><time>2026-04-26T08:57:02.999Z</time></trkpt><trkpt lat="43.50394162733617" lon="12.263239857817531"><ele>420.5</ele><time>2026-04-26T08:57:03.999Z</time></trkpt><trkpt lat="43.504005223167965" lon="12.263291625927797"><ele>423.0</ele><time>2026-04-26T08:57:04.999Z</time></trkpt><trkpt lat="43.50407713416486" lon="12.26334771891867"><ele>425.49999999999994</ele><time>2026-04-26T08:57:05.999Z</time></trkpt><trkpt lat="43.504146156471606" lon="12.263397202094213"><ele>428.0</ele><time>2026-04-26T08:57:06.999Z</time></trkpt><trkpt lat="43.50421490582099" lon="12.263449978746051"><ele>427.99999999999994</ele><time>2026-04-26T08:57:07.999Z</time></trkpt><trkpt lat="43.50428305030991" lon="12.263512398163579"><ele>428.0</ele><time>2026-04-26T08:57:08.999Z</time></trkpt><trkpt lat="43.50435386218262" lon="12.26358648960028"><ele>428.0</ele><time>2026-04-26T08:57:09.999Z</time></trkpt><trkpt lat="43.5044277747062" lon="12.263664254115852"><ele>428.0</ele><time>2026-04-26T08:57:10.999Z</time></trkpt><trkpt lat="43.5044968969495" lon="12.263741402120566"><ele>427.99999999999994</ele><time>2026-04-26T08:57:11.999Z</time></trkpt><trkpt lat="43.504565473212274" lon="12.263811060619691"><ele>428.0</ele><time>2026-04-26T08:57:12.999Z</time></trkpt><trkpt lat="43.50461462441787" lon="12.263875991102067"><ele>428.3333333333333</ele><time>2026-04-26T08:57:13.999Z</time></trkpt><trkpt lat="43.50466119018071" lon="12.263941063757096"><ele>428.66666666666663</ele><time>2026-04-26T08:57:14.999Z</time></trkpt><trkpt lat="43.50469886981205" lon="12.264087411385514"><ele>429.0</ele><time>2026-04-26T08:57:16.999Z</time></trkpt><trkpt lat="43.504664927202974" lon="12.264179540628739"><ele>429.33333333333337</ele><time>2026-04-26T08:57:17.999Z</time></trkpt><trkpt lat="43.50460568495535" lon="12.264255932448261"><ele>429.6666666666667</ele><time>2026-04-26T08:57:18.999Z</time></trkpt><trkpt lat="43.50452412215431" lon="12.264345533243615"><ele>430.0</ele><time>2026-04-26T08:57:19.999Z</time></trkpt><trkpt lat="43.50443938494583" lon="12.26442181452119"><ele>430.0</ele><time>2026-04-26T08:57:20.999Z</time></trkpt><trkpt lat="43.50435796063155" lon="12.264486563770571"><ele>430.0</ele><time>2026-04-26T08:57:21.999Z</time></trkpt><trkpt lat="43.504260869096626" lon="12.264567664200918"><ele>430.0</ele><time>2026-04-26T08:57:22.999Z</time></trkpt><trkpt lat="43.504169803846295" lon="12.264640395675846"><ele>430.0</ele><time>2026-04-26T08:57:23.999Z</time></trkpt><trkpt lat="43.504103299067715" lon="12.264696344276741"><ele>430.0</ele><time>2026-04-26T08:57:24.999Z</time></trkpt><trkpt lat="43.504030560329035" lon="12.264743681223605"><ele>430.00000000000006</ele><time>2026-04-26T08:57:25.999Z</time></trkpt><trkpt lat="43.50395511250382" lon="12.264792740463127"><ele>430.0</ele><time>2026-04-26T08:57:26.999Z</time></trkpt><trkpt lat="43.50388257761495" lon="12.264822948005122"><ele>430.0</ele><time>2026-04-26T08:57:27.999Z</time></trkpt><trkpt lat="43.50381523645821" lon="12.264805366908867"><ele>430.0</ele><time>2026-04-26T08:57:28.999Z</time></trkpt><trkpt lat="43.50375856997855" lon="12.264754853694846"><ele>430.00000000000006</ele><time>2026-04-26T08:57:29.999Z</time></trkpt><trkpt lat="43.50370762817698" lon="12.264681228822514"><ele>430.0</ele><time>2026-04-26T08:57:30.999Z</time></trkpt><trkpt lat="43.50359114705095" lon="12.264626775906176"><ele>431.1666666666667</ele><time>2026-04-26T08:57:33Z</time></trkpt><trkpt lat="43.50350428405306" lon="12.264632194550328"><ele>432.33333333333337</ele><time>2026-04-26T08:57:34Z</time></trkpt><trkpt lat="43.50341483091429" lon="12.264628003830433"><ele>433.5</ele><time>2026-04-26T08:57:35Z</time></trkpt><trkpt lat="43.503331962151755" lon="12.264592927409076"><ele>434.66666666666663</ele><time>2026-04-26T08:57:36Z</time></trkpt><trkpt lat="43.50327537608839" lon="12.264554261033258"><ele>435.8333333333333</ele><time>2026-04-26T08:57:37Z</time></trkpt><trkpt lat="43.503220693976836" lon="12.264510704135065"><ele>437.0</ele><time>2026-04-26T08:57:38Z</time></trkpt><trkpt lat="43.503135628436624" lon="12.264405764552212"><ele>437.0</ele><time>2026-04-26T08:57:40Z</time></trkpt><trkpt lat="43.50305458201119" lon="12.264361716890424"><ele>437.00000000000006</ele><time>2026-04-26T08:57:41Z</time></trkpt><trkpt lat="43.50298864926624" lon="12.264338521478177"><ele>437.00000000000006</ele><time>2026-04-26T08:57:42Z</time></trkpt><trkpt lat="43.50285441955812" lon="12.264374268757102"><ele>437.0</ele><time>2026-04-26T08:57:44Z</time></trkpt><trkpt lat="43.50279166240267" lon="12.264359772395016"><ele>437.0</ele><time>2026-04-26T08:57:45Z</time></trkpt><trkpt lat="43.502676631692246" lon="12.26443368025048"><ele>436.8333333333333</ele><time>2026-04-26T08:57:47Z</time></trkpt><trkpt lat="43.50260745201601" lon="12.26449824620167"><ele>436.66666666666663</ele><time>2026-04-26T08:57:48Z</time></trkpt><trkpt lat="43.502557207125726" lon="12.2645669202378"><ele>436.5</ele><time>2026-04-26T08:57:49Z</time></trkpt><trkpt lat="43.50250239895852" lon="12.264645847975475"><ele>436.33333333333337</ele><time>2026-04-26T08:57:50Z</time></trkpt><trkpt lat="43.50243781503376" lon="12.264742167920472"><ele>436.1666666666667</ele><time>2026-04-26T08:57:51Z</time></trkpt><trkpt lat="43.50236723948838" lon="12.264839740348668"><ele>436.0</ele><time>2026-04-26T08:57:52Z</time></trkpt><trkpt lat="43.50230791516949" lon="12.264915451659302"><ele>435.83333333333337</ele><time>2026-04-26T08:57:53Z</time></trkpt><trkpt lat="43.50223717323536" lon="12.264978727550444"><ele>435.6666666666667</ele><time>2026-04-26T08:57:54Z</time></trkpt><trkpt lat="43.50215410602166" lon="12.265064534588173"><ele>435.5</ele><time>2026-04-26T08:57:55Z</time></trkpt><trkpt lat="43.5020897183263" lon="12.26516091734054"><ele>435.33333333333337</ele><time>2026-04-26T08:57:56Z</time></trkpt><trkpt lat="43.50205188304796" lon="12.265252394569782"><ele>435.1666666666667</ele><time>2026-04-26T08:57:57Z</time></trkpt><trkpt lat="43.50202023373513" lon="12.265364443787973"><ele>435.0</ele><time>2026-04-26T08:57:58Z</time></trkpt><trkpt lat="43.50200222251213" lon="12.265472536863337"><ele>434.4</ele><time>2026-04-26T08:57:59Z</time></trkpt><trkpt lat="43.50197011610221" lon="12.265580016147956"><ele>433.8</ele><time>2026-04-26T08:58:00Z</time></trkpt><trkpt lat="43.50195050046052" lon="12.265689061140357"><ele>433.20000000000005</ele><time>2026-04-26T08:58:01Z</time></trkpt><trkpt lat="43.501957359552485" lon="12.26585941121861"><ele>432.6</ele><time>2026-04-26T08:58:03Z</time></trkpt><trkpt lat="43.50198092379319" lon="12.266044287344227"><ele>432.0</ele><time>2026-04-26T08:58:05Z</time></trkpt><trkpt lat="43.50199066904235" lon="12.26614514583702"><ele>433.40000000000003</ele><time>2026-04-26T08:58:06Z</time></trkpt><trkpt lat="43.50197804124398" lon="12.266257620918301"><ele>434.80000000000007</ele><time>2026-04-26T08:58:07Z</time></trkpt><trkpt lat="43.50197686098288" lon="12.266399876581984"><ele>436.2</ele><time>2026-04-26T08:58:08Z</time></trkpt><trkpt lat="43.50199282916189" lon="12.266550314775042"><ele>437.6</ele><time>2026-04-26T08:58:09Z</time></trkpt><trkpt lat="43.50199990086275" lon="12.26669281012863"><ele>439.0</ele><time>2026-04-26T08:58:10Z</time></trkpt><trkpt lat="43.501989748393925" lon="12.266810114024397"><ele>439.00000000000006</ele><time>2026-04-26T08:58:11Z</time></trkpt><trkpt lat="43.50198477367671" lon="12.26691438316497"><ele>439.0</ele><time>2026-04-26T08:58:12Z</time></trkpt><trkpt lat="43.50200069985589" lon="12.26701254727961"><ele>439.0</ele><time>2026-04-26T08:58:13Z</time></trkpt><trkpt lat="43.50204378290296" lon="12.267104515779891"><ele>439.0</ele><time>2026-04-26T08:58:14Z</time></trkpt><trkpt lat="43.50211410062889" lon="12.267211195242977"><ele>439.00000000000006</ele><time>2026-04-26T08:58:15Z</time></trkpt><trkpt lat="43.50217388825616" lon="12.267336721949654"><ele>439.0</ele><time>2026-04-26T08:58:16Z</time></trkpt><trkpt lat="43.50222270514195" lon="12.267436762755825"><ele>440.00000000000006</ele><time>2026-04-26T08:58:17Z</time></trkpt><trkpt lat="43.50227110976466" lon="12.267550543974819"><ele>441.0</ele><time>2026-04-26T08:58:18Z</time></trkpt><trkpt lat="43.50232623905343" lon="12.2676574381627"><ele>442.0</ele><time>2026-04-26T08:58:19Z</time></trkpt><trkpt lat="43.50236690740326" lon="12.26776513762442"><ele>443.0</ele><time>2026-04-26T08:58:20Z</time></trkpt><trkpt lat="43.50238517770311" lon="12.267854959735061"><ele>444.00000000000006</ele><time>2026-04-26T08:58:21Z</time></trkpt><trkpt lat="43.5023232146227" lon="12.267944747344707"><ele>445.0</ele><time>2026-04-26T08:58:23Z</time></trkpt><trkpt lat="43.50225636769145" lon="12.267920136046321"><ele>445.00000000000006</ele><time>2026-04-26T08:58:24Z</time></trkpt><trkpt lat="43.50219246052055" lon="12.267849741343856"><ele>445.0</ele><time>2026-04-26T08:58:25Z</time></trkpt><trkpt lat="43.50211860065902" lon="12.267787614539966"><ele>445.0</ele><time>2026-04-26T08:58:26Z</time></trkpt><trkpt lat="43.50205717428504" lon="12.267755051748019"><ele>445.0</ele><time>2026-04-26T08:58:27Z</time></trkpt><trkpt lat="43.501989513637035" lon="12.267742473981706"><ele>445.00000000000006</ele><time>2026-04-26T08:58:28Z</time></trkpt><trkpt lat="43.50190770333106" lon="12.267869063168497"><ele>445.0</ele><time>2026-04-26T08:58:30Z</time></trkpt><trkpt lat="43.50189720992151" lon="12.26797678334801"><ele>447.8</ele><time>2026-04-26T08:58:31Z</time></trkpt><trkpt lat="43.50193094625888" lon="12.268161981589648"><ele>450.6</ele><time>2026-04-26T08:58:33Z</time></trkpt><trkpt lat="43.50192963148804" lon="12.268261484145413"><ele>453.4</ele><time>2026-04-26T08:58:34Z</time></trkpt><trkpt lat="43.501842545492835" lon="12.268361332275669"><ele>456.2</ele><time>2026-04-26T08:58:36Z</time></trkpt><trkpt lat="43.501777857303956" lon="12.268395111297856"><ele>459.0</ele><time>2026-04-26T08:58:37Z</time></trkpt><trkpt lat="43.50171294211396" lon="12.268382693759653"><ele>459.0</ele><time>2026-04-26T08:58:38Z</time></trkpt><trkpt lat="43.50163284074457" lon="12.268245236226807"><ele>459.0</ele><time>2026-04-26T08:58:40Z</time></trkpt><trkpt lat="43.50160484228604" lon="12.268146170826594"><ele>459.0</ele><time>2026-04-26T08:58:41Z</time></trkpt><trkpt lat="43.50154225771687" lon="12.268040103826841"><ele>459.0</ele><time>2026-04-26T08:58:42Z</time></trkpt><trkpt lat="43.50147230575033" lon="12.267920538834828"><ele>459.0</ele><time>2026-04-26T08:58:43Z</time></trkpt><trkpt lat="43.50140913084878" lon="12.267798835033554"><ele>458.8333333333333</ele><time>2026-04-26T08:58:44Z</time></trkpt><trkpt lat="43.50134958915362" lon="12.267735458185323"><ele>458.66666666666663</ele><time>2026-04-26T08:58:45Z</time></trkpt><trkpt lat="43.50126854976006" lon="12.267688376325417"><ele>458.5</ele><time>2026-04-26T08:58:46Z</time></trkpt><trkpt lat="43.50117990568246" lon="12.267658166499187"><ele>458.3333333333333</ele><time>2026-04-26T08:58:47Z</time></trkpt><trkpt lat="43.50109374010224" lon="12.26759608114658"><ele>458.16666666666663</ele><time>2026-04-26T08:58:48Z</time></trkpt><trkpt lat="43.501052450064826" lon="12.267509324415364"><ele>458.0</ele><time>2026-04-26T08:58:49Z</time></trkpt><trkpt lat="43.50102625094097" lon="12.267421996850313"><ele>458.49999999999994</ele><time>2026-04-26T08:58:50Z</time></trkpt><trkpt lat="43.500979984289664" lon="12.267337854095123"><ele>459.0</ele><time>2026-04-26T08:58:51Z</time></trkpt><trkpt lat="43.50089356905326" lon="12.267280686439042"><ele>459.5</ele><time>2026-04-26T08:58:52Z</time></trkpt><trkpt lat="43.50082301627428" lon="12.267224823280205"><ele>460.0</ele><time>2026-04-26T08:58:53Z</time></trkpt><trkpt lat="43.500767515717" lon="12.267167320797762"><ele>460.49999999999994</ele><time>2026-04-26T08:58:54Z</time></trkpt><trkpt lat="43.50071452175947" lon="12.267117139105332"><ele>461.0</ele><time>2026-04-26T08:58:55Z</time></trkpt><trkpt lat="43.50064692104007" lon="12.267098462451756"><ele>461.99999999999994</ele><time>2026-04-26T08:58:56Z</time></trkpt><trkpt lat="43.500563459973165" lon="12.267094766044655"><ele>463.0</ele><time>2026-04-26T08:58:57.001Z</time></trkpt><trkpt lat="43.500462662343374" lon="12.267120299252355"><ele>464.0</ele><time>2026-04-26T08:58:58.001Z</time></trkpt><trkpt lat="43.50037769702078" lon="12.267158446050349"><ele>465.0</ele><time>2026-04-26T08:58:59.001Z</time></trkpt><trkpt lat="43.50031046041733" lon="12.26717247849664"><ele>465.99999999999994</ele><time>2026-04-26T08:59:00.001Z</time></trkpt><trkpt lat="43.500249036493635" lon="12.267137891778773"><ele>467.0</ele><time>2026-04-26T08:59:01.001Z</time></trkpt><trkpt lat="43.500163605362616" lon="12.267082931925769"><ele>467.0</ele><time>2026-04-26T08:59:02.001Z</time></trkpt><trkpt lat="43.50008635177618" lon="12.267014873448744"><ele>467.00000000000006</ele><time>2026-04-26T08:59:03.001Z</time></trkpt><trkpt lat="43.5000252036727" lon="12.266928397223616"><ele>467.00000000000006</ele><time>2026-04-26T08:59:04.001Z</time></trkpt><trkpt lat="43.49996129420544" lon="12.266823346990485"><ele>467.0</ele><time>2026-04-26T08:59:05.001Z</time></trkpt><trkpt lat="43.49991391809497" lon="12.266700385969909"><ele>467.0</ele><time>2026-04-26T08:59:06.001Z</time></trkpt><trkpt lat="43.49987506440335" lon="12.266577633959207"><ele>467.0</ele><time>2026-04-26T08:59:07.001Z</time></trkpt><trkpt lat="43.49982364966279" lon="12.266461268379379"><ele>467.00000000000006</ele><time>2026-04-26T08:59:08.001Z</time></trkpt><trkpt lat="43.49976571045104" lon="12.266341208757382"><ele>467.00000000000006</ele><time>2026-04-26T08:59:08.999Z</time></trkpt><trkpt lat="43.499719070811764" lon="12.266213948814345"><ele>467.0</ele><time>2026-04-26T08:59:09.999Z</time></trkpt><trkpt lat="43.499680534552546" lon="12.26610506918204"><ele>467.0</ele><time>2026-04-26T08:59:10.999Z</time></trkpt><trkpt lat="43.49962769056042" lon="12.266007931266337"><ele>468.20000000000005</ele><time>2026-04-26T08:59:11.999Z</time></trkpt><trkpt lat="43.4995532122168" lon="12.265903041756273"><ele>469.40000000000003</ele><time>2026-04-26T08:59:12.999Z</time></trkpt><trkpt lat="43.49946852751444" lon="12.26582088759906"><ele>470.59999999999997</ele><time>2026-04-26T08:59:13.999Z</time></trkpt><trkpt lat="43.49938389165275" lon="12.265738811527672"><ele>471.79999999999995</ele><time>2026-04-26T08:59:14.999Z</time></trkpt><trkpt lat="43.49930834400221" lon="12.265663861122361"><ele>473.0</ele><time>2026-04-26T08:59:15.999Z</time></trkpt><trkpt lat="43.4992507059619" lon="12.265591049794027"><ele>473.0</ele><time>2026-04-26T08:59:16.999Z</time></trkpt><trkpt lat="43.499208706976724" lon="12.265512536618113"><ele>472.99999999999994</ele><time>2026-04-26T08:59:17.999Z</time></trkpt><trkpt lat="43.49915652304685" lon="12.265411801895448"><ele>472.99999999999994</ele><time>2026-04-26T08:59:18.999Z</time></trkpt><trkpt lat="43.49908902482991" lon="12.265306246595722"><ele>473.0</ele><time>2026-04-26T08:59:20Z</time></trkpt><trkpt lat="43.49902960737318" lon="12.265201135985825"><ele>473.0</ele><time>2026-04-26T08:59:21Z</time></trkpt><trkpt lat="43.49896636858889" lon="12.265100647651312"><ele>473.0</ele><time>2026-04-26T08:59:22Z</time></trkpt><trkpt lat="43.498895477835084" lon="12.264982920694319"><ele>472.99999999999994</ele><time>2026-04-26T08:59:23Z</time></trkpt><trkpt lat="43.49882392048922" lon="12.2648657636875"><ele>472.99999999999994</ele><time>2026-04-26T08:59:24Z</time></trkpt><trkpt lat="43.4987747655157" lon="12.264738917659644"><ele>473.0</ele><time>2026-04-26T08:59:25Z</time></trkpt><trkpt lat="43.49872302133901" lon="12.264594914614099"><ele>473.0</ele><time>2026-04-26T08:59:26Z</time></trkpt><trkpt lat="43.49868118066562" lon="12.264449563941676"><ele>473.59999999999997</ele><time>2026-04-26T08:59:27Z</time></trkpt><trkpt lat="43.498648167573386" lon="12.264312271983455"><ele>474.19999999999993</ele><time>2026-04-26T08:59:28Z</time></trkpt><trkpt lat="43.49861266242009" lon="12.264196915434265"><ele>474.8</ele><time>2026-04-26T08:59:29Z</time></trkpt><trkpt lat="43.498546792004994" lon="12.264089699934706"><ele>475.4</ele><time>2026-04-26T08:59:30Z</time></trkpt><trkpt lat="43.49847468395142" lon="12.26398602166662"><ele>476.0</ele><time>2026-04-26T08:59:31Z</time></trkpt><trkpt lat="43.49840764429095" lon="12.263894805891294"><ele>476.6</ele><time>2026-04-26T08:59:32Z</time></trkpt><trkpt lat="43.49834779916617" lon="12.263793320489986"><ele>477.20000000000005</ele><time>2026-04-26T08:59:33Z</time></trkpt><trkpt lat="43.498271001416164" lon="12.263697608081193"><ele>477.79999999999995</ele><time>2026-04-26T08:59:34Z</time></trkpt><trkpt lat="43.498176804068066" lon="12.263626971236922"><ele>478.4</ele><time>2026-04-26T08:59:35Z</time></trkpt><trkpt lat="43.49807490920238" lon="12.26357426407004"><ele>479.0</ele><time>2026-04-26T08:59:36Z</time></trkpt><trkpt lat="43.497975476358974" lon="12.263551663185034"><ele>479.79999999999995</ele><time>2026-04-26T08:59:37Z</time></trkpt><trkpt lat="43.49787014222389" lon="12.263553201387904"><ele>480.59999999999997</ele><time>2026-04-26T08:59:38Z</time></trkpt><trkpt lat="43.49776095138014" lon="12.263554547960162"><ele>481.4</ele><time>2026-04-26T08:59:39Z</time></trkpt><trkpt lat="43.49767878342234" lon="12.263555694918956"><ele>482.2</ele><time>2026-04-26T08:59:40Z</time></trkpt><trkpt lat="43.497600614846014" lon="12.263568889486631"><ele>483.0</ele><time>2026-04-26T08:59:42Z</time></trkpt><trkpt lat="43.49751839847775" lon="12.263565207678"><ele>483.0</ele><time>2026-04-26T08:59:45Z</time></trkpt><trkpt lat="43.49743575530787" lon="12.26354718798771"><ele>483.0</ele><time>2026-04-26T08:59:47Z</time></trkpt><trkpt lat="43.497333892069236" lon="12.263476465950147"><ele>483.0</ele><time>2026-04-26T08:59:49Z</time></trkpt><trkpt lat="43.49726012172646" lon="12.263439837445077"><ele>483.0</ele><time>2026-04-26T08:59:50Z</time></trkpt><trkpt lat="43.49717658697775" lon="12.263422320982167"><ele>483.0</ele><time>2026-04-26T08:59:51Z</time></trkpt><trkpt lat="43.49710408704342" lon="12.26343498328204"><ele>483.0</ele><time>2026-04-26T08:59:52Z</time></trkpt><trkpt lat="43.497022508962054" lon="12.263475669327503"><ele>482.42857142857144</ele><time>2026-04-26T08:59:53Z</time></trkpt><trkpt lat="43.49695336146213" lon="12.26352436501878"><ele>481.8571428571429</ele><time>2026-04-26T08:59:54Z</time></trkpt><trkpt lat="43.49689165850747" lon="12.263542113697726"><ele>481.2857142857143</ele><time>2026-04-26T08:59:55Z</time></trkpt><trkpt lat="43.49682001774264" lon="12.26353883451838"><ele>480.7142857142857</ele><time>2026-04-26T08:59:56Z</time></trkpt><trkpt lat="43.496741500964696" lon="12.263536409498858"><ele>480.14285714285717</ele><time>2026-04-26T08:59:57Z</time></trkpt><trkpt lat="43.49667140472445" lon="12.26353464732445"><ele>479.57142857142856</ele><time>2026-04-26T08:59:58Z</time></trkpt><trkpt lat="43.49659791149533" lon="12.263523614305765"><ele>479.0</ele><time>2026-04-26T08:59:59Z</time></trkpt><trkpt lat="43.496512834613625" lon="12.263498674870968"><ele>478.99999999999994</ele><time>2026-04-26T09:00:00Z</time></trkpt><trkpt lat="43.49644358906892" lon="12.263457425819048"><ele>479.0</ele><time>2026-04-26T09:00:01Z</time></trkpt><trkpt lat="43.49637812216627" lon="12.263393734475901"><ele>479.0</ele><time>2026-04-26T09:00:02Z</time></trkpt><trkpt lat="43.496327878625884" lon="12.263327233389527"><ele>479.0</ele><time>2026-04-26T09:00:03Z</time></trkpt><trkpt lat="43.49628709671542" lon="12.263256230856946"><ele>478.99999999999994</ele><time>2026-04-26T09:00:04Z</time></trkpt><trkpt lat="43.496253560517786" lon="12.26315264589508"><ele>479.0</ele><time>2026-04-26T09:00:05Z</time></trkpt><trkpt lat="43.49623486553989" lon="12.263040856346558"><ele>476.4</ele><time>2026-04-26T09:00:06Z</time></trkpt><trkpt lat="43.496219948382894" lon="12.262913272861994"><ele>473.79999999999995</ele><time>2026-04-26T09:00:07Z</time></trkpt><trkpt lat="43.496196224446855" lon="12.262786287906513"><ele>471.20000000000005</ele><time>2026-04-26T09:00:08Z</time></trkpt><trkpt lat="43.4961682491167" lon="12.26264806779259"><ele>468.6</ele><time>2026-04-26T09:00:09Z</time></trkpt><trkpt lat="43.49613043376016" lon="12.262501005141157"><ele>466.0</ele><time>2026-04-26T09:00:10Z</time></trkpt><trkpt lat="43.496092429237756" lon="12.262363187362425"><ele>465.83333333333337</ele><time>2026-04-26T09:00:11Z</time></trkpt><trkpt lat="43.49604354962432" lon="12.26223345797705"><ele>465.6666666666667</ele><time>2026-04-26T09:00:12Z</time></trkpt><trkpt lat="43.49599584670288" lon="12.262136907868824"><ele>465.5</ele><time>2026-04-26T09:00:13Z</time></trkpt><trkpt lat="43.49595241509137" lon="12.262064188031758"><ele>465.33333333333337</ele><time>2026-04-26T09:00:14Z</time></trkpt><trkpt lat="43.4959010164577" lon="12.26199649744381"><ele>465.1666666666667</ele><time>2026-04-26T09:00:15Z</time></trkpt><trkpt lat="43.49585076558157" lon="12.26193660879944"><ele>465.0</ele><time>2026-04-26T09:00:16Z</time></trkpt><trkpt lat="43.49579661868302" lon="12.261844592136164"><ele>465.0</ele><time>2026-04-26T09:00:17Z</time></trkpt><trkpt lat="43.495739126279204" lon="12.261757510058048"><ele>465.0</ele><time>2026-04-26T09:00:18Z</time></trkpt><trkpt lat="43.49567774246928" lon="12.261668484692384"><ele>465.0</ele><time>2026-04-26T09:00:19Z</time></trkpt><trkpt lat="43.495608382397464" lon="12.261594397054015"><ele>465.0</ele><time>2026-04-26T09:00:20Z</time></trkpt><trkpt lat="43.495533762503804" lon="12.261523997657608"><ele>465.0</ele><time>2026-04-26T09:00:21Z</time></trkpt><trkpt lat="43.49545642811762" lon="12.261453661623426"><ele>465.0</ele><time>2026-04-26T09:00:22Z</time></trkpt><trkpt lat="43.495376418098715" lon="12.26139460782143"><ele>463.8333333333333</ele><time>2026-04-26T09:00:23Z</time></trkpt><trkpt lat="43.49530504710729" lon="12.261341930954323"><ele>462.66666666666663</ele><time>2026-04-26T09:00:24Z</time></trkpt><trkpt lat="43.49523053431605" lon="12.261314714902056"><ele>461.5</ele><time>2026-04-26T09:00:25Z</time></trkpt><trkpt lat="43.4951709498789" lon="12.261277115772133"><ele>460.3333333333333</ele><time>2026-04-26T09:00:26Z</time></trkpt><trkpt lat="43.495124276496426" lon="12.261216833828232"><ele>459.16666666666663</ele><time>2026-04-26T09:00:27.001Z</time></trkpt><trkpt lat="43.495112700771664" lon="12.261070544302006"><ele>458.0</ele><time>2026-04-26T09:00:29.001Z</time></trkpt><trkpt lat="43.49512953017207" lon="12.260978437597604"><ele>457.99999999999994</ele><time>2026-04-26T09:00:30.001Z</time></trkpt><trkpt lat="43.49511775641131" lon="12.260891758551688"><ele>458.0</ele><time>2026-04-26T09:00:31.001Z</time></trkpt><trkpt lat="43.49507611048387" lon="12.260814716249058"><ele>458.0</ele><time>2026-04-26T09:00:32.001Z</time></trkpt><trkpt lat="43.49500714697973" lon="12.260739403571979"><ele>458.0</ele><time>2026-04-26T09:00:33.001Z</time></trkpt><trkpt lat="43.494928023072774" lon="12.260657665621963"><ele>457.99999999999994</ele><time>2026-04-26T09:00:34.001Z</time></trkpt><trkpt lat="43.4948488438589" lon="12.260568600754345"><ele>458.0</ele><time>2026-04-26T09:00:35.001Z</time></trkpt><trkpt lat="43.494774025614745" lon="12.260486441262813"><ele>455.99999999999994</ele><time>2026-04-26T09:00:36.001Z</time></trkpt><trkpt lat="43.49469761745395" lon="12.260395924228787"><ele>454.0</ele><time>2026-04-26T09:00:37.001Z</time></trkpt><trkpt lat="43.494621154293775" lon="12.260302981038244"><ele>452.0</ele><time>2026-04-26T09:00:38.001Z</time></trkpt><trkpt lat="43.494551766053235" lon="12.260222127375444"><ele>450.0</ele><time>2026-04-26T09:00:39.001Z</time></trkpt><trkpt lat="43.49449045591386" lon="12.260147822858864"><ele>447.99999999999994</ele><time>2026-04-26T09:00:40.001Z</time></trkpt><trkpt lat="43.49443692900764" lon="12.260078176575224"><ele>446.0</ele><time>2026-04-26T09:00:41.001Z</time></trkpt><trkpt lat="43.49437715666544" lon="12.26001098614932"><ele>445.99999999999994</ele><time>2026-04-26T09:00:42.001Z</time></trkpt><trkpt lat="43.49434042505387" lon="12.259927938291858"><ele>446.0</ele><time>2026-04-26T09:00:43.001Z</time></trkpt><trkpt lat="43.49430679983988" lon="12.259812380736852"><ele>446.0</ele><time>2026-04-26T09:00:44.001Z</time></trkpt><trkpt lat="43.49428085724295" lon="12.25967705297126"><ele>446.0</ele><time>2026-04-26T09:00:45.001Z</time></trkpt><trkpt lat="43.494244058578765" lon="12.259560429889227"><ele>445.99999999999994</ele><time>2026-04-26T09:00:46.001Z</time></trkpt><trkpt lat="43.49416876033056" lon="12.25948406254606"><ele>446.0</ele><time>2026-04-26T09:00:47.001Z</time></trkpt><trkpt lat="43.49408839765687" lon="12.259430410069148"><ele>445.8</ele><time>2026-04-26T09:00:48.001Z</time></trkpt><trkpt lat="43.49398408399282" lon="12.259409561529285"><ele>445.6</ele><time>2026-04-26T09:00:49.001Z</time></trkpt><trkpt lat="43.49388091292009" lon="12.259381635209637"><ele>445.4</ele><time>2026-04-26T09:00:50.001Z</time></trkpt><trkpt lat="43.49377402984882" lon="12.259366375101553"><ele>445.2</ele><time>2026-04-26T09:00:51.001Z</time></trkpt><trkpt lat="43.4936787320836" lon="12.259358376441236"><ele>445.0</ele><time>2026-04-26T09:00:52.001Z</time></trkpt><trkpt lat="43.49359066445299" lon="12.25936160084691"><ele>445.00000000000006</ele><time>2026-04-26T09:00:53.001Z</time></trkpt><trkpt lat="43.49350234327196" lon="12.259336943004636"><ele>445.0</ele><time>2026-04-26T09:00:54.001Z</time></trkpt><trkpt lat="43.49342362421497" lon="12.259325825253539"><ele>445.0</ele><time>2026-04-26T09:00:55.001Z</time></trkpt><trkpt lat="43.49334318023071" lon="12.259322531733195"><ele>445.0</ele><time>2026-04-26T09:00:56.001Z</time></trkpt><trkpt lat="43.493265771961966" lon="12.259304308707758"><ele>445.00000000000006</ele><time>2026-04-26T09:00:57.001Z</time></trkpt><trkpt lat="43.49318902959663" lon="12.259303785175733"><ele>445.0</ele><time>2026-04-26T09:00:58.001Z</time></trkpt><trkpt lat="43.49309810110696" lon="12.259319112778003"><ele>445.0</ele><time>2026-04-26T09:00:59.001Z</time></trkpt><trkpt lat="43.49300135429158" lon="12.259311260840462"><ele>445.0</ele><time>2026-04-26T09:01:00.001Z</time></trkpt><trkpt lat="43.49289894671284" lon="12.259249747881022"><ele>445.0</ele><time>2026-04-26T09:01:01.001Z</time></trkpt><trkpt lat="43.49278141433949" lon="12.25919959815398"><ele>445.0</ele><time>2026-04-26T09:01:02.001Z</time></trkpt><trkpt lat="43.49267616986554" lon="12.259160231476582"><ele>445.0</ele><time>2026-04-26T09:01:03.001Z</time></trkpt><trkpt lat="43.49256855736575" lon="12.25914103743062"><ele>442.5</ele><time>2026-04-26T09:01:04.001Z</time></trkpt><trkpt lat="43.49244836325168" lon="12.25915052895254"><ele>440.0</ele><time>2026-04-26T09:01:05.001Z</time></trkpt><trkpt lat="43.492324674359324" lon="12.259185580447635"><ele>437.5</ele><time>2026-04-26T09:01:06.001Z</time></trkpt><trkpt lat="43.49219904406435" lon="12.259221810504533"><ele>435.0</ele><time>2026-04-26T09:01:07.001Z</time></trkpt><trkpt lat="43.49205939271533" lon="12.259244458820307"><ele>433.0</ele><time>2026-04-26T09:01:08.001Z</time></trkpt><trkpt lat="43.491919628508846" lon="12.259258929408773"><ele>431.0</ele><time>2026-04-26T09:01:09.001Z</time></trkpt><trkpt lat="43.49178642070925" lon="12.259268034895152"><ele>429.0</ele><time>2026-04-26T09:01:10.001Z</time></trkpt><trkpt lat="43.49165761771543" lon="12.259293625101213"><ele>427.0</ele><time>2026-04-26T09:01:11.001Z</time></trkpt><trkpt lat="43.49153369642834" lon="12.259326771841904"><ele>427.0</ele><time>2026-04-26T09:01:12.001Z</time></trkpt><trkpt lat="43.49141572673063" lon="12.259380955851038"><ele>427.0</ele><time>2026-04-26T09:01:13.001Z</time></trkpt><trkpt lat="43.491299804947836" lon="12.259437797843043"><ele>427.0</ele><time>2026-04-26T09:01:14.001Z</time></trkpt><trkpt lat="43.49119230898056" lon="12.259497518018375"><ele>427.0</ele><time>2026-04-26T09:01:14.999Z</time></trkpt><trkpt lat="43.49108730520738" lon="12.259548013894223"><ele>428.5</ele><time>2026-04-26T09:01:15.999Z</time></trkpt><trkpt lat="43.490971024445905" lon="12.259598649436356"><ele>430.0</ele><time>2026-04-26T09:01:16.999Z</time></trkpt><trkpt lat="43.49085987792898" lon="12.259647115339193"><ele>431.5</ele><time>2026-04-26T09:01:17.999Z</time></trkpt><trkpt lat="43.49074461031611" lon="12.25970108804012"><ele>433.0</ele><time>2026-04-26T09:01:18.999Z</time></trkpt><trkpt lat="43.4906300014171" lon="12.259752896839926"><ele>432.25</ele><time>2026-04-26T09:01:19.999Z</time></trkpt><trkpt lat="43.490510483635575" lon="12.259805220440542"><ele>431.5</ele><time>2026-04-26T09:01:20.999Z</time></trkpt><trkpt lat="43.49039112001248" lon="12.259857753881917"><ele>430.75</ele><time>2026-04-26T09:01:21.999Z</time></trkpt><trkpt lat="43.490272918005225" lon="12.259906472530906"><ele>430.0</ele><time>2026-04-26T09:01:22.999Z</time></trkpt><trkpt lat="43.490150110720386" lon="12.259959779516107"><ele>432.75</ele><time>2026-04-26T09:01:23.999Z</time></trkpt><trkpt lat="43.49002884963921" lon="12.260021090006497"><ele>435.5</ele><time>2026-04-26T09:01:24.999Z</time></trkpt><trkpt lat="43.48991083007296" lon="12.260096568609244"><ele>438.25</ele><time>2026-04-26T09:01:25.999Z</time></trkpt><trkpt lat="43.48980406818217" lon="12.260181359211801"><ele>441.0</ele><time>2026-04-26T09:01:26.999Z</time></trkpt><trkpt lat="43.489707039232606" lon="12.26026489545765"><ele>441.0</ele><time>2026-04-26T09:01:27.999Z</time></trkpt><trkpt lat="43.48962042186327" lon="12.260350940436574"><ele>441.0</ele><time>2026-04-26T09:01:28.999Z</time></trkpt><trkpt lat="43.48953443346418" lon="12.260424246658221"><ele>441.0</ele><time>2026-04-26T09:01:30Z</time></trkpt><trkpt lat="43.48944579336441" lon="12.260474483703653"><ele>441.0</ele><time>2026-04-26T09:01:31Z</time></trkpt><trkpt lat="43.48936241627209" lon="12.260509590823322"><ele>441.0</ele><time>2026-04-26T09:01:32Z</time></trkpt><trkpt lat="43.48928532937948" lon="12.26052617640504"><ele>440.4</ele><time>2026-04-26T09:01:33Z</time></trkpt><trkpt lat="43.4891903201197" lon="12.260519538266681"><ele>439.8</ele><time>2026-04-26T09:01:34Z</time></trkpt><trkpt lat="43.48909769593091" lon="12.260510136540352"><ele>439.19999999999993</ele><time>2026-04-26T09:01:35Z</time></trkpt><trkpt lat="43.48900953414227" lon="12.2605061563218"><ele>438.59999999999997</ele><time>2026-04-26T09:01:36Z</time></trkpt><trkpt lat="43.48891374945482" lon="12.260513241549491"><ele>438.0</ele><time>2026-04-26T09:01:37Z</time></trkpt><trkpt lat="43.488820176770275" lon="12.26052734084392"><ele>436.79999999999995</ele><time>2026-04-26T09:01:38Z</time></trkpt><trkpt lat="43.48872127488099" lon="12.260560646560533"><ele>435.59999999999997</ele><time>2026-04-26T09:01:39Z</time></trkpt><trkpt lat="43.48862386804978" lon="12.260601657882727"><ele>434.40000000000003</ele><time>2026-04-26T09:01:40Z</time></trkpt><trkpt lat="43.48853093555625" lon="12.260635113284016"><ele>433.20000000000005</ele><time>2026-04-26T09:01:41Z</time></trkpt><trkpt lat="43.48843145200861" lon="12.260656141426182"><ele>432.0</ele><time>2026-04-26T09:01:42Z</time></trkpt><trkpt lat="43.48833459216862" lon="12.260659442909494"><ele>432.0</ele><time>2026-04-26T09:01:43Z</time></trkpt><trkpt lat="43.48823506060252" lon="12.26065574488239"><ele>432.00000000000006</ele><time>2026-04-26T09:01:44Z</time></trkpt><trkpt lat="43.48813428296118" lon="12.260625431184978"><ele>432.00000000000006</ele><time>2026-04-26T09:01:45Z</time></trkpt><trkpt lat="43.48805307324717" lon="12.260590735818758"><ele>432.0</ele><time>2026-04-26T09:01:46Z</time></trkpt><trkpt lat="43.487954448028304" lon="12.26059951752682"><ele>432.0</ele><time>2026-04-26T09:01:47Z</time></trkpt><trkpt lat="43.48785637815284" lon="12.260601249652877"><ele>431.6666666666667</ele><time>2026-04-26T09:01:48Z</time></trkpt><trkpt lat="43.487766320451506" lon="12.260616828312768"><ele>431.33333333333337</ele><time>2026-04-26T09:01:49Z</time></trkpt><trkpt lat="43.48768174084302" lon="12.2606304976209"><ele>431.0</ele><time>2026-04-26T09:01:50Z</time></trkpt><trkpt lat="43.48759468947367" lon="12.26064496613044"><ele>430.6666666666667</ele><time>2026-04-26T09:01:51Z</time></trkpt><trkpt lat="43.487505166569065" lon="12.260663630033065"><ele>430.33333333333337</ele><time>2026-04-26T09:01:52Z</time></trkpt><trkpt lat="43.487414301043906" lon="12.260675035544372"><ele>430.0</ele><time>2026-04-26T09:01:53Z</time></trkpt><trkpt lat="43.487329713294024" lon="12.260668703897908"><ele>430.00000000000006</ele><time>2026-04-26T09:01:54Z</time></trkpt><trkpt lat="43.48724009492951" lon="12.26064971799864"><ele>430.0</ele><time>2026-04-26T09:01:55Z</time></trkpt><trkpt lat="43.487157756705635" lon="12.260613629968768"><ele>430.0</ele><time>2026-04-26T09:01:56Z</time></trkpt><trkpt lat="43.4870752573192" lon="12.26057786222095"><ele>430.0</ele><time>2026-04-26T09:01:57Z</time></trkpt><trkpt lat="43.48698891615948" lon="12.260540816975846"><ele>430.00000000000006</ele><time>2026-04-26T09:01:58Z</time></trkpt><trkpt lat="43.486907514976146" lon="12.260507756200395"><ele>430.0</ele><time>2026-04-26T09:01:59Z</time></trkpt><trkpt lat="43.48682025373363" lon="12.260468025832525"><ele>427.6666666666667</ele><time>2026-04-26T09:02:00Z</time></trkpt><trkpt lat="43.48674208978239" lon="12.260430554150792"><ele>425.33333333333337</ele><time>2026-04-26T09:02:01Z</time></trkpt><trkpt lat="43.486682737951135" lon="12.260367949064523"><ele>423.0</ele><time>2026-04-26T09:02:02Z</time></trkpt><trkpt lat="43.48662829042121" lon="12.260303675831121"><ele>420.66666666666663</ele><time>2026-04-26T09:02:03Z</time></trkpt><trkpt lat="43.4865917549205" lon="12.260170886242983"><ele>418.3333333333333</ele><time>2026-04-26T09:02:05Z</time></trkpt><trkpt lat="43.486681437599906" lon="12.260068664626644"><ele>416.0</ele><time>2026-04-26T09:02:07Z</time></trkpt><trkpt lat="43.486810636433525" lon="12.260083654102505"><ele>416.0</ele><time>2026-04-26T09:02:09Z</time></trkpt><trkpt lat="43.48688012183282" lon="12.260139076285446"><ele>416.0</ele><time>2026-04-26T09:02:10Z</time></trkpt><trkpt lat="43.48696492352494" lon="12.260212777368373"><ele>416.0</ele><time>2026-04-26T09:02:11Z</time></trkpt><trkpt lat="43.48705606707463" lon="12.260245209074071"><ele>416.0</ele><time>2026-04-26T09:02:12Z</time></trkpt><trkpt lat="43.487149089307366" lon="12.26026913873757"><ele>416.0</ele><time>2026-04-26T09:02:13Z</time></trkpt><trkpt lat="43.48724404963271" lon="12.260276272921406"><ele>415.49999999999994</ele><time>2026-04-26T09:02:14Z</time></trkpt><trkpt lat="43.48732986973416" lon="12.260262691925664"><ele>415.0</ele><time>2026-04-26T09:02:15Z</time></trkpt><trkpt lat="43.487424405760045" lon="12.26023481952617"><ele>414.5</ele><time>2026-04-26T09:02:16Z</time></trkpt><trkpt lat="43.48749421986654" lon="12.260208457375992"><ele>414.0</ele><time>2026-04-26T09:02:17Z</time></trkpt><trkpt lat="43.48758393770588" lon="12.26016246152032"><ele>413.49999999999994</ele><time>2026-04-26T09:02:18Z</time></trkpt><trkpt lat="43.48765726518587" lon="12.260114194020488"><ele>413.0</ele><time>2026-04-26T09:02:19Z</time></trkpt><trkpt lat="43.48771926260728" lon="12.26006386493352"><ele>412.99999999999994</ele><time>2026-04-26T09:02:20Z</time></trkpt><trkpt lat="43.48778072732547" lon="12.260008177024456"><ele>413.0</ele><time>2026-04-26T09:02:21Z</time></trkpt><trkpt lat="43.48784306474493" lon="12.259937700167725"><ele>413.0</ele><time>2026-04-26T09:02:22Z</time></trkpt><trkpt lat="43.48789607837467" lon="12.259850067219123"><ele>413.0</ele><time>2026-04-26T09:02:23Z</time></trkpt><trkpt lat="43.48793134450129" lon="12.259775220050283"><ele>412.99999999999994</ele><time>2026-04-26T09:02:24Z</time></trkpt><trkpt lat="43.48796819460571" lon="12.259620646955522"><ele>413.0</ele><time>2026-04-26T09:02:26Z</time></trkpt><trkpt lat="43.48796715025365" lon="12.259481663360559"><ele>411.2</ele><time>2026-04-26T09:02:28.001Z</time></trkpt><trkpt lat="43.48792847225023" lon="12.259384930523309"><ele>409.4</ele><time>2026-04-26T09:02:30.001Z</time></trkpt><trkpt lat="43.48788589199932" lon="12.259317884669548"><ele>407.59999999999997</ele><time>2026-04-26T09:02:33.001Z</time></trkpt><trkpt lat="43.48778953884727" lon="12.259501632873798"><ele>405.79999999999995</ele><time>2026-04-26T09:02:35.001Z</time></trkpt><trkpt lat="43.48776266705276" lon="12.25963187269677"><ele>404.0</ele><time>2026-04-26T09:02:36.001Z</time></trkpt><trkpt lat="43.48770728957716" lon="12.259730824397115"><ele>405.79999999999995</ele><time>2026-04-26T09:02:37.001Z</time></trkpt><trkpt lat="43.48763734563033" lon="12.25982012874084"><ele>407.59999999999997</ele><time>2026-04-26T09:02:38.001Z</time></trkpt><trkpt lat="43.48754249061085" lon="12.25988048174964"><ele>409.4</ele><time>2026-04-26T09:02:39.001Z</time></trkpt><trkpt lat="43.48745972245387" lon="12.259922155313129"><ele>411.2</ele><time>2026-04-26T09:02:40.001Z</time></trkpt><trkpt lat="43.48737745455984" lon="12.259950444622143"><ele>413.0</ele><time>2026-04-26T09:02:41.001Z</time></trkpt><trkpt lat="43.48728387241548" lon="12.259980458896635"><ele>413.0</ele><time>2026-04-26T09:02:42.001Z</time></trkpt><trkpt lat="43.48717591626385" lon="12.25997341497006"><ele>413.0</ele><time>2026-04-26T09:02:43.001Z</time></trkpt><trkpt lat="43.487094413030846" lon="12.259955549698763"><ele>413.0</ele><time>2026-04-26T09:02:44.001Z</time></trkpt><trkpt lat="43.48701012252941" lon="12.259901701846212"><ele>413.0</ele><time>2026-04-26T09:02:45.001Z</time></trkpt><trkpt lat="43.4869216670703" lon="12.259833544348327"><ele>413.0</ele><time>2026-04-26T09:02:46.001Z</time></trkpt><trkpt lat="43.48682988135942" lon="12.259764113440044"><ele>409.0</ele><time>2026-04-26T09:02:47.001Z</time></trkpt><trkpt lat="43.48674875768545" lon="12.259708215982638"><ele>405.0</ele><time>2026-04-26T09:02:48.001Z</time></trkpt><trkpt lat="43.48666125417544" lon="12.259643463530342"><ele>401.0</ele><time>2026-04-26T09:02:49.001Z</time></trkpt><trkpt lat="43.486567929500865" lon="12.259622661104752"><ele>397.0</ele><time>2026-04-26T09:02:50.001Z</time></trkpt><trkpt lat="43.48647136146491" lon="12.259606645919488"><ele>393.0</ele><time>2026-04-26T09:02:51.001Z</time></trkpt><trkpt lat="43.48637954546354" lon="12.25956181379234"><ele>393.0</ele><time>2026-04-26T09:02:52.001Z</time></trkpt><trkpt lat="43.48628130769314" lon="12.259533386407972"><ele>393.0</ele><time>2026-04-26T09:02:53.001Z</time></trkpt><trkpt lat="43.48619672850137" lon="12.259525640852523"><ele>393.0</ele><time>2026-04-26T09:02:54.001Z</time></trkpt><trkpt lat="43.486103214165034" lon="12.259527323596414"><ele>393.0</ele><time>2026-04-26T09:02:55.001Z</time></trkpt><trkpt lat="43.48602771243282" lon="12.259511831638633"><ele>393.0</ele><time>2026-04-26T09:02:56.001Z</time></trkpt><trkpt lat="43.48592633532646" lon="12.259484449411529"><ele>393.8333333333333</ele><time>2026-04-26T09:02:57.001Z</time></trkpt><trkpt lat="43.485821324682036" lon="12.259504729342096"><ele>394.66666666666663</ele><time>2026-04-26T09:02:58.001Z</time></trkpt><trkpt lat="43.485747684377536" lon="12.259495478514593"><ele>395.5</ele><time>2026-04-26T09:02:59.001Z</time></trkpt><trkpt lat="43.485662804150614" lon="12.259475934599768"><ele>396.3333333333333</ele><time>2026-04-26T09:03:00.001Z</time></trkpt><trkpt lat="43.48557372128545" lon="12.259487450429932"><ele>397.16666666666663</ele><time>2026-04-26T09:03:01.001Z</time></trkpt><trkpt lat="43.48549659819679" lon="12.259501850463312"><ele>398.0</ele><time>2026-04-26T09:03:02.001Z</time></trkpt><trkpt lat="43.485410642673926" lon="12.259529290291846"><ele>397.99999999999994</ele><time>2026-04-26T09:03:04.001Z</time></trkpt><trkpt lat="43.48538452919651" lon="12.259401342550486"><ele>398.0</ele><time>2026-04-26T09:03:06.001Z</time></trkpt><trkpt lat="43.48532605260888" lon="12.259340853102586"><ele>398.0</ele><time>2026-04-26T09:03:07.001Z</time></trkpt><trkpt lat="43.485244732570216" lon="12.25929757125247"><ele>398.0</ele><time>2026-04-26T09:03:08.001Z</time></trkpt><trkpt lat="43.48517978411834" lon="12.25928440661213"><ele>397.99999999999994</ele><time>2026-04-26T09:03:09.001Z</time></trkpt><trkpt lat="43.485059407130066" lon="12.259273425948816"><ele>398.0</ele><time>2026-04-26T09:03:11.001Z</time></trkpt><trkpt lat="43.48495576955388" lon="12.259218527075056"><ele>398.0</ele><time>2026-04-26T09:03:13.001Z</time></trkpt><trkpt lat="43.48484494316259" lon="12.259137577843621"><ele>398.0</ele><time>2026-04-26T09:03:15.001Z</time></trkpt><trkpt lat="43.48473585329437" lon="12.259091056965863"><ele>398.0</ele><time>2026-04-26T09:03:17.001Z</time></trkpt><trkpt lat="43.484618521963746" lon="12.259089905022059"><ele>398.0</ele><time>2026-04-26T09:03:19.001Z</time></trkpt><trkpt lat="43.484513780153094" lon="12.259156765282997"><ele>395.66666666666663</ele><time>2026-04-26T09:03:21Z</time></trkpt><trkpt lat="43.48446082353845" lon="12.259212321895754"><ele>393.3333333333333</ele><time>2026-04-26T09:03:22Z</time></trkpt><trkpt lat="43.484409833388575" lon="12.259268963357648"><ele>391.0</ele><time>2026-04-26T09:03:23Z</time></trkpt><trkpt lat="43.48431123921822" lon="12.2593756240318"><ele>388.66666666666663</ele><time>2026-04-26T09:03:25Z</time></trkpt><trkpt lat="43.48425161579518" lon="12.259443037176368"><ele>386.3333333333333</ele><time>2026-04-26T09:03:26Z</time></trkpt><trkpt lat="43.48420105199953" lon="12.259498068870387"><ele>384.0</ele><time>2026-04-26T09:03:27Z</time></trkpt><trkpt lat="43.48412729224528" lon="12.25961222665604"><ele>384.0</ele><time>2026-04-26T09:03:29Z</time></trkpt><trkpt lat="43.48403354736859" lon="12.259652707025722"><ele>384.0</ele><time>2026-04-26T09:03:31Z</time></trkpt><trkpt lat="43.48394242178596" lon="12.259588180717678"><ele>384.0</ele><time>2026-04-26T09:03:33Z</time></trkpt><trkpt lat="43.48389414261538" lon="12.259516557099605"><ele>384.0</ele><time>2026-04-26T09:03:34Z</time></trkpt><trkpt lat="43.48385513235758" lon="12.259418621236458"><ele>384.0</ele><time>2026-04-26T09:03:35Z</time></trkpt><trkpt lat="43.48381851672288" lon="12.259318374716656"><ele>384.0</ele><time>2026-04-26T09:03:36Z</time></trkpt><trkpt lat="43.48377304406147" lon="12.25921334030674"><ele>382.0</ele><time>2026-04-26T09:03:37Z</time></trkpt><trkpt lat="43.48373822050189" lon="12.259121666387179"><ele>380.0</ele><time>2026-04-26T09:03:38Z</time></trkpt><trkpt lat="43.483710803657935" lon="12.259030811592572"><ele>378.0</ele><time>2026-04-26T09:03:39Z</time></trkpt><trkpt lat="43.4836809603561" lon="12.258945340485893"><ele>376.0</ele><time>2026-04-26T09:03:40Z</time></trkpt><trkpt lat="43.48361923973003" lon="12.258851083463892"><ele>374.0</ele><time>2026-04-26T09:03:41Z</time></trkpt><trkpt lat="43.483562097982094" lon="12.258754318565321"><ele>372.0</ele><time>2026-04-26T09:03:42Z</time></trkpt><trkpt lat="43.48351346799836" lon="12.258659623036392"><ele>369.6</ele><time>2026-04-26T09:03:43Z</time></trkpt><trkpt lat="43.48345219801115" lon="12.258549674860117"><ele>367.20000000000005</ele><time>2026-04-26T09:03:44Z</time></trkpt><trkpt lat="43.483391365590734" lon="12.258444176331233"><ele>364.8</ele><time>2026-04-26T09:03:45Z</time></trkpt><trkpt lat="43.48332332729199" lon="12.258339409704506"><ele>362.4</ele><time>2026-04-26T09:03:46Z</time></trkpt><trkpt lat="43.48325837872428" lon="12.258221522742195"><ele>360.0</ele><time>2026-04-26T09:03:47Z</time></trkpt><trkpt lat="43.48319861966962" lon="12.25810063832429"><ele>357.2</ele><time>2026-04-26T09:03:48Z</time></trkpt><trkpt lat="43.48313968028754" lon="12.25798501480147"><ele>354.4</ele><time>2026-04-26T09:03:49Z</time></trkpt><trkpt lat="43.4830911101194" lon="12.257892213678254"><ele>351.6</ele><time>2026-04-26T09:03:50Z</time></trkpt><trkpt lat="43.48303058982215" lon="12.257790417741537"><ele>348.8</ele><time>2026-04-26T09:03:51Z</time></trkpt><trkpt lat="43.48298760040406" lon="12.257676023083583"><ele>346.0</ele><time>2026-04-26T09:03:52Z</time></trkpt><trkpt lat="43.482939559223055" lon="12.257589147305318"><ele>346.16666666666663</ele><time>2026-04-26T09:03:53Z</time></trkpt><trkpt lat="43.482892628306" lon="12.2575052566011"><ele>346.3333333333333</ele><time>2026-04-26T09:03:54Z</time></trkpt><trkpt lat="43.482836898509774" lon="12.25742147023391"><ele>346.5</ele><time>2026-04-26T09:03:55Z</time></trkpt><trkpt lat="43.48277889592075" lon="12.257357198580555"><ele>346.6666666666667</ele><time>2026-04-26T09:03:56Z</time></trkpt><trkpt lat="43.48269496779507" lon="12.257341763393278"><ele>346.83333333333337</ele><time>2026-04-26T09:03:57Z</time></trkpt><trkpt lat="43.48262322710871" lon="12.25734385595029"><ele>347.0</ele><time>2026-04-26T09:03:58Z</time></trkpt><trkpt lat="43.48256417291001" lon="12.257388779848958"><ele>347.0</ele><time>2026-04-26T09:03:59Z</time></trkpt><trkpt lat="43.48248341489648" lon="12.257462589625442"><ele>347.0</ele><time>2026-04-26T09:04:00Z</time></trkpt><trkpt lat="43.4824090534407" lon="12.25755108935474"><ele>347.0</ele><time>2026-04-26T09:04:01Z</time></trkpt><trkpt lat="43.48233930169948" lon="12.257585487691227"><ele>347.0</ele><time>2026-04-26T09:04:02Z</time></trkpt><trkpt lat="43.482283012045784" lon="12.257624411832408"><ele>347.0</ele><time>2026-04-26T09:04:03Z</time></trkpt><trkpt lat="43.48224209174657" lon="12.257703800638605"><ele>347.0</ele><time>2026-04-26T09:04:04Z</time></trkpt><trkpt lat="43.48217025198892" lon="12.257766839314936"><ele>347.0</ele><time>2026-04-26T09:04:05Z</time></trkpt><trkpt lat="43.482106715862066" lon="12.25784193072065"><ele>347.0</ele><time>2026-04-26T09:04:06Z</time></trkpt><trkpt lat="43.48204000549569" lon="12.25793108818631"><ele>347.0</ele><time>2026-04-26T09:04:07Z</time></trkpt><trkpt lat="43.481975904055425" lon="12.258022619481634"><ele>347.0</ele><time>2026-04-26T09:04:08Z</time></trkpt><trkpt lat="43.48191204842099" lon="12.258105231996414"><ele>347.0</ele><time>2026-04-26T09:04:09Z</time></trkpt><trkpt lat="43.48183918644231" lon="12.258198113341091"><ele>345.83333333333337</ele><time>2026-04-26T09:04:10Z</time></trkpt><trkpt lat="43.481789223932" lon="12.25827337828186"><ele>344.6666666666667</ele><time>2026-04-26T09:04:11Z</time></trkpt><trkpt lat="43.48173723355366" lon="12.258348672652101"><ele>343.5</ele><time>2026-04-26T09:04:12Z</time></trkpt><trkpt lat="43.48168956394211" lon="12.258413153938585"><ele>342.3333333333333</ele><time>2026-04-26T09:04:13Z</time></trkpt><trkpt lat="43.48162838133586" lon="12.25847093003364"><ele>341.16666666666663</ele><time>2026-04-26T09:04:14Z</time></trkpt><trkpt lat="43.481539797689464" lon="12.258528615037438"><ele>340.0</ele><time>2026-04-26T09:04:16Z</time></trkpt><trkpt lat="43.48147165187588" lon="12.258518575873687"><ele>340.0</ele><time>2026-04-26T09:04:17Z</time></trkpt><trkpt lat="43.481396802521765" lon="12.25846822137195"><ele>340.0</ele><time>2026-04-26T09:04:18Z</time></trkpt><trkpt lat="43.48138007654597" lon="12.258329386018962"><ele>340.0</ele><time>2026-04-26T09:04:19Z</time></trkpt><trkpt lat="43.48132761719725" lon="12.258234160684083"><ele>340.0</ele><time>2026-04-26T09:04:20Z</time></trkpt><trkpt lat="43.48128117161675" lon="12.258141702385934"><ele>340.0</ele><time>2026-04-26T09:04:21Z</time></trkpt><trkpt lat="43.481218201370474" lon="12.25801424859593"><ele>337.8</ele><time>2026-04-26T09:04:23Z</time></trkpt><trkpt lat="43.481072867796655" lon="12.258089793041087"><ele>335.6</ele><time>2026-04-26T09:04:26.001Z</time></trkpt><trkpt lat="43.48096026699076" lon="12.25817363764178"><ele>333.4</ele><time>2026-04-26T09:04:28.001Z</time></trkpt><trkpt lat="43.48089396740052" lon="12.258190278277514"><ele>331.2</ele><time>2026-04-26T09:04:29.001Z</time></trkpt><trkpt lat="43.48082511855645" lon="12.258130718275757"><ele>329.0</ele><time>2026-04-26T09:04:30.001Z</time></trkpt><trkpt lat="43.480765906080364" lon="12.258089134417183"><ele>329.0</ele><time>2026-04-26T09:04:31.001Z</time></trkpt><trkpt lat="43.48063593846729" lon="12.258168242756255"><ele>329.0</ele><time>2026-04-26T09:04:33.001Z</time></trkpt><trkpt lat="43.48056058814646" lon="12.258260166186512"><ele>329.0</ele><time>2026-04-26T09:04:34.001Z</time></trkpt><trkpt lat="43.480487161806465" lon="12.258362041334896"><ele>329.0</ele><time>2026-04-26T09:04:35.001Z</time></trkpt><trkpt lat="43.48041238766892" lon="12.25845518574363"><ele>329.0</ele><time>2026-04-26T09:04:36.001Z</time></trkpt><trkpt lat="43.48031802586288" lon="12.258559447751754"><ele>328.0</ele><time>2026-04-26T09:04:37.001Z</time></trkpt><trkpt lat="43.48022867913123" lon="12.25866680144565"><ele>327.0</ele><time>2026-04-26T09:04:38.001Z</time></trkpt><trkpt lat="43.48014640308704" lon="12.258768761846406"><ele>326.0</ele><time>2026-04-26T09:04:39.001Z</time></trkpt><trkpt lat="43.48006200790138" lon="12.25886681126946"><ele>325.0</ele><time>2026-04-26T09:04:40.001Z</time></trkpt><trkpt lat="43.479984574954166" lon="12.258956929083663"><ele>324.0</ele><time>2026-04-26T09:04:41.001Z</time></trkpt><trkpt lat="43.479895474922344" lon="12.25906216920081"><ele>323.5</ele><time>2026-04-26T09:04:42.001Z</time></trkpt><trkpt lat="43.479801071508184" lon="12.259165488595263"><ele>323.0</ele><time>2026-04-26T09:04:43.001Z</time></trkpt><trkpt lat="43.47971184048219" lon="12.25927283760078"><ele>322.5</ele><time>2026-04-26T09:04:44.001Z</time></trkpt><trkpt lat="43.479622809502864" lon="12.259380234485848"><ele>322.0</ele><time>2026-04-26T09:04:45.001Z</time></trkpt><trkpt lat="43.47953121653125" lon="12.259481200614568"><ele>320.20000000000005</ele><time>2026-04-26T09:04:46.001Z</time></trkpt><trkpt lat="43.479442190802565" lon="12.259584293259715"><ele>318.40000000000003</ele><time>2026-04-26T09:04:47.001Z</time></trkpt><trkpt lat="43.479358824944164" lon="12.259686546015335"><ele>316.6</ele><time>2026-04-26T09:04:48.001Z</time></trkpt><trkpt lat="43.47927685892467" lon="12.259784083057589"><ele>314.8</ele><time>2026-04-26T09:04:49.001Z</time></trkpt><trkpt lat="43.4791987728784" lon="12.259876512964212"><ele>313.0</ele><time>2026-04-26T09:04:50.001Z</time></trkpt><trkpt lat="43.47912077863" lon="12.259968020435972"><ele>313.0</ele><time>2026-04-26T09:04:51.001Z</time></trkpt><trkpt lat="43.47904539916329" lon="12.26005591911785"><ele>313.0</ele><time>2026-04-26T09:04:52.001Z</time></trkpt><trkpt lat="43.47897107189879" lon="12.260144747061084"><ele>313.0</ele><time>2026-04-26T09:04:53.001Z</time></trkpt><trkpt lat="43.478900499686745" lon="12.260228747185476"><ele>313.0</ele><time>2026-04-26T09:04:54.001Z</time></trkpt><trkpt lat="43.47882566298436" lon="12.260310630297909"><ele>313.0</ele><time>2026-04-26T09:04:55.001Z</time></trkpt><trkpt lat="43.478756461588695" lon="12.260379992590554"><ele>313.0</ele><time>2026-04-26T09:04:56.001Z</time></trkpt><trkpt lat="43.47867682332258" lon="12.260435700660317"><ele>313.0</ele><time>2026-04-26T09:04:57.001Z</time></trkpt><trkpt lat="43.478591505328176" lon="12.260474994585334"><ele>313.0</ele><time>2026-04-26T09:04:58.001Z</time></trkpt><trkpt lat="43.47849090557235" lon="12.26051798928635"><ele>313.0</ele><time>2026-04-26T09:04:59.001Z</time></trkpt><trkpt lat="43.47837875004472" lon="12.260543822899557"><ele>313.0</ele><time>2026-04-26T09:05:00.001Z</time></trkpt><trkpt lat="43.478288941848604" lon="12.260577616742161"><ele>313.0</ele><time>2026-04-26T09:05:01.001Z</time></trkpt><trkpt lat="43.47816965513092" lon="12.260560298218968"><ele>313.0</ele><time>2026-04-26T09:05:02.001Z</time></trkpt><trkpt lat="43.47805911796709" lon="12.260593602863388"><ele>313.0</ele><time>2026-04-26T09:05:03.001Z</time></trkpt><trkpt lat="43.47793820740866" lon="12.260604401527981"><ele>313.0</ele><time>2026-04-26T09:05:04.001Z</time></trkpt><trkpt lat="43.47781615268688" lon="12.260620093577925"><ele>315.2</ele><time>2026-04-26T09:05:05.001Z</time></trkpt><trkpt lat="43.4777084731426" lon="12.26064400858529"><ele>317.4</ele><time>2026-04-26T09:05:06.001Z</time></trkpt><trkpt lat="43.47760359762595" lon="12.260688916096337"><ele>319.59999999999997</ele><time>2026-04-26T09:05:07.001Z</time></trkpt><trkpt lat="43.47751991003568" lon="12.260743301542423"><ele>321.8</ele><time>2026-04-26T09:05:08.001Z</time></trkpt><trkpt lat="43.47742033657464" lon="12.260795118383129"><ele>324.0</ele><time>2026-04-26T09:05:09.001Z</time></trkpt><trkpt lat="43.47732750558519" lon="12.260833929036158"><ele>324.0</ele><time>2026-04-26T09:05:10.001Z</time></trkpt><trkpt lat="43.477240626468415" lon="12.260860965560962"><ele>324.0</ele><time>2026-04-26T09:05:11.001Z</time></trkpt><trkpt lat="43.47715874530372" lon="12.260880303503507"><ele>324.0</ele><time>2026-04-26T09:05:12.001Z</time></trkpt><trkpt lat="43.47705789533402" lon="12.260900865491372"><ele>324.0</ele><time>2026-04-26T09:05:14.001Z</time></trkpt><trkpt lat="43.477098786786314" lon="12.26097512006187"><ele>324.0</ele><time>2026-04-26T09:05:17.001Z</time></trkpt><trkpt lat="43.477227761361725" lon="12.260953204024766"><ele>324.0</ele><time>2026-04-26T09:05:19.001Z</time></trkpt><trkpt lat="43.47730801211974" lon="12.26095528498523"><ele>324.0</ele><time>2026-04-26T09:05:20.001Z</time></trkpt><trkpt lat="43.477393116598314" lon="12.260973016251235"><ele>324.0</ele><time>2026-04-26T09:05:21.001Z</time></trkpt><trkpt lat="43.47748398299491" lon="12.261017854214451"><ele>324.0</ele><time>2026-04-26T09:05:22.001Z</time></trkpt><trkpt lat="43.47757926558181" lon="12.261074869617332"><ele>324.0</ele><time>2026-04-26T09:05:23.001Z</time></trkpt><trkpt lat="43.477664232903834" lon="12.261157661679686"><ele>324.0</ele><time>2026-04-26T09:05:24.001Z</time></trkpt><trkpt lat="43.47777309068994" lon="12.261207311812205"><ele>324.0</ele><time>2026-04-26T09:05:25.001Z</time></trkpt><trkpt lat="43.477871555743604" lon="12.261258032781491"><ele>324.0</ele><time>2026-04-26T09:05:26.001Z</time></trkpt><trkpt lat="43.47794644900079" lon="12.26129414838738"><ele>324.0</ele><time>2026-04-26T09:05:27Z</time></trkpt><trkpt lat="43.478007940349116" lon="12.261333283160134"><ele>324.0</ele><time>2026-04-26T09:05:28Z</time></trkpt><trkpt lat="43.47809068546139" lon="12.26135357183025"><ele>323.6666666666667</ele><time>2026-04-26T09:05:29Z</time></trkpt><trkpt lat="43.47814932972736" lon="12.261391215362005"><ele>323.3333333333333</ele><time>2026-04-26T09:05:30Z</time></trkpt><trkpt lat="43.47820084179006" lon="12.261531157300766"><ele>323.0</ele><time>2026-04-26T09:05:32Z</time></trkpt><trkpt lat="43.47821689719086" lon="12.261695417912547"><ele>322.66666666666663</ele><time>2026-04-26T09:05:34Z</time></trkpt><trkpt lat="43.47828405225506" lon="12.261739647972325"><ele>322.3333333333333</ele><time>2026-04-26T09:05:36Z</time></trkpt><trkpt lat="43.47834640762526" lon="12.261716216759426"><ele>322.0</ele><time>2026-04-26T09:05:37Z</time></trkpt><trkpt lat="43.47841659069511" lon="12.261682468624794"><ele>323.0</ele><time>2026-04-26T09:05:38Z</time></trkpt><trkpt lat="43.478493196945166" lon="12.261691429655857"><ele>324.0</ele><time>2026-04-26T09:05:39Z</time></trkpt><trkpt lat="43.47857158371562" lon="12.261734682778496"><ele>325.0</ele><time>2026-04-26T09:05:40Z</time></trkpt><trkpt lat="43.47863540926501" lon="12.261775312562637"><ele>326.0</ele><time>2026-04-26T09:05:41Z</time></trkpt><trkpt lat="43.4787609774497" lon="12.261846422187437"><ele>327.0</ele><time>2026-04-26T09:05:43Z</time></trkpt><trkpt lat="43.47882939678405" lon="12.261882620710193"><ele>328.0</ele><time>2026-04-26T09:05:44Z</time></trkpt><trkpt lat="43.478882288110256" lon="12.26192984507771"><ele>327.99999999999994</ele><time>2026-04-26T09:05:45Z</time></trkpt><trkpt lat="43.47891437842331" lon="12.262017020799034"><ele>328.0</ele><time>2026-04-26T09:05:46Z</time></trkpt><trkpt lat="43.47893577737845" lon="12.262121236454437"><ele>328.0</ele><time>2026-04-26T09:05:47Z</time></trkpt><trkpt lat="43.4789561926205" lon="12.262208922517772"><ele>328.0</ele><time>2026-04-26T09:05:48Z</time></trkpt><trkpt lat="43.47898706370744" lon="12.26230895243721"><ele>328.0</ele><time>2026-04-26T09:05:49Z</time></trkpt><trkpt lat="43.47901992459606" lon="12.262388472515834"><ele>327.99999999999994</ele><time>2026-04-26T09:05:50Z</time></trkpt><trkpt lat="43.47905453500328" lon="12.262473301422576"><ele>328.0</ele><time>2026-04-26T09:05:51Z</time></trkpt><trkpt lat="43.47903104198407" lon="12.262588897873334"><ele>331.79999999999995</ele><time>2026-04-26T09:05:53Z</time></trkpt><trkpt lat="43.478908088333746" lon="12.262672015769718"><ele>335.6</ele><time>2026-04-26T09:05:55Z</time></trkpt><trkpt lat="43.478820869698296" lon="12.262748733037427"><ele>339.4</ele><time>2026-04-26T09:05:56Z</time></trkpt><trkpt lat="43.47875469476068" lon="12.262825814770197"><ele>343.20000000000005</ele><time>2026-04-26T09:05:57Z</time></trkpt><trkpt lat="43.47871284413588" lon="12.262901060201015"><ele>347.0</ele><time>2026-04-26T09:05:58Z</time></trkpt><trkpt lat="43.47865089198007" lon="12.262971778435322"><ele>348.0</ele><time>2026-04-26T09:05:59Z</time></trkpt><trkpt lat="43.478598379876246" lon="12.263025234797984"><ele>349.0</ele><time>2026-04-26T09:06:00Z</time></trkpt><trkpt lat="43.47848206654005" lon="12.263108595459569"><ele>350.0</ele><time>2026-04-26T09:06:02Z</time></trkpt><trkpt lat="43.47839279693281" lon="12.26314153097657"><ele>351.0</ele><time>2026-04-26T09:06:03Z</time></trkpt><trkpt lat="43.478299394277514" lon="12.263172326023732"><ele>352.0</ele><time>2026-04-26T09:06:04Z</time></trkpt><trkpt lat="43.47820160360495" lon="12.26320789167824"><ele>355.8</ele><time>2026-04-26T09:06:05Z</time></trkpt><trkpt lat="43.47809393562047" lon="12.263240807716441"><ele>359.6</ele><time>2026-04-26T09:06:06Z</time></trkpt><trkpt lat="43.47799863698721" lon="12.263273267052964"><ele>363.40000000000003</ele><time>2026-04-26T09:06:07Z</time></trkpt><trkpt lat="43.47789116694762" lon="12.263299484497232"><ele>367.20000000000005</ele><time>2026-04-26T09:06:08Z</time></trkpt><trkpt lat="43.47776754211358" lon="12.263330494182025"><ele>371.0</ele><time>2026-04-26T09:06:09Z</time></trkpt><trkpt lat="43.4776414060065" lon="12.26335290487628"><ele>371.25</ele><time>2026-04-26T09:06:10Z</time></trkpt><trkpt lat="43.47751147497783" lon="12.263362252748006"><ele>371.5</ele><time>2026-04-26T09:06:11Z</time></trkpt><trkpt lat="43.477391325904776" lon="12.263363025357796"><ele>371.75</ele><time>2026-04-26T09:06:12Z</time></trkpt><trkpt lat="43.47728103318262" lon="12.263359106038418"><ele>372.0</ele><time>2026-04-26T09:06:13Z</time></trkpt><trkpt lat="43.47718560091984" lon="12.263322044044946"><ele>371.6</ele><time>2026-04-26T09:06:14Z</time></trkpt><trkpt lat="43.47708869983864" lon="12.263279457076488"><ele>371.20000000000005</ele><time>2026-04-26T09:06:15Z</time></trkpt><trkpt lat="43.47698033791934" lon="12.263223646006956"><ele>370.8</ele><time>2026-04-26T09:06:16Z</time></trkpt><trkpt lat="43.47688582814977" lon="12.263184968228428"><ele>370.4</ele><time>2026-04-26T09:06:17.001Z</time></trkpt><trkpt lat="43.476791503653814" lon="12.263123233519782"><ele>370.0</ele><time>2026-04-26T09:06:18.001Z</time></trkpt><trkpt lat="43.476685858299206" lon="12.263076649223708"><ele>365.2</ele><time>2026-04-26T09:06:19.001Z</time></trkpt><trkpt lat="43.47659111699215" lon="12.263040961900716"><ele>360.4</ele><time>2026-04-26T09:06:20.001Z</time></trkpt><trkpt lat="43.476484665653764" lon="12.263027659008"><ele>355.6</ele><time>2026-04-26T09:06:21.001Z</time></trkpt><trkpt lat="43.47640020609923" lon="12.263012127916305"><ele>350.8</ele><time>2026-04-26T09:06:22.001Z</time></trkpt><trkpt lat="43.47631759810227" lon="12.26301396514839"><ele>346.0</ele><time>2026-04-26T09:06:23.001Z</time></trkpt><trkpt lat="43.476231222002504" lon="12.263009511599837"><ele>345.20000000000005</ele><time>2026-04-26T09:06:24.001Z</time></trkpt><trkpt lat="43.47615281265991" lon="12.262989934709703"><ele>344.40000000000003</ele><time>2026-04-26T09:06:25.001Z</time></trkpt><trkpt lat="43.47608169252616" lon="12.26298365626677"><ele>343.6</ele><time>2026-04-26T09:06:26.001Z</time></trkpt><trkpt lat="43.47597042714737" lon="12.262957412134366"><ele>342.8</ele><time>2026-04-26T09:06:28.001Z</time></trkpt><trkpt lat="43.47591971156093" lon="12.262889660349952"><ele>342.0</ele><time>2026-04-26T09:06:29.001Z</time></trkpt><trkpt lat="43.47589021141168" lon="12.262728641376436"><ele>342.0</ele><time>2026-04-26T09:06:31.001Z</time></trkpt><trkpt lat="43.47583522758618" lon="12.262624522472159"><ele>342.0</ele><time>2026-04-26T09:06:33.001Z</time></trkpt><trkpt lat="43.47568626213495" lon="12.262665853923082"><ele>342.0</ele><time>2026-04-26T09:06:35.001Z</time></trkpt><trkpt lat="43.475596577406385" lon="12.2627347265673"><ele>342.0</ele><time>2026-04-26T09:06:36.001Z</time></trkpt><trkpt lat="43.4754865346675" lon="12.2628027004581"><ele>340.40000000000003</ele><time>2026-04-26T09:06:37.001Z</time></trkpt><trkpt lat="43.47537811618873" lon="12.262871174778976"><ele>338.8</ele><time>2026-04-26T09:06:38.001Z</time></trkpt><trkpt lat="43.47527006996761" lon="12.262930716753997"><ele>337.2</ele><time>2026-04-26T09:06:39.001Z</time></trkpt><trkpt lat="43.47516567392155" lon="12.26296521812233"><ele>335.6</ele><time>2026-04-26T09:06:40.001Z</time></trkpt><trkpt lat="43.475067656349125" lon="12.262995059569931"><ele>334.0</ele><time>2026-04-26T09:06:41.001Z</time></trkpt><trkpt lat="43.47498477712356" lon="12.26302620572055"><ele>334.0</ele><time>2026-04-26T09:06:42.001Z</time></trkpt><trkpt lat="43.47491782929242" lon="12.263049284837098"><ele>334.0</ele><time>2026-04-26T09:06:43.001Z</time></trkpt><trkpt lat="43.47482297321617" lon="12.263043631187388"><ele>334.0</ele><time>2026-04-26T09:06:45.001Z</time></trkpt><trkpt lat="43.47476010747344" lon="12.263121598475054"><ele>334.0</ele><time>2026-04-26T09:06:48.001Z</time></trkpt><trkpt lat="43.47474633988803" lon="12.263283597154915"><ele>334.0</ele><time>2026-04-26T09:06:50.001Z</time></trkpt><trkpt lat="43.47466679740883" lon="12.263398072629826"><ele>334.3333333333333</ele><time>2026-04-26T09:06:52.001Z</time></trkpt><trkpt lat="43.47460626872465" lon="12.263442850262846"><ele>334.66666666666663</ele><time>2026-04-26T09:06:53.001Z</time></trkpt><trkpt lat="43.47453858122381" lon="12.263500086613478"><ele>335.0</ele><time>2026-04-26T09:06:54.001Z</time></trkpt><trkpt lat="43.47447391488877" lon="12.2635658404839"><ele>335.3333333333333</ele><time>2026-04-26T09:06:55.001Z</time></trkpt><trkpt lat="43.474409909268175" lon="12.263633990706818"><ele>335.6666666666667</ele><time>2026-04-26T09:06:56.001Z</time></trkpt><trkpt lat="43.474350873093904" lon="12.263689606448995"><ele>336.0</ele><time>2026-04-26T09:06:57.001Z</time></trkpt><trkpt lat="43.47429601409111" lon="12.263747485378442"><ele>336.0</ele><time>2026-04-26T09:06:58.001Z</time></trkpt><trkpt lat="43.47424157621693" lon="12.263802626377727"><ele>336.0</ele><time>2026-04-26T09:06:59.001Z</time></trkpt><trkpt lat="43.47418509839044" lon="12.263857913740969"><ele>336.0</ele><time>2026-04-26T09:07:00.001Z</time></trkpt><trkpt lat="43.47409362416789" lon="12.263948889584519"><ele>336.0</ele><time>2026-04-26T09:07:02.001Z</time></trkpt><trkpt lat="43.47403137658943" lon="12.264041066881562"><ele>336.0</ele><time>2026-04-26T09:07:04.001Z</time></trkpt><trkpt lat="43.474049534933165" lon="12.26413687069576"><ele>336.0</ele><time>2026-04-26T09:07:06.001Z</time></trkpt><trkpt lat="43.47396305182769" lon="12.264186191561615"><ele>338.0</ele><time>2026-04-26T09:07:10.001Z</time></trkpt></trkseg></trk></gpx>